<?xml version="1.0" encoding="UTF-8" standalone="no" ?>
<gpx xmlns="http://www.topografix.com/GPX/1/1" xmlns:xsi="http://www.w3.org/2001/XMLSchema-instance" xsi:schemaLocation="http://www.topografix.com/GPX/1/1 http://www.topografix.com/GPX/1/1/gpx.xsd" version="1.1" creator="VisuGPX - https://www.visugpx.com">
  <metadata>
    <name>tredion</name>
    <desc><![CDATA[trédion 2009]]></desc>
  </metadata>
  <trk>
    <name><![CDATA[Track 2]]></name>
    <trkseg>
      <trkpt lat="47.79475" lon="-2.58351">
        <ele>78</ele>
        <time>2007-10-07T06:15:00Z</time>
      </trkpt>
      <trkpt lat="47.79475" lon="-2.58351">
        <ele>78</ele>
        <time>2007-10-07T06:15:01Z</time>
      </trkpt>
      <trkpt lat="47.79475" lon="-2.58351">
        <ele>78</ele>
        <time>2007-10-07T06:15:02Z</time>
      </trkpt>
      <trkpt lat="47.79474" lon="-2.58351">
        <ele>78</ele>
        <time>2007-10-07T06:15:05Z</time>
      </trkpt>
      <trkpt lat="47.79469" lon="-2.58351">
        <ele>78</ele>
        <time>2007-10-07T06:15:08Z</time>
      </trkpt>
      <trkpt lat="47.79468" lon="-2.58351">
        <ele>78</ele>
        <time>2007-10-07T06:15:09Z</time>
      </trkpt>
      <trkpt lat="47.79462" lon="-2.58352">
        <ele>78</ele>
        <time>2007-10-07T06:15:16Z</time>
      </trkpt>
      <trkpt lat="47.79459" lon="-2.58353">
        <ele>78</ele>
        <time>2007-10-07T06:15:19Z</time>
      </trkpt>
      <trkpt lat="47.7945" lon="-2.58341">
        <ele>78</ele>
        <time>2007-10-07T06:15:24Z</time>
      </trkpt>
      <trkpt lat="47.79447" lon="-2.58304">
        <ele>78</ele>
        <time>2007-10-07T06:15:29Z</time>
      </trkpt>
      <trkpt lat="47.79448" lon="-2.58275">
        <ele>77</ele>
        <time>2007-10-07T06:15:32Z</time>
      </trkpt>
      <trkpt lat="47.79448" lon="-2.58265">
        <ele>77</ele>
        <time>2007-10-07T06:15:33Z</time>
      </trkpt>
      <trkpt lat="47.79449" lon="-2.5821">
        <ele>76</ele>
        <time>2007-10-07T06:15:38Z</time>
      </trkpt>
      <trkpt lat="47.79452" lon="-2.58112">
        <ele>76</ele>
        <time>2007-10-07T06:15:47Z</time>
      </trkpt>
      <trkpt lat="47.79451" lon="-2.58049">
        <ele>78</ele>
        <time>2007-10-07T06:15:54Z</time>
      </trkpt>
      <trkpt lat="47.79445" lon="-2.57996">
        <ele>78</ele>
        <time>2007-10-07T06:16:00Z</time>
      </trkpt>
      <trkpt lat="47.7944" lon="-2.57958">
        <ele>78</ele>
        <time>2007-10-07T06:16:05Z</time>
      </trkpt>
      <trkpt lat="47.7944" lon="-2.57953">
        <ele>79</ele>
        <time>2007-10-07T06:16:06Z</time>
      </trkpt>
      <trkpt lat="47.79453" lon="-2.57948">
        <ele>78</ele>
        <time>2007-10-07T06:16:10Z</time>
      </trkpt>
      <trkpt lat="47.79475" lon="-2.57943">
        <ele>78</ele>
        <time>2007-10-07T06:16:14Z</time>
      </trkpt>
      <trkpt lat="47.79512" lon="-2.57925">
        <ele>78</ele>
        <time>2007-10-07T06:16:20Z</time>
      </trkpt>
      <trkpt lat="47.7956" lon="-2.579">
        <ele>77</ele>
        <time>2007-10-07T06:16:27Z</time>
      </trkpt>
      <trkpt lat="47.79614" lon="-2.57879">
        <ele>75</ele>
        <time>2007-10-07T06:16:34Z</time>
      </trkpt>
      <trkpt lat="47.79681" lon="-2.5785">
        <ele>72</ele>
        <time>2007-10-07T06:16:43Z</time>
      </trkpt>
      <trkpt lat="47.79723" lon="-2.57831">
        <ele>69</ele>
        <time>2007-10-07T06:16:49Z</time>
      </trkpt>
      <trkpt lat="47.79728" lon="-2.57828">
        <ele>70</ele>
        <time>2007-10-07T06:16:50Z</time>
      </trkpt>
      <trkpt lat="47.79735" lon="-2.5781">
        <ele>69</ele>
        <time>2007-10-07T06:16:54Z</time>
      </trkpt>
      <trkpt lat="47.79722" lon="-2.57798">
        <ele>69</ele>
        <time>2007-10-07T06:16:58Z</time>
      </trkpt>
      <trkpt lat="47.79711" lon="-2.57803">
        <ele>69</ele>
        <time>2007-10-07T06:17:01Z</time>
      </trkpt>
      <trkpt lat="47.79683" lon="-2.57817">
        <ele>71</ele>
        <time>2007-10-07T06:17:09Z</time>
      </trkpt>
      <trkpt lat="47.79659" lon="-2.57828">
        <ele>72</ele>
        <time>2007-10-07T06:17:16Z</time>
      </trkpt>
      <trkpt lat="47.79641" lon="-2.57829">
        <ele>73</ele>
        <time>2007-10-07T06:17:21Z</time>
      </trkpt>
      <trkpt lat="47.79643" lon="-2.57811">
        <ele>72</ele>
        <time>2007-10-07T06:17:25Z</time>
      </trkpt>
      <trkpt lat="47.7965" lon="-2.57806">
        <ele>72</ele>
        <time>2007-10-07T06:17:27Z</time>
      </trkpt>
      <trkpt lat="47.79682" lon="-2.57794">
        <ele>71</ele>
        <time>2007-10-07T06:17:35Z</time>
      </trkpt>
      <trkpt lat="47.79702" lon="-2.57784">
        <ele>69</ele>
        <time>2007-10-07T06:17:40Z</time>
      </trkpt>
      <trkpt lat="47.79735" lon="-2.57767">
        <ele>68</ele>
        <time>2007-10-07T06:17:47Z</time>
      </trkpt>
      <trkpt lat="47.7974" lon="-2.57763">
        <ele>68</ele>
        <time>2007-10-07T06:17:49Z</time>
      </trkpt>
      <trkpt lat="47.79741" lon="-2.57754">
        <ele>67</ele>
        <time>2007-10-07T06:17:55Z</time>
      </trkpt>
      <trkpt lat="47.79741" lon="-2.57754">
        <ele>67</ele>
        <time>2007-10-07T06:17:56Z</time>
      </trkpt>
      <trkpt lat="47.79741" lon="-2.57753">
        <ele>67</ele>
        <time>2007-10-07T06:18:02Z</time>
      </trkpt>
      <trkpt lat="47.79738" lon="-2.57739">
        <ele>67</ele>
        <time>2007-10-07T06:18:10Z</time>
      </trkpt>
      <trkpt lat="47.79736" lon="-2.57728">
        <ele>66</ele>
        <time>2007-10-07T06:18:19Z</time>
      </trkpt>
      <trkpt lat="47.79735" lon="-2.57724">
        <ele>66</ele>
        <time>2007-10-07T06:18:24Z</time>
      </trkpt>
      <trkpt lat="47.79733" lon="-2.57719">
        <ele>66</ele>
        <time>2007-10-07T06:18:28Z</time>
      </trkpt>
      <trkpt lat="47.79738" lon="-2.57711">
        <ele>66</ele>
        <time>2007-10-07T06:18:34Z</time>
      </trkpt>
      <trkpt lat="47.79741" lon="-2.577">
        <ele>66</ele>
        <time>2007-10-07T06:18:40Z</time>
      </trkpt>
      <trkpt lat="47.79741" lon="-2.5769">
        <ele>66</ele>
        <time>2007-10-07T06:18:47Z</time>
      </trkpt>
      <trkpt lat="47.79742" lon="-2.57689">
        <ele>65</ele>
        <time>2007-10-07T06:18:48Z</time>
      </trkpt>
      <trkpt lat="47.79741" lon="-2.57676">
        <ele>65</ele>
        <time>2007-10-07T06:18:55Z</time>
      </trkpt>
      <trkpt lat="47.79738" lon="-2.57665">
        <ele>64</ele>
        <time>2007-10-07T06:19:01Z</time>
      </trkpt>
      <trkpt lat="47.79738" lon="-2.57662">
        <ele>64</ele>
        <time>2007-10-07T06:19:02Z</time>
      </trkpt>
      <trkpt lat="47.79739" lon="-2.57656">
        <ele>64</ele>
        <time>2007-10-07T06:19:05Z</time>
      </trkpt>
      <trkpt lat="47.79748" lon="-2.57651">
        <ele>65</ele>
        <time>2007-10-07T06:19:10Z</time>
      </trkpt>
      <trkpt lat="47.79755" lon="-2.57648">
        <ele>65</ele>
        <time>2007-10-07T06:19:13Z</time>
      </trkpt>
      <trkpt lat="47.79766" lon="-2.57643">
        <ele>66</ele>
        <time>2007-10-07T06:19:17Z</time>
      </trkpt>
      <trkpt lat="47.79777" lon="-2.57656">
        <ele>67</ele>
        <time>2007-10-07T06:19:22Z</time>
      </trkpt>
      <trkpt lat="47.79783" lon="-2.57667">
        <ele>67</ele>
        <time>2007-10-07T06:19:25Z</time>
      </trkpt>
      <trkpt lat="47.79792" lon="-2.57685">
        <ele>68</ele>
        <time>2007-10-07T06:19:30Z</time>
      </trkpt>
      <trkpt lat="47.79796" lon="-2.57704">
        <ele>68</ele>
        <time>2007-10-07T06:19:34Z</time>
      </trkpt>
      <trkpt lat="47.79801" lon="-2.57735">
        <ele>68</ele>
        <time>2007-10-07T06:19:40Z</time>
      </trkpt>
      <trkpt lat="47.79797" lon="-2.5775">
        <ele>68</ele>
        <time>2007-10-07T06:19:43Z</time>
      </trkpt>
      <trkpt lat="47.79806" lon="-2.57767">
        <ele>69</ele>
        <time>2007-10-07T06:19:48Z</time>
      </trkpt>
      <trkpt lat="47.79816" lon="-2.57761">
        <ele>69</ele>
        <time>2007-10-07T06:19:51Z</time>
      </trkpt>
      <trkpt lat="47.79819" lon="-2.5776">
        <ele>69</ele>
        <time>2007-10-07T06:19:52Z</time>
      </trkpt>
      <trkpt lat="47.79827" lon="-2.57757">
        <ele>68</ele>
        <time>2007-10-07T06:19:54Z</time>
      </trkpt>
      <trkpt lat="47.7984" lon="-2.57739">
        <ele>69</ele>
        <time>2007-10-07T06:19:58Z</time>
      </trkpt>
      <trkpt lat="47.79844" lon="-2.57716">
        <ele>68</ele>
        <time>2007-10-07T06:20:02Z</time>
      </trkpt>
      <trkpt lat="47.79841" lon="-2.57699">
        <ele>68</ele>
        <time>2007-10-07T06:20:06Z</time>
      </trkpt>
      <trkpt lat="47.79846" lon="-2.57682">
        <ele>68</ele>
        <time>2007-10-07T06:20:10Z</time>
      </trkpt>
      <trkpt lat="47.79853" lon="-2.57662">
        <ele>68</ele>
        <time>2007-10-07T06:20:14Z</time>
      </trkpt>
      <trkpt lat="47.79853" lon="-2.57651">
        <ele>68</ele>
        <time>2007-10-07T06:20:16Z</time>
      </trkpt>
      <trkpt lat="47.79851" lon="-2.57633">
        <ele>68</ele>
        <time>2007-10-07T06:20:19Z</time>
      </trkpt>
      <trkpt lat="47.79848" lon="-2.57621">
        <ele>67</ele>
        <time>2007-10-07T06:20:21Z</time>
      </trkpt>
      <trkpt lat="47.7984" lon="-2.57576">
        <ele>66</ele>
        <time>2007-10-07T06:20:27Z</time>
      </trkpt>
      <trkpt lat="47.79827" lon="-2.57552">
        <ele>65</ele>
        <time>2007-10-07T06:20:31Z</time>
      </trkpt>
      <trkpt lat="47.79825" lon="-2.57547">
        <ele>65</ele>
        <time>2007-10-07T06:20:32Z</time>
      </trkpt>
      <trkpt lat="47.79825" lon="-2.5754">
        <ele>64</ele>
        <time>2007-10-07T06:20:33Z</time>
      </trkpt>
      <trkpt lat="47.79825" lon="-2.57526">
        <ele>64</ele>
        <time>2007-10-07T06:20:35Z</time>
      </trkpt>
      <trkpt lat="47.79822" lon="-2.57512">
        <ele>63</ele>
        <time>2007-10-07T06:20:37Z</time>
      </trkpt>
      <trkpt lat="47.79815" lon="-2.57482">
        <ele>61</ele>
        <time>2007-10-07T06:20:41Z</time>
      </trkpt>
      <trkpt lat="47.7981" lon="-2.57462">
        <ele>62</ele>
        <time>2007-10-07T06:20:44Z</time>
      </trkpt>
      <trkpt lat="47.79793" lon="-2.57446">
        <ele>61</ele>
        <time>2007-10-07T06:20:48Z</time>
      </trkpt>
      <trkpt lat="47.7979" lon="-2.5743">
        <ele>61</ele>
        <time>2007-10-07T06:20:50Z</time>
      </trkpt>
      <trkpt lat="47.79799" lon="-2.57403">
        <ele>59</ele>
        <time>2007-10-07T06:20:54Z</time>
      </trkpt>
      <trkpt lat="47.79804" lon="-2.574">
        <ele>59</ele>
        <time>2007-10-07T06:20:55Z</time>
      </trkpt>
      <trkpt lat="47.79844" lon="-2.57383">
        <ele>57</ele>
        <time>2007-10-07T06:21:02Z</time>
      </trkpt>
      <trkpt lat="47.79858" lon="-2.57377">
        <ele>55</ele>
        <time>2007-10-07T06:21:04Z</time>
      </trkpt>
      <trkpt lat="47.79871" lon="-2.5737">
        <ele>53</ele>
        <time>2007-10-07T06:21:06Z</time>
      </trkpt>
      <trkpt lat="47.79881" lon="-2.57368">
        <ele>52</ele>
        <time>2007-10-07T06:21:08Z</time>
      </trkpt>
      <trkpt lat="47.79883" lon="-2.57371">
        <ele>52</ele>
        <time>2007-10-07T06:21:10Z</time>
      </trkpt>
      <trkpt lat="47.79881" lon="-2.57381">
        <ele>53</ele>
        <time>2007-10-07T06:21:15Z</time>
      </trkpt>
      <trkpt lat="47.79887" lon="-2.574">
        <ele>53</ele>
        <time>2007-10-07T06:21:21Z</time>
      </trkpt>
      <trkpt lat="47.79889" lon="-2.57404">
        <ele>54</ele>
        <time>2007-10-07T06:21:22Z</time>
      </trkpt>
      <trkpt lat="47.79903" lon="-2.57407">
        <ele>54</ele>
        <time>2007-10-07T06:21:26Z</time>
      </trkpt>
      <trkpt lat="47.79912" lon="-2.57411">
        <ele>53</ele>
        <time>2007-10-07T06:21:29Z</time>
      </trkpt>
      <trkpt lat="47.79912" lon="-2.57415">
        <ele>53</ele>
        <time>2007-10-07T06:21:30Z</time>
      </trkpt>
      <trkpt lat="47.79914" lon="-2.57436">
        <ele>55</ele>
        <time>2007-10-07T06:21:35Z</time>
      </trkpt>
      <trkpt lat="47.79921" lon="-2.57475">
        <ele>57</ele>
        <time>2007-10-07T06:21:43Z</time>
      </trkpt>
      <trkpt lat="47.79929" lon="-2.57514">
        <ele>59</ele>
        <time>2007-10-07T06:21:51Z</time>
      </trkpt>
      <trkpt lat="47.79939" lon="-2.5755">
        <ele>60</ele>
        <time>2007-10-07T06:21:59Z</time>
      </trkpt>
      <trkpt lat="47.79944" lon="-2.57575">
        <ele>62</ele>
        <time>2007-10-07T06:22:05Z</time>
      </trkpt>
      <trkpt lat="47.79949" lon="-2.57605">
        <ele>63</ele>
        <time>2007-10-07T06:22:12Z</time>
      </trkpt>
      <trkpt lat="47.79954" lon="-2.5763">
        <ele>63</ele>
        <time>2007-10-07T06:22:18Z</time>
      </trkpt>
      <trkpt lat="47.79958" lon="-2.57658">
        <ele>64</ele>
        <time>2007-10-07T06:22:24Z</time>
      </trkpt>
      <trkpt lat="47.79966" lon="-2.57698">
        <ele>64</ele>
        <time>2007-10-07T06:22:32Z</time>
      </trkpt>
      <trkpt lat="47.79973" lon="-2.57736">
        <ele>65</ele>
        <time>2007-10-07T06:22:39Z</time>
      </trkpt>
      <trkpt lat="47.79976" lon="-2.57748">
        <ele>64</ele>
        <time>2007-10-07T06:22:41Z</time>
      </trkpt>
      <trkpt lat="47.79983" lon="-2.57807">
        <ele>63</ele>
        <time>2007-10-07T06:22:50Z</time>
      </trkpt>
      <trkpt lat="47.79984" lon="-2.57822">
        <ele>63</ele>
        <time>2007-10-07T06:22:52Z</time>
      </trkpt>
      <trkpt lat="47.79994" lon="-2.57842">
        <ele>62</ele>
        <time>2007-10-07T06:22:56Z</time>
      </trkpt>
      <trkpt lat="47.80015" lon="-2.57859">
        <ele>59</ele>
        <time>2007-10-07T06:23:00Z</time>
      </trkpt>
      <trkpt lat="47.80021" lon="-2.57866">
        <ele>58</ele>
        <time>2007-10-07T06:23:01Z</time>
      </trkpt>
      <trkpt lat="47.80044" lon="-2.57889">
        <ele>53</ele>
        <time>2007-10-07T06:23:04Z</time>
      </trkpt>
      <trkpt lat="47.80059" lon="-2.57906">
        <ele>50</ele>
        <time>2007-10-07T06:23:06Z</time>
      </trkpt>
      <trkpt lat="47.80077" lon="-2.57935">
        <ele>47</ele>
        <time>2007-10-07T06:23:09Z</time>
      </trkpt>
      <trkpt lat="47.80091" lon="-2.57973">
        <ele>41</ele>
        <time>2007-10-07T06:23:12Z</time>
      </trkpt>
      <trkpt lat="47.80098" lon="-2.57996">
        <ele>38</ele>
        <time>2007-10-07T06:23:14Z</time>
      </trkpt>
      <trkpt lat="47.80109" lon="-2.58005">
        <ele>35</ele>
        <time>2007-10-07T06:23:17Z</time>
      </trkpt>
      <trkpt lat="47.80116" lon="-2.57988">
        <ele>34</ele>
        <time>2007-10-07T06:23:20Z</time>
      </trkpt>
      <trkpt lat="47.80122" lon="-2.57975">
        <ele>34</ele>
        <time>2007-10-07T06:23:22Z</time>
      </trkpt>
      <trkpt lat="47.80139" lon="-2.57938">
        <ele>31</ele>
        <time>2007-10-07T06:23:27Z</time>
      </trkpt>
      <trkpt lat="47.80144" lon="-2.57897">
        <ele>29</ele>
        <time>2007-10-07T06:23:31Z</time>
      </trkpt>
      <trkpt lat="47.80139" lon="-2.57833">
        <ele>29</ele>
        <time>2007-10-07T06:23:38Z</time>
      </trkpt>
      <trkpt lat="47.80138" lon="-2.57824">
        <ele>30</ele>
        <time>2007-10-07T06:23:39Z</time>
      </trkpt>
      <trkpt lat="47.8013" lon="-2.57762">
        <ele>30</ele>
        <time>2007-10-07T06:23:47Z</time>
      </trkpt>
      <trkpt lat="47.80119" lon="-2.57707">
        <ele>30</ele>
        <time>2007-10-07T06:23:54Z</time>
      </trkpt>
      <trkpt lat="47.80109" lon="-2.5765">
        <ele>30</ele>
        <time>2007-10-07T06:24:01Z</time>
      </trkpt>
      <trkpt lat="47.80104" lon="-2.57618">
        <ele>30</ele>
        <time>2007-10-07T06:24:05Z</time>
      </trkpt>
      <trkpt lat="47.8009" lon="-2.57558">
        <ele>31</ele>
        <time>2007-10-07T06:24:13Z</time>
      </trkpt>
      <trkpt lat="47.80069" lon="-2.57503">
        <ele>32</ele>
        <time>2007-10-07T06:24:21Z</time>
      </trkpt>
      <trkpt lat="47.80042" lon="-2.57446">
        <ele>31</ele>
        <time>2007-10-07T06:24:30Z</time>
      </trkpt>
      <trkpt lat="47.8001" lon="-2.57376">
        <ele>32</ele>
        <time>2007-10-07T06:24:41Z</time>
      </trkpt>
      <trkpt lat="47.79985" lon="-2.57342">
        <ele>33</ele>
        <time>2007-10-07T06:24:48Z</time>
      </trkpt>
      <trkpt lat="47.79981" lon="-2.57338">
        <ele>33</ele>
        <time>2007-10-07T06:24:49Z</time>
      </trkpt>
      <trkpt lat="47.79951" lon="-2.573">
        <ele>35</ele>
        <time>2007-10-07T06:24:58Z</time>
      </trkpt>
      <trkpt lat="47.79936" lon="-2.57279">
        <ele>36</ele>
        <time>2007-10-07T06:25:03Z</time>
      </trkpt>
      <trkpt lat="47.7993" lon="-2.57271">
        <ele>36</ele>
        <time>2007-10-07T06:25:05Z</time>
      </trkpt>
      <trkpt lat="47.79922" lon="-2.57277">
        <ele>37</ele>
        <time>2007-10-07T06:25:10Z</time>
      </trkpt>
      <trkpt lat="47.79922" lon="-2.5728">
        <ele>38</ele>
        <time>2007-10-07T06:25:11Z</time>
      </trkpt>
      <trkpt lat="47.79922" lon="-2.57285">
        <ele>38</ele>
        <time>2007-10-07T06:25:13Z</time>
      </trkpt>
      <trkpt lat="47.79921" lon="-2.57291">
        <ele>40</ele>
        <time>2007-10-07T06:25:15Z</time>
      </trkpt>
      <trkpt lat="47.79917" lon="-2.57302">
        <ele>41</ele>
        <time>2007-10-07T06:25:20Z</time>
      </trkpt>
      <trkpt lat="47.79909" lon="-2.57314">
        <ele>43</ele>
        <time>2007-10-07T06:25:26Z</time>
      </trkpt>
      <trkpt lat="47.79902" lon="-2.57324">
        <ele>45</ele>
        <time>2007-10-07T06:25:32Z</time>
      </trkpt>
      <trkpt lat="47.79892" lon="-2.57337">
        <ele>47</ele>
        <time>2007-10-07T06:25:41Z</time>
      </trkpt>
      <trkpt lat="47.79882" lon="-2.57344">
        <ele>49</ele>
        <time>2007-10-07T06:25:49Z</time>
      </trkpt>
      <trkpt lat="47.79871" lon="-2.57349">
        <ele>50</ele>
        <time>2007-10-07T06:25:57Z</time>
      </trkpt>
      <trkpt lat="47.7986" lon="-2.57355">
        <ele>53</ele>
        <time>2007-10-07T06:26:06Z</time>
      </trkpt>
      <trkpt lat="47.79849" lon="-2.5736">
        <ele>54</ele>
        <time>2007-10-07T06:26:14Z</time>
      </trkpt>
      <trkpt lat="47.79844" lon="-2.57363">
        <ele>55</ele>
        <time>2007-10-07T06:26:17Z</time>
      </trkpt>
      <trkpt lat="47.7983" lon="-2.57369">
        <ele>57</ele>
        <time>2007-10-07T06:26:26Z</time>
      </trkpt>
      <trkpt lat="47.79811" lon="-2.57378">
        <ele>57</ele>
        <time>2007-10-07T06:26:36Z</time>
      </trkpt>
      <trkpt lat="47.79787" lon="-2.57389">
        <ele>58</ele>
        <time>2007-10-07T06:26:47Z</time>
      </trkpt>
      <trkpt lat="47.79775" lon="-2.57394">
        <ele>57</ele>
        <time>2007-10-07T06:26:51Z</time>
      </trkpt>
      <trkpt lat="47.79759" lon="-2.57396">
        <ele>57</ele>
        <time>2007-10-07T06:26:56Z</time>
      </trkpt>
      <trkpt lat="47.79748" lon="-2.57394">
        <ele>57</ele>
        <time>2007-10-07T06:27:02Z</time>
      </trkpt>
      <trkpt lat="47.79737" lon="-2.57398">
        <ele>58</ele>
        <time>2007-10-07T06:27:08Z</time>
      </trkpt>
      <trkpt lat="47.7972" lon="-2.57404">
        <ele>59</ele>
        <time>2007-10-07T06:27:17Z</time>
      </trkpt>
      <trkpt lat="47.79709" lon="-2.57411">
        <ele>61</ele>
        <time>2007-10-07T06:27:24Z</time>
      </trkpt>
      <trkpt lat="47.79704" lon="-2.57419">
        <ele>62</ele>
        <time>2007-10-07T06:27:30Z</time>
      </trkpt>
      <trkpt lat="47.79702" lon="-2.57422">
        <ele>63</ele>
        <time>2007-10-07T06:27:32Z</time>
      </trkpt>
      <trkpt lat="47.79694" lon="-2.57435">
        <ele>64</ele>
        <time>2007-10-07T06:27:39Z</time>
      </trkpt>
      <trkpt lat="47.79689" lon="-2.57442">
        <ele>64</ele>
        <time>2007-10-07T06:27:44Z</time>
      </trkpt>
      <trkpt lat="47.79683" lon="-2.57449">
        <ele>65</ele>
        <time>2007-10-07T06:27:48Z</time>
      </trkpt>
      <trkpt lat="47.79669" lon="-2.57457">
        <ele>66</ele>
        <time>2007-10-07T06:27:55Z</time>
      </trkpt>
      <trkpt lat="47.79652" lon="-2.57464">
        <ele>67</ele>
        <time>2007-10-07T06:28:03Z</time>
      </trkpt>
      <trkpt lat="47.79638" lon="-2.5747">
        <ele>68</ele>
        <time>2007-10-07T06:28:10Z</time>
      </trkpt>
      <trkpt lat="47.79624" lon="-2.57472">
        <ele>68</ele>
        <time>2007-10-07T06:28:16Z</time>
      </trkpt>
      <trkpt lat="47.79606" lon="-2.57477">
        <ele>69</ele>
        <time>2007-10-07T06:28:23Z</time>
      </trkpt>
      <trkpt lat="47.79591" lon="-2.5748">
        <ele>69</ele>
        <time>2007-10-07T06:28:29Z</time>
      </trkpt>
      <trkpt lat="47.79574" lon="-2.57474">
        <ele>70</ele>
        <time>2007-10-07T06:28:36Z</time>
      </trkpt>
      <trkpt lat="47.79558" lon="-2.57472">
        <ele>71</ele>
        <time>2007-10-07T06:28:42Z</time>
      </trkpt>
      <trkpt lat="47.79548" lon="-2.57464">
        <ele>71</ele>
        <time>2007-10-07T06:28:46Z</time>
      </trkpt>
      <trkpt lat="47.79531" lon="-2.57448">
        <ele>71</ele>
        <time>2007-10-07T06:28:53Z</time>
      </trkpt>
      <trkpt lat="47.79507" lon="-2.57432">
        <ele>72</ele>
        <time>2007-10-07T06:29:01Z</time>
      </trkpt>
      <trkpt lat="47.79489" lon="-2.57416">
        <ele>71</ele>
        <time>2007-10-07T06:29:07Z</time>
      </trkpt>
      <trkpt lat="47.79473" lon="-2.574">
        <ele>72</ele>
        <time>2007-10-07T06:29:13Z</time>
      </trkpt>
      <trkpt lat="47.7946" lon="-2.5737">
        <ele>71</ele>
        <time>2007-10-07T06:29:20Z</time>
      </trkpt>
      <trkpt lat="47.7945" lon="-2.5734">
        <ele>70</ele>
        <time>2007-10-07T06:29:26Z</time>
      </trkpt>
      <trkpt lat="47.79442" lon="-2.5732">
        <ele>71</ele>
        <time>2007-10-07T06:29:30Z</time>
      </trkpt>
      <trkpt lat="47.79433" lon="-2.57295">
        <ele>73</ele>
        <time>2007-10-07T06:29:36Z</time>
      </trkpt>
      <trkpt lat="47.7942" lon="-2.57278">
        <ele>73</ele>
        <time>2007-10-07T06:29:41Z</time>
      </trkpt>
      <trkpt lat="47.79404" lon="-2.57252">
        <ele>73</ele>
        <time>2007-10-07T06:29:47Z</time>
      </trkpt>
      <trkpt lat="47.79392" lon="-2.57224">
        <ele>73</ele>
        <time>2007-10-07T06:29:52Z</time>
      </trkpt>
      <trkpt lat="47.79388" lon="-2.57198">
        <ele>73</ele>
        <time>2007-10-07T06:29:57Z</time>
      </trkpt>
      <trkpt lat="47.79398" lon="-2.57192">
        <ele>72</ele>
        <time>2007-10-07T06:30:00Z</time>
      </trkpt>
      <trkpt lat="47.79412" lon="-2.57185">
        <ele>72</ele>
        <time>2007-10-07T06:30:03Z</time>
      </trkpt>
      <trkpt lat="47.79426" lon="-2.57178">
        <ele>72</ele>
        <time>2007-10-07T06:30:06Z</time>
      </trkpt>
      <trkpt lat="47.79445" lon="-2.57168">
        <ele>71</ele>
        <time>2007-10-07T06:30:10Z</time>
      </trkpt>
      <trkpt lat="47.79483" lon="-2.57146">
        <ele>70</ele>
        <time>2007-10-07T06:30:17Z</time>
      </trkpt>
      <trkpt lat="47.79528" lon="-2.57118">
        <ele>68</ele>
        <time>2007-10-07T06:30:25Z</time>
      </trkpt>
      <trkpt lat="47.79545" lon="-2.57107">
        <ele>68</ele>
        <time>2007-10-07T06:30:28Z</time>
      </trkpt>
      <trkpt lat="47.79595" lon="-2.57076">
        <ele>66</ele>
        <time>2007-10-07T06:30:36Z</time>
      </trkpt>
      <trkpt lat="47.79608" lon="-2.57067">
        <ele>65</ele>
        <time>2007-10-07T06:30:38Z</time>
      </trkpt>
      <trkpt lat="47.79638" lon="-2.57026">
        <ele>63</ele>
        <time>2007-10-07T06:30:43Z</time>
      </trkpt>
      <trkpt lat="47.79642" lon="-2.57015">
        <ele>63</ele>
        <time>2007-10-07T06:30:44Z</time>
      </trkpt>
      <trkpt lat="47.79652" lon="-2.56981">
        <ele>62</ele>
        <time>2007-10-07T06:30:47Z</time>
      </trkpt>
      <trkpt lat="47.79664" lon="-2.56949">
        <ele>60</ele>
        <time>2007-10-07T06:30:50Z</time>
      </trkpt>
      <trkpt lat="47.79687" lon="-2.56873">
        <ele>58</ele>
        <time>2007-10-07T06:30:57Z</time>
      </trkpt>
      <trkpt lat="47.7969" lon="-2.56862">
        <ele>58</ele>
        <time>2007-10-07T06:30:58Z</time>
      </trkpt>
      <trkpt lat="47.7969" lon="-2.568">
        <ele>56</ele>
        <time>2007-10-07T06:31:03Z</time>
      </trkpt>
      <trkpt lat="47.79677" lon="-2.56723">
        <ele>52</ele>
        <time>2007-10-07T06:31:09Z</time>
      </trkpt>
      <trkpt lat="47.7966" lon="-2.56639">
        <ele>48</ele>
        <time>2007-10-07T06:31:15Z</time>
      </trkpt>
      <trkpt lat="47.79654" lon="-2.5661">
        <ele>47</ele>
        <time>2007-10-07T06:31:17Z</time>
      </trkpt>
      <trkpt lat="47.79649" lon="-2.56568">
        <ele>46</ele>
        <time>2007-10-07T06:31:20Z</time>
      </trkpt>
      <trkpt lat="47.79652" lon="-2.56507">
        <ele>42</ele>
        <time>2007-10-07T06:31:24Z</time>
      </trkpt>
      <trkpt lat="47.79657" lon="-2.56459">
        <ele>38</ele>
        <time>2007-10-07T06:31:27Z</time>
      </trkpt>
      <trkpt lat="47.79666" lon="-2.56391">
        <ele>35</ele>
        <time>2007-10-07T06:31:31Z</time>
      </trkpt>
      <trkpt lat="47.79676" lon="-2.56307">
        <ele>34</ele>
        <time>2007-10-07T06:31:36Z</time>
      </trkpt>
      <trkpt lat="47.79678" lon="-2.56268">
        <ele>36</ele>
        <time>2007-10-07T06:31:39Z</time>
      </trkpt>
      <trkpt lat="47.79679" lon="-2.5625">
        <ele>37</ele>
        <time>2007-10-07T06:31:41Z</time>
      </trkpt>
      <trkpt lat="47.79678" lon="-2.56217">
        <ele>39</ele>
        <time>2007-10-07T06:31:47Z</time>
      </trkpt>
      <trkpt lat="47.79678" lon="-2.56192">
        <ele>40</ele>
        <time>2007-10-07T06:31:52Z</time>
      </trkpt>
      <trkpt lat="47.79677" lon="-2.56142">
        <ele>41</ele>
        <time>2007-10-07T06:32:00Z</time>
      </trkpt>
      <trkpt lat="47.79677" lon="-2.56095">
        <ele>41</ele>
        <time>2007-10-07T06:32:07Z</time>
      </trkpt>
      <trkpt lat="47.79677" lon="-2.56036">
        <ele>41</ele>
        <time>2007-10-07T06:32:15Z</time>
      </trkpt>
      <trkpt lat="47.79678" lon="-2.56003">
        <ele>41</ele>
        <time>2007-10-07T06:32:19Z</time>
      </trkpt>
      <trkpt lat="47.79676" lon="-2.55976">
        <ele>41</ele>
        <time>2007-10-07T06:32:22Z</time>
      </trkpt>
      <trkpt lat="47.79669" lon="-2.55947">
        <ele>42</ele>
        <time>2007-10-07T06:32:26Z</time>
      </trkpt>
      <trkpt lat="47.79655" lon="-2.5591">
        <ele>46</ele>
        <time>2007-10-07T06:32:33Z</time>
      </trkpt>
      <trkpt lat="47.79638" lon="-2.55866">
        <ele>47</ele>
        <time>2007-10-07T06:32:42Z</time>
      </trkpt>
      <trkpt lat="47.79635" lon="-2.55852">
        <ele>47</ele>
        <time>2007-10-07T06:32:45Z</time>
      </trkpt>
      <trkpt lat="47.79624" lon="-2.55846">
        <ele>48</ele>
        <time>2007-10-07T06:32:49Z</time>
      </trkpt>
      <trkpt lat="47.79618" lon="-2.55848">
        <ele>48</ele>
        <time>2007-10-07T06:32:51Z</time>
      </trkpt>
      <trkpt lat="47.79603" lon="-2.55853">
        <ele>51</ele>
        <time>2007-10-07T06:32:58Z</time>
      </trkpt>
      <trkpt lat="47.79589" lon="-2.55864">
        <ele>52</ele>
        <time>2007-10-07T06:33:05Z</time>
      </trkpt>
      <trkpt lat="47.79588" lon="-2.55876">
        <ele>53</ele>
        <time>2007-10-07T06:33:09Z</time>
      </trkpt>
      <trkpt lat="47.79589" lon="-2.55903">
        <ele>53</ele>
        <time>2007-10-07T06:33:16Z</time>
      </trkpt>
      <trkpt lat="47.79585" lon="-2.5592">
        <ele>53</ele>
        <time>2007-10-07T06:33:21Z</time>
      </trkpt>
      <trkpt lat="47.79584" lon="-2.55924">
        <ele>54</ele>
        <time>2007-10-07T06:33:22Z</time>
      </trkpt>
      <trkpt lat="47.79576" lon="-2.55932">
        <ele>54</ele>
        <time>2007-10-07T06:33:27Z</time>
      </trkpt>
      <trkpt lat="47.79562" lon="-2.55928">
        <ele>56</ele>
        <time>2007-10-07T06:33:35Z</time>
      </trkpt>
      <trkpt lat="47.79556" lon="-2.55922">
        <ele>58</ele>
        <time>2007-10-07T06:33:41Z</time>
      </trkpt>
      <trkpt lat="47.79553" lon="-2.55915">
        <ele>58</ele>
        <time>2007-10-07T06:33:46Z</time>
      </trkpt>
      <trkpt lat="47.79549" lon="-2.55905">
        <ele>60</ele>
        <time>2007-10-07T06:33:52Z</time>
      </trkpt>
      <trkpt lat="47.79548" lon="-2.55902">
        <ele>61</ele>
        <time>2007-10-07T06:33:54Z</time>
      </trkpt>
      <trkpt lat="47.79539" lon="-2.55893">
        <ele>62</ele>
        <time>2007-10-07T06:34:02Z</time>
      </trkpt>
      <trkpt lat="47.79538" lon="-2.55892">
        <ele>63</ele>
        <time>2007-10-07T06:34:03Z</time>
      </trkpt>
      <trkpt lat="47.79532" lon="-2.55902">
        <ele>63</ele>
        <time>2007-10-07T06:34:11Z</time>
      </trkpt>
      <trkpt lat="47.79529" lon="-2.5591">
        <ele>64</ele>
        <time>2007-10-07T06:34:17Z</time>
      </trkpt>
      <trkpt lat="47.79526" lon="-2.55917">
        <ele>65</ele>
        <time>2007-10-07T06:34:23Z</time>
      </trkpt>
      <trkpt lat="47.79526" lon="-2.5592">
        <ele>65</ele>
        <time>2007-10-07T06:34:29Z</time>
      </trkpt>
      <trkpt lat="47.79525" lon="-2.55921">
        <ele>65</ele>
        <time>2007-10-07T06:34:30Z</time>
      </trkpt>
      <trkpt lat="47.79526" lon="-2.55924">
        <ele>65</ele>
        <time>2007-10-07T06:34:38Z</time>
      </trkpt>
      <trkpt lat="47.79526" lon="-2.5593">
        <ele>67</ele>
        <time>2007-10-07T06:34:42Z</time>
      </trkpt>
      <trkpt lat="47.79525" lon="-2.55932">
        <ele>67</ele>
        <time>2007-10-07T06:34:45Z</time>
      </trkpt>
      <trkpt lat="47.79526" lon="-2.55935">
        <ele>67</ele>
        <time>2007-10-07T06:34:57Z</time>
      </trkpt>
      <trkpt lat="47.79525" lon="-2.55942">
        <ele>68</ele>
        <time>2007-10-07T06:35:02Z</time>
      </trkpt>
      <trkpt lat="47.79524" lon="-2.55943">
        <ele>68</ele>
        <time>2007-10-07T06:35:04Z</time>
      </trkpt>
      <trkpt lat="47.79524" lon="-2.55944">
        <ele>68</ele>
        <time>2007-10-07T06:35:08Z</time>
      </trkpt>
      <trkpt lat="47.79523" lon="-2.55946">
        <ele>69</ele>
        <time>2007-10-07T06:35:09Z</time>
      </trkpt>
      <trkpt lat="47.79523" lon="-2.55946">
        <ele>69</ele>
        <time>2007-10-07T06:35:10Z</time>
      </trkpt>
      <trkpt lat="47.79521" lon="-2.55948">
        <ele>68</ele>
        <time>2007-10-07T06:35:23Z</time>
      </trkpt>
      <trkpt lat="47.79521" lon="-2.5595">
        <ele>68</ele>
        <time>2007-10-07T06:35:24Z</time>
      </trkpt>
      <trkpt lat="47.79517" lon="-2.5596">
        <ele>69</ele>
        <time>2007-10-07T06:35:31Z</time>
      </trkpt>
      <trkpt lat="47.79511" lon="-2.55969">
        <ele>71</ele>
        <time>2007-10-07T06:35:39Z</time>
      </trkpt>
      <trkpt lat="47.7951" lon="-2.55972">
        <ele>71</ele>
        <time>2007-10-07T06:35:43Z</time>
      </trkpt>
      <trkpt lat="47.79509" lon="-2.55973">
        <ele>71</ele>
        <time>2007-10-07T06:35:54Z</time>
      </trkpt>
      <trkpt lat="47.79505" lon="-2.55983">
        <ele>72</ele>
        <time>2007-10-07T06:35:59Z</time>
      </trkpt>
      <trkpt lat="47.795" lon="-2.55993">
        <ele>73</ele>
        <time>2007-10-07T06:36:04Z</time>
      </trkpt>
      <trkpt lat="47.7949" lon="-2.56001">
        <ele>73</ele>
        <time>2007-10-07T06:36:10Z</time>
      </trkpt>
      <trkpt lat="47.79479" lon="-2.56011">
        <ele>74</ele>
        <time>2007-10-07T06:36:17Z</time>
      </trkpt>
      <trkpt lat="47.7947" lon="-2.56023">
        <ele>72</ele>
        <time>2007-10-07T06:36:22Z</time>
      </trkpt>
      <trkpt lat="47.79468" lon="-2.56025">
        <ele>73</ele>
        <time>2007-10-07T06:36:23Z</time>
      </trkpt>
      <trkpt lat="47.79463" lon="-2.56021">
        <ele>74</ele>
        <time>2007-10-07T06:36:28Z</time>
      </trkpt>
      <trkpt lat="47.79458" lon="-2.56003">
        <ele>75</ele>
        <time>2007-10-07T06:36:36Z</time>
      </trkpt>
      <trkpt lat="47.79453" lon="-2.5599">
        <ele>76</ele>
        <time>2007-10-07T06:36:42Z</time>
      </trkpt>
      <trkpt lat="47.79448" lon="-2.55981">
        <ele>77</ele>
        <time>2007-10-07T06:36:47Z</time>
      </trkpt>
      <trkpt lat="47.79443" lon="-2.55974">
        <ele>77</ele>
        <time>2007-10-07T06:36:52Z</time>
      </trkpt>
      <trkpt lat="47.79434" lon="-2.55957">
        <ele>79</ele>
        <time>2007-10-07T06:37:00Z</time>
      </trkpt>
      <trkpt lat="47.79435" lon="-2.55936">
        <ele>79</ele>
        <time>2007-10-07T06:37:07Z</time>
      </trkpt>
      <trkpt lat="47.79437" lon="-2.55919">
        <ele>79</ele>
        <time>2007-10-07T06:37:12Z</time>
      </trkpt>
      <trkpt lat="47.79434" lon="-2.55899">
        <ele>79</ele>
        <time>2007-10-07T06:37:18Z</time>
      </trkpt>
      <trkpt lat="47.7943" lon="-2.55872">
        <ele>79</ele>
        <time>2007-10-07T06:37:26Z</time>
      </trkpt>
      <trkpt lat="47.79422" lon="-2.5584">
        <ele>81</ele>
        <time>2007-10-07T06:37:35Z</time>
      </trkpt>
      <trkpt lat="47.79417" lon="-2.55819">
        <ele>81</ele>
        <time>2007-10-07T06:37:41Z</time>
      </trkpt>
      <trkpt lat="47.79412" lon="-2.55799">
        <ele>80</ele>
        <time>2007-10-07T06:37:45Z</time>
      </trkpt>
      <trkpt lat="47.79405" lon="-2.55765">
        <ele>81</ele>
        <time>2007-10-07T06:37:52Z</time>
      </trkpt>
      <trkpt lat="47.79399" lon="-2.55738">
        <ele>80</ele>
        <time>2007-10-07T06:37:57Z</time>
      </trkpt>
      <trkpt lat="47.79393" lon="-2.55708">
        <ele>80</ele>
        <time>2007-10-07T06:38:03Z</time>
      </trkpt>
      <trkpt lat="47.79387" lon="-2.55676">
        <ele>79</ele>
        <time>2007-10-07T06:38:09Z</time>
      </trkpt>
      <trkpt lat="47.79384" lon="-2.5564">
        <ele>77</ele>
        <time>2007-10-07T06:38:14Z</time>
      </trkpt>
      <trkpt lat="47.79391" lon="-2.55623">
        <ele>76</ele>
        <time>2007-10-07T06:38:16Z</time>
      </trkpt>
      <trkpt lat="47.79413" lon="-2.55571">
        <ele>72</ele>
        <time>2007-10-07T06:38:21Z</time>
      </trkpt>
      <trkpt lat="47.7943" lon="-2.55532">
        <ele>69</ele>
        <time>2007-10-07T06:38:25Z</time>
      </trkpt>
      <trkpt lat="47.79436" lon="-2.55515">
        <ele>68</ele>
        <time>2007-10-07T06:38:27Z</time>
      </trkpt>
      <trkpt lat="47.79435" lon="-2.55489">
        <ele>67</ele>
        <time>2007-10-07T06:38:30Z</time>
      </trkpt>
      <trkpt lat="47.79433" lon="-2.55482">
        <ele>68</ele>
        <time>2007-10-07T06:38:31Z</time>
      </trkpt>
      <trkpt lat="47.79423" lon="-2.55446">
        <ele>69</ele>
        <time>2007-10-07T06:38:37Z</time>
      </trkpt>
      <trkpt lat="47.79421" lon="-2.55416">
        <ele>67</ele>
        <time>2007-10-07T06:38:41Z</time>
      </trkpt>
      <trkpt lat="47.7941" lon="-2.55364">
        <ele>64</ele>
        <time>2007-10-07T06:38:46Z</time>
      </trkpt>
      <trkpt lat="47.79406" lon="-2.55353">
        <ele>64</ele>
        <time>2007-10-07T06:38:47Z</time>
      </trkpt>
      <trkpt lat="47.79384" lon="-2.55309">
        <ele>61</ele>
        <time>2007-10-07T06:38:51Z</time>
      </trkpt>
      <trkpt lat="47.79377" lon="-2.55299">
        <ele>61</ele>
        <time>2007-10-07T06:38:52Z</time>
      </trkpt>
      <trkpt lat="47.79364" lon="-2.5525">
        <ele>59</ele>
        <time>2007-10-07T06:38:56Z</time>
      </trkpt>
      <trkpt lat="47.79365" lon="-2.55224">
        <ele>59</ele>
        <time>2007-10-07T06:38:58Z</time>
      </trkpt>
      <trkpt lat="47.79369" lon="-2.55189">
        <ele>57</ele>
        <time>2007-10-07T06:39:01Z</time>
      </trkpt>
      <trkpt lat="47.79369" lon="-2.55136">
        <ele>57</ele>
        <time>2007-10-07T06:39:06Z</time>
      </trkpt>
      <trkpt lat="47.79367" lon="-2.55108">
        <ele>56</ele>
        <time>2007-10-07T06:39:10Z</time>
      </trkpt>
      <trkpt lat="47.79365" lon="-2.55072">
        <ele>55</ele>
        <time>2007-10-07T06:39:14Z</time>
      </trkpt>
      <trkpt lat="47.79361" lon="-2.55037">
        <ele>55</ele>
        <time>2007-10-07T06:39:18Z</time>
      </trkpt>
      <trkpt lat="47.79359" lon="-2.54999">
        <ele>53</ele>
        <time>2007-10-07T06:39:22Z</time>
      </trkpt>
      <trkpt lat="47.79359" lon="-2.5499">
        <ele>53</ele>
        <time>2007-10-07T06:39:23Z</time>
      </trkpt>
      <trkpt lat="47.79369" lon="-2.54945">
        <ele>49</ele>
        <time>2007-10-07T06:39:27Z</time>
      </trkpt>
      <trkpt lat="47.79373" lon="-2.54933">
        <ele>47</ele>
        <time>2007-10-07T06:39:28Z</time>
      </trkpt>
      <trkpt lat="47.79379" lon="-2.5491">
        <ele>45</ele>
        <time>2007-10-07T06:39:30Z</time>
      </trkpt>
      <trkpt lat="47.79385" lon="-2.54875">
        <ele>44</ele>
        <time>2007-10-07T06:39:33Z</time>
      </trkpt>
      <trkpt lat="47.79389" lon="-2.54826">
        <ele>40</ele>
        <time>2007-10-07T06:39:37Z</time>
      </trkpt>
      <trkpt lat="47.79388" lon="-2.54797">
        <ele>38</ele>
        <time>2007-10-07T06:39:39Z</time>
      </trkpt>
      <trkpt lat="47.7939" lon="-2.54769">
        <ele>36</ele>
        <time>2007-10-07T06:39:41Z</time>
      </trkpt>
      <trkpt lat="47.79388" lon="-2.54729">
        <ele>34</ele>
        <time>2007-10-07T06:39:44Z</time>
      </trkpt>
      <trkpt lat="47.79376" lon="-2.54664">
        <ele>31</ele>
        <time>2007-10-07T06:39:50Z</time>
      </trkpt>
      <trkpt lat="47.79373" lon="-2.54654">
        <ele>31</ele>
        <time>2007-10-07T06:39:51Z</time>
      </trkpt>
      <trkpt lat="47.79369" lon="-2.54635">
        <ele>31</ele>
        <time>2007-10-07T06:39:53Z</time>
      </trkpt>
      <trkpt lat="47.79363" lon="-2.54596">
        <ele>29</ele>
        <time>2007-10-07T06:39:58Z</time>
      </trkpt>
      <trkpt lat="47.7936" lon="-2.54582">
        <ele>28</ele>
        <time>2007-10-07T06:40:00Z</time>
      </trkpt>
      <trkpt lat="47.79352" lon="-2.54546">
        <ele>28</ele>
        <time>2007-10-07T06:40:05Z</time>
      </trkpt>
      <trkpt lat="47.79345" lon="-2.54521">
        <ele>28</ele>
        <time>2007-10-07T06:40:09Z</time>
      </trkpt>
      <trkpt lat="47.79341" lon="-2.54496">
        <ele>27</ele>
        <time>2007-10-07T06:40:13Z</time>
      </trkpt>
      <trkpt lat="47.79338" lon="-2.54474">
        <ele>28</ele>
        <time>2007-10-07T06:40:17Z</time>
      </trkpt>
      <trkpt lat="47.79333" lon="-2.54443">
        <ele>28</ele>
        <time>2007-10-07T06:40:23Z</time>
      </trkpt>
      <trkpt lat="47.79332" lon="-2.54419">
        <ele>27</ele>
        <time>2007-10-07T06:40:27Z</time>
      </trkpt>
      <trkpt lat="47.79332" lon="-2.54407">
        <ele>27</ele>
        <time>2007-10-07T06:40:29Z</time>
      </trkpt>
      <trkpt lat="47.79336" lon="-2.54369">
        <ele>27</ele>
        <time>2007-10-07T06:40:34Z</time>
      </trkpt>
      <trkpt lat="47.79338" lon="-2.54355">
        <ele>26</ele>
        <time>2007-10-07T06:40:36Z</time>
      </trkpt>
      <trkpt lat="47.79339" lon="-2.54332">
        <ele>25</ele>
        <time>2007-10-07T06:40:38Z</time>
      </trkpt>
      <trkpt lat="47.7934" lon="-2.54322">
        <ele>25</ele>
        <time>2007-10-07T06:40:39Z</time>
      </trkpt>
      <trkpt lat="47.79341" lon="-2.54303">
        <ele>24</ele>
        <time>2007-10-07T06:40:41Z</time>
      </trkpt>
      <trkpt lat="47.79342" lon="-2.54282">
        <ele>23</ele>
        <time>2007-10-07T06:40:43Z</time>
      </trkpt>
      <trkpt lat="47.79344" lon="-2.54245">
        <ele>21</ele>
        <time>2007-10-07T06:40:48Z</time>
      </trkpt>
      <trkpt lat="47.79344" lon="-2.54237">
        <ele>21</ele>
        <time>2007-10-07T06:40:52Z</time>
      </trkpt>
      <trkpt lat="47.79344" lon="-2.54234">
        <ele>21</ele>
        <time>2007-10-07T06:40:54Z</time>
      </trkpt>
      <trkpt lat="47.79346" lon="-2.54234">
        <ele>21</ele>
        <time>2007-10-07T06:40:59Z</time>
      </trkpt>
      <trkpt lat="47.79346" lon="-2.5423">
        <ele>21</ele>
        <time>2007-10-07T06:41:01Z</time>
      </trkpt>
      <trkpt lat="47.79343" lon="-2.54226">
        <ele>22</ele>
        <time>2007-10-07T06:41:07Z</time>
      </trkpt>
      <trkpt lat="47.79338" lon="-2.54224">
        <ele>24</ele>
        <time>2007-10-07T06:41:14Z</time>
      </trkpt>
      <trkpt lat="47.79337" lon="-2.54224">
        <ele>24</ele>
        <time>2007-10-07T06:41:17Z</time>
      </trkpt>
      <trkpt lat="47.79337" lon="-2.54222">
        <ele>24</ele>
        <time>2007-10-07T06:41:18Z</time>
      </trkpt>
      <trkpt lat="47.79336" lon="-2.54221">
        <ele>24</ele>
        <time>2007-10-07T06:41:21Z</time>
      </trkpt>
      <trkpt lat="47.79335" lon="-2.5422">
        <ele>24</ele>
        <time>2007-10-07T06:41:22Z</time>
      </trkpt>
      <trkpt lat="47.7933" lon="-2.54216">
        <ele>25</ele>
        <time>2007-10-07T06:41:25Z</time>
      </trkpt>
      <trkpt lat="47.79328" lon="-2.54216">
        <ele>25</ele>
        <time>2007-10-07T06:41:26Z</time>
      </trkpt>
      <trkpt lat="47.79322" lon="-2.54216">
        <ele>26</ele>
        <time>2007-10-07T06:41:30Z</time>
      </trkpt>
      <trkpt lat="47.79313" lon="-2.54215">
        <ele>27</ele>
        <time>2007-10-07T06:41:36Z</time>
      </trkpt>
      <trkpt lat="47.79308" lon="-2.54216">
        <ele>28</ele>
        <time>2007-10-07T06:41:42Z</time>
      </trkpt>
      <trkpt lat="47.79302" lon="-2.54218">
        <ele>28</ele>
        <time>2007-10-07T06:41:47Z</time>
      </trkpt>
      <trkpt lat="47.79293" lon="-2.54221">
        <ele>31</ele>
        <time>2007-10-07T06:41:54Z</time>
      </trkpt>
      <trkpt lat="47.7929" lon="-2.54222">
        <ele>31</ele>
        <time>2007-10-07T06:41:58Z</time>
      </trkpt>
      <trkpt lat="47.79285" lon="-2.54223">
        <ele>32</ele>
        <time>2007-10-07T06:42:09Z</time>
      </trkpt>
      <trkpt lat="47.79285" lon="-2.54223">
        <ele>32</ele>
        <time>2007-10-07T06:42:10Z</time>
      </trkpt>
      <trkpt lat="47.79282" lon="-2.54222">
        <ele>32</ele>
        <time>2007-10-07T06:42:14Z</time>
      </trkpt>
      <trkpt lat="47.7928" lon="-2.54221">
        <ele>32</ele>
        <time>2007-10-07T06:42:15Z</time>
      </trkpt>
      <trkpt lat="47.79278" lon="-2.54223">
        <ele>32</ele>
        <time>2007-10-07T06:42:16Z</time>
      </trkpt>
      <trkpt lat="47.79279" lon="-2.54225">
        <ele>33</ele>
        <time>2007-10-07T06:42:21Z</time>
      </trkpt>
      <trkpt lat="47.79278" lon="-2.54226">
        <ele>33</ele>
        <time>2007-10-07T06:42:22Z</time>
      </trkpt>
      <trkpt lat="47.79277" lon="-2.54227">
        <ele>34</ele>
        <time>2007-10-07T06:42:23Z</time>
      </trkpt>
      <trkpt lat="47.79276" lon="-2.54227">
        <ele>33</ele>
        <time>2007-10-07T06:42:26Z</time>
      </trkpt>
      <trkpt lat="47.79273" lon="-2.54225">
        <ele>34</ele>
        <time>2007-10-07T06:42:29Z</time>
      </trkpt>
      <trkpt lat="47.7927" lon="-2.54223">
        <ele>36</ele>
        <time>2007-10-07T06:42:35Z</time>
      </trkpt>
      <trkpt lat="47.79265" lon="-2.54224">
        <ele>37</ele>
        <time>2007-10-07T06:42:41Z</time>
      </trkpt>
      <trkpt lat="47.79254" lon="-2.54224">
        <ele>37</ele>
        <time>2007-10-07T06:42:48Z</time>
      </trkpt>
      <trkpt lat="47.79253" lon="-2.54224">
        <ele>37</ele>
        <time>2007-10-07T06:42:49Z</time>
      </trkpt>
      <trkpt lat="47.79251" lon="-2.54225">
        <ele>37</ele>
        <time>2007-10-07T06:42:52Z</time>
      </trkpt>
      <trkpt lat="47.79247" lon="-2.54224">
        <ele>38</ele>
        <time>2007-10-07T06:42:56Z</time>
      </trkpt>
      <trkpt lat="47.79241" lon="-2.54225">
        <ele>40</ele>
        <time>2007-10-07T06:43:03Z</time>
      </trkpt>
      <trkpt lat="47.7924" lon="-2.54225">
        <ele>40</ele>
        <time>2007-10-07T06:43:04Z</time>
      </trkpt>
      <trkpt lat="47.79235" lon="-2.54224">
        <ele>41</ele>
        <time>2007-10-07T06:43:11Z</time>
      </trkpt>
      <trkpt lat="47.79231" lon="-2.54223">
        <ele>41</ele>
        <time>2007-10-07T06:43:17Z</time>
      </trkpt>
      <trkpt lat="47.79229" lon="-2.54221">
        <ele>42</ele>
        <time>2007-10-07T06:43:20Z</time>
      </trkpt>
      <trkpt lat="47.79228" lon="-2.54221">
        <ele>41</ele>
        <time>2007-10-07T06:43:23Z</time>
      </trkpt>
      <trkpt lat="47.79225" lon="-2.54219">
        <ele>41</ele>
        <time>2007-10-07T06:43:25Z</time>
      </trkpt>
      <trkpt lat="47.79219" lon="-2.54215">
        <ele>42</ele>
        <time>2007-10-07T06:43:31Z</time>
      </trkpt>
      <trkpt lat="47.79212" lon="-2.54214">
        <ele>43</ele>
        <time>2007-10-07T06:43:38Z</time>
      </trkpt>
      <trkpt lat="47.79209" lon="-2.54213">
        <ele>44</ele>
        <time>2007-10-07T06:43:43Z</time>
      </trkpt>
      <trkpt lat="47.79203" lon="-2.5421">
        <ele>45</ele>
        <time>2007-10-07T06:43:51Z</time>
      </trkpt>
      <trkpt lat="47.79195" lon="-2.54207">
        <ele>46</ele>
        <time>2007-10-07T06:43:58Z</time>
      </trkpt>
      <trkpt lat="47.7919" lon="-2.54203">
        <ele>47</ele>
        <time>2007-10-07T06:44:04Z</time>
      </trkpt>
      <trkpt lat="47.7918" lon="-2.54201">
        <ele>48</ele>
        <time>2007-10-07T06:44:12Z</time>
      </trkpt>
      <trkpt lat="47.79176" lon="-2.542">
        <ele>48</ele>
        <time>2007-10-07T06:44:17Z</time>
      </trkpt>
      <trkpt lat="47.79176" lon="-2.542">
        <ele>48</ele>
        <time>2007-10-07T06:44:20Z</time>
      </trkpt>
      <trkpt lat="47.79175" lon="-2.542">
        <ele>48</ele>
        <time>2007-10-07T06:44:21Z</time>
      </trkpt>
      <trkpt lat="47.79174" lon="-2.54199">
        <ele>48</ele>
        <time>2007-10-07T06:44:28Z</time>
      </trkpt>
      <trkpt lat="47.79169" lon="-2.54201">
        <ele>48</ele>
        <time>2007-10-07T06:44:30Z</time>
      </trkpt>
      <trkpt lat="47.79166" lon="-2.54194">
        <ele>49</ele>
        <time>2007-10-07T06:44:34Z</time>
      </trkpt>
      <trkpt lat="47.79161" lon="-2.54173">
        <ele>48</ele>
        <time>2007-10-07T06:44:40Z</time>
      </trkpt>
      <trkpt lat="47.79159" lon="-2.54168">
        <ele>49</ele>
        <time>2007-10-07T06:44:42Z</time>
      </trkpt>
      <trkpt lat="47.79149" lon="-2.54163">
        <ele>49</ele>
        <time>2007-10-07T06:44:48Z</time>
      </trkpt>
      <trkpt lat="47.79139" lon="-2.54156">
        <ele>51</ele>
        <time>2007-10-07T06:44:55Z</time>
      </trkpt>
      <trkpt lat="47.79134" lon="-2.54146">
        <ele>51</ele>
        <time>2007-10-07T06:44:59Z</time>
      </trkpt>
      <trkpt lat="47.79121" lon="-2.54137">
        <ele>51</ele>
        <time>2007-10-07T06:45:05Z</time>
      </trkpt>
      <trkpt lat="47.79108" lon="-2.54126">
        <ele>52</ele>
        <time>2007-10-07T06:45:11Z</time>
      </trkpt>
      <trkpt lat="47.79093" lon="-2.54119">
        <ele>52</ele>
        <time>2007-10-07T06:45:16Z</time>
      </trkpt>
      <trkpt lat="47.79078" lon="-2.54116">
        <ele>53</ele>
        <time>2007-10-07T06:45:21Z</time>
      </trkpt>
      <trkpt lat="47.79063" lon="-2.54119">
        <ele>53</ele>
        <time>2007-10-07T06:45:27Z</time>
      </trkpt>
      <trkpt lat="47.79053" lon="-2.5412">
        <ele>53</ele>
        <time>2007-10-07T06:45:32Z</time>
      </trkpt>
      <trkpt lat="47.79045" lon="-2.54126">
        <ele>54</ele>
        <time>2007-10-07T06:45:36Z</time>
      </trkpt>
      <trkpt lat="47.7903" lon="-2.54127">
        <ele>55</ele>
        <time>2007-10-07T06:45:43Z</time>
      </trkpt>
      <trkpt lat="47.79024" lon="-2.54134">
        <ele>56</ele>
        <time>2007-10-07T06:45:48Z</time>
      </trkpt>
      <trkpt lat="47.79017" lon="-2.54145">
        <ele>57</ele>
        <time>2007-10-07T06:45:53Z</time>
      </trkpt>
      <trkpt lat="47.79011" lon="-2.54155">
        <ele>58</ele>
        <time>2007-10-07T06:45:57Z</time>
      </trkpt>
      <trkpt lat="47.79008" lon="-2.54158">
        <ele>59</ele>
        <time>2007-10-07T06:45:59Z</time>
      </trkpt>
      <trkpt lat="47.79002" lon="-2.54173">
        <ele>59</ele>
        <time>2007-10-07T06:46:05Z</time>
      </trkpt>
      <trkpt lat="47.78997" lon="-2.54184">
        <ele>60</ele>
        <time>2007-10-07T06:46:09Z</time>
      </trkpt>
      <trkpt lat="47.78996" lon="-2.54186">
        <ele>60</ele>
        <time>2007-10-07T06:46:10Z</time>
      </trkpt>
      <trkpt lat="47.78996" lon="-2.54203">
        <ele>60</ele>
        <time>2007-10-07T06:46:16Z</time>
      </trkpt>
      <trkpt lat="47.79" lon="-2.54221">
        <ele>60</ele>
        <time>2007-10-07T06:46:21Z</time>
      </trkpt>
      <trkpt lat="47.79006" lon="-2.54231">
        <ele>60</ele>
        <time>2007-10-07T06:46:25Z</time>
      </trkpt>
      <trkpt lat="47.79008" lon="-2.54235">
        <ele>61</ele>
        <time>2007-10-07T06:46:27Z</time>
      </trkpt>
      <trkpt lat="47.79007" lon="-2.54252">
        <ele>61</ele>
        <time>2007-10-07T06:46:33Z</time>
      </trkpt>
      <trkpt lat="47.79" lon="-2.54268">
        <ele>62</ele>
        <time>2007-10-07T06:46:38Z</time>
      </trkpt>
      <trkpt lat="47.78997" lon="-2.54273">
        <ele>62</ele>
        <time>2007-10-07T06:46:40Z</time>
      </trkpt>
      <trkpt lat="47.78989" lon="-2.54294">
        <ele>62</ele>
        <time>2007-10-07T06:46:48Z</time>
      </trkpt>
      <trkpt lat="47.78979" lon="-2.54315">
        <ele>63</ele>
        <time>2007-10-07T06:46:54Z</time>
      </trkpt>
      <trkpt lat="47.78973" lon="-2.54328">
        <ele>63</ele>
        <time>2007-10-07T06:46:59Z</time>
      </trkpt>
      <trkpt lat="47.78967" lon="-2.54346">
        <ele>64</ele>
        <time>2007-10-07T06:47:04Z</time>
      </trkpt>
      <trkpt lat="47.78961" lon="-2.54364">
        <ele>64</ele>
        <time>2007-10-07T06:47:09Z</time>
      </trkpt>
      <trkpt lat="47.78958" lon="-2.54384">
        <ele>65</ele>
        <time>2007-10-07T06:47:15Z</time>
      </trkpt>
      <trkpt lat="47.7895" lon="-2.54409">
        <ele>65</ele>
        <time>2007-10-07T06:47:22Z</time>
      </trkpt>
      <trkpt lat="47.78947" lon="-2.54433">
        <ele>65</ele>
        <time>2007-10-07T06:47:28Z</time>
      </trkpt>
      <trkpt lat="47.78942" lon="-2.54456">
        <ele>66</ele>
        <time>2007-10-07T06:47:34Z</time>
      </trkpt>
      <trkpt lat="47.78939" lon="-2.54465">
        <ele>66</ele>
        <time>2007-10-07T06:47:37Z</time>
      </trkpt>
      <trkpt lat="47.78938" lon="-2.54472">
        <ele>67</ele>
        <time>2007-10-07T06:47:39Z</time>
      </trkpt>
      <trkpt lat="47.78925" lon="-2.54491">
        <ele>68</ele>
        <time>2007-10-07T06:47:45Z</time>
      </trkpt>
      <trkpt lat="47.78921" lon="-2.54503">
        <ele>69</ele>
        <time>2007-10-07T06:47:49Z</time>
      </trkpt>
      <trkpt lat="47.7891" lon="-2.54519">
        <ele>69</ele>
        <time>2007-10-07T06:47:54Z</time>
      </trkpt>
      <trkpt lat="47.78909" lon="-2.54538">
        <ele>70</ele>
        <time>2007-10-07T06:48:00Z</time>
      </trkpt>
      <trkpt lat="47.78916" lon="-2.54542">
        <ele>70</ele>
        <time>2007-10-07T06:48:04Z</time>
      </trkpt>
      <trkpt lat="47.78928" lon="-2.54546">
        <ele>72</ele>
        <time>2007-10-07T06:48:11Z</time>
      </trkpt>
      <trkpt lat="47.7894" lon="-2.54554">
        <ele>73</ele>
        <time>2007-10-07T06:48:18Z</time>
      </trkpt>
      <trkpt lat="47.78948" lon="-2.54569">
        <ele>74</ele>
        <time>2007-10-07T06:48:25Z</time>
      </trkpt>
      <trkpt lat="47.7895" lon="-2.54572">
        <ele>75</ele>
        <time>2007-10-07T06:48:27Z</time>
      </trkpt>
      <trkpt lat="47.78961" lon="-2.5458">
        <ele>76</ele>
        <time>2007-10-07T06:48:35Z</time>
      </trkpt>
      <trkpt lat="47.78968" lon="-2.54583">
        <ele>78</ele>
        <time>2007-10-07T06:48:40Z</time>
      </trkpt>
      <trkpt lat="47.78973" lon="-2.54586">
        <ele>78</ele>
        <time>2007-10-07T06:48:44Z</time>
      </trkpt>
      <trkpt lat="47.78979" lon="-2.54598">
        <ele>80</ele>
        <time>2007-10-07T06:48:51Z</time>
      </trkpt>
      <trkpt lat="47.78977" lon="-2.54613">
        <ele>80</ele>
        <time>2007-10-07T06:48:58Z</time>
      </trkpt>
      <trkpt lat="47.78977" lon="-2.54631">
        <ele>80</ele>
        <time>2007-10-07T06:49:04Z</time>
      </trkpt>
      <trkpt lat="47.78975" lon="-2.54649">
        <ele>81</ele>
        <time>2007-10-07T06:49:10Z</time>
      </trkpt>
      <trkpt lat="47.78971" lon="-2.54666">
        <ele>81</ele>
        <time>2007-10-07T06:49:16Z</time>
      </trkpt>
      <trkpt lat="47.78967" lon="-2.54685">
        <ele>82</ele>
        <time>2007-10-07T06:49:21Z</time>
      </trkpt>
      <trkpt lat="47.78964" lon="-2.54703">
        <ele>82</ele>
        <time>2007-10-07T06:49:25Z</time>
      </trkpt>
      <trkpt lat="47.78959" lon="-2.5473">
        <ele>82</ele>
        <time>2007-10-07T06:49:31Z</time>
      </trkpt>
      <trkpt lat="47.78951" lon="-2.54756">
        <ele>82</ele>
        <time>2007-10-07T06:49:37Z</time>
      </trkpt>
      <trkpt lat="47.7894" lon="-2.54775">
        <ele>82</ele>
        <time>2007-10-07T06:49:43Z</time>
      </trkpt>
      <trkpt lat="47.78937" lon="-2.54796">
        <ele>81</ele>
        <time>2007-10-07T06:49:47Z</time>
      </trkpt>
      <trkpt lat="47.78934" lon="-2.54828">
        <ele>82</ele>
        <time>2007-10-07T06:49:54Z</time>
      </trkpt>
      <trkpt lat="47.78933" lon="-2.54852">
        <ele>81</ele>
        <time>2007-10-07T06:49:59Z</time>
      </trkpt>
      <trkpt lat="47.78931" lon="-2.54882">
        <ele>82</ele>
        <time>2007-10-07T06:50:06Z</time>
      </trkpt>
      <trkpt lat="47.7893" lon="-2.54903">
        <ele>84</ele>
        <time>2007-10-07T06:50:11Z</time>
      </trkpt>
      <trkpt lat="47.78925" lon="-2.54928">
        <ele>84</ele>
        <time>2007-10-07T06:50:17Z</time>
      </trkpt>
      <trkpt lat="47.78919" lon="-2.54952">
        <ele>85</ele>
        <time>2007-10-07T06:50:23Z</time>
      </trkpt>
      <trkpt lat="47.7891" lon="-2.5498">
        <ele>86</ele>
        <time>2007-10-07T06:50:30Z</time>
      </trkpt>
      <trkpt lat="47.78901" lon="-2.55009">
        <ele>87</ele>
        <time>2007-10-07T06:50:37Z</time>
      </trkpt>
      <trkpt lat="47.78894" lon="-2.55037">
        <ele>88</ele>
        <time>2007-10-07T06:50:44Z</time>
      </trkpt>
      <trkpt lat="47.78887" lon="-2.55061">
        <ele>88</ele>
        <time>2007-10-07T06:50:50Z</time>
      </trkpt>
      <trkpt lat="47.78886" lon="-2.55084">
        <ele>89</ele>
        <time>2007-10-07T06:50:56Z</time>
      </trkpt>
      <trkpt lat="47.78891" lon="-2.55118">
        <ele>89</ele>
        <time>2007-10-07T06:51:04Z</time>
      </trkpt>
      <trkpt lat="47.78895" lon="-2.5515">
        <ele>89</ele>
        <time>2007-10-07T06:51:11Z</time>
      </trkpt>
      <trkpt lat="47.78903" lon="-2.5519">
        <ele>90</ele>
        <time>2007-10-07T06:51:20Z</time>
      </trkpt>
      <trkpt lat="47.7891" lon="-2.5523">
        <ele>90</ele>
        <time>2007-10-07T06:51:28Z</time>
      </trkpt>
      <trkpt lat="47.78917" lon="-2.55278">
        <ele>90</ele>
        <time>2007-10-07T06:51:37Z</time>
      </trkpt>
      <trkpt lat="47.78917" lon="-2.55328">
        <ele>91</ele>
        <time>2007-10-07T06:51:46Z</time>
      </trkpt>
      <trkpt lat="47.78915" lon="-2.554">
        <ele>91</ele>
        <time>2007-10-07T06:51:59Z</time>
      </trkpt>
      <trkpt lat="47.78919" lon="-2.55447">
        <ele>93</ele>
        <time>2007-10-07T06:52:08Z</time>
      </trkpt>
      <trkpt lat="47.78929" lon="-2.55473">
        <ele>94</ele>
        <time>2007-10-07T06:52:14Z</time>
      </trkpt>
      <trkpt lat="47.78948" lon="-2.55508">
        <ele>95</ele>
        <time>2007-10-07T06:52:23Z</time>
      </trkpt>
      <trkpt lat="47.78953" lon="-2.55528">
        <ele>96</ele>
        <time>2007-10-07T06:52:27Z</time>
      </trkpt>
      <trkpt lat="47.78955" lon="-2.55561">
        <ele>96</ele>
        <time>2007-10-07T06:52:33Z</time>
      </trkpt>
      <trkpt lat="47.78956" lon="-2.55579">
        <ele>96</ele>
        <time>2007-10-07T06:52:36Z</time>
      </trkpt>
      <trkpt lat="47.78965" lon="-2.55592">
        <ele>95</ele>
        <time>2007-10-07T06:52:40Z</time>
      </trkpt>
      <trkpt lat="47.7898" lon="-2.55599">
        <ele>95</ele>
        <time>2007-10-07T06:52:45Z</time>
      </trkpt>
      <trkpt lat="47.78998" lon="-2.55609">
        <ele>96</ele>
        <time>2007-10-07T06:52:51Z</time>
      </trkpt>
      <trkpt lat="47.79014" lon="-2.55622">
        <ele>96</ele>
        <time>2007-10-07T06:52:57Z</time>
      </trkpt>
      <trkpt lat="47.79032" lon="-2.5564">
        <ele>96</ele>
        <time>2007-10-07T06:53:02Z</time>
      </trkpt>
      <trkpt lat="47.79036" lon="-2.55643">
        <ele>96</ele>
        <time>2007-10-07T06:53:03Z</time>
      </trkpt>
      <trkpt lat="47.79047" lon="-2.55634">
        <ele>96</ele>
        <time>2007-10-07T06:53:07Z</time>
      </trkpt>
      <trkpt lat="47.79065" lon="-2.55598">
        <ele>97</ele>
        <time>2007-10-07T06:53:16Z</time>
      </trkpt>
      <trkpt lat="47.79082" lon="-2.55574">
        <ele>98</ele>
        <time>2007-10-07T06:53:23Z</time>
      </trkpt>
      <trkpt lat="47.79102" lon="-2.55559">
        <ele>98</ele>
        <time>2007-10-07T06:53:29Z</time>
      </trkpt>
      <trkpt lat="47.79119" lon="-2.55544">
        <ele>99</ele>
        <time>2007-10-07T06:53:34Z</time>
      </trkpt>
      <trkpt lat="47.79132" lon="-2.55554">
        <ele>99</ele>
        <time>2007-10-07T06:53:38Z</time>
      </trkpt>
      <trkpt lat="47.79134" lon="-2.55565">
        <ele>98</ele>
        <time>2007-10-07T06:53:40Z</time>
      </trkpt>
      <trkpt lat="47.79142" lon="-2.55603">
        <ele>98</ele>
        <time>2007-10-07T06:53:47Z</time>
      </trkpt>
      <trkpt lat="47.7915" lon="-2.55634">
        <ele>99</ele>
        <time>2007-10-07T06:53:53Z</time>
      </trkpt>
      <trkpt lat="47.79155" lon="-2.5566">
        <ele>99</ele>
        <time>2007-10-07T06:53:58Z</time>
      </trkpt>
      <trkpt lat="47.79161" lon="-2.55683">
        <ele>99</ele>
        <time>2007-10-07T06:54:03Z</time>
      </trkpt>
      <trkpt lat="47.79168" lon="-2.55709">
        <ele>98</ele>
        <time>2007-10-07T06:54:08Z</time>
      </trkpt>
      <trkpt lat="47.79173" lon="-2.55727">
        <ele>97</ele>
        <time>2007-10-07T06:54:11Z</time>
      </trkpt>
      <trkpt lat="47.79179" lon="-2.55771">
        <ele>96</ele>
        <time>2007-10-07T06:54:18Z</time>
      </trkpt>
      <trkpt lat="47.79179" lon="-2.55783">
        <ele>95</ele>
        <time>2007-10-07T06:54:20Z</time>
      </trkpt>
      <trkpt lat="47.79179" lon="-2.55821">
        <ele>94</ele>
        <time>2007-10-07T06:54:25Z</time>
      </trkpt>
      <trkpt lat="47.79184" lon="-2.55871">
        <ele>92</ele>
        <time>2007-10-07T06:54:30Z</time>
      </trkpt>
      <trkpt lat="47.79183" lon="-2.55894">
        <ele>91</ele>
        <time>2007-10-07T06:54:32Z</time>
      </trkpt>
      <trkpt lat="47.7918" lon="-2.55916">
        <ele>90</ele>
        <time>2007-10-07T06:54:34Z</time>
      </trkpt>
      <trkpt lat="47.79176" lon="-2.55935">
        <ele>89</ele>
        <time>2007-10-07T06:54:36Z</time>
      </trkpt>
      <trkpt lat="47.79183" lon="-2.55969">
        <ele>88</ele>
        <time>2007-10-07T06:54:41Z</time>
      </trkpt>
      <trkpt lat="47.79192" lon="-2.55977">
        <ele>87</ele>
        <time>2007-10-07T06:54:43Z</time>
      </trkpt>
      <trkpt lat="47.79216" lon="-2.55996">
        <ele>87</ele>
        <time>2007-10-07T06:54:49Z</time>
      </trkpt>
      <trkpt lat="47.79225" lon="-2.56019">
        <ele>86</ele>
        <time>2007-10-07T06:54:53Z</time>
      </trkpt>
      <trkpt lat="47.79236" lon="-2.56034">
        <ele>85</ele>
        <time>2007-10-07T06:54:56Z</time>
      </trkpt>
      <trkpt lat="47.79254" lon="-2.56051">
        <ele>83</ele>
        <time>2007-10-07T06:55:00Z</time>
      </trkpt>
      <trkpt lat="47.79277" lon="-2.56077">
        <ele>82</ele>
        <time>2007-10-07T06:55:05Z</time>
      </trkpt>
      <trkpt lat="47.79292" lon="-2.56091">
        <ele>81</ele>
        <time>2007-10-07T06:55:08Z</time>
      </trkpt>
      <trkpt lat="47.79318" lon="-2.56112">
        <ele>79</ele>
        <time>2007-10-07T06:55:13Z</time>
      </trkpt>
      <trkpt lat="47.7933" lon="-2.56112">
        <ele>78</ele>
        <time>2007-10-07T06:55:15Z</time>
      </trkpt>
      <trkpt lat="47.79362" lon="-2.56118">
        <ele>77</ele>
        <time>2007-10-07T06:55:20Z</time>
      </trkpt>
      <trkpt lat="47.79387" lon="-2.56137">
        <ele>77</ele>
        <time>2007-10-07T06:55:26Z</time>
      </trkpt>
      <trkpt lat="47.79401" lon="-2.56137">
        <ele>77</ele>
        <time>2007-10-07T06:55:30Z</time>
      </trkpt>
      <trkpt lat="47.79422" lon="-2.56141">
        <ele>77</ele>
        <time>2007-10-07T06:55:36Z</time>
      </trkpt>
      <trkpt lat="47.79432" lon="-2.5614">
        <ele>77</ele>
        <time>2007-10-07T06:55:40Z</time>
      </trkpt>
      <trkpt lat="47.79444" lon="-2.56129">
        <ele>77</ele>
        <time>2007-10-07T06:55:45Z</time>
      </trkpt>
      <trkpt lat="47.79466" lon="-2.56128">
        <ele>77</ele>
        <time>2007-10-07T06:55:51Z</time>
      </trkpt>
      <trkpt lat="47.7948" lon="-2.5613">
        <ele>76</ele>
        <time>2007-10-07T06:55:55Z</time>
      </trkpt>
      <trkpt lat="47.79496" lon="-2.56135">
        <ele>75</ele>
        <time>2007-10-07T06:55:59Z</time>
      </trkpt>
      <trkpt lat="47.79505" lon="-2.56139">
        <ele>74</ele>
        <time>2007-10-07T06:56:01Z</time>
      </trkpt>
      <trkpt lat="47.79518" lon="-2.56151">
        <ele>74</ele>
        <time>2007-10-07T06:56:05Z</time>
      </trkpt>
      <trkpt lat="47.79519" lon="-2.56156">
        <ele>73</ele>
        <time>2007-10-07T06:56:06Z</time>
      </trkpt>
      <trkpt lat="47.79525" lon="-2.56189">
        <ele>74</ele>
        <time>2007-10-07T06:56:13Z</time>
      </trkpt>
      <trkpt lat="47.79526" lon="-2.56216">
        <ele>74</ele>
        <time>2007-10-07T06:56:19Z</time>
      </trkpt>
      <trkpt lat="47.79521" lon="-2.56234">
        <ele>75</ele>
        <time>2007-10-07T06:56:24Z</time>
      </trkpt>
      <trkpt lat="47.79518" lon="-2.56247">
        <ele>75</ele>
        <time>2007-10-07T06:56:28Z</time>
      </trkpt>
      <trkpt lat="47.79517" lon="-2.56266">
        <ele>75</ele>
        <time>2007-10-07T06:56:32Z</time>
      </trkpt>
      <trkpt lat="47.79512" lon="-2.56283">
        <ele>76</ele>
        <time>2007-10-07T06:56:37Z</time>
      </trkpt>
      <trkpt lat="47.79508" lon="-2.56297">
        <ele>76</ele>
        <time>2007-10-07T06:56:41Z</time>
      </trkpt>
      <trkpt lat="47.79499" lon="-2.56315">
        <ele>76</ele>
        <time>2007-10-07T06:56:46Z</time>
      </trkpt>
      <trkpt lat="47.7949" lon="-2.56333">
        <ele>76</ele>
        <time>2007-10-07T06:56:51Z</time>
      </trkpt>
      <trkpt lat="47.79476" lon="-2.5635">
        <ele>75</ele>
        <time>2007-10-07T06:56:56Z</time>
      </trkpt>
      <trkpt lat="47.7946" lon="-2.56351">
        <ele>75</ele>
        <time>2007-10-07T06:57:01Z</time>
      </trkpt>
      <trkpt lat="47.79446" lon="-2.5635">
        <ele>75</ele>
        <time>2007-10-07T06:57:06Z</time>
      </trkpt>
      <trkpt lat="47.79436" lon="-2.56353">
        <ele>75</ele>
        <time>2007-10-07T06:57:09Z</time>
      </trkpt>
      <trkpt lat="47.79423" lon="-2.56341">
        <ele>74</ele>
        <time>2007-10-07T06:57:14Z</time>
      </trkpt>
      <trkpt lat="47.79412" lon="-2.56333">
        <ele>75</ele>
        <time>2007-10-07T06:57:18Z</time>
      </trkpt>
      <trkpt lat="47.79388" lon="-2.56327">
        <ele>74</ele>
        <time>2007-10-07T06:57:25Z</time>
      </trkpt>
      <trkpt lat="47.79373" lon="-2.5633">
        <ele>72</ele>
        <time>2007-10-07T06:57:29Z</time>
      </trkpt>
      <trkpt lat="47.79355" lon="-2.56342">
        <ele>70</ele>
        <time>2007-10-07T06:57:33Z</time>
      </trkpt>
      <trkpt lat="47.79335" lon="-2.56356">
        <ele>70</ele>
        <time>2007-10-07T06:57:37Z</time>
      </trkpt>
      <trkpt lat="47.79332" lon="-2.56359">
        <ele>70</ele>
        <time>2007-10-07T06:57:38Z</time>
      </trkpt>
      <trkpt lat="47.79331" lon="-2.56363">
        <ele>69</ele>
        <time>2007-10-07T06:57:40Z</time>
      </trkpt>
      <trkpt lat="47.79332" lon="-2.56371">
        <ele>67</ele>
        <time>2007-10-07T06:57:43Z</time>
      </trkpt>
      <trkpt lat="47.79339" lon="-2.56377">
        <ele>65</ele>
        <time>2007-10-07T06:57:48Z</time>
      </trkpt>
      <trkpt lat="47.79335" lon="-2.56382">
        <ele>65</ele>
        <time>2007-10-07T06:57:53Z</time>
      </trkpt>
      <trkpt lat="47.79331" lon="-2.56386">
        <ele>65</ele>
        <time>2007-10-07T06:57:59Z</time>
      </trkpt>
      <trkpt lat="47.79326" lon="-2.56393">
        <ele>63</ele>
        <time>2007-10-07T06:58:03Z</time>
      </trkpt>
      <trkpt lat="47.79324" lon="-2.56394">
        <ele>63</ele>
        <time>2007-10-07T06:58:04Z</time>
      </trkpt>
      <trkpt lat="47.79321" lon="-2.564">
        <ele>61</ele>
        <time>2007-10-07T06:58:08Z</time>
      </trkpt>
      <trkpt lat="47.79327" lon="-2.56402">
        <ele>60</ele>
        <time>2007-10-07T06:58:12Z</time>
      </trkpt>
      <trkpt lat="47.79338" lon="-2.56411">
        <ele>60</ele>
        <time>2007-10-07T06:58:18Z</time>
      </trkpt>
      <trkpt lat="47.79337" lon="-2.56412">
        <ele>60</ele>
        <time>2007-10-07T06:58:21Z</time>
      </trkpt>
      <trkpt lat="47.79332" lon="-2.56414">
        <ele>59</ele>
        <time>2007-10-07T06:58:26Z</time>
      </trkpt>
      <trkpt lat="47.79333" lon="-2.56414">
        <ele>60</ele>
        <time>2007-10-07T06:58:27Z</time>
      </trkpt>
      <trkpt lat="47.79333" lon="-2.56414">
        <ele>60</ele>
        <time>2007-10-07T06:58:30Z</time>
      </trkpt>
      <trkpt lat="47.7933" lon="-2.56417">
        <ele>60</ele>
        <time>2007-10-07T06:58:31Z</time>
      </trkpt>
      <trkpt lat="47.79329" lon="-2.56418">
        <ele>60</ele>
        <time>2007-10-07T06:58:32Z</time>
      </trkpt>
      <trkpt lat="47.79325" lon="-2.56427">
        <ele>61</ele>
        <time>2007-10-07T06:58:39Z</time>
      </trkpt>
      <trkpt lat="47.79323" lon="-2.56427">
        <ele>62</ele>
        <time>2007-10-07T06:58:43Z</time>
      </trkpt>
      <trkpt lat="47.7932" lon="-2.56426">
        <ele>62</ele>
        <time>2007-10-07T06:58:50Z</time>
      </trkpt>
      <trkpt lat="47.79319" lon="-2.56427">
        <ele>62</ele>
        <time>2007-10-07T06:58:51Z</time>
      </trkpt>
      <trkpt lat="47.79313" lon="-2.56426">
        <ele>63</ele>
        <time>2007-10-07T06:58:56Z</time>
      </trkpt>
      <trkpt lat="47.79307" lon="-2.56424">
        <ele>63</ele>
        <time>2007-10-07T06:59:02Z</time>
      </trkpt>
      <trkpt lat="47.79306" lon="-2.56425">
        <ele>63</ele>
        <time>2007-10-07T06:59:04Z</time>
      </trkpt>
      <trkpt lat="47.79302" lon="-2.56425">
        <ele>64</ele>
        <time>2007-10-07T06:59:23Z</time>
      </trkpt>
      <trkpt lat="47.79292" lon="-2.56424">
        <ele>65</ele>
        <time>2007-10-07T06:59:28Z</time>
      </trkpt>
      <trkpt lat="47.79289" lon="-2.56424">
        <ele>65</ele>
        <time>2007-10-07T06:59:29Z</time>
      </trkpt>
      <trkpt lat="47.79281" lon="-2.56422">
        <ele>65</ele>
        <time>2007-10-07T06:59:35Z</time>
      </trkpt>
      <trkpt lat="47.79273" lon="-2.56425">
        <ele>66</ele>
        <time>2007-10-07T06:59:40Z</time>
      </trkpt>
      <trkpt lat="47.79267" lon="-2.56425">
        <ele>67</ele>
        <time>2007-10-07T06:59:43Z</time>
      </trkpt>
      <trkpt lat="47.79266" lon="-2.56428">
        <ele>68</ele>
        <time>2007-10-07T06:59:45Z</time>
      </trkpt>
      <trkpt lat="47.79268" lon="-2.56438">
        <ele>70</ele>
        <time>2007-10-07T06:59:52Z</time>
      </trkpt>
      <trkpt lat="47.7927" lon="-2.56446">
        <ele>71</ele>
        <time>2007-10-07T06:59:58Z</time>
      </trkpt>
      <trkpt lat="47.79274" lon="-2.56458">
        <ele>72</ele>
        <time>2007-10-07T07:00:05Z</time>
      </trkpt>
      <trkpt lat="47.79274" lon="-2.56466">
        <ele>73</ele>
        <time>2007-10-07T07:00:10Z</time>
      </trkpt>
      <trkpt lat="47.79278" lon="-2.56471">
        <ele>73</ele>
        <time>2007-10-07T07:00:13Z</time>
      </trkpt>
      <trkpt lat="47.79286" lon="-2.5648">
        <ele>73</ele>
        <time>2007-10-07T07:00:18Z</time>
      </trkpt>
      <trkpt lat="47.79288" lon="-2.56486">
        <ele>73</ele>
        <time>2007-10-07T07:00:20Z</time>
      </trkpt>
      <trkpt lat="47.79301" lon="-2.565">
        <ele>72</ele>
        <time>2007-10-07T07:00:26Z</time>
      </trkpt>
      <trkpt lat="47.79313" lon="-2.56508">
        <ele>72</ele>
        <time>2007-10-07T07:00:30Z</time>
      </trkpt>
      <trkpt lat="47.79326" lon="-2.56502">
        <ele>71</ele>
        <time>2007-10-07T07:00:36Z</time>
      </trkpt>
      <trkpt lat="47.79333" lon="-2.56494">
        <ele>70</ele>
        <time>2007-10-07T07:00:40Z</time>
      </trkpt>
      <trkpt lat="47.79335" lon="-2.56486">
        <ele>70</ele>
        <time>2007-10-07T07:00:46Z</time>
      </trkpt>
      <trkpt lat="47.79342" lon="-2.56481">
        <ele>68</ele>
        <time>2007-10-07T07:00:50Z</time>
      </trkpt>
      <trkpt lat="47.79348" lon="-2.5648">
        <ele>67</ele>
        <time>2007-10-07T07:00:53Z</time>
      </trkpt>
      <trkpt lat="47.79352" lon="-2.56481">
        <ele>67</ele>
        <time>2007-10-07T07:00:55Z</time>
      </trkpt>
      <trkpt lat="47.79356" lon="-2.56485">
        <ele>67</ele>
        <time>2007-10-07T07:01:00Z</time>
      </trkpt>
      <trkpt lat="47.79357" lon="-2.56481">
        <ele>67</ele>
        <time>2007-10-07T07:01:18Z</time>
      </trkpt>
      <trkpt lat="47.79362" lon="-2.56483">
        <ele>66</ele>
        <time>2007-10-07T07:01:21Z</time>
      </trkpt>
      <trkpt lat="47.79376" lon="-2.56488">
        <ele>65</ele>
        <time>2007-10-07T07:01:27Z</time>
      </trkpt>
      <trkpt lat="47.79388" lon="-2.56489">
        <ele>65</ele>
        <time>2007-10-07T07:01:32Z</time>
      </trkpt>
      <trkpt lat="47.79396" lon="-2.56497">
        <ele>65</ele>
        <time>2007-10-07T07:01:37Z</time>
      </trkpt>
      <trkpt lat="47.79398" lon="-2.565">
        <ele>65</ele>
        <time>2007-10-07T07:01:39Z</time>
      </trkpt>
      <trkpt lat="47.79406" lon="-2.56503">
        <ele>64</ele>
        <time>2007-10-07T07:01:44Z</time>
      </trkpt>
      <trkpt lat="47.7941" lon="-2.56501">
        <ele>63</ele>
        <time>2007-10-07T07:01:49Z</time>
      </trkpt>
      <trkpt lat="47.79411" lon="-2.56502">
        <ele>62</ele>
        <time>2007-10-07T07:01:50Z</time>
      </trkpt>
      <trkpt lat="47.79415" lon="-2.56504">
        <ele>61</ele>
        <time>2007-10-07T07:01:53Z</time>
      </trkpt>
      <trkpt lat="47.79417" lon="-2.56504">
        <ele>60</ele>
        <time>2007-10-07T07:01:54Z</time>
      </trkpt>
      <trkpt lat="47.79422" lon="-2.56508">
        <ele>60</ele>
        <time>2007-10-07T07:01:58Z</time>
      </trkpt>
      <trkpt lat="47.79426" lon="-2.56508">
        <ele>59</ele>
        <time>2007-10-07T07:02:02Z</time>
      </trkpt>
      <trkpt lat="47.79427" lon="-2.56508">
        <ele>59</ele>
        <time>2007-10-07T07:02:05Z</time>
      </trkpt>
      <trkpt lat="47.7943" lon="-2.56508">
        <ele>58</ele>
        <time>2007-10-07T07:02:08Z</time>
      </trkpt>
      <trkpt lat="47.79432" lon="-2.56508">
        <ele>58</ele>
        <time>2007-10-07T07:02:10Z</time>
      </trkpt>
      <trkpt lat="47.79432" lon="-2.56509">
        <ele>58</ele>
        <time>2007-10-07T07:02:13Z</time>
      </trkpt>
      <trkpt lat="47.79433" lon="-2.5651">
        <ele>57</ele>
        <time>2007-10-07T07:02:14Z</time>
      </trkpt>
      <trkpt lat="47.79435" lon="-2.5651">
        <ele>56</ele>
        <time>2007-10-07T07:02:17Z</time>
      </trkpt>
      <trkpt lat="47.79437" lon="-2.56511">
        <ele>55</ele>
        <time>2007-10-07T07:02:18Z</time>
      </trkpt>
      <trkpt lat="47.79445" lon="-2.56516">
        <ele>54</ele>
        <time>2007-10-07T07:02:23Z</time>
      </trkpt>
      <trkpt lat="47.79446" lon="-2.5652">
        <ele>54</ele>
        <time>2007-10-07T07:02:25Z</time>
      </trkpt>
      <trkpt lat="47.79445" lon="-2.56528">
        <ele>52</ele>
        <time>2007-10-07T07:02:28Z</time>
      </trkpt>
      <trkpt lat="47.79443" lon="-2.56532">
        <ele>53</ele>
        <time>2007-10-07T07:02:32Z</time>
      </trkpt>
      <trkpt lat="47.79442" lon="-2.56533">
        <ele>53</ele>
        <time>2007-10-07T07:02:35Z</time>
      </trkpt>
      <trkpt lat="47.79437" lon="-2.56538">
        <ele>55</ele>
        <time>2007-10-07T07:02:39Z</time>
      </trkpt>
      <trkpt lat="47.79434" lon="-2.56539">
        <ele>55</ele>
        <time>2007-10-07T07:02:45Z</time>
      </trkpt>
      <trkpt lat="47.7943" lon="-2.56538">
        <ele>57</ele>
        <time>2007-10-07T07:02:51Z</time>
      </trkpt>
      <trkpt lat="47.79429" lon="-2.56538">
        <ele>57</ele>
        <time>2007-10-07T07:02:52Z</time>
      </trkpt>
      <trkpt lat="47.79429" lon="-2.56539">
        <ele>57</ele>
        <time>2007-10-07T07:02:55Z</time>
      </trkpt>
      <trkpt lat="47.79425" lon="-2.56541">
        <ele>57</ele>
        <time>2007-10-07T07:02:57Z</time>
      </trkpt>
      <trkpt lat="47.79417" lon="-2.56549">
        <ele>59</ele>
        <time>2007-10-07T07:03:05Z</time>
      </trkpt>
      <trkpt lat="47.7941" lon="-2.56554">
        <ele>60</ele>
        <time>2007-10-07T07:03:12Z</time>
      </trkpt>
      <trkpt lat="47.79406" lon="-2.56559">
        <ele>61</ele>
        <time>2007-10-07T07:03:18Z</time>
      </trkpt>
      <trkpt lat="47.79405" lon="-2.5656">
        <ele>61</ele>
        <time>2007-10-07T07:03:21Z</time>
      </trkpt>
      <trkpt lat="47.79404" lon="-2.56562">
        <ele>61</ele>
        <time>2007-10-07T07:03:22Z</time>
      </trkpt>
      <trkpt lat="47.79398" lon="-2.56575">
        <ele>60</ele>
        <time>2007-10-07T07:03:26Z</time>
      </trkpt>
      <trkpt lat="47.79393" lon="-2.56588">
        <ele>60</ele>
        <time>2007-10-07T07:03:30Z</time>
      </trkpt>
      <trkpt lat="47.7939" lon="-2.56594">
        <ele>60</ele>
        <time>2007-10-07T07:03:34Z</time>
      </trkpt>
      <trkpt lat="47.79389" lon="-2.56594">
        <ele>60</ele>
        <time>2007-10-07T07:03:37Z</time>
      </trkpt>
      <trkpt lat="47.79387" lon="-2.56596">
        <ele>61</ele>
        <time>2007-10-07T07:03:38Z</time>
      </trkpt>
      <trkpt lat="47.79387" lon="-2.56597">
        <ele>60</ele>
        <time>2007-10-07T07:03:41Z</time>
      </trkpt>
      <trkpt lat="47.79385" lon="-2.56599">
        <ele>60</ele>
        <time>2007-10-07T07:03:42Z</time>
      </trkpt>
      <trkpt lat="47.79379" lon="-2.56608">
        <ele>60</ele>
        <time>2007-10-07T07:03:46Z</time>
      </trkpt>
      <trkpt lat="47.79378" lon="-2.56611">
        <ele>59</ele>
        <time>2007-10-07T07:03:49Z</time>
      </trkpt>
      <trkpt lat="47.79377" lon="-2.56614">
        <ele>59</ele>
        <time>2007-10-07T07:03:51Z</time>
      </trkpt>
      <trkpt lat="47.79376" lon="-2.56615">
        <ele>60</ele>
        <time>2007-10-07T07:03:54Z</time>
      </trkpt>
      <trkpt lat="47.79375" lon="-2.56616">
        <ele>60</ele>
        <time>2007-10-07T07:03:55Z</time>
      </trkpt>
      <trkpt lat="47.79374" lon="-2.56619">
        <ele>61</ele>
        <time>2007-10-07T07:03:56Z</time>
      </trkpt>
      <trkpt lat="47.79374" lon="-2.56619">
        <ele>62</ele>
        <time>2007-10-07T07:03:57Z</time>
      </trkpt>
      <trkpt lat="47.79372" lon="-2.56622">
        <ele>64</ele>
        <time>2007-10-07T07:04:05Z</time>
      </trkpt>
      <trkpt lat="47.79371" lon="-2.56623">
        <ele>64</ele>
        <time>2007-10-07T07:04:06Z</time>
      </trkpt>
      <trkpt lat="47.79369" lon="-2.56624">
        <ele>64</ele>
        <time>2007-10-07T07:04:07Z</time>
      </trkpt>
      <trkpt lat="47.79366" lon="-2.56626">
        <ele>64</ele>
        <time>2007-10-07T07:04:11Z</time>
      </trkpt>
      <trkpt lat="47.79366" lon="-2.56629">
        <ele>64</ele>
        <time>2007-10-07T07:04:12Z</time>
      </trkpt>
      <trkpt lat="47.79365" lon="-2.56631">
        <ele>64</ele>
        <time>2007-10-07T07:04:14Z</time>
      </trkpt>
      <trkpt lat="47.79364" lon="-2.56633">
        <ele>64</ele>
        <time>2007-10-07T07:04:19Z</time>
      </trkpt>
      <trkpt lat="47.79362" lon="-2.56637">
        <ele>64</ele>
        <time>2007-10-07T07:04:21Z</time>
      </trkpt>
      <trkpt lat="47.79357" lon="-2.56646">
        <ele>65</ele>
        <time>2007-10-07T07:04:27Z</time>
      </trkpt>
      <trkpt lat="47.79351" lon="-2.56653">
        <ele>65</ele>
        <time>2007-10-07T07:04:33Z</time>
      </trkpt>
      <trkpt lat="47.79347" lon="-2.56654">
        <ele>67</ele>
        <time>2007-10-07T07:04:38Z</time>
      </trkpt>
      <trkpt lat="47.79347" lon="-2.56656">
        <ele>66</ele>
        <time>2007-10-07T07:04:41Z</time>
      </trkpt>
      <trkpt lat="47.79344" lon="-2.56661">
        <ele>66</ele>
        <time>2007-10-07T07:04:44Z</time>
      </trkpt>
      <trkpt lat="47.79344" lon="-2.56662">
        <ele>67</ele>
        <time>2007-10-07T07:04:47Z</time>
      </trkpt>
      <trkpt lat="47.79343" lon="-2.56663">
        <ele>67</ele>
        <time>2007-10-07T07:04:48Z</time>
      </trkpt>
      <trkpt lat="47.79337" lon="-2.56664">
        <ele>68</ele>
        <time>2007-10-07T07:04:53Z</time>
      </trkpt>
      <trkpt lat="47.79329" lon="-2.56666">
        <ele>69</ele>
        <time>2007-10-07T07:05:01Z</time>
      </trkpt>
      <trkpt lat="47.79325" lon="-2.56669">
        <ele>70</ele>
        <time>2007-10-07T07:05:08Z</time>
      </trkpt>
      <trkpt lat="47.79325" lon="-2.5667">
        <ele>69</ele>
        <time>2007-10-07T07:05:09Z</time>
      </trkpt>
      <trkpt lat="47.79318" lon="-2.56687">
        <ele>70</ele>
        <time>2007-10-07T07:05:16Z</time>
      </trkpt>
      <trkpt lat="47.79311" lon="-2.56701">
        <ele>69</ele>
        <time>2007-10-07T07:05:21Z</time>
      </trkpt>
      <trkpt lat="47.79307" lon="-2.56709">
        <ele>69</ele>
        <time>2007-10-07T07:05:24Z</time>
      </trkpt>
      <trkpt lat="47.79299" lon="-2.56711">
        <ele>69</ele>
        <time>2007-10-07T07:05:28Z</time>
      </trkpt>
      <trkpt lat="47.7929" lon="-2.5673">
        <ele>68</ele>
        <time>2007-10-07T07:05:34Z</time>
      </trkpt>
      <trkpt lat="47.79281" lon="-2.56742">
        <ele>67</ele>
        <time>2007-10-07T07:05:38Z</time>
      </trkpt>
      <trkpt lat="47.79269" lon="-2.56748">
        <ele>66</ele>
        <time>2007-10-07T07:05:43Z</time>
      </trkpt>
      <trkpt lat="47.79263" lon="-2.56751">
        <ele>65</ele>
        <time>2007-10-07T07:05:47Z</time>
      </trkpt>
      <trkpt lat="47.7926" lon="-2.56753">
        <ele>66</ele>
        <time>2007-10-07T07:05:50Z</time>
      </trkpt>
      <trkpt lat="47.79257" lon="-2.56755">
        <ele>66</ele>
        <time>2007-10-07T07:05:55Z</time>
      </trkpt>
      <trkpt lat="47.7925" lon="-2.56767">
        <ele>65</ele>
        <time>2007-10-07T07:05:58Z</time>
      </trkpt>
      <trkpt lat="47.79245" lon="-2.56773">
        <ele>65</ele>
        <time>2007-10-07T07:06:01Z</time>
      </trkpt>
      <trkpt lat="47.79238" lon="-2.56784">
        <ele>66</ele>
        <time>2007-10-07T07:06:07Z</time>
      </trkpt>
      <trkpt lat="47.79231" lon="-2.5679">
        <ele>66</ele>
        <time>2007-10-07T07:06:13Z</time>
      </trkpt>
      <trkpt lat="47.7922" lon="-2.56793">
        <ele>68</ele>
        <time>2007-10-07T07:06:19Z</time>
      </trkpt>
      <trkpt lat="47.79212" lon="-2.56803">
        <ele>68</ele>
        <time>2007-10-07T07:06:26Z</time>
      </trkpt>
      <trkpt lat="47.79208" lon="-2.56804">
        <ele>68</ele>
        <time>2007-10-07T07:06:30Z</time>
      </trkpt>
      <trkpt lat="47.79207" lon="-2.56806">
        <ele>68</ele>
        <time>2007-10-07T07:06:33Z</time>
      </trkpt>
      <trkpt lat="47.79206" lon="-2.56806">
        <ele>69</ele>
        <time>2007-10-07T07:06:34Z</time>
      </trkpt>
      <trkpt lat="47.79205" lon="-2.56807">
        <ele>69</ele>
        <time>2007-10-07T07:06:38Z</time>
      </trkpt>
      <trkpt lat="47.79204" lon="-2.56806">
        <ele>70</ele>
        <time>2007-10-07T07:06:39Z</time>
      </trkpt>
      <trkpt lat="47.79203" lon="-2.56806">
        <ele>69</ele>
        <time>2007-10-07T07:06:40Z</time>
      </trkpt>
      <trkpt lat="47.79194" lon="-2.56812">
        <ele>70</ele>
        <time>2007-10-07T07:06:55Z</time>
      </trkpt>
      <trkpt lat="47.79193" lon="-2.56812">
        <ele>70</ele>
        <time>2007-10-07T07:06:56Z</time>
      </trkpt>
      <trkpt lat="47.7919" lon="-2.56809">
        <ele>70</ele>
        <time>2007-10-07T07:07:01Z</time>
      </trkpt>
      <trkpt lat="47.79188" lon="-2.5681">
        <ele>71</ele>
        <time>2007-10-07T07:07:07Z</time>
      </trkpt>
      <trkpt lat="47.79187" lon="-2.5681">
        <ele>72</ele>
        <time>2007-10-07T07:07:08Z</time>
      </trkpt>
      <trkpt lat="47.79182" lon="-2.56811">
        <ele>72</ele>
        <time>2007-10-07T07:07:16Z</time>
      </trkpt>
      <trkpt lat="47.79179" lon="-2.56811">
        <ele>73</ele>
        <time>2007-10-07T07:07:20Z</time>
      </trkpt>
      <trkpt lat="47.79174" lon="-2.56817">
        <ele>72</ele>
        <time>2007-10-07T07:07:25Z</time>
      </trkpt>
      <trkpt lat="47.79166" lon="-2.56832">
        <ele>72</ele>
        <time>2007-10-07T07:07:31Z</time>
      </trkpt>
      <trkpt lat="47.79163" lon="-2.56841">
        <ele>71</ele>
        <time>2007-10-07T07:07:34Z</time>
      </trkpt>
      <trkpt lat="47.79159" lon="-2.56849">
        <ele>71</ele>
        <time>2007-10-07T07:07:38Z</time>
      </trkpt>
      <trkpt lat="47.79159" lon="-2.56858">
        <ele>70</ele>
        <time>2007-10-07T07:07:41Z</time>
      </trkpt>
      <trkpt lat="47.79155" lon="-2.56872">
        <ele>69</ele>
        <time>2007-10-07T07:07:46Z</time>
      </trkpt>
      <trkpt lat="47.79153" lon="-2.56888">
        <ele>69</ele>
        <time>2007-10-07T07:07:51Z</time>
      </trkpt>
      <trkpt lat="47.79151" lon="-2.5689">
        <ele>70</ele>
        <time>2007-10-07T07:07:52Z</time>
      </trkpt>
      <trkpt lat="47.79141" lon="-2.56903">
        <ele>71</ele>
        <time>2007-10-07T07:07:58Z</time>
      </trkpt>
      <trkpt lat="47.7914" lon="-2.5691">
        <ele>69</ele>
        <time>2007-10-07T07:08:01Z</time>
      </trkpt>
      <trkpt lat="47.79141" lon="-2.56912">
        <ele>69</ele>
        <time>2007-10-07T07:08:02Z</time>
      </trkpt>
      <trkpt lat="47.79141" lon="-2.56917">
        <ele>68</ele>
        <time>2007-10-07T07:08:04Z</time>
      </trkpt>
      <trkpt lat="47.7914" lon="-2.56921">
        <ele>67</ele>
        <time>2007-10-07T07:08:06Z</time>
      </trkpt>
      <trkpt lat="47.79135" lon="-2.5693">
        <ele>66</ele>
        <time>2007-10-07T07:08:11Z</time>
      </trkpt>
      <trkpt lat="47.79133" lon="-2.56936">
        <ele>66</ele>
        <time>2007-10-07T07:08:16Z</time>
      </trkpt>
      <trkpt lat="47.79131" lon="-2.56939">
        <ele>65</ele>
        <time>2007-10-07T07:08:17Z</time>
      </trkpt>
      <trkpt lat="47.79131" lon="-2.5694">
        <ele>65</ele>
        <time>2007-10-07T07:08:20Z</time>
      </trkpt>
      <trkpt lat="47.79134" lon="-2.56951">
        <ele>64</ele>
        <time>2007-10-07T07:08:21Z</time>
      </trkpt>
      <trkpt lat="47.79138" lon="-2.56962">
        <ele>63</ele>
        <time>2007-10-07T07:08:25Z</time>
      </trkpt>
      <trkpt lat="47.7914" lon="-2.56964">
        <ele>64</ele>
        <time>2007-10-07T07:08:26Z</time>
      </trkpt>
      <trkpt lat="47.79149" lon="-2.56974">
        <ele>65</ele>
        <time>2007-10-07T07:08:32Z</time>
      </trkpt>
      <trkpt lat="47.79154" lon="-2.56972">
        <ele>66</ele>
        <time>2007-10-07T07:08:37Z</time>
      </trkpt>
      <trkpt lat="47.79163" lon="-2.56962">
        <ele>65</ele>
        <time>2007-10-07T07:08:43Z</time>
      </trkpt>
      <trkpt lat="47.79168" lon="-2.56962">
        <ele>66</ele>
        <time>2007-10-07T07:08:46Z</time>
      </trkpt>
      <trkpt lat="47.79169" lon="-2.56974">
        <ele>67</ele>
        <time>2007-10-07T07:08:51Z</time>
      </trkpt>
      <trkpt lat="47.79169" lon="-2.56976">
        <ele>68</ele>
        <time>2007-10-07T07:08:52Z</time>
      </trkpt>
      <trkpt lat="47.79174" lon="-2.56981">
        <ele>69</ele>
        <time>2007-10-07T07:08:58Z</time>
      </trkpt>
      <trkpt lat="47.79178" lon="-2.56982">
        <ele>70</ele>
        <time>2007-10-07T07:09:01Z</time>
      </trkpt>
      <trkpt lat="47.79183" lon="-2.56985">
        <ele>71</ele>
        <time>2007-10-07T07:09:05Z</time>
      </trkpt>
      <trkpt lat="47.79194" lon="-2.56986">
        <ele>72</ele>
        <time>2007-10-07T07:09:11Z</time>
      </trkpt>
      <trkpt lat="47.79204" lon="-2.56992">
        <ele>73</ele>
        <time>2007-10-07T07:09:18Z</time>
      </trkpt>
      <trkpt lat="47.79212" lon="-2.56989">
        <ele>74</ele>
        <time>2007-10-07T07:09:23Z</time>
      </trkpt>
      <trkpt lat="47.79219" lon="-2.56995">
        <ele>74</ele>
        <time>2007-10-07T07:09:28Z</time>
      </trkpt>
      <trkpt lat="47.79223" lon="-2.56997">
        <ele>75</ele>
        <time>2007-10-07T07:09:30Z</time>
      </trkpt>
      <trkpt lat="47.79232" lon="-2.57001">
        <ele>75</ele>
        <time>2007-10-07T07:09:36Z</time>
      </trkpt>
      <trkpt lat="47.79241" lon="-2.57006">
        <ele>75</ele>
        <time>2007-10-07T07:09:41Z</time>
      </trkpt>
      <trkpt lat="47.79242" lon="-2.57009">
        <ele>76</ele>
        <time>2007-10-07T07:09:43Z</time>
      </trkpt>
      <trkpt lat="47.7925" lon="-2.57019">
        <ele>76</ele>
        <time>2007-10-07T07:09:49Z</time>
      </trkpt>
      <trkpt lat="47.79254" lon="-2.5703">
        <ele>76</ele>
        <time>2007-10-07T07:09:54Z</time>
      </trkpt>
      <trkpt lat="47.79255" lon="-2.57048">
        <ele>77</ele>
        <time>2007-10-07T07:10:01Z</time>
      </trkpt>
      <trkpt lat="47.79255" lon="-2.57053">
        <ele>78</ele>
        <time>2007-10-07T07:10:03Z</time>
      </trkpt>
      <trkpt lat="47.79249" lon="-2.57065">
        <ele>78</ele>
        <time>2007-10-07T07:10:08Z</time>
      </trkpt>
      <trkpt lat="47.79245" lon="-2.57075">
        <ele>78</ele>
        <time>2007-10-07T07:10:13Z</time>
      </trkpt>
      <trkpt lat="47.79244" lon="-2.5708">
        <ele>78</ele>
        <time>2007-10-07T07:10:15Z</time>
      </trkpt>
      <trkpt lat="47.79243" lon="-2.57092">
        <ele>78</ele>
        <time>2007-10-07T07:10:21Z</time>
      </trkpt>
      <trkpt lat="47.79241" lon="-2.57104">
        <ele>78</ele>
        <time>2007-10-07T07:10:25Z</time>
      </trkpt>
      <trkpt lat="47.79246" lon="-2.57118">
        <ele>78</ele>
        <time>2007-10-07T07:10:31Z</time>
      </trkpt>
      <trkpt lat="47.79251" lon="-2.57128">
        <ele>78</ele>
        <time>2007-10-07T07:10:35Z</time>
      </trkpt>
      <trkpt lat="47.79255" lon="-2.57139">
        <ele>78</ele>
        <time>2007-10-07T07:10:39Z</time>
      </trkpt>
      <trkpt lat="47.79262" lon="-2.5715">
        <ele>79</ele>
        <time>2007-10-07T07:10:44Z</time>
      </trkpt>
      <trkpt lat="47.79265" lon="-2.57166">
        <ele>79</ele>
        <time>2007-10-07T07:10:49Z</time>
      </trkpt>
      <trkpt lat="47.79272" lon="-2.57179">
        <ele>80</ele>
        <time>2007-10-07T07:10:55Z</time>
      </trkpt>
      <trkpt lat="47.79278" lon="-2.57195">
        <ele>79</ele>
        <time>2007-10-07T07:11:00Z</time>
      </trkpt>
      <trkpt lat="47.79278" lon="-2.57205">
        <ele>80</ele>
        <time>2007-10-07T07:11:04Z</time>
      </trkpt>
      <trkpt lat="47.79284" lon="-2.57225">
        <ele>80</ele>
        <time>2007-10-07T07:11:11Z</time>
      </trkpt>
      <trkpt lat="47.79287" lon="-2.57239">
        <ele>80</ele>
        <time>2007-10-07T07:11:17Z</time>
      </trkpt>
      <trkpt lat="47.79283" lon="-2.57248">
        <ele>80</ele>
        <time>2007-10-07T07:11:22Z</time>
      </trkpt>
      <trkpt lat="47.7928" lon="-2.57247">
        <ele>80</ele>
        <time>2007-10-07T07:11:25Z</time>
      </trkpt>
      <trkpt lat="47.79269" lon="-2.57253">
        <ele>81</ele>
        <time>2007-10-07T07:11:31Z</time>
      </trkpt>
      <trkpt lat="47.79263" lon="-2.57259">
        <ele>81</ele>
        <time>2007-10-07T07:11:35Z</time>
      </trkpt>
      <trkpt lat="47.79253" lon="-2.57271">
        <ele>82</ele>
        <time>2007-10-07T07:11:41Z</time>
      </trkpt>
      <trkpt lat="47.79242" lon="-2.57278">
        <ele>82</ele>
        <time>2007-10-07T07:11:47Z</time>
      </trkpt>
      <trkpt lat="47.79224" lon="-2.57286">
        <ele>83</ele>
        <time>2007-10-07T07:11:54Z</time>
      </trkpt>
      <trkpt lat="47.792" lon="-2.5729">
        <ele>83</ele>
        <time>2007-10-07T07:12:02Z</time>
      </trkpt>
      <trkpt lat="47.79183" lon="-2.57293">
        <ele>82</ele>
        <time>2007-10-07T07:12:08Z</time>
      </trkpt>
      <trkpt lat="47.79161" lon="-2.57299">
        <ele>82</ele>
        <time>2007-10-07T07:12:15Z</time>
      </trkpt>
      <trkpt lat="47.79128" lon="-2.57306">
        <ele>79</ele>
        <time>2007-10-07T07:12:24Z</time>
      </trkpt>
      <trkpt lat="47.7911" lon="-2.5731">
        <ele>80</ele>
        <time>2007-10-07T07:12:29Z</time>
      </trkpt>
      <trkpt lat="47.79107" lon="-2.5731">
        <ele>79</ele>
        <time>2007-10-07T07:12:30Z</time>
      </trkpt>
      <trkpt lat="47.79104" lon="-2.57295">
        <ele>79</ele>
        <time>2007-10-07T07:12:34Z</time>
      </trkpt>
      <trkpt lat="47.79102" lon="-2.57266">
        <ele>79</ele>
        <time>2007-10-07T07:12:40Z</time>
      </trkpt>
      <trkpt lat="47.79095" lon="-2.57224">
        <ele>78</ele>
        <time>2007-10-07T07:12:48Z</time>
      </trkpt>
      <trkpt lat="47.79084" lon="-2.5721">
        <ele>78</ele>
        <time>2007-10-07T07:12:52Z</time>
      </trkpt>
      <trkpt lat="47.79065" lon="-2.572">
        <ele>77</ele>
        <time>2007-10-07T07:12:58Z</time>
      </trkpt>
      <trkpt lat="47.79054" lon="-2.57174">
        <ele>74</ele>
        <time>2007-10-07T07:13:03Z</time>
      </trkpt>
      <trkpt lat="47.79053" lon="-2.5716">
        <ele>73</ele>
        <time>2007-10-07T07:13:07Z</time>
      </trkpt>
      <trkpt lat="47.79048" lon="-2.57151">
        <ele>71</ele>
        <time>2007-10-07T07:13:13Z</time>
      </trkpt>
      <trkpt lat="47.79048" lon="-2.5715">
        <ele>72</ele>
        <time>2007-10-07T07:13:17Z</time>
      </trkpt>
      <trkpt lat="47.79048" lon="-2.57151">
        <ele>72</ele>
        <time>2007-10-07T07:13:20Z</time>
      </trkpt>
      <trkpt lat="47.79047" lon="-2.57155">
        <ele>72</ele>
        <time>2007-10-07T07:13:22Z</time>
      </trkpt>
      <trkpt lat="47.79047" lon="-2.57156">
        <ele>72</ele>
        <time>2007-10-07T07:13:25Z</time>
      </trkpt>
      <trkpt lat="47.79047" lon="-2.57157">
        <ele>72</ele>
        <time>2007-10-07T07:13:26Z</time>
      </trkpt>
      <trkpt lat="47.79046" lon="-2.57164">
        <ele>73</ele>
        <time>2007-10-07T07:13:27Z</time>
      </trkpt>
      <trkpt lat="47.79044" lon="-2.57169">
        <ele>73</ele>
        <time>2007-10-07T07:13:30Z</time>
      </trkpt>
      <trkpt lat="47.7904" lon="-2.57182">
        <ele>73</ele>
        <time>2007-10-07T07:13:37Z</time>
      </trkpt>
      <trkpt lat="47.79034" lon="-2.57188">
        <ele>75</ele>
        <time>2007-10-07T07:13:42Z</time>
      </trkpt>
      <trkpt lat="47.79033" lon="-2.57196">
        <ele>75</ele>
        <time>2007-10-07T07:13:46Z</time>
      </trkpt>
      <trkpt lat="47.79032" lon="-2.57199">
        <ele>75</ele>
        <time>2007-10-07T07:13:48Z</time>
      </trkpt>
      <trkpt lat="47.79029" lon="-2.57208">
        <ele>75</ele>
        <time>2007-10-07T07:13:52Z</time>
      </trkpt>
      <trkpt lat="47.7902" lon="-2.57221">
        <ele>76</ele>
        <time>2007-10-07T07:13:59Z</time>
      </trkpt>
      <trkpt lat="47.79014" lon="-2.57226">
        <ele>78</ele>
        <time>2007-10-07T07:14:04Z</time>
      </trkpt>
      <trkpt lat="47.79007" lon="-2.57234">
        <ele>78</ele>
        <time>2007-10-07T07:14:10Z</time>
      </trkpt>
      <trkpt lat="47.79006" lon="-2.57237">
        <ele>78</ele>
        <time>2007-10-07T07:14:11Z</time>
      </trkpt>
      <trkpt lat="47.79002" lon="-2.57246">
        <ele>78</ele>
        <time>2007-10-07T07:14:15Z</time>
      </trkpt>
      <trkpt lat="47.79" lon="-2.57248">
        <ele>78</ele>
        <time>2007-10-07T07:14:17Z</time>
      </trkpt>
      <trkpt lat="47.7899" lon="-2.57259">
        <ele>78</ele>
        <time>2007-10-07T07:14:24Z</time>
      </trkpt>
      <trkpt lat="47.78982" lon="-2.57273">
        <ele>79</ele>
        <time>2007-10-07T07:14:30Z</time>
      </trkpt>
      <trkpt lat="47.78976" lon="-2.57283">
        <ele>79</ele>
        <time>2007-10-07T07:14:35Z</time>
      </trkpt>
      <trkpt lat="47.78968" lon="-2.57293">
        <ele>79</ele>
        <time>2007-10-07T07:14:41Z</time>
      </trkpt>
      <trkpt lat="47.78958" lon="-2.57305">
        <ele>80</ele>
        <time>2007-10-07T07:14:47Z</time>
      </trkpt>
      <trkpt lat="47.78948" lon="-2.5732">
        <ele>81</ele>
        <time>2007-10-07T07:14:53Z</time>
      </trkpt>
      <trkpt lat="47.78939" lon="-2.57329">
        <ele>81</ele>
        <time>2007-10-07T07:14:58Z</time>
      </trkpt>
      <trkpt lat="47.78929" lon="-2.57341">
        <ele>81</ele>
        <time>2007-10-07T07:15:03Z</time>
      </trkpt>
      <trkpt lat="47.78923" lon="-2.57355">
        <ele>82</ele>
        <time>2007-10-07T07:15:08Z</time>
      </trkpt>
      <trkpt lat="47.7892" lon="-2.57361">
        <ele>81</ele>
        <time>2007-10-07T07:15:10Z</time>
      </trkpt>
      <trkpt lat="47.78915" lon="-2.57362">
        <ele>82</ele>
        <time>2007-10-07T07:15:16Z</time>
      </trkpt>
      <trkpt lat="47.7891" lon="-2.57367">
        <ele>83</ele>
        <time>2007-10-07T07:15:23Z</time>
      </trkpt>
      <trkpt lat="47.78908" lon="-2.57369">
        <ele>83</ele>
        <time>2007-10-07T07:15:28Z</time>
      </trkpt>
      <trkpt lat="47.78903" lon="-2.57372">
        <ele>84</ele>
        <time>2007-10-07T07:15:31Z</time>
      </trkpt>
      <trkpt lat="47.78902" lon="-2.57373">
        <ele>84</ele>
        <time>2007-10-07T07:15:32Z</time>
      </trkpt>
      <trkpt lat="47.78898" lon="-2.5738">
        <ele>83</ele>
        <time>2007-10-07T07:15:36Z</time>
      </trkpt>
      <trkpt lat="47.78888" lon="-2.5739">
        <ele>84</ele>
        <time>2007-10-07T07:15:42Z</time>
      </trkpt>
      <trkpt lat="47.7888" lon="-2.57399">
        <ele>84</ele>
        <time>2007-10-07T07:15:47Z</time>
      </trkpt>
      <trkpt lat="47.78873" lon="-2.57407">
        <ele>85</ele>
        <time>2007-10-07T07:15:52Z</time>
      </trkpt>
      <trkpt lat="47.7887" lon="-2.57416">
        <ele>85</ele>
        <time>2007-10-07T07:15:56Z</time>
      </trkpt>
      <trkpt lat="47.78868" lon="-2.57437">
        <ele>85</ele>
        <time>2007-10-07T07:16:03Z</time>
      </trkpt>
      <trkpt lat="47.78871" lon="-2.57454">
        <ele>87</ele>
        <time>2007-10-07T07:16:09Z</time>
      </trkpt>
      <trkpt lat="47.78877" lon="-2.57486">
        <ele>88</ele>
        <time>2007-10-07T07:16:20Z</time>
      </trkpt>
      <trkpt lat="47.7888" lon="-2.57503">
        <ele>90</ele>
        <time>2007-10-07T07:16:27Z</time>
      </trkpt>
      <trkpt lat="47.78882" lon="-2.57521">
        <ele>91</ele>
        <time>2007-10-07T07:16:34Z</time>
      </trkpt>
      <trkpt lat="47.78885" lon="-2.5755">
        <ele>92</ele>
        <time>2007-10-07T07:16:44Z</time>
      </trkpt>
      <trkpt lat="47.78885" lon="-2.57582">
        <ele>92</ele>
        <time>2007-10-07T07:16:55Z</time>
      </trkpt>
      <trkpt lat="47.7888" lon="-2.57602">
        <ele>93</ele>
        <time>2007-10-07T07:17:02Z</time>
      </trkpt>
      <trkpt lat="47.78876" lon="-2.57616">
        <ele>93</ele>
        <time>2007-10-07T07:17:08Z</time>
      </trkpt>
      <trkpt lat="47.78868" lon="-2.57622">
        <ele>93</ele>
        <time>2007-10-07T07:17:13Z</time>
      </trkpt>
      <trkpt lat="47.78851" lon="-2.57626">
        <ele>94</ele>
        <time>2007-10-07T07:17:21Z</time>
      </trkpt>
      <trkpt lat="47.78835" lon="-2.5763">
        <ele>94</ele>
        <time>2007-10-07T07:17:28Z</time>
      </trkpt>
      <trkpt lat="47.78811" lon="-2.5764">
        <ele>94</ele>
        <time>2007-10-07T07:17:37Z</time>
      </trkpt>
      <trkpt lat="47.78788" lon="-2.57647">
        <ele>94</ele>
        <time>2007-10-07T07:17:44Z</time>
      </trkpt>
      <trkpt lat="47.78756" lon="-2.57655">
        <ele>94</ele>
        <time>2007-10-07T07:17:53Z</time>
      </trkpt>
      <trkpt lat="47.78741" lon="-2.57669">
        <ele>93</ele>
        <time>2007-10-07T07:17:58Z</time>
      </trkpt>
      <trkpt lat="47.78739" lon="-2.57689">
        <ele>94</ele>
        <time>2007-10-07T07:18:02Z</time>
      </trkpt>
      <trkpt lat="47.78742" lon="-2.57731">
        <ele>95</ele>
        <time>2007-10-07T07:18:10Z</time>
      </trkpt>
      <trkpt lat="47.78738" lon="-2.57752">
        <ele>96</ele>
        <time>2007-10-07T07:18:15Z</time>
      </trkpt>
      <trkpt lat="47.78724" lon="-2.57766">
        <ele>96</ele>
        <time>2007-10-07T07:18:20Z</time>
      </trkpt>
      <trkpt lat="47.78707" lon="-2.57772">
        <ele>96</ele>
        <time>2007-10-07T07:18:25Z</time>
      </trkpt>
      <trkpt lat="47.78694" lon="-2.57774">
        <ele>97</ele>
        <time>2007-10-07T07:18:30Z</time>
      </trkpt>
      <trkpt lat="47.7868" lon="-2.57769">
        <ele>97</ele>
        <time>2007-10-07T07:18:35Z</time>
      </trkpt>
      <trkpt lat="47.78666" lon="-2.5776">
        <ele>97</ele>
        <time>2007-10-07T07:18:40Z</time>
      </trkpt>
      <trkpt lat="47.7865" lon="-2.57759">
        <ele>97</ele>
        <time>2007-10-07T07:18:46Z</time>
      </trkpt>
      <trkpt lat="47.78627" lon="-2.57763">
        <ele>99</ele>
        <time>2007-10-07T07:18:56Z</time>
      </trkpt>
      <trkpt lat="47.78612" lon="-2.57767">
        <ele>101</ele>
        <time>2007-10-07T07:19:03Z</time>
      </trkpt>
      <trkpt lat="47.7861" lon="-2.57769">
        <ele>101</ele>
        <time>2007-10-07T07:19:04Z</time>
      </trkpt>
      <trkpt lat="47.78606" lon="-2.57786">
        <ele>101</ele>
        <time>2007-10-07T07:19:11Z</time>
      </trkpt>
      <trkpt lat="47.78592" lon="-2.5779">
        <ele>102</ele>
        <time>2007-10-07T07:19:18Z</time>
      </trkpt>
      <trkpt lat="47.78591" lon="-2.57803">
        <ele>102</ele>
        <time>2007-10-07T07:19:24Z</time>
      </trkpt>
      <trkpt lat="47.78589" lon="-2.57811">
        <ele>102</ele>
        <time>2007-10-07T07:19:28Z</time>
      </trkpt>
      <trkpt lat="47.78584" lon="-2.57812">
        <ele>103</ele>
        <time>2007-10-07T07:19:32Z</time>
      </trkpt>
      <trkpt lat="47.78577" lon="-2.57817">
        <ele>104</ele>
        <time>2007-10-07T07:19:37Z</time>
      </trkpt>
      <trkpt lat="47.78573" lon="-2.5782">
        <ele>104</ele>
        <time>2007-10-07T07:19:40Z</time>
      </trkpt>
      <trkpt lat="47.78567" lon="-2.57825">
        <ele>104</ele>
        <time>2007-10-07T07:19:45Z</time>
      </trkpt>
      <trkpt lat="47.78547" lon="-2.57831">
        <ele>105</ele>
        <time>2007-10-07T07:19:53Z</time>
      </trkpt>
      <trkpt lat="47.78535" lon="-2.57836">
        <ele>106</ele>
        <time>2007-10-07T07:19:58Z</time>
      </trkpt>
      <trkpt lat="47.7852" lon="-2.57847">
        <ele>107</ele>
        <time>2007-10-07T07:20:04Z</time>
      </trkpt>
      <trkpt lat="47.78509" lon="-2.57855">
        <ele>108</ele>
        <time>2007-10-07T07:20:09Z</time>
      </trkpt>
      <trkpt lat="47.78497" lon="-2.57862">
        <ele>108</ele>
        <time>2007-10-07T07:20:14Z</time>
      </trkpt>
      <trkpt lat="47.78479" lon="-2.57868">
        <ele>110</ele>
        <time>2007-10-07T07:20:19Z</time>
      </trkpt>
      <trkpt lat="47.78465" lon="-2.5787">
        <ele>109</ele>
        <time>2007-10-07T07:20:24Z</time>
      </trkpt>
      <trkpt lat="47.78454" lon="-2.57878">
        <ele>110</ele>
        <time>2007-10-07T07:20:29Z</time>
      </trkpt>
      <trkpt lat="47.78444" lon="-2.57881">
        <ele>111</ele>
        <time>2007-10-07T07:20:33Z</time>
      </trkpt>
      <trkpt lat="47.78432" lon="-2.57881">
        <ele>112</ele>
        <time>2007-10-07T07:20:38Z</time>
      </trkpt>
      <trkpt lat="47.78418" lon="-2.57884">
        <ele>111</ele>
        <time>2007-10-07T07:20:43Z</time>
      </trkpt>
      <trkpt lat="47.78404" lon="-2.5789">
        <ele>112</ele>
        <time>2007-10-07T07:20:47Z</time>
      </trkpt>
      <trkpt lat="47.78393" lon="-2.57899">
        <ele>112</ele>
        <time>2007-10-07T07:20:51Z</time>
      </trkpt>
      <trkpt lat="47.78378" lon="-2.57907">
        <ele>112</ele>
        <time>2007-10-07T07:20:56Z</time>
      </trkpt>
      <trkpt lat="47.78368" lon="-2.57913">
        <ele>112</ele>
        <time>2007-10-07T07:21:00Z</time>
      </trkpt>
      <trkpt lat="47.78353" lon="-2.57918">
        <ele>113</ele>
        <time>2007-10-07T07:21:05Z</time>
      </trkpt>
      <trkpt lat="47.7834" lon="-2.57922">
        <ele>112</ele>
        <time>2007-10-07T07:21:09Z</time>
      </trkpt>
      <trkpt lat="47.78326" lon="-2.5793">
        <ele>113</ele>
        <time>2007-10-07T07:21:14Z</time>
      </trkpt>
      <trkpt lat="47.78314" lon="-2.57938">
        <ele>113</ele>
        <time>2007-10-07T07:21:19Z</time>
      </trkpt>
      <trkpt lat="47.78301" lon="-2.57945">
        <ele>113</ele>
        <time>2007-10-07T07:21:24Z</time>
      </trkpt>
      <trkpt lat="47.78288" lon="-2.57959">
        <ele>114</ele>
        <time>2007-10-07T07:21:29Z</time>
      </trkpt>
      <trkpt lat="47.78274" lon="-2.57968">
        <ele>115</ele>
        <time>2007-10-07T07:21:33Z</time>
      </trkpt>
      <trkpt lat="47.78261" lon="-2.57989">
        <ele>115</ele>
        <time>2007-10-07T07:21:37Z</time>
      </trkpt>
      <trkpt lat="47.78261" lon="-2.58011">
        <ele>114</ele>
        <time>2007-10-07T07:21:41Z</time>
      </trkpt>
      <trkpt lat="47.78267" lon="-2.5803">
        <ele>113</ele>
        <time>2007-10-07T07:21:45Z</time>
      </trkpt>
      <trkpt lat="47.78278" lon="-2.58052">
        <ele>112</ele>
        <time>2007-10-07T07:21:50Z</time>
      </trkpt>
      <trkpt lat="47.78288" lon="-2.58064">
        <ele>112</ele>
        <time>2007-10-07T07:21:54Z</time>
      </trkpt>
      <trkpt lat="47.78296" lon="-2.58069">
        <ele>112</ele>
        <time>2007-10-07T07:21:56Z</time>
      </trkpt>
      <trkpt lat="47.78312" lon="-2.58089">
        <ele>111</ele>
        <time>2007-10-07T07:22:01Z</time>
      </trkpt>
      <trkpt lat="47.78319" lon="-2.58101">
        <ele>110</ele>
        <time>2007-10-07T07:22:04Z</time>
      </trkpt>
      <trkpt lat="47.78327" lon="-2.58132">
        <ele>109</ele>
        <time>2007-10-07T07:22:10Z</time>
      </trkpt>
      <trkpt lat="47.78325" lon="-2.58151">
        <ele>108</ele>
        <time>2007-10-07T07:22:15Z</time>
      </trkpt>
      <trkpt lat="47.78323" lon="-2.58158">
        <ele>108</ele>
        <time>2007-10-07T07:22:17Z</time>
      </trkpt>
      <trkpt lat="47.78317" lon="-2.58169">
        <ele>108</ele>
        <time>2007-10-07T07:22:20Z</time>
      </trkpt>
      <trkpt lat="47.78301" lon="-2.58187">
        <ele>110</ele>
        <time>2007-10-07T07:22:27Z</time>
      </trkpt>
      <trkpt lat="47.78291" lon="-2.582">
        <ele>110</ele>
        <time>2007-10-07T07:22:31Z</time>
      </trkpt>
      <trkpt lat="47.78278" lon="-2.58221">
        <ele>108</ele>
        <time>2007-10-07T07:22:36Z</time>
      </trkpt>
      <trkpt lat="47.78273" lon="-2.5824">
        <ele>108</ele>
        <time>2007-10-07T07:22:39Z</time>
      </trkpt>
      <trkpt lat="47.78268" lon="-2.58273">
        <ele>108</ele>
        <time>2007-10-07T07:22:44Z</time>
      </trkpt>
      <trkpt lat="47.78262" lon="-2.5829">
        <ele>109</ele>
        <time>2007-10-07T07:22:49Z</time>
      </trkpt>
      <trkpt lat="47.7826" lon="-2.58298">
        <ele>110</ele>
        <time>2007-10-07T07:22:51Z</time>
      </trkpt>
      <trkpt lat="47.78251" lon="-2.58318">
        <ele>110</ele>
        <time>2007-10-07T07:22:56Z</time>
      </trkpt>
      <trkpt lat="47.78244" lon="-2.58329">
        <ele>110</ele>
        <time>2007-10-07T07:22:59Z</time>
      </trkpt>
      <trkpt lat="47.7823" lon="-2.58353">
        <ele>110</ele>
        <time>2007-10-07T07:23:05Z</time>
      </trkpt>
      <trkpt lat="47.78222" lon="-2.58374">
        <ele>110</ele>
        <time>2007-10-07T07:23:10Z</time>
      </trkpt>
      <trkpt lat="47.78214" lon="-2.58397">
        <ele>109</ele>
        <time>2007-10-07T07:23:14Z</time>
      </trkpt>
      <trkpt lat="47.78211" lon="-2.58409">
        <ele>109</ele>
        <time>2007-10-07T07:23:16Z</time>
      </trkpt>
      <trkpt lat="47.78214" lon="-2.58444">
        <ele>108</ele>
        <time>2007-10-07T07:23:21Z</time>
      </trkpt>
      <trkpt lat="47.7823" lon="-2.58492">
        <ele>106</ele>
        <time>2007-10-07T07:23:27Z</time>
      </trkpt>
      <trkpt lat="47.78244" lon="-2.58522">
        <ele>104</ele>
        <time>2007-10-07T07:23:31Z</time>
      </trkpt>
      <trkpt lat="47.78245" lon="-2.5853">
        <ele>103</ele>
        <time>2007-10-07T07:23:32Z</time>
      </trkpt>
      <trkpt lat="47.78238" lon="-2.58547">
        <ele>103</ele>
        <time>2007-10-07T07:23:37Z</time>
      </trkpt>
      <trkpt lat="47.78235" lon="-2.58541">
        <ele>103</ele>
        <time>2007-10-07T07:23:40Z</time>
      </trkpt>
      <trkpt lat="47.78232" lon="-2.58532">
        <ele>103</ele>
        <time>2007-10-07T07:23:43Z</time>
      </trkpt>
      <trkpt lat="47.78224" lon="-2.58537">
        <ele>103</ele>
        <time>2007-10-07T07:23:47Z</time>
      </trkpt>
      <trkpt lat="47.78209" lon="-2.58539">
        <ele>103</ele>
        <time>2007-10-07T07:23:50Z</time>
      </trkpt>
      <trkpt lat="47.78205" lon="-2.58538">
        <ele>103</ele>
        <time>2007-10-07T07:23:51Z</time>
      </trkpt>
      <trkpt lat="47.78185" lon="-2.58535">
        <ele>103</ele>
        <time>2007-10-07T07:23:57Z</time>
      </trkpt>
      <trkpt lat="47.78168" lon="-2.58534">
        <ele>104</ele>
        <time>2007-10-07T07:24:03Z</time>
      </trkpt>
      <trkpt lat="47.78151" lon="-2.58531">
        <ele>105</ele>
        <time>2007-10-07T07:24:09Z</time>
      </trkpt>
      <trkpt lat="47.78138" lon="-2.5853">
        <ele>105</ele>
        <time>2007-10-07T07:24:13Z</time>
      </trkpt>
      <trkpt lat="47.78123" lon="-2.58527">
        <ele>105</ele>
        <time>2007-10-07T07:24:17Z</time>
      </trkpt>
      <trkpt lat="47.78098" lon="-2.58526">
        <ele>105</ele>
        <time>2007-10-07T07:24:25Z</time>
      </trkpt>
      <trkpt lat="47.78076" lon="-2.58525">
        <ele>106</ele>
        <time>2007-10-07T07:24:32Z</time>
      </trkpt>
      <trkpt lat="47.78053" lon="-2.58524">
        <ele>106</ele>
        <time>2007-10-07T07:24:39Z</time>
      </trkpt>
      <trkpt lat="47.78031" lon="-2.58519">
        <ele>106</ele>
        <time>2007-10-07T07:24:46Z</time>
      </trkpt>
      <trkpt lat="47.78019" lon="-2.58515">
        <ele>107</ele>
        <time>2007-10-07T07:24:51Z</time>
      </trkpt>
      <trkpt lat="47.78009" lon="-2.58528">
        <ele>107</ele>
        <time>2007-10-07T07:24:56Z</time>
      </trkpt>
      <trkpt lat="47.78003" lon="-2.58552">
        <ele>105</ele>
        <time>2007-10-07T07:25:00Z</time>
      </trkpt>
      <trkpt lat="47.78" lon="-2.58566">
        <ele>104</ele>
        <time>2007-10-07T07:25:02Z</time>
      </trkpt>
      <trkpt lat="47.77997" lon="-2.58581">
        <ele>103</ele>
        <time>2007-10-07T07:25:04Z</time>
      </trkpt>
      <trkpt lat="47.77993" lon="-2.58604">
        <ele>102</ele>
        <time>2007-10-07T07:25:07Z</time>
      </trkpt>
      <trkpt lat="47.77993" lon="-2.58613">
        <ele>102</ele>
        <time>2007-10-07T07:25:08Z</time>
      </trkpt>
      <trkpt lat="47.77991" lon="-2.5865">
        <ele>102</ele>
        <time>2007-10-07T07:25:12Z</time>
      </trkpt>
      <trkpt lat="47.77987" lon="-2.58681">
        <ele>102</ele>
        <time>2007-10-07T07:25:16Z</time>
      </trkpt>
      <trkpt lat="47.77984" lon="-2.58714">
        <ele>101</ele>
        <time>2007-10-07T07:25:20Z</time>
      </trkpt>
      <trkpt lat="47.77979" lon="-2.58764">
        <ele>101</ele>
        <time>2007-10-07T07:25:26Z</time>
      </trkpt>
      <trkpt lat="47.77974" lon="-2.58813">
        <ele>101</ele>
        <time>2007-10-07T07:25:32Z</time>
      </trkpt>
      <trkpt lat="47.77967" lon="-2.58851">
        <ele>100</ele>
        <time>2007-10-07T07:25:37Z</time>
      </trkpt>
      <trkpt lat="47.77967" lon="-2.58856">
        <ele>100</ele>
        <time>2007-10-07T07:25:38Z</time>
      </trkpt>
      <trkpt lat="47.77967" lon="-2.5887">
        <ele>100</ele>
        <time>2007-10-07T07:25:40Z</time>
      </trkpt>
      <trkpt lat="47.77965" lon="-2.58885">
        <ele>100</ele>
        <time>2007-10-07T07:25:42Z</time>
      </trkpt>
      <trkpt lat="47.7796" lon="-2.58922">
        <ele>100</ele>
        <time>2007-10-07T07:25:47Z</time>
      </trkpt>
      <trkpt lat="47.77955" lon="-2.58959">
        <ele>99</ele>
        <time>2007-10-07T07:25:52Z</time>
      </trkpt>
      <trkpt lat="47.77952" lon="-2.58989">
        <ele>99</ele>
        <time>2007-10-07T07:25:56Z</time>
      </trkpt>
      <trkpt lat="47.77954" lon="-2.5903">
        <ele>99</ele>
        <time>2007-10-07T07:26:02Z</time>
      </trkpt>
      <trkpt lat="47.77952" lon="-2.59053">
        <ele>98</ele>
        <time>2007-10-07T07:26:06Z</time>
      </trkpt>
      <trkpt lat="47.77945" lon="-2.5907">
        <ele>98</ele>
        <time>2007-10-07T07:26:10Z</time>
      </trkpt>
      <trkpt lat="47.7792" lon="-2.59074">
        <ele>98</ele>
        <time>2007-10-07T07:26:16Z</time>
      </trkpt>
      <trkpt lat="47.77915" lon="-2.59074">
        <ele>98</ele>
        <time>2007-10-07T07:26:17Z</time>
      </trkpt>
      <trkpt lat="47.77905" lon="-2.59092">
        <ele>97</ele>
        <time>2007-10-07T07:26:21Z</time>
      </trkpt>
      <trkpt lat="47.77903" lon="-2.59104">
        <ele>98</ele>
        <time>2007-10-07T07:26:23Z</time>
      </trkpt>
      <trkpt lat="47.77898" lon="-2.59159">
        <ele>99</ele>
        <time>2007-10-07T07:26:33Z</time>
      </trkpt>
      <trkpt lat="47.77896" lon="-2.59204">
        <ele>99</ele>
        <time>2007-10-07T07:26:42Z</time>
      </trkpt>
      <trkpt lat="47.77892" lon="-2.59245">
        <ele>99</ele>
        <time>2007-10-07T07:26:51Z</time>
      </trkpt>
      <trkpt lat="47.77887" lon="-2.59286">
        <ele>99</ele>
        <time>2007-10-07T07:26:59Z</time>
      </trkpt>
      <trkpt lat="47.77883" lon="-2.59325">
        <ele>99</ele>
        <time>2007-10-07T07:27:08Z</time>
      </trkpt>
      <trkpt lat="47.77882" lon="-2.5934">
        <ele>99</ele>
        <time>2007-10-07T07:27:14Z</time>
      </trkpt>
      <trkpt lat="47.77881" lon="-2.59342">
        <ele>99</ele>
        <time>2007-10-07T07:27:15Z</time>
      </trkpt>
      <trkpt lat="47.77883" lon="-2.59352">
        <ele>99</ele>
        <time>2007-10-07T07:27:23Z</time>
      </trkpt>
      <trkpt lat="47.77884" lon="-2.59352">
        <ele>99</ele>
        <time>2007-10-07T07:27:28Z</time>
      </trkpt>
      <trkpt lat="47.77883" lon="-2.59354">
        <ele>99</ele>
        <time>2007-10-07T07:27:32Z</time>
      </trkpt>
      <trkpt lat="47.77882" lon="-2.59356">
        <ele>99</ele>
        <time>2007-10-07T07:27:37Z</time>
      </trkpt>
      <trkpt lat="47.77881" lon="-2.59356">
        <ele>99</ele>
        <time>2007-10-07T07:27:38Z</time>
      </trkpt>
      <trkpt lat="47.77885" lon="-2.59356">
        <ele>99</ele>
        <time>2007-10-07T07:28:01Z</time>
      </trkpt>
      <trkpt lat="47.77886" lon="-2.59355">
        <ele>99</ele>
        <time>2007-10-07T07:28:03Z</time>
      </trkpt>
      <trkpt lat="47.77886" lon="-2.59355">
        <ele>99</ele>
        <time>2007-10-07T07:28:06Z</time>
      </trkpt>
      <trkpt lat="47.77887" lon="-2.59354">
        <ele>99</ele>
        <time>2007-10-07T07:28:07Z</time>
      </trkpt>
      <trkpt lat="47.77888" lon="-2.59354">
        <ele>99</ele>
        <time>2007-10-07T07:28:08Z</time>
      </trkpt>
      <trkpt lat="47.77888" lon="-2.59354">
        <ele>99</ele>
        <time>2007-10-07T07:28:12Z</time>
      </trkpt>
      <trkpt lat="47.77888" lon="-2.59353">
        <ele>99</ele>
        <time>2007-10-07T07:28:13Z</time>
      </trkpt>
      <trkpt lat="47.77887" lon="-2.59353">
        <ele>100</ele>
        <time>2007-10-07T07:28:16Z</time>
      </trkpt>
      <trkpt lat="47.77886" lon="-2.59354">
        <ele>100</ele>
        <time>2007-10-07T07:28:17Z</time>
      </trkpt>
      <trkpt lat="47.77888" lon="-2.59355">
        <ele>100</ele>
        <time>2007-10-07T07:28:24Z</time>
      </trkpt>
      <trkpt lat="47.77892" lon="-2.59359">
        <ele>100</ele>
        <time>2007-10-07T07:28:31Z</time>
      </trkpt>
      <trkpt lat="47.77893" lon="-2.59358">
        <ele>99</ele>
        <time>2007-10-07T07:28:39Z</time>
      </trkpt>
      <trkpt lat="47.77896" lon="-2.59358">
        <ele>99</ele>
        <time>2007-10-07T07:28:44Z</time>
      </trkpt>
      <trkpt lat="47.77897" lon="-2.59359">
        <ele>99</ele>
        <time>2007-10-07T07:28:47Z</time>
      </trkpt>
      <trkpt lat="47.77895" lon="-2.59361">
        <ele>102</ele>
        <time>2007-10-07T07:28:55Z</time>
      </trkpt>
      <trkpt lat="47.77895" lon="-2.59361">
        <ele>100</ele>
        <time>2007-10-07T07:28:56Z</time>
      </trkpt>
      <trkpt lat="47.77895" lon="-2.59361">
        <ele>100</ele>
        <time>2007-10-07T07:28:57Z</time>
      </trkpt>
      <trkpt lat="47.77884" lon="-2.59353">
        <ele>98</ele>
        <time>2007-10-07T07:29:24Z</time>
      </trkpt>
      <trkpt lat="47.77887" lon="-2.59353">
        <ele>98</ele>
        <time>2007-10-07T07:29:25Z</time>
      </trkpt>
      <trkpt lat="47.77887" lon="-2.59353">
        <ele>99</ele>
        <time>2007-10-07T07:29:26Z</time>
      </trkpt>
      <trkpt lat="47.77887" lon="-2.59356">
        <ele>99</ele>
        <time>2007-10-07T07:29:30Z</time>
      </trkpt>
      <trkpt lat="47.77888" lon="-2.59357">
        <ele>99</ele>
        <time>2007-10-07T07:29:32Z</time>
      </trkpt>
      <trkpt lat="47.77888" lon="-2.59356">
        <ele>99</ele>
        <time>2007-10-07T07:29:35Z</time>
      </trkpt>
      <trkpt lat="47.77888" lon="-2.59356">
        <ele>99</ele>
        <time>2007-10-07T07:29:36Z</time>
      </trkpt>
      <trkpt lat="47.7789" lon="-2.59355">
        <ele>99</ele>
        <time>2007-10-07T07:29:42Z</time>
      </trkpt>
      <trkpt lat="47.77893" lon="-2.59355">
        <ele>99</ele>
        <time>2007-10-07T07:29:43Z</time>
      </trkpt>
      <trkpt lat="47.77902" lon="-2.59354">
        <ele>100</ele>
        <time>2007-10-07T07:29:48Z</time>
      </trkpt>
      <trkpt lat="47.77906" lon="-2.59364">
        <ele>99</ele>
        <time>2007-10-07T07:29:53Z</time>
      </trkpt>
      <trkpt lat="47.77905" lon="-2.5937">
        <ele>99</ele>
        <time>2007-10-07T07:29:55Z</time>
      </trkpt>
      <trkpt lat="47.77901" lon="-2.59393">
        <ele>99</ele>
        <time>2007-10-07T07:30:01Z</time>
      </trkpt>
      <trkpt lat="47.77899" lon="-2.59419">
        <ele>99</ele>
        <time>2007-10-07T07:30:06Z</time>
      </trkpt>
      <trkpt lat="47.77891" lon="-2.59449">
        <ele>98</ele>
        <time>2007-10-07T07:30:12Z</time>
      </trkpt>
      <trkpt lat="47.77881" lon="-2.59472">
        <ele>98</ele>
        <time>2007-10-07T07:30:17Z</time>
      </trkpt>
      <trkpt lat="47.77872" lon="-2.59499">
        <ele>98</ele>
        <time>2007-10-07T07:30:22Z</time>
      </trkpt>
      <trkpt lat="47.7787" lon="-2.59519">
        <ele>98</ele>
        <time>2007-10-07T07:30:26Z</time>
      </trkpt>
      <trkpt lat="47.77876" lon="-2.59535">
        <ele>98</ele>
        <time>2007-10-07T07:30:30Z</time>
      </trkpt>
      <trkpt lat="47.77891" lon="-2.59549">
        <ele>99</ele>
        <time>2007-10-07T07:30:35Z</time>
      </trkpt>
      <trkpt lat="47.77915" lon="-2.59568">
        <ele>99</ele>
        <time>2007-10-07T07:30:41Z</time>
      </trkpt>
      <trkpt lat="47.77928" lon="-2.59581">
        <ele>99</ele>
        <time>2007-10-07T07:30:45Z</time>
      </trkpt>
      <trkpt lat="47.77943" lon="-2.596">
        <ele>99</ele>
        <time>2007-10-07T07:30:50Z</time>
      </trkpt>
      <trkpt lat="47.77943" lon="-2.59601">
        <ele>99</ele>
        <time>2007-10-07T07:30:51Z</time>
      </trkpt>
      <trkpt lat="47.77943" lon="-2.59608">
        <ele>99</ele>
        <time>2007-10-07T07:30:54Z</time>
      </trkpt>
      <trkpt lat="47.77935" lon="-2.59627">
        <ele>99</ele>
        <time>2007-10-07T07:30:59Z</time>
      </trkpt>
      <trkpt lat="47.77915" lon="-2.59655">
        <ele>99</ele>
        <time>2007-10-07T07:31:05Z</time>
      </trkpt>
      <trkpt lat="47.77909" lon="-2.59667">
        <ele>99</ele>
        <time>2007-10-07T07:31:08Z</time>
      </trkpt>
      <trkpt lat="47.77902" lon="-2.59682">
        <ele>100</ele>
        <time>2007-10-07T07:31:12Z</time>
      </trkpt>
      <trkpt lat="47.77889" lon="-2.59702">
        <ele>99</ele>
        <time>2007-10-07T07:31:17Z</time>
      </trkpt>
      <trkpt lat="47.77875" lon="-2.59726">
        <ele>100</ele>
        <time>2007-10-07T07:31:22Z</time>
      </trkpt>
      <trkpt lat="47.77863" lon="-2.59753">
        <ele>100</ele>
        <time>2007-10-07T07:31:28Z</time>
      </trkpt>
      <trkpt lat="47.77858" lon="-2.59769">
        <ele>100</ele>
        <time>2007-10-07T07:31:32Z</time>
      </trkpt>
      <trkpt lat="47.77846" lon="-2.598">
        <ele>100</ele>
        <time>2007-10-07T07:31:39Z</time>
      </trkpt>
      <trkpt lat="47.77836" lon="-2.59818">
        <ele>100</ele>
        <time>2007-10-07T07:31:44Z</time>
      </trkpt>
      <trkpt lat="47.77827" lon="-2.5984">
        <ele>101</ele>
        <time>2007-10-07T07:31:51Z</time>
      </trkpt>
      <trkpt lat="47.77818" lon="-2.5986">
        <ele>101</ele>
        <time>2007-10-07T07:31:56Z</time>
      </trkpt>
      <trkpt lat="47.77807" lon="-2.59883">
        <ele>101</ele>
        <time>2007-10-07T07:32:01Z</time>
      </trkpt>
      <trkpt lat="47.77795" lon="-2.59908">
        <ele>101</ele>
        <time>2007-10-07T07:32:06Z</time>
      </trkpt>
      <trkpt lat="47.77783" lon="-2.59932">
        <ele>102</ele>
        <time>2007-10-07T07:32:11Z</time>
      </trkpt>
      <trkpt lat="47.77768" lon="-2.59964">
        <ele>102</ele>
        <time>2007-10-07T07:32:17Z</time>
      </trkpt>
      <trkpt lat="47.77756" lon="-2.59987">
        <ele>103</ele>
        <time>2007-10-07T07:32:22Z</time>
      </trkpt>
      <trkpt lat="47.77743" lon="-2.60011">
        <ele>103</ele>
        <time>2007-10-07T07:32:27Z</time>
      </trkpt>
      <trkpt lat="47.77733" lon="-2.60029">
        <ele>103</ele>
        <time>2007-10-07T07:32:31Z</time>
      </trkpt>
      <trkpt lat="47.77722" lon="-2.60049">
        <ele>104</ele>
        <time>2007-10-07T07:32:35Z</time>
      </trkpt>
      <trkpt lat="47.77706" lon="-2.60073">
        <ele>104</ele>
        <time>2007-10-07T07:32:40Z</time>
      </trkpt>
      <trkpt lat="47.77692" lon="-2.601">
        <ele>104</ele>
        <time>2007-10-07T07:32:45Z</time>
      </trkpt>
      <trkpt lat="47.77681" lon="-2.60117">
        <ele>104</ele>
        <time>2007-10-07T07:32:49Z</time>
      </trkpt>
      <trkpt lat="47.77673" lon="-2.60133">
        <ele>105</ele>
        <time>2007-10-07T07:32:54Z</time>
      </trkpt>
      <trkpt lat="47.77663" lon="-2.6013">
        <ele>105</ele>
        <time>2007-10-07T07:32:58Z</time>
      </trkpt>
      <trkpt lat="47.77657" lon="-2.60106">
        <ele>106</ele>
        <time>2007-10-07T07:33:04Z</time>
      </trkpt>
      <trkpt lat="47.77655" lon="-2.60088">
        <ele>106</ele>
        <time>2007-10-07T07:33:07Z</time>
      </trkpt>
      <trkpt lat="47.77651" lon="-2.60064">
        <ele>105</ele>
        <time>2007-10-07T07:33:11Z</time>
      </trkpt>
      <trkpt lat="47.7765" lon="-2.6005">
        <ele>105</ele>
        <time>2007-10-07T07:33:13Z</time>
      </trkpt>
      <trkpt lat="47.7765" lon="-2.60036">
        <ele>104</ele>
        <time>2007-10-07T07:33:15Z</time>
      </trkpt>
      <trkpt lat="47.7764" lon="-2.6001">
        <ele>105</ele>
        <time>2007-10-07T07:33:20Z</time>
      </trkpt>
      <trkpt lat="47.77621" lon="-2.60001">
        <ele>104</ele>
        <time>2007-10-07T07:33:24Z</time>
      </trkpt>
      <trkpt lat="47.77607" lon="-2.59999">
        <ele>105</ele>
        <time>2007-10-07T07:33:27Z</time>
      </trkpt>
      <trkpt lat="47.77597" lon="-2.6">
        <ele>105</ele>
        <time>2007-10-07T07:33:29Z</time>
      </trkpt>
      <trkpt lat="47.77586" lon="-2.59998">
        <ele>104</ele>
        <time>2007-10-07T07:33:31Z</time>
      </trkpt>
      <trkpt lat="47.77574" lon="-2.59997">
        <ele>104</ele>
        <time>2007-10-07T07:33:33Z</time>
      </trkpt>
      <trkpt lat="47.77548" lon="-2.59998">
        <ele>104</ele>
        <time>2007-10-07T07:33:38Z</time>
      </trkpt>
      <trkpt lat="47.77537" lon="-2.60001">
        <ele>105</ele>
        <time>2007-10-07T07:33:42Z</time>
      </trkpt>
      <trkpt lat="47.77524" lon="-2.59999">
        <ele>104</ele>
        <time>2007-10-07T07:33:45Z</time>
      </trkpt>
      <trkpt lat="47.77508" lon="-2.60005">
        <ele>105</ele>
        <time>2007-10-07T07:33:50Z</time>
      </trkpt>
      <trkpt lat="47.77499" lon="-2.60003">
        <ele>106</ele>
        <time>2007-10-07T07:33:52Z</time>
      </trkpt>
      <trkpt lat="47.7748" lon="-2.59989">
        <ele>105</ele>
        <time>2007-10-07T07:33:56Z</time>
      </trkpt>
      <trkpt lat="47.77457" lon="-2.59985">
        <ele>104</ele>
        <time>2007-10-07T07:34:01Z</time>
      </trkpt>
      <trkpt lat="47.77439" lon="-2.59991">
        <ele>105</ele>
        <time>2007-10-07T07:34:04Z</time>
      </trkpt>
      <trkpt lat="47.77391" lon="-2.59996">
        <ele>105</ele>
        <time>2007-10-07T07:34:12Z</time>
      </trkpt>
      <trkpt lat="47.77358" lon="-2.59998">
        <ele>106</ele>
        <time>2007-10-07T07:34:19Z</time>
      </trkpt>
      <trkpt lat="47.77333" lon="-2.60002">
        <ele>106</ele>
        <time>2007-10-07T07:34:25Z</time>
      </trkpt>
      <trkpt lat="47.77301" lon="-2.60005">
        <ele>107</ele>
        <time>2007-10-07T07:34:32Z</time>
      </trkpt>
      <trkpt lat="47.77288" lon="-2.59993">
        <ele>106</ele>
        <time>2007-10-07T07:34:36Z</time>
      </trkpt>
      <trkpt lat="47.77289" lon="-2.59973">
        <ele>106</ele>
        <time>2007-10-07T07:34:39Z</time>
      </trkpt>
      <trkpt lat="47.77292" lon="-2.59959">
        <ele>106</ele>
        <time>2007-10-07T07:34:41Z</time>
      </trkpt>
      <trkpt lat="47.77295" lon="-2.59922">
        <ele>105</ele>
        <time>2007-10-07T07:34:46Z</time>
      </trkpt>
      <trkpt lat="47.77294" lon="-2.59907">
        <ele>105</ele>
        <time>2007-10-07T07:34:48Z</time>
      </trkpt>
      <trkpt lat="47.7729" lon="-2.59872">
        <ele>103</ele>
        <time>2007-10-07T07:34:54Z</time>
      </trkpt>
      <trkpt lat="47.77288" lon="-2.59869">
        <ele>103</ele>
        <time>2007-10-07T07:34:55Z</time>
      </trkpt>
      <trkpt lat="47.77285" lon="-2.59857">
        <ele>103</ele>
        <time>2007-10-07T07:35:00Z</time>
      </trkpt>
      <trkpt lat="47.7727" lon="-2.59817">
        <ele>102</ele>
        <time>2007-10-07T07:35:07Z</time>
      </trkpt>
      <trkpt lat="47.77267" lon="-2.5981">
        <ele>102</ele>
        <time>2007-10-07T07:35:08Z</time>
      </trkpt>
      <trkpt lat="47.77261" lon="-2.59796">
        <ele>102</ele>
        <time>2007-10-07T07:35:10Z</time>
      </trkpt>
      <trkpt lat="47.7725" lon="-2.5975">
        <ele>102</ele>
        <time>2007-10-07T07:35:16Z</time>
      </trkpt>
      <trkpt lat="47.77246" lon="-2.59734">
        <ele>101</ele>
        <time>2007-10-07T07:35:18Z</time>
      </trkpt>
      <trkpt lat="47.77233" lon="-2.59705">
        <ele>101</ele>
        <time>2007-10-07T07:35:23Z</time>
      </trkpt>
      <trkpt lat="47.77232" lon="-2.59692">
        <ele>101</ele>
        <time>2007-10-07T07:35:26Z</time>
      </trkpt>
      <trkpt lat="47.7724" lon="-2.59689">
        <ele>101</ele>
        <time>2007-10-07T07:35:29Z</time>
      </trkpt>
      <trkpt lat="47.7725" lon="-2.59693">
        <ele>102</ele>
        <time>2007-10-07T07:35:32Z</time>
      </trkpt>
      <trkpt lat="47.77262" lon="-2.5969">
        <ele>102</ele>
        <time>2007-10-07T07:35:35Z</time>
      </trkpt>
      <trkpt lat="47.77287" lon="-2.59673">
        <ele>102</ele>
        <time>2007-10-07T07:35:42Z</time>
      </trkpt>
      <trkpt lat="47.77299" lon="-2.59663">
        <ele>101</ele>
        <time>2007-10-07T07:35:45Z</time>
      </trkpt>
      <trkpt lat="47.77316" lon="-2.59658">
        <ele>100</ele>
        <time>2007-10-07T07:35:49Z</time>
      </trkpt>
      <trkpt lat="47.7734" lon="-2.59671">
        <ele>100</ele>
        <time>2007-10-07T07:35:55Z</time>
      </trkpt>
      <trkpt lat="47.77356" lon="-2.59661">
        <ele>99</ele>
        <time>2007-10-07T07:35:59Z</time>
      </trkpt>
      <trkpt lat="47.77359" lon="-2.59644">
        <ele>100</ele>
        <time>2007-10-07T07:36:02Z</time>
      </trkpt>
      <trkpt lat="47.77363" lon="-2.5962">
        <ele>99</ele>
        <time>2007-10-07T07:36:06Z</time>
      </trkpt>
      <trkpt lat="47.77364" lon="-2.59603">
        <ele>99</ele>
        <time>2007-10-07T07:36:09Z</time>
      </trkpt>
      <trkpt lat="47.77356" lon="-2.59591">
        <ele>99</ele>
        <time>2007-10-07T07:36:12Z</time>
      </trkpt>
      <trkpt lat="47.77346" lon="-2.59591">
        <ele>99</ele>
        <time>2007-10-07T07:36:15Z</time>
      </trkpt>
      <trkpt lat="47.77328" lon="-2.59583">
        <ele>99</ele>
        <time>2007-10-07T07:36:21Z</time>
      </trkpt>
      <trkpt lat="47.77313" lon="-2.59583">
        <ele>100</ele>
        <time>2007-10-07T07:36:26Z</time>
      </trkpt>
      <trkpt lat="47.77295" lon="-2.59578">
        <ele>100</ele>
        <time>2007-10-07T07:36:31Z</time>
      </trkpt>
      <trkpt lat="47.77292" lon="-2.59577">
        <ele>100</ele>
        <time>2007-10-07T07:36:32Z</time>
      </trkpt>
      <trkpt lat="47.77287" lon="-2.59584">
        <ele>100</ele>
        <time>2007-10-07T07:36:36Z</time>
      </trkpt>
      <trkpt lat="47.77283" lon="-2.59592">
        <ele>100</ele>
        <time>2007-10-07T07:36:40Z</time>
      </trkpt>
      <trkpt lat="47.77269" lon="-2.59593">
        <ele>100</ele>
        <time>2007-10-07T07:36:45Z</time>
      </trkpt>
      <trkpt lat="47.77262" lon="-2.59577">
        <ele>100</ele>
        <time>2007-10-07T07:36:49Z</time>
      </trkpt>
      <trkpt lat="47.77256" lon="-2.59571">
        <ele>100</ele>
        <time>2007-10-07T07:36:52Z</time>
      </trkpt>
      <trkpt lat="47.77241" lon="-2.59565">
        <ele>100</ele>
        <time>2007-10-07T07:36:56Z</time>
      </trkpt>
      <trkpt lat="47.77237" lon="-2.59564">
        <ele>100</ele>
        <time>2007-10-07T07:36:57Z</time>
      </trkpt>
      <trkpt lat="47.77223" lon="-2.59563">
        <ele>100</ele>
        <time>2007-10-07T07:37:01Z</time>
      </trkpt>
      <trkpt lat="47.77212" lon="-2.59546">
        <ele>99</ele>
        <time>2007-10-07T07:37:06Z</time>
      </trkpt>
      <trkpt lat="47.77213" lon="-2.59535">
        <ele>99</ele>
        <time>2007-10-07T07:37:08Z</time>
      </trkpt>
      <trkpt lat="47.77212" lon="-2.59516">
        <ele>98</ele>
        <time>2007-10-07T07:37:12Z</time>
      </trkpt>
      <trkpt lat="47.77207" lon="-2.59484">
        <ele>97</ele>
        <time>2007-10-07T07:37:17Z</time>
      </trkpt>
      <trkpt lat="47.77204" lon="-2.59472">
        <ele>97</ele>
        <time>2007-10-07T07:37:20Z</time>
      </trkpt>
      <trkpt lat="47.77198" lon="-2.59466">
        <ele>96</ele>
        <time>2007-10-07T07:37:23Z</time>
      </trkpt>
      <trkpt lat="47.77193" lon="-2.59465">
        <ele>96</ele>
        <time>2007-10-07T07:37:25Z</time>
      </trkpt>
      <trkpt lat="47.77189" lon="-2.59443">
        <ele>96</ele>
        <time>2007-10-07T07:37:30Z</time>
      </trkpt>
      <trkpt lat="47.77189" lon="-2.59433">
        <ele>95</ele>
        <time>2007-10-07T07:37:32Z</time>
      </trkpt>
      <trkpt lat="47.77179" lon="-2.59416">
        <ele>94</ele>
        <time>2007-10-07T07:37:37Z</time>
      </trkpt>
      <trkpt lat="47.77171" lon="-2.59398">
        <ele>92</ele>
        <time>2007-10-07T07:37:40Z</time>
      </trkpt>
      <trkpt lat="47.77167" lon="-2.59377">
        <ele>92</ele>
        <time>2007-10-07T07:37:44Z</time>
      </trkpt>
      <trkpt lat="47.77172" lon="-2.59369">
        <ele>92</ele>
        <time>2007-10-07T07:37:46Z</time>
      </trkpt>
      <trkpt lat="47.77167" lon="-2.5935">
        <ele>90</ele>
        <time>2007-10-07T07:37:52Z</time>
      </trkpt>
      <trkpt lat="47.77164" lon="-2.59348">
        <ele>90</ele>
        <time>2007-10-07T07:37:53Z</time>
      </trkpt>
      <trkpt lat="47.77156" lon="-2.59353">
        <ele>90</ele>
        <time>2007-10-07T07:37:57Z</time>
      </trkpt>
      <trkpt lat="47.77156" lon="-2.59371">
        <ele>91</ele>
        <time>2007-10-07T07:38:02Z</time>
      </trkpt>
      <trkpt lat="47.77155" lon="-2.5938">
        <ele>91</ele>
        <time>2007-10-07T07:38:04Z</time>
      </trkpt>
      <trkpt lat="47.77157" lon="-2.594">
        <ele>92</ele>
        <time>2007-10-07T07:38:09Z</time>
      </trkpt>
      <trkpt lat="47.7715" lon="-2.59414">
        <ele>90</ele>
        <time>2007-10-07T07:38:13Z</time>
      </trkpt>
      <trkpt lat="47.77147" lon="-2.59434">
        <ele>91</ele>
        <time>2007-10-07T07:38:17Z</time>
      </trkpt>
      <trkpt lat="47.77149" lon="-2.59453">
        <ele>93</ele>
        <time>2007-10-07T07:38:22Z</time>
      </trkpt>
      <trkpt lat="47.77152" lon="-2.59472">
        <ele>94</ele>
        <time>2007-10-07T07:38:26Z</time>
      </trkpt>
      <trkpt lat="47.77149" lon="-2.59495">
        <ele>93</ele>
        <time>2007-10-07T07:38:31Z</time>
      </trkpt>
      <trkpt lat="47.77147" lon="-2.59506">
        <ele>95</ele>
        <time>2007-10-07T07:38:35Z</time>
      </trkpt>
      <trkpt lat="47.7715" lon="-2.59501">
        <ele>95</ele>
        <time>2007-10-07T07:38:39Z</time>
      </trkpt>
      <trkpt lat="47.77155" lon="-2.59497">
        <ele>96</ele>
        <time>2007-10-07T07:38:42Z</time>
      </trkpt>
      <trkpt lat="47.77163" lon="-2.59504">
        <ele>96</ele>
        <time>2007-10-07T07:38:47Z</time>
      </trkpt>
      <trkpt lat="47.77163" lon="-2.59511">
        <ele>97</ele>
        <time>2007-10-07T07:38:50Z</time>
      </trkpt>
      <trkpt lat="47.77161" lon="-2.59515">
        <ele>97</ele>
        <time>2007-10-07T07:38:52Z</time>
      </trkpt>
      <trkpt lat="47.77156" lon="-2.59529">
        <ele>96</ele>
        <time>2007-10-07T07:38:57Z</time>
      </trkpt>
      <trkpt lat="47.77156" lon="-2.59535">
        <ele>96</ele>
        <time>2007-10-07T07:38:59Z</time>
      </trkpt>
      <trkpt lat="47.7715" lon="-2.59551">
        <ele>95</ele>
        <time>2007-10-07T07:39:04Z</time>
      </trkpt>
      <trkpt lat="47.77149" lon="-2.59554">
        <ele>95</ele>
        <time>2007-10-07T07:39:07Z</time>
      </trkpt>
      <trkpt lat="47.77148" lon="-2.59557">
        <ele>95</ele>
        <time>2007-10-07T07:39:11Z</time>
      </trkpt>
      <trkpt lat="47.77149" lon="-2.59561">
        <ele>95</ele>
        <time>2007-10-07T07:39:15Z</time>
      </trkpt>
      <trkpt lat="47.77149" lon="-2.59569">
        <ele>95</ele>
        <time>2007-10-07T07:39:21Z</time>
      </trkpt>
      <trkpt lat="47.77151" lon="-2.5957">
        <ele>96</ele>
        <time>2007-10-07T07:39:24Z</time>
      </trkpt>
      <trkpt lat="47.77158" lon="-2.59567">
        <ele>97</ele>
        <time>2007-10-07T07:39:29Z</time>
      </trkpt>
      <trkpt lat="47.77168" lon="-2.59555">
        <ele>97</ele>
        <time>2007-10-07T07:39:35Z</time>
      </trkpt>
      <trkpt lat="47.77171" lon="-2.59555">
        <ele>98</ele>
        <time>2007-10-07T07:39:36Z</time>
      </trkpt>
      <trkpt lat="47.77174" lon="-2.59563">
        <ele>98</ele>
        <time>2007-10-07T07:39:40Z</time>
      </trkpt>
      <trkpt lat="47.77175" lon="-2.59576">
        <ele>98</ele>
        <time>2007-10-07T07:39:44Z</time>
      </trkpt>
      <trkpt lat="47.77179" lon="-2.59593">
        <ele>98</ele>
        <time>2007-10-07T07:39:49Z</time>
      </trkpt>
      <trkpt lat="47.77172" lon="-2.59599">
        <ele>97</ele>
        <time>2007-10-07T07:39:53Z</time>
      </trkpt>
      <trkpt lat="47.77167" lon="-2.59596">
        <ele>97</ele>
        <time>2007-10-07T07:39:55Z</time>
      </trkpt>
      <trkpt lat="47.77154" lon="-2.59589">
        <ele>95</ele>
        <time>2007-10-07T07:39:58Z</time>
      </trkpt>
      <trkpt lat="47.7714" lon="-2.5959">
        <ele>96</ele>
        <time>2007-10-07T07:40:02Z</time>
      </trkpt>
      <trkpt lat="47.77127" lon="-2.59593">
        <ele>97</ele>
        <time>2007-10-07T07:40:06Z</time>
      </trkpt>
      <trkpt lat="47.77122" lon="-2.59608">
        <ele>97</ele>
        <time>2007-10-07T07:40:10Z</time>
      </trkpt>
      <trkpt lat="47.77113" lon="-2.59616">
        <ele>98</ele>
        <time>2007-10-07T07:40:14Z</time>
      </trkpt>
      <trkpt lat="47.77096" lon="-2.59622">
        <ele>99</ele>
        <time>2007-10-07T07:40:20Z</time>
      </trkpt>
      <trkpt lat="47.77094" lon="-2.59624">
        <ele>99</ele>
        <time>2007-10-07T07:40:21Z</time>
      </trkpt>
      <trkpt lat="47.77084" lon="-2.59619">
        <ele>100</ele>
        <time>2007-10-07T07:40:25Z</time>
      </trkpt>
      <trkpt lat="47.77082" lon="-2.59605">
        <ele>100</ele>
        <time>2007-10-07T07:40:30Z</time>
      </trkpt>
      <trkpt lat="47.77086" lon="-2.59606">
        <ele>100</ele>
        <time>2007-10-07T07:40:32Z</time>
      </trkpt>
      <trkpt lat="47.77102" lon="-2.59599">
        <ele>99</ele>
        <time>2007-10-07T07:40:37Z</time>
      </trkpt>
      <trkpt lat="47.77106" lon="-2.59587">
        <ele>99</ele>
        <time>2007-10-07T07:40:40Z</time>
      </trkpt>
      <trkpt lat="47.77114" lon="-2.59581">
        <ele>97</ele>
        <time>2007-10-07T07:40:44Z</time>
      </trkpt>
      <trkpt lat="47.77121" lon="-2.59566">
        <ele>96</ele>
        <time>2007-10-07T07:40:48Z</time>
      </trkpt>
      <trkpt lat="47.77121" lon="-2.59544">
        <ele>95</ele>
        <time>2007-10-07T07:40:53Z</time>
      </trkpt>
      <trkpt lat="47.77115" lon="-2.59539">
        <ele>96</ele>
        <time>2007-10-07T07:40:56Z</time>
      </trkpt>
      <trkpt lat="47.77106" lon="-2.59545">
        <ele>97</ele>
        <time>2007-10-07T07:41:02Z</time>
      </trkpt>
      <trkpt lat="47.77105" lon="-2.59551">
        <ele>98</ele>
        <time>2007-10-07T07:41:04Z</time>
      </trkpt>
      <trkpt lat="47.77097" lon="-2.59553">
        <ele>98</ele>
        <time>2007-10-07T07:41:09Z</time>
      </trkpt>
      <trkpt lat="47.77087" lon="-2.59554">
        <ele>98</ele>
        <time>2007-10-07T07:41:13Z</time>
      </trkpt>
      <trkpt lat="47.77078" lon="-2.59554">
        <ele>98</ele>
        <time>2007-10-07T07:41:17Z</time>
      </trkpt>
      <trkpt lat="47.77076" lon="-2.59554">
        <ele>99</ele>
        <time>2007-10-07T07:41:18Z</time>
      </trkpt>
      <trkpt lat="47.77069" lon="-2.59542">
        <ele>97</ele>
        <time>2007-10-07T07:41:23Z</time>
      </trkpt>
      <trkpt lat="47.77067" lon="-2.59527">
        <ele>97</ele>
        <time>2007-10-07T07:41:27Z</time>
      </trkpt>
      <trkpt lat="47.77074" lon="-2.59523">
        <ele>96</ele>
        <time>2007-10-07T07:41:30Z</time>
      </trkpt>
      <trkpt lat="47.77079" lon="-2.59529">
        <ele>97</ele>
        <time>2007-10-07T07:41:35Z</time>
      </trkpt>
      <trkpt lat="47.77086" lon="-2.59524">
        <ele>97</ele>
        <time>2007-10-07T07:41:39Z</time>
      </trkpt>
      <trkpt lat="47.77094" lon="-2.59518">
        <ele>97</ele>
        <time>2007-10-07T07:41:42Z</time>
      </trkpt>
      <trkpt lat="47.77103" lon="-2.59503">
        <ele>96</ele>
        <time>2007-10-07T07:41:47Z</time>
      </trkpt>
      <trkpt lat="47.77113" lon="-2.59489">
        <ele>93</ele>
        <time>2007-10-07T07:41:51Z</time>
      </trkpt>
      <trkpt lat="47.77114" lon="-2.5948">
        <ele>92</ele>
        <time>2007-10-07T07:41:53Z</time>
      </trkpt>
      <trkpt lat="47.77112" lon="-2.59477">
        <ele>93</ele>
        <time>2007-10-07T07:41:54Z</time>
      </trkpt>
      <trkpt lat="47.77104" lon="-2.59457">
        <ele>93</ele>
        <time>2007-10-07T07:42:00Z</time>
      </trkpt>
      <trkpt lat="47.77097" lon="-2.59461">
        <ele>94</ele>
        <time>2007-10-07T07:42:05Z</time>
      </trkpt>
      <trkpt lat="47.77095" lon="-2.59471">
        <ele>95</ele>
        <time>2007-10-07T07:42:09Z</time>
      </trkpt>
      <trkpt lat="47.77094" lon="-2.59475">
        <ele>96</ele>
        <time>2007-10-07T07:42:11Z</time>
      </trkpt>
      <trkpt lat="47.77092" lon="-2.59476">
        <ele>96</ele>
        <time>2007-10-07T07:42:13Z</time>
      </trkpt>
      <trkpt lat="47.77083" lon="-2.59469">
        <ele>96</ele>
        <time>2007-10-07T07:42:17Z</time>
      </trkpt>
      <trkpt lat="47.77071" lon="-2.59459">
        <ele>96</ele>
        <time>2007-10-07T07:42:23Z</time>
      </trkpt>
      <trkpt lat="47.77064" lon="-2.59456">
        <ele>96</ele>
        <time>2007-10-07T07:42:27Z</time>
      </trkpt>
      <trkpt lat="47.77061" lon="-2.59445">
        <ele>95</ele>
        <time>2007-10-07T07:42:30Z</time>
      </trkpt>
      <trkpt lat="47.77061" lon="-2.59441">
        <ele>94</ele>
        <time>2007-10-07T07:42:31Z</time>
      </trkpt>
      <trkpt lat="47.77063" lon="-2.59433">
        <ele>94</ele>
        <time>2007-10-07T07:42:33Z</time>
      </trkpt>
      <trkpt lat="47.77069" lon="-2.59424">
        <ele>93</ele>
        <time>2007-10-07T07:42:36Z</time>
      </trkpt>
      <trkpt lat="47.77073" lon="-2.59411">
        <ele>92</ele>
        <time>2007-10-07T07:42:39Z</time>
      </trkpt>
      <trkpt lat="47.77081" lon="-2.59406">
        <ele>92</ele>
        <time>2007-10-07T07:42:43Z</time>
      </trkpt>
      <trkpt lat="47.77088" lon="-2.59411">
        <ele>92</ele>
        <time>2007-10-07T07:42:46Z</time>
      </trkpt>
      <trkpt lat="47.77095" lon="-2.59416">
        <ele>92</ele>
        <time>2007-10-07T07:42:49Z</time>
      </trkpt>
      <trkpt lat="47.77098" lon="-2.59426">
        <ele>93</ele>
        <time>2007-10-07T07:42:54Z</time>
      </trkpt>
      <trkpt lat="47.77103" lon="-2.59426">
        <ele>92</ele>
        <time>2007-10-07T07:42:56Z</time>
      </trkpt>
      <trkpt lat="47.77108" lon="-2.59418">
        <ele>92</ele>
        <time>2007-10-07T07:43:01Z</time>
      </trkpt>
      <trkpt lat="47.77103" lon="-2.59406">
        <ele>92</ele>
        <time>2007-10-07T07:43:04Z</time>
      </trkpt>
      <trkpt lat="47.77092" lon="-2.5939">
        <ele>91</ele>
        <time>2007-10-07T07:43:09Z</time>
      </trkpt>
      <trkpt lat="47.77081" lon="-2.59378">
        <ele>91</ele>
        <time>2007-10-07T07:43:14Z</time>
      </trkpt>
      <trkpt lat="47.77074" lon="-2.59386">
        <ele>92</ele>
        <time>2007-10-07T07:43:18Z</time>
      </trkpt>
      <trkpt lat="47.77066" lon="-2.59383">
        <ele>92</ele>
        <time>2007-10-07T07:43:21Z</time>
      </trkpt>
      <trkpt lat="47.77065" lon="-2.59376">
        <ele>92</ele>
        <time>2007-10-07T07:43:24Z</time>
      </trkpt>
      <trkpt lat="47.77071" lon="-2.59369">
        <ele>90</ele>
        <time>2007-10-07T07:43:28Z</time>
      </trkpt>
      <trkpt lat="47.77067" lon="-2.59356">
        <ele>90</ele>
        <time>2007-10-07T07:43:31Z</time>
      </trkpt>
      <trkpt lat="47.77059" lon="-2.59356">
        <ele>90</ele>
        <time>2007-10-07T07:43:34Z</time>
      </trkpt>
      <trkpt lat="47.77056" lon="-2.59358">
        <ele>90</ele>
        <time>2007-10-07T07:43:35Z</time>
      </trkpt>
      <trkpt lat="47.77052" lon="-2.59358">
        <ele>90</ele>
        <time>2007-10-07T07:43:37Z</time>
      </trkpt>
      <trkpt lat="47.77043" lon="-2.59346">
        <ele>90</ele>
        <time>2007-10-07T07:43:41Z</time>
      </trkpt>
      <trkpt lat="47.77029" lon="-2.59339">
        <ele>89</ele>
        <time>2007-10-07T07:43:45Z</time>
      </trkpt>
      <trkpt lat="47.77027" lon="-2.5935">
        <ele>89</ele>
        <time>2007-10-07T07:43:48Z</time>
      </trkpt>
      <trkpt lat="47.77022" lon="-2.59359">
        <ele>90</ele>
        <time>2007-10-07T07:43:52Z</time>
      </trkpt>
      <trkpt lat="47.77" lon="-2.59371">
        <ele>91</ele>
        <time>2007-10-07T07:43:58Z</time>
      </trkpt>
      <trkpt lat="47.76997" lon="-2.59373">
        <ele>91</ele>
        <time>2007-10-07T07:43:59Z</time>
      </trkpt>
      <trkpt lat="47.76985" lon="-2.59371">
        <ele>91</ele>
        <time>2007-10-07T07:44:03Z</time>
      </trkpt>
      <trkpt lat="47.76963" lon="-2.59366">
        <ele>92</ele>
        <time>2007-10-07T07:44:08Z</time>
      </trkpt>
      <trkpt lat="47.76942" lon="-2.59369">
        <ele>92</ele>
        <time>2007-10-07T07:44:13Z</time>
      </trkpt>
      <trkpt lat="47.76928" lon="-2.59374">
        <ele>92</ele>
        <time>2007-10-07T07:44:17Z</time>
      </trkpt>
      <trkpt lat="47.76916" lon="-2.59389">
        <ele>94</ele>
        <time>2007-10-07T07:44:22Z</time>
      </trkpt>
      <trkpt lat="47.76913" lon="-2.59402">
        <ele>95</ele>
        <time>2007-10-07T07:44:26Z</time>
      </trkpt>
      <trkpt lat="47.76917" lon="-2.5942">
        <ele>97</ele>
        <time>2007-10-07T07:44:32Z</time>
      </trkpt>
      <trkpt lat="47.7692" lon="-2.59438">
        <ele>97</ele>
        <time>2007-10-07T07:44:37Z</time>
      </trkpt>
      <trkpt lat="47.7692" lon="-2.59441">
        <ele>97</ele>
        <time>2007-10-07T07:44:38Z</time>
      </trkpt>
      <trkpt lat="47.76912" lon="-2.59451">
        <ele>98</ele>
        <time>2007-10-07T07:44:44Z</time>
      </trkpt>
      <trkpt lat="47.7691" lon="-2.59456">
        <ele>98</ele>
        <time>2007-10-07T07:44:46Z</time>
      </trkpt>
      <trkpt lat="47.76906" lon="-2.59469">
        <ele>99</ele>
        <time>2007-10-07T07:44:51Z</time>
      </trkpt>
      <trkpt lat="47.76896" lon="-2.59482">
        <ele>100</ele>
        <time>2007-10-07T07:44:56Z</time>
      </trkpt>
      <trkpt lat="47.76888" lon="-2.59506">
        <ele>101</ele>
        <time>2007-10-07T07:45:02Z</time>
      </trkpt>
      <trkpt lat="47.76882" lon="-2.59522">
        <ele>102</ele>
        <time>2007-10-07T07:45:07Z</time>
      </trkpt>
      <trkpt lat="47.76871" lon="-2.59531">
        <ele>102</ele>
        <time>2007-10-07T07:45:12Z</time>
      </trkpt>
      <trkpt lat="47.76864" lon="-2.59522">
        <ele>102</ele>
        <time>2007-10-07T07:45:17Z</time>
      </trkpt>
      <trkpt lat="47.76861" lon="-2.59518">
        <ele>103</ele>
        <time>2007-10-07T07:45:21Z</time>
      </trkpt>
      <trkpt lat="47.7686" lon="-2.5952">
        <ele>102</ele>
        <time>2007-10-07T07:45:22Z</time>
      </trkpt>
      <trkpt lat="47.76858" lon="-2.59529">
        <ele>103</ele>
        <time>2007-10-07T07:45:26Z</time>
      </trkpt>
      <trkpt lat="47.76856" lon="-2.59549">
        <ele>103</ele>
        <time>2007-10-07T07:45:30Z</time>
      </trkpt>
      <trkpt lat="47.76858" lon="-2.59563">
        <ele>103</ele>
        <time>2007-10-07T07:45:33Z</time>
      </trkpt>
      <trkpt lat="47.76852" lon="-2.59574">
        <ele>103</ele>
        <time>2007-10-07T07:45:37Z</time>
      </trkpt>
      <trkpt lat="47.76847" lon="-2.59586">
        <ele>103</ele>
        <time>2007-10-07T07:45:41Z</time>
      </trkpt>
      <trkpt lat="47.76847" lon="-2.59595">
        <ele>104</ele>
        <time>2007-10-07T07:45:43Z</time>
      </trkpt>
      <trkpt lat="47.7684" lon="-2.59609">
        <ele>104</ele>
        <time>2007-10-07T07:45:48Z</time>
      </trkpt>
      <trkpt lat="47.76835" lon="-2.59607">
        <ele>105</ele>
        <time>2007-10-07T07:45:50Z</time>
      </trkpt>
      <trkpt lat="47.76828" lon="-2.59608">
        <ele>105</ele>
        <time>2007-10-07T07:45:53Z</time>
      </trkpt>
      <trkpt lat="47.76819" lon="-2.5963">
        <ele>106</ele>
        <time>2007-10-07T07:45:59Z</time>
      </trkpt>
      <trkpt lat="47.76808" lon="-2.5964">
        <ele>106</ele>
        <time>2007-10-07T07:46:03Z</time>
      </trkpt>
      <trkpt lat="47.76795" lon="-2.59659">
        <ele>106</ele>
        <time>2007-10-07T07:46:08Z</time>
      </trkpt>
      <trkpt lat="47.76784" lon="-2.59667">
        <ele>106</ele>
        <time>2007-10-07T07:46:12Z</time>
      </trkpt>
      <trkpt lat="47.76779" lon="-2.59672">
        <ele>106</ele>
        <time>2007-10-07T07:46:15Z</time>
      </trkpt>
      <trkpt lat="47.76777" lon="-2.59676">
        <ele>106</ele>
        <time>2007-10-07T07:46:16Z</time>
      </trkpt>
      <trkpt lat="47.76785" lon="-2.59693">
        <ele>106</ele>
        <time>2007-10-07T07:46:22Z</time>
      </trkpt>
      <trkpt lat="47.76796" lon="-2.59708">
        <ele>107</ele>
        <time>2007-10-07T07:46:26Z</time>
      </trkpt>
      <trkpt lat="47.76808" lon="-2.59713">
        <ele>106</ele>
        <time>2007-10-07T07:46:29Z</time>
      </trkpt>
      <trkpt lat="47.76818" lon="-2.59717">
        <ele>106</ele>
        <time>2007-10-07T07:46:31Z</time>
      </trkpt>
      <trkpt lat="47.76838" lon="-2.59725">
        <ele>106</ele>
        <time>2007-10-07T07:46:35Z</time>
      </trkpt>
      <trkpt lat="47.76847" lon="-2.59731">
        <ele>106</ele>
        <time>2007-10-07T07:46:37Z</time>
      </trkpt>
      <trkpt lat="47.76869" lon="-2.59748">
        <ele>107</ele>
        <time>2007-10-07T07:46:43Z</time>
      </trkpt>
      <trkpt lat="47.76884" lon="-2.59764">
        <ele>107</ele>
        <time>2007-10-07T07:46:48Z</time>
      </trkpt>
      <trkpt lat="47.76896" lon="-2.59775">
        <ele>108</ele>
        <time>2007-10-07T07:46:52Z</time>
      </trkpt>
      <trkpt lat="47.76913" lon="-2.5979">
        <ele>108</ele>
        <time>2007-10-07T07:46:58Z</time>
      </trkpt>
      <trkpt lat="47.76932" lon="-2.59802">
        <ele>107</ele>
        <time>2007-10-07T07:47:04Z</time>
      </trkpt>
      <trkpt lat="47.76952" lon="-2.59814">
        <ele>107</ele>
        <time>2007-10-07T07:47:10Z</time>
      </trkpt>
      <trkpt lat="47.76967" lon="-2.59821">
        <ele>106</ele>
        <time>2007-10-07T07:47:15Z</time>
      </trkpt>
      <trkpt lat="47.76986" lon="-2.59832">
        <ele>106</ele>
        <time>2007-10-07T07:47:20Z</time>
      </trkpt>
      <trkpt lat="47.76988" lon="-2.59834">
        <ele>106</ele>
        <time>2007-10-07T07:47:21Z</time>
      </trkpt>
      <trkpt lat="47.77001" lon="-2.59843">
        <ele>105</ele>
        <time>2007-10-07T07:47:26Z</time>
      </trkpt>
      <trkpt lat="47.77025" lon="-2.59859">
        <ele>106</ele>
        <time>2007-10-07T07:47:31Z</time>
      </trkpt>
      <trkpt lat="47.77031" lon="-2.59868">
        <ele>106</ele>
        <time>2007-10-07T07:47:33Z</time>
      </trkpt>
      <trkpt lat="47.77031" lon="-2.5989">
        <ele>107</ele>
        <time>2007-10-07T07:47:38Z</time>
      </trkpt>
      <trkpt lat="47.7702" lon="-2.59899">
        <ele>106</ele>
        <time>2007-10-07T07:47:42Z</time>
      </trkpt>
      <trkpt lat="47.77006" lon="-2.59916">
        <ele>106</ele>
        <time>2007-10-07T07:47:47Z</time>
      </trkpt>
      <trkpt lat="47.77" lon="-2.59937">
        <ele>107</ele>
        <time>2007-10-07T07:47:52Z</time>
      </trkpt>
      <trkpt lat="47.77015" lon="-2.59956">
        <ele>107</ele>
        <time>2007-10-07T07:47:56Z</time>
      </trkpt>
      <trkpt lat="47.77023" lon="-2.59964">
        <ele>107</ele>
        <time>2007-10-07T07:47:58Z</time>
      </trkpt>
      <trkpt lat="47.77035" lon="-2.59969">
        <ele>107</ele>
        <time>2007-10-07T07:48:02Z</time>
      </trkpt>
      <trkpt lat="47.77051" lon="-2.59995">
        <ele>107</ele>
        <time>2007-10-07T07:48:09Z</time>
      </trkpt>
      <trkpt lat="47.77068" lon="-2.60016">
        <ele>107</ele>
        <time>2007-10-07T07:48:14Z</time>
      </trkpt>
      <trkpt lat="47.77076" lon="-2.60026">
        <ele>107</ele>
        <time>2007-10-07T07:48:16Z</time>
      </trkpt>
      <trkpt lat="47.77094" lon="-2.60037">
        <ele>107</ele>
        <time>2007-10-07T07:48:21Z</time>
      </trkpt>
      <trkpt lat="47.77106" lon="-2.60048">
        <ele>108</ele>
        <time>2007-10-07T07:48:25Z</time>
      </trkpt>
      <trkpt lat="47.77123" lon="-2.60057">
        <ele>108</ele>
        <time>2007-10-07T07:48:31Z</time>
      </trkpt>
      <trkpt lat="47.77135" lon="-2.60071">
        <ele>109</ele>
        <time>2007-10-07T07:48:36Z</time>
      </trkpt>
      <trkpt lat="47.77137" lon="-2.60078">
        <ele>108</ele>
        <time>2007-10-07T07:48:38Z</time>
      </trkpt>
      <trkpt lat="47.77144" lon="-2.60103">
        <ele>109</ele>
        <time>2007-10-07T07:48:45Z</time>
      </trkpt>
      <trkpt lat="47.77141" lon="-2.60115">
        <ele>109</ele>
        <time>2007-10-07T07:48:49Z</time>
      </trkpt>
      <trkpt lat="47.77138" lon="-2.60121">
        <ele>110</ele>
        <time>2007-10-07T07:48:51Z</time>
      </trkpt>
      <trkpt lat="47.77131" lon="-2.60135">
        <ele>110</ele>
        <time>2007-10-07T07:48:55Z</time>
      </trkpt>
      <trkpt lat="47.77132" lon="-2.60151">
        <ele>110</ele>
        <time>2007-10-07T07:48:59Z</time>
      </trkpt>
      <trkpt lat="47.77144" lon="-2.60171">
        <ele>110</ele>
        <time>2007-10-07T07:49:05Z</time>
      </trkpt>
      <trkpt lat="47.77154" lon="-2.60183">
        <ele>110</ele>
        <time>2007-10-07T07:49:09Z</time>
      </trkpt>
      <trkpt lat="47.77175" lon="-2.602">
        <ele>111</ele>
        <time>2007-10-07T07:49:16Z</time>
      </trkpt>
      <trkpt lat="47.77195" lon="-2.60219">
        <ele>111</ele>
        <time>2007-10-07T07:49:22Z</time>
      </trkpt>
      <trkpt lat="47.77221" lon="-2.60246">
        <ele>112</ele>
        <time>2007-10-07T07:49:31Z</time>
      </trkpt>
      <trkpt lat="47.77235" lon="-2.60257">
        <ele>112</ele>
        <time>2007-10-07T07:49:36Z</time>
      </trkpt>
      <trkpt lat="47.77248" lon="-2.60272">
        <ele>112</ele>
        <time>2007-10-07T07:49:40Z</time>
      </trkpt>
      <trkpt lat="47.77271" lon="-2.60303">
        <ele>113</ele>
        <time>2007-10-07T07:49:48Z</time>
      </trkpt>
      <trkpt lat="47.77288" lon="-2.60322">
        <ele>113</ele>
        <time>2007-10-07T07:49:54Z</time>
      </trkpt>
      <trkpt lat="47.773" lon="-2.60343">
        <ele>114</ele>
        <time>2007-10-07T07:49:59Z</time>
      </trkpt>
      <trkpt lat="47.77316" lon="-2.60369">
        <ele>114</ele>
        <time>2007-10-07T07:50:05Z</time>
      </trkpt>
      <trkpt lat="47.77336" lon="-2.60398">
        <ele>114</ele>
        <time>2007-10-07T07:50:12Z</time>
      </trkpt>
      <trkpt lat="47.77347" lon="-2.60414">
        <ele>114</ele>
        <time>2007-10-07T07:50:16Z</time>
      </trkpt>
      <trkpt lat="47.77357" lon="-2.6044">
        <ele>114</ele>
        <time>2007-10-07T07:50:21Z</time>
      </trkpt>
      <trkpt lat="47.77372" lon="-2.6047">
        <ele>113</ele>
        <time>2007-10-07T07:50:27Z</time>
      </trkpt>
      <trkpt lat="47.77386" lon="-2.60485">
        <ele>113</ele>
        <time>2007-10-07T07:50:32Z</time>
      </trkpt>
      <trkpt lat="47.77392" lon="-2.60493">
        <ele>114</ele>
        <time>2007-10-07T07:50:34Z</time>
      </trkpt>
      <trkpt lat="47.77389" lon="-2.60507">
        <ele>113</ele>
        <time>2007-10-07T07:50:38Z</time>
      </trkpt>
      <trkpt lat="47.77387" lon="-2.60509">
        <ele>114</ele>
        <time>2007-10-07T07:50:39Z</time>
      </trkpt>
      <trkpt lat="47.77372" lon="-2.60525">
        <ele>114</ele>
        <time>2007-10-07T07:50:45Z</time>
      </trkpt>
      <trkpt lat="47.77356" lon="-2.60539">
        <ele>114</ele>
        <time>2007-10-07T07:50:50Z</time>
      </trkpt>
      <trkpt lat="47.77342" lon="-2.60551">
        <ele>114</ele>
        <time>2007-10-07T07:50:54Z</time>
      </trkpt>
      <trkpt lat="47.77326" lon="-2.60563">
        <ele>115</ele>
        <time>2007-10-07T07:50:59Z</time>
      </trkpt>
      <trkpt lat="47.77304" lon="-2.60584">
        <ele>114</ele>
        <time>2007-10-07T07:51:05Z</time>
      </trkpt>
      <trkpt lat="47.77283" lon="-2.60601">
        <ele>114</ele>
        <time>2007-10-07T07:51:10Z</time>
      </trkpt>
      <trkpt lat="47.77276" lon="-2.60618">
        <ele>114</ele>
        <time>2007-10-07T07:51:14Z</time>
      </trkpt>
      <trkpt lat="47.77277" lon="-2.60639">
        <ele>114</ele>
        <time>2007-10-07T07:51:18Z</time>
      </trkpt>
      <trkpt lat="47.77279" lon="-2.60666">
        <ele>115</ele>
        <time>2007-10-07T07:51:23Z</time>
      </trkpt>
      <trkpt lat="47.77279" lon="-2.60706">
        <ele>115</ele>
        <time>2007-10-07T07:51:29Z</time>
      </trkpt>
      <trkpt lat="47.77282" lon="-2.60723">
        <ele>114</ele>
        <time>2007-10-07T07:51:33Z</time>
      </trkpt>
      <trkpt lat="47.77293" lon="-2.60745">
        <ele>115</ele>
        <time>2007-10-07T07:51:38Z</time>
      </trkpt>
      <trkpt lat="47.77304" lon="-2.60761">
        <ele>115</ele>
        <time>2007-10-07T07:51:42Z</time>
      </trkpt>
      <trkpt lat="47.77314" lon="-2.60785">
        <ele>116</ele>
        <time>2007-10-07T07:51:47Z</time>
      </trkpt>
      <trkpt lat="47.77324" lon="-2.60804">
        <ele>115</ele>
        <time>2007-10-07T07:51:51Z</time>
      </trkpt>
      <trkpt lat="47.77333" lon="-2.60819">
        <ele>116</ele>
        <time>2007-10-07T07:51:56Z</time>
      </trkpt>
      <trkpt lat="47.7734" lon="-2.60809">
        <ele>116</ele>
        <time>2007-10-07T07:52:01Z</time>
      </trkpt>
      <trkpt lat="47.77341" lon="-2.60806">
        <ele>116</ele>
        <time>2007-10-07T07:52:02Z</time>
      </trkpt>
      <trkpt lat="47.77351" lon="-2.60797">
        <ele>116</ele>
        <time>2007-10-07T07:52:07Z</time>
      </trkpt>
      <trkpt lat="47.77357" lon="-2.60793">
        <ele>116</ele>
        <time>2007-10-07T07:52:10Z</time>
      </trkpt>
      <trkpt lat="47.77367" lon="-2.60806">
        <ele>115</ele>
        <time>2007-10-07T07:52:15Z</time>
      </trkpt>
      <trkpt lat="47.77367" lon="-2.60812">
        <ele>116</ele>
        <time>2007-10-07T07:52:17Z</time>
      </trkpt>
      <trkpt lat="47.77374" lon="-2.60829">
        <ele>116</ele>
        <time>2007-10-07T07:52:22Z</time>
      </trkpt>
      <trkpt lat="47.77373" lon="-2.60839">
        <ele>116</ele>
        <time>2007-10-07T07:52:25Z</time>
      </trkpt>
      <trkpt lat="47.77367" lon="-2.60855">
        <ele>116</ele>
        <time>2007-10-07T07:52:30Z</time>
      </trkpt>
      <trkpt lat="47.7736" lon="-2.60864">
        <ele>116</ele>
        <time>2007-10-07T07:52:34Z</time>
      </trkpt>
      <trkpt lat="47.7736" lon="-2.60873">
        <ele>117</ele>
        <time>2007-10-07T07:52:37Z</time>
      </trkpt>
      <trkpt lat="47.77354" lon="-2.60894">
        <ele>117</ele>
        <time>2007-10-07T07:52:42Z</time>
      </trkpt>
      <trkpt lat="47.77356" lon="-2.60909">
        <ele>117</ele>
        <time>2007-10-07T07:52:47Z</time>
      </trkpt>
      <trkpt lat="47.77358" lon="-2.60911">
        <ele>117</ele>
        <time>2007-10-07T07:52:48Z</time>
      </trkpt>
      <trkpt lat="47.77372" lon="-2.60911">
        <ele>117</ele>
        <time>2007-10-07T07:52:55Z</time>
      </trkpt>
      <trkpt lat="47.7738" lon="-2.60907">
        <ele>116</ele>
        <time>2007-10-07T07:53:00Z</time>
      </trkpt>
      <trkpt lat="47.77381" lon="-2.60909">
        <ele>117</ele>
        <time>2007-10-07T07:53:01Z</time>
      </trkpt>
      <trkpt lat="47.77387" lon="-2.60917">
        <ele>116</ele>
        <time>2007-10-07T07:53:04Z</time>
      </trkpt>
      <trkpt lat="47.77398" lon="-2.60923">
        <ele>116</ele>
        <time>2007-10-07T07:53:08Z</time>
      </trkpt>
      <trkpt lat="47.77411" lon="-2.60926">
        <ele>116</ele>
        <time>2007-10-07T07:53:12Z</time>
      </trkpt>
      <trkpt lat="47.77427" lon="-2.60929">
        <ele>115</ele>
        <time>2007-10-07T07:53:16Z</time>
      </trkpt>
      <trkpt lat="47.77442" lon="-2.60943">
        <ele>115</ele>
        <time>2007-10-07T07:53:21Z</time>
      </trkpt>
      <trkpt lat="47.77453" lon="-2.60959">
        <ele>115</ele>
        <time>2007-10-07T07:53:25Z</time>
      </trkpt>
      <trkpt lat="47.77472" lon="-2.60967">
        <ele>115</ele>
        <time>2007-10-07T07:53:30Z</time>
      </trkpt>
      <trkpt lat="47.77477" lon="-2.60969">
        <ele>115</ele>
        <time>2007-10-07T07:53:32Z</time>
      </trkpt>
      <trkpt lat="47.77494" lon="-2.60979">
        <ele>114</ele>
        <time>2007-10-07T07:53:36Z</time>
      </trkpt>
      <trkpt lat="47.77509" lon="-2.60982">
        <ele>113</ele>
        <time>2007-10-07T07:53:40Z</time>
      </trkpt>
      <trkpt lat="47.77524" lon="-2.60988">
        <ele>113</ele>
        <time>2007-10-07T07:53:44Z</time>
      </trkpt>
      <trkpt lat="47.7753" lon="-2.60991">
        <ele>113</ele>
        <time>2007-10-07T07:53:46Z</time>
      </trkpt>
      <trkpt lat="47.77535" lon="-2.61003">
        <ele>112</ele>
        <time>2007-10-07T07:53:50Z</time>
      </trkpt>
      <trkpt lat="47.77525" lon="-2.61008">
        <ele>112</ele>
        <time>2007-10-07T07:53:55Z</time>
      </trkpt>
      <trkpt lat="47.77517" lon="-2.61004">
        <ele>112</ele>
        <time>2007-10-07T07:53:58Z</time>
      </trkpt>
      <trkpt lat="47.77502" lon="-2.61012">
        <ele>112</ele>
        <time>2007-10-07T07:54:03Z</time>
      </trkpt>
      <trkpt lat="47.7749" lon="-2.61022">
        <ele>113</ele>
        <time>2007-10-07T07:54:06Z</time>
      </trkpt>
      <trkpt lat="47.77473" lon="-2.61032">
        <ele>113</ele>
        <time>2007-10-07T07:54:11Z</time>
      </trkpt>
      <trkpt lat="47.77458" lon="-2.61037">
        <ele>114</ele>
        <time>2007-10-07T07:54:15Z</time>
      </trkpt>
      <trkpt lat="47.77448" lon="-2.6105">
        <ele>114</ele>
        <time>2007-10-07T07:54:19Z</time>
      </trkpt>
      <trkpt lat="47.77444" lon="-2.61052">
        <ele>113</ele>
        <time>2007-10-07T07:54:20Z</time>
      </trkpt>
      <trkpt lat="47.77429" lon="-2.61069">
        <ele>114</ele>
        <time>2007-10-07T07:54:25Z</time>
      </trkpt>
      <trkpt lat="47.77415" lon="-2.61087">
        <ele>115</ele>
        <time>2007-10-07T07:54:30Z</time>
      </trkpt>
      <trkpt lat="47.77411" lon="-2.61094">
        <ele>115</ele>
        <time>2007-10-07T07:54:32Z</time>
      </trkpt>
      <trkpt lat="47.77409" lon="-2.61096">
        <ele>114</ele>
        <time>2007-10-07T07:54:34Z</time>
      </trkpt>
      <trkpt lat="47.77402" lon="-2.61087">
        <ele>115</ele>
        <time>2007-10-07T07:54:38Z</time>
      </trkpt>
      <trkpt lat="47.77392" lon="-2.61078">
        <ele>115</ele>
        <time>2007-10-07T07:54:42Z</time>
      </trkpt>
      <trkpt lat="47.7739" lon="-2.61075">
        <ele>115</ele>
        <time>2007-10-07T07:54:43Z</time>
      </trkpt>
      <trkpt lat="47.77379" lon="-2.61069">
        <ele>115</ele>
        <time>2007-10-07T07:54:48Z</time>
      </trkpt>
      <trkpt lat="47.77374" lon="-2.6108">
        <ele>116</ele>
        <time>2007-10-07T07:54:53Z</time>
      </trkpt>
      <trkpt lat="47.77376" lon="-2.61107">
        <ele>115</ele>
        <time>2007-10-07T07:54:58Z</time>
      </trkpt>
      <trkpt lat="47.77376" lon="-2.61114">
        <ele>115</ele>
        <time>2007-10-07T07:54:59Z</time>
      </trkpt>
      <trkpt lat="47.77369" lon="-2.61146">
        <ele>115</ele>
        <time>2007-10-07T07:55:05Z</time>
      </trkpt>
      <trkpt lat="47.77362" lon="-2.61142">
        <ele>115</ele>
        <time>2007-10-07T07:55:10Z</time>
      </trkpt>
      <trkpt lat="47.77362" lon="-2.61131">
        <ele>115</ele>
        <time>2007-10-07T07:55:14Z</time>
      </trkpt>
      <trkpt lat="47.77358" lon="-2.61132">
        <ele>116</ele>
        <time>2007-10-07T07:55:17Z</time>
      </trkpt>
      <trkpt lat="47.77351" lon="-2.61143">
        <ele>116</ele>
        <time>2007-10-07T07:55:23Z</time>
      </trkpt>
      <trkpt lat="47.77343" lon="-2.61143">
        <ele>117</ele>
        <time>2007-10-07T07:55:26Z</time>
      </trkpt>
      <trkpt lat="47.77323" lon="-2.61149">
        <ele>118</ele>
        <time>2007-10-07T07:55:33Z</time>
      </trkpt>
      <trkpt lat="47.77308" lon="-2.61159">
        <ele>118</ele>
        <time>2007-10-07T07:55:38Z</time>
      </trkpt>
      <trkpt lat="47.77296" lon="-2.61169">
        <ele>118</ele>
        <time>2007-10-07T07:55:42Z</time>
      </trkpt>
      <trkpt lat="47.77286" lon="-2.61186">
        <ele>118</ele>
        <time>2007-10-07T07:55:46Z</time>
      </trkpt>
      <trkpt lat="47.77281" lon="-2.61202">
        <ele>118</ele>
        <time>2007-10-07T07:55:49Z</time>
      </trkpt>
      <trkpt lat="47.77275" lon="-2.61222">
        <ele>118</ele>
        <time>2007-10-07T07:55:54Z</time>
      </trkpt>
      <trkpt lat="47.77268" lon="-2.61238">
        <ele>118</ele>
        <time>2007-10-07T07:55:58Z</time>
      </trkpt>
      <trkpt lat="47.77261" lon="-2.61264">
        <ele>117</ele>
        <time>2007-10-07T07:56:03Z</time>
      </trkpt>
      <trkpt lat="47.77262" lon="-2.61288">
        <ele>117</ele>
        <time>2007-10-07T07:56:08Z</time>
      </trkpt>
      <trkpt lat="47.77261" lon="-2.6131">
        <ele>117</ele>
        <time>2007-10-07T07:56:12Z</time>
      </trkpt>
      <trkpt lat="47.77259" lon="-2.61313">
        <ele>117</ele>
        <time>2007-10-07T07:56:13Z</time>
      </trkpt>
      <trkpt lat="47.77255" lon="-2.61321">
        <ele>116</ele>
        <time>2007-10-07T07:56:16Z</time>
      </trkpt>
      <trkpt lat="47.77251" lon="-2.61334">
        <ele>117</ele>
        <time>2007-10-07T07:56:21Z</time>
      </trkpt>
      <trkpt lat="47.77253" lon="-2.61348">
        <ele>116</ele>
        <time>2007-10-07T07:56:25Z</time>
      </trkpt>
      <trkpt lat="47.77252" lon="-2.61353">
        <ele>116</ele>
        <time>2007-10-07T07:56:27Z</time>
      </trkpt>
      <trkpt lat="47.77243" lon="-2.61362">
        <ele>116</ele>
        <time>2007-10-07T07:56:32Z</time>
      </trkpt>
      <trkpt lat="47.77235" lon="-2.61385">
        <ele>116</ele>
        <time>2007-10-07T07:56:37Z</time>
      </trkpt>
      <trkpt lat="47.77228" lon="-2.61395">
        <ele>116</ele>
        <time>2007-10-07T07:56:41Z</time>
      </trkpt>
      <trkpt lat="47.77215" lon="-2.61403">
        <ele>116</ele>
        <time>2007-10-07T07:56:45Z</time>
      </trkpt>
      <trkpt lat="47.77205" lon="-2.61401">
        <ele>116</ele>
        <time>2007-10-07T07:56:49Z</time>
      </trkpt>
      <trkpt lat="47.772" lon="-2.61391">
        <ele>116</ele>
        <time>2007-10-07T07:56:52Z</time>
      </trkpt>
      <trkpt lat="47.7719" lon="-2.61387">
        <ele>116</ele>
        <time>2007-10-07T07:56:56Z</time>
      </trkpt>
      <trkpt lat="47.77182" lon="-2.61386">
        <ele>116</ele>
        <time>2007-10-07T07:56:59Z</time>
      </trkpt>
      <trkpt lat="47.77167" lon="-2.61364">
        <ele>116</ele>
        <time>2007-10-07T07:57:05Z</time>
      </trkpt>
      <trkpt lat="47.77163" lon="-2.61358">
        <ele>116</ele>
        <time>2007-10-07T07:57:07Z</time>
      </trkpt>
      <trkpt lat="47.77154" lon="-2.61358">
        <ele>116</ele>
        <time>2007-10-07T07:57:11Z</time>
      </trkpt>
      <trkpt lat="47.77143" lon="-2.61351">
        <ele>116</ele>
        <time>2007-10-07T07:57:15Z</time>
      </trkpt>
      <trkpt lat="47.7713" lon="-2.61336">
        <ele>116</ele>
        <time>2007-10-07T07:57:20Z</time>
      </trkpt>
      <trkpt lat="47.77122" lon="-2.61337">
        <ele>115</ele>
        <time>2007-10-07T07:57:23Z</time>
      </trkpt>
      <trkpt lat="47.7712" lon="-2.61337">
        <ele>116</ele>
        <time>2007-10-07T07:57:24Z</time>
      </trkpt>
      <trkpt lat="47.77102" lon="-2.61339">
        <ele>115</ele>
        <time>2007-10-07T07:57:29Z</time>
      </trkpt>
      <trkpt lat="47.77095" lon="-2.61338">
        <ele>115</ele>
        <time>2007-10-07T07:57:33Z</time>
      </trkpt>
      <trkpt lat="47.77088" lon="-2.61325">
        <ele>115</ele>
        <time>2007-10-07T07:57:37Z</time>
      </trkpt>
      <trkpt lat="47.77085" lon="-2.61327">
        <ele>115</ele>
        <time>2007-10-07T07:57:39Z</time>
      </trkpt>
      <trkpt lat="47.77079" lon="-2.61323">
        <ele>114</ele>
        <time>2007-10-07T07:57:43Z</time>
      </trkpt>
      <trkpt lat="47.77077" lon="-2.61317">
        <ele>115</ele>
        <time>2007-10-07T07:57:45Z</time>
      </trkpt>
      <trkpt lat="47.77065" lon="-2.61313">
        <ele>114</ele>
        <time>2007-10-07T07:57:49Z</time>
      </trkpt>
      <trkpt lat="47.77052" lon="-2.61303">
        <ele>114</ele>
        <time>2007-10-07T07:57:54Z</time>
      </trkpt>
      <trkpt lat="47.77055" lon="-2.61291">
        <ele>114</ele>
        <time>2007-10-07T07:57:58Z</time>
      </trkpt>
      <trkpt lat="47.77059" lon="-2.61284">
        <ele>114</ele>
        <time>2007-10-07T07:58:00Z</time>
      </trkpt>
      <trkpt lat="47.77068" lon="-2.61281">
        <ele>114</ele>
        <time>2007-10-07T07:58:05Z</time>
      </trkpt>
      <trkpt lat="47.77076" lon="-2.61278">
        <ele>115</ele>
        <time>2007-10-07T07:58:09Z</time>
      </trkpt>
      <trkpt lat="47.77082" lon="-2.6128">
        <ele>115</ele>
        <time>2007-10-07T07:58:11Z</time>
      </trkpt>
      <trkpt lat="47.77095" lon="-2.61287">
        <ele>115</ele>
        <time>2007-10-07T07:58:16Z</time>
      </trkpt>
      <trkpt lat="47.77097" lon="-2.61289">
        <ele>116</ele>
        <time>2007-10-07T07:58:17Z</time>
      </trkpt>
      <trkpt lat="47.77109" lon="-2.61299">
        <ele>116</ele>
        <time>2007-10-07T07:58:22Z</time>
      </trkpt>
      <trkpt lat="47.77119" lon="-2.61303">
        <ele>116</ele>
        <time>2007-10-07T07:58:26Z</time>
      </trkpt>
      <trkpt lat="47.77126" lon="-2.61297">
        <ele>116</ele>
        <time>2007-10-07T07:58:29Z</time>
      </trkpt>
      <trkpt lat="47.7713" lon="-2.6128">
        <ele>116</ele>
        <time>2007-10-07T07:58:34Z</time>
      </trkpt>
      <trkpt lat="47.77136" lon="-2.6128">
        <ele>116</ele>
        <time>2007-10-07T07:58:36Z</time>
      </trkpt>
      <trkpt lat="47.77146" lon="-2.61285">
        <ele>116</ele>
        <time>2007-10-07T07:58:41Z</time>
      </trkpt>
      <trkpt lat="47.77153" lon="-2.61304">
        <ele>117</ele>
        <time>2007-10-07T07:58:46Z</time>
      </trkpt>
      <trkpt lat="47.7716" lon="-2.61315">
        <ele>117</ele>
        <time>2007-10-07T07:58:50Z</time>
      </trkpt>
      <trkpt lat="47.77165" lon="-2.61316">
        <ele>117</ele>
        <time>2007-10-07T07:58:52Z</time>
      </trkpt>
      <trkpt lat="47.77173" lon="-2.6132">
        <ele>117</ele>
        <time>2007-10-07T07:58:57Z</time>
      </trkpt>
      <trkpt lat="47.7718" lon="-2.61326">
        <ele>117</ele>
        <time>2007-10-07T07:59:00Z</time>
      </trkpt>
      <trkpt lat="47.77184" lon="-2.61331">
        <ele>117</ele>
        <time>2007-10-07T07:59:02Z</time>
      </trkpt>
      <trkpt lat="47.772" lon="-2.61338">
        <ele>117</ele>
        <time>2007-10-07T07:59:07Z</time>
      </trkpt>
      <trkpt lat="47.77206" lon="-2.61341">
        <ele>117</ele>
        <time>2007-10-07T07:59:09Z</time>
      </trkpt>
      <trkpt lat="47.7722" lon="-2.61339">
        <ele>117</ele>
        <time>2007-10-07T07:59:14Z</time>
      </trkpt>
      <trkpt lat="47.7722" lon="-2.61327">
        <ele>118</ele>
        <time>2007-10-07T07:59:18Z</time>
      </trkpt>
      <trkpt lat="47.77227" lon="-2.61313">
        <ele>117</ele>
        <time>2007-10-07T07:59:22Z</time>
      </trkpt>
      <trkpt lat="47.77233" lon="-2.61298">
        <ele>118</ele>
        <time>2007-10-07T07:59:26Z</time>
      </trkpt>
      <trkpt lat="47.77234" lon="-2.61288">
        <ele>118</ele>
        <time>2007-10-07T07:59:28Z</time>
      </trkpt>
      <trkpt lat="47.77237" lon="-2.61271">
        <ele>118</ele>
        <time>2007-10-07T07:59:32Z</time>
      </trkpt>
      <trkpt lat="47.77241" lon="-2.61252">
        <ele>119</ele>
        <time>2007-10-07T07:59:36Z</time>
      </trkpt>
      <trkpt lat="47.77241" lon="-2.61225">
        <ele>119</ele>
        <time>2007-10-07T07:59:42Z</time>
      </trkpt>
      <trkpt lat="47.77248" lon="-2.61207">
        <ele>119</ele>
        <time>2007-10-07T07:59:46Z</time>
      </trkpt>
      <trkpt lat="47.77254" lon="-2.61189">
        <ele>119</ele>
        <time>2007-10-07T07:59:50Z</time>
      </trkpt>
      <trkpt lat="47.7725" lon="-2.61169">
        <ele>120</ele>
        <time>2007-10-07T07:59:54Z</time>
      </trkpt>
      <trkpt lat="47.77249" lon="-2.61167">
        <ele>120</ele>
        <time>2007-10-07T07:59:55Z</time>
      </trkpt>
      <trkpt lat="47.77237" lon="-2.61159">
        <ele>120</ele>
        <time>2007-10-07T08:00:00Z</time>
      </trkpt>
      <trkpt lat="47.77228" lon="-2.61157">
        <ele>120</ele>
        <time>2007-10-07T08:00:04Z</time>
      </trkpt>
      <trkpt lat="47.77226" lon="-2.61148">
        <ele>121</ele>
        <time>2007-10-07T08:00:08Z</time>
      </trkpt>
      <trkpt lat="47.77232" lon="-2.61144">
        <ele>121</ele>
        <time>2007-10-07T08:00:11Z</time>
      </trkpt>
      <trkpt lat="47.77243" lon="-2.6113">
        <ele>120</ele>
        <time>2007-10-07T08:00:17Z</time>
      </trkpt>
      <trkpt lat="47.77252" lon="-2.61121">
        <ele>120</ele>
        <time>2007-10-07T08:00:20Z</time>
      </trkpt>
      <trkpt lat="47.77258" lon="-2.61111">
        <ele>120</ele>
        <time>2007-10-07T08:00:23Z</time>
      </trkpt>
      <trkpt lat="47.77268" lon="-2.611">
        <ele>120</ele>
        <time>2007-10-07T08:00:27Z</time>
      </trkpt>
      <trkpt lat="47.77265" lon="-2.61091">
        <ele>120</ele>
        <time>2007-10-07T08:00:31Z</time>
      </trkpt>
      <trkpt lat="47.7726" lon="-2.61087">
        <ele>120</ele>
        <time>2007-10-07T08:00:36Z</time>
      </trkpt>
      <trkpt lat="47.77269" lon="-2.61079">
        <ele>121</ele>
        <time>2007-10-07T08:00:41Z</time>
      </trkpt>
      <trkpt lat="47.77284" lon="-2.61084">
        <ele>121</ele>
        <time>2007-10-07T08:00:47Z</time>
      </trkpt>
      <trkpt lat="47.77292" lon="-2.61092">
        <ele>120</ele>
        <time>2007-10-07T08:00:50Z</time>
      </trkpt>
      <trkpt lat="47.773" lon="-2.61084">
        <ele>120</ele>
        <time>2007-10-07T08:00:55Z</time>
      </trkpt>
      <trkpt lat="47.77305" lon="-2.61073">
        <ele>120</ele>
        <time>2007-10-07T08:00:59Z</time>
      </trkpt>
      <trkpt lat="47.77306" lon="-2.61073">
        <ele>120</ele>
        <time>2007-10-07T08:01:00Z</time>
      </trkpt>
      <trkpt lat="47.77314" lon="-2.61082">
        <ele>120</ele>
        <time>2007-10-07T08:01:04Z</time>
      </trkpt>
      <trkpt lat="47.77322" lon="-2.61078">
        <ele>120</ele>
        <time>2007-10-07T08:01:08Z</time>
      </trkpt>
      <trkpt lat="47.7733" lon="-2.61069">
        <ele>119</ele>
        <time>2007-10-07T08:01:12Z</time>
      </trkpt>
      <trkpt lat="47.77332" lon="-2.61055">
        <ele>119</ele>
        <time>2007-10-07T08:01:15Z</time>
      </trkpt>
      <trkpt lat="47.7733" lon="-2.61052">
        <ele>120</ele>
        <time>2007-10-07T08:01:16Z</time>
      </trkpt>
      <trkpt lat="47.77329" lon="-2.61046">
        <ele>119</ele>
        <time>2007-10-07T08:01:18Z</time>
      </trkpt>
      <trkpt lat="47.77335" lon="-2.61033">
        <ele>119</ele>
        <time>2007-10-07T08:01:24Z</time>
      </trkpt>
      <trkpt lat="47.77339" lon="-2.61026">
        <ele>119</ele>
        <time>2007-10-07T08:01:26Z</time>
      </trkpt>
      <trkpt lat="47.77351" lon="-2.61013">
        <ele>119</ele>
        <time>2007-10-07T08:01:31Z</time>
      </trkpt>
      <trkpt lat="47.77354" lon="-2.60995">
        <ele>119</ele>
        <time>2007-10-07T08:01:35Z</time>
      </trkpt>
      <trkpt lat="47.77351" lon="-2.60982">
        <ele>119</ele>
        <time>2007-10-07T08:01:39Z</time>
      </trkpt>
      <trkpt lat="47.77348" lon="-2.60981">
        <ele>119</ele>
        <time>2007-10-07T08:01:40Z</time>
      </trkpt>
      <trkpt lat="47.77339" lon="-2.60972">
        <ele>119</ele>
        <time>2007-10-07T08:01:43Z</time>
      </trkpt>
      <trkpt lat="47.77325" lon="-2.6097">
        <ele>119</ele>
        <time>2007-10-07T08:01:49Z</time>
      </trkpt>
      <trkpt lat="47.77313" lon="-2.6097">
        <ele>120</ele>
        <time>2007-10-07T08:01:54Z</time>
      </trkpt>
      <trkpt lat="47.77301" lon="-2.60974">
        <ele>120</ele>
        <time>2007-10-07T08:01:59Z</time>
      </trkpt>
      <trkpt lat="47.77289" lon="-2.60979">
        <ele>120</ele>
        <time>2007-10-07T08:02:03Z</time>
      </trkpt>
      <trkpt lat="47.77274" lon="-2.60985">
        <ele>121</ele>
        <time>2007-10-07T08:02:08Z</time>
      </trkpt>
      <trkpt lat="47.77263" lon="-2.6099">
        <ele>121</ele>
        <time>2007-10-07T08:02:12Z</time>
      </trkpt>
      <trkpt lat="47.77259" lon="-2.60993">
        <ele>121</ele>
        <time>2007-10-07T08:02:14Z</time>
      </trkpt>
      <trkpt lat="47.77249" lon="-2.60999">
        <ele>121</ele>
        <time>2007-10-07T08:02:18Z</time>
      </trkpt>
      <trkpt lat="47.77229" lon="-2.6101">
        <ele>121</ele>
        <time>2007-10-07T08:02:25Z</time>
      </trkpt>
      <trkpt lat="47.77209" lon="-2.61021">
        <ele>121</ele>
        <time>2007-10-07T08:02:32Z</time>
      </trkpt>
      <trkpt lat="47.77199" lon="-2.61029">
        <ele>121</ele>
        <time>2007-10-07T08:02:35Z</time>
      </trkpt>
      <trkpt lat="47.77188" lon="-2.61062">
        <ele>121</ele>
        <time>2007-10-07T08:02:41Z</time>
      </trkpt>
      <trkpt lat="47.77187" lon="-2.61074">
        <ele>121</ele>
        <time>2007-10-07T08:02:43Z</time>
      </trkpt>
      <trkpt lat="47.77179" lon="-2.61111">
        <ele>121</ele>
        <time>2007-10-07T08:02:49Z</time>
      </trkpt>
      <trkpt lat="47.77171" lon="-2.6114">
        <ele>120</ele>
        <time>2007-10-07T08:02:54Z</time>
      </trkpt>
      <trkpt lat="47.77164" lon="-2.61161">
        <ele>119</ele>
        <time>2007-10-07T08:02:58Z</time>
      </trkpt>
      <trkpt lat="47.77154" lon="-2.61187">
        <ele>119</ele>
        <time>2007-10-07T08:03:03Z</time>
      </trkpt>
      <trkpt lat="47.77145" lon="-2.61204">
        <ele>119</ele>
        <time>2007-10-07T08:03:07Z</time>
      </trkpt>
      <trkpt lat="47.77134" lon="-2.61221">
        <ele>118</ele>
        <time>2007-10-07T08:03:12Z</time>
      </trkpt>
      <trkpt lat="47.77127" lon="-2.61232">
        <ele>118</ele>
        <time>2007-10-07T08:03:16Z</time>
      </trkpt>
      <trkpt lat="47.77111" lon="-2.61245">
        <ele>117</ele>
        <time>2007-10-07T08:03:21Z</time>
      </trkpt>
      <trkpt lat="47.77098" lon="-2.6124">
        <ele>117</ele>
        <time>2007-10-07T08:03:25Z</time>
      </trkpt>
      <trkpt lat="47.77091" lon="-2.61235">
        <ele>117</ele>
        <time>2007-10-07T08:03:29Z</time>
      </trkpt>
      <trkpt lat="47.77078" lon="-2.6123">
        <ele>117</ele>
        <time>2007-10-07T08:03:33Z</time>
      </trkpt>
      <trkpt lat="47.77067" lon="-2.61232">
        <ele>117</ele>
        <time>2007-10-07T08:03:36Z</time>
      </trkpt>
      <trkpt lat="47.77055" lon="-2.61231">
        <ele>116</ele>
        <time>2007-10-07T08:03:40Z</time>
      </trkpt>
      <trkpt lat="47.77037" lon="-2.61225">
        <ele>115</ele>
        <time>2007-10-07T08:03:45Z</time>
      </trkpt>
      <trkpt lat="47.7703" lon="-2.61227">
        <ele>115</ele>
        <time>2007-10-07T08:03:47Z</time>
      </trkpt>
      <trkpt lat="47.77021" lon="-2.61242">
        <ele>115</ele>
        <time>2007-10-07T08:03:52Z</time>
      </trkpt>
      <trkpt lat="47.77022" lon="-2.61242">
        <ele>115</ele>
        <time>2007-10-07T08:03:55Z</time>
      </trkpt>
      <trkpt lat="47.77026" lon="-2.61244">
        <ele>115</ele>
        <time>2007-10-07T08:03:56Z</time>
      </trkpt>
      <trkpt lat="47.77027" lon="-2.61247">
        <ele>115</ele>
        <time>2007-10-07T08:03:57Z</time>
      </trkpt>
      <trkpt lat="47.77027" lon="-2.61253">
        <ele>115</ele>
        <time>2007-10-07T08:03:59Z</time>
      </trkpt>
      <trkpt lat="47.77019" lon="-2.61266">
        <ele>115</ele>
        <time>2007-10-07T08:04:04Z</time>
      </trkpt>
      <trkpt lat="47.77013" lon="-2.61264">
        <ele>115</ele>
        <time>2007-10-07T08:04:07Z</time>
      </trkpt>
      <trkpt lat="47.77007" lon="-2.61253">
        <ele>115</ele>
        <time>2007-10-07T08:04:11Z</time>
      </trkpt>
      <trkpt lat="47.76997" lon="-2.61248">
        <ele>115</ele>
        <time>2007-10-07T08:04:15Z</time>
      </trkpt>
      <trkpt lat="47.76996" lon="-2.61239">
        <ele>115</ele>
        <time>2007-10-07T08:04:18Z</time>
      </trkpt>
      <trkpt lat="47.76999" lon="-2.6122">
        <ele>115</ele>
        <time>2007-10-07T08:04:23Z</time>
      </trkpt>
      <trkpt lat="47.76997" lon="-2.612">
        <ele>115</ele>
        <time>2007-10-07T08:04:28Z</time>
      </trkpt>
      <trkpt lat="47.76995" lon="-2.61197">
        <ele>115</ele>
        <time>2007-10-07T08:04:29Z</time>
      </trkpt>
      <trkpt lat="47.76985" lon="-2.61185">
        <ele>115</ele>
        <time>2007-10-07T08:04:34Z</time>
      </trkpt>
      <trkpt lat="47.76989" lon="-2.61174">
        <ele>115</ele>
        <time>2007-10-07T08:04:38Z</time>
      </trkpt>
      <trkpt lat="47.76997" lon="-2.61167">
        <ele>115</ele>
        <time>2007-10-07T08:04:42Z</time>
      </trkpt>
      <trkpt lat="47.77003" lon="-2.61167">
        <ele>115</ele>
        <time>2007-10-07T08:04:44Z</time>
      </trkpt>
      <trkpt lat="47.77017" lon="-2.61161">
        <ele>116</ele>
        <time>2007-10-07T08:04:49Z</time>
      </trkpt>
      <trkpt lat="47.77031" lon="-2.61157">
        <ele>117</ele>
        <time>2007-10-07T08:04:54Z</time>
      </trkpt>
      <trkpt lat="47.77038" lon="-2.61165">
        <ele>117</ele>
        <time>2007-10-07T08:04:58Z</time>
      </trkpt>
      <trkpt lat="47.77048" lon="-2.61165">
        <ele>117</ele>
        <time>2007-10-07T08:05:03Z</time>
      </trkpt>
      <trkpt lat="47.77056" lon="-2.61151">
        <ele>118</ele>
        <time>2007-10-07T08:05:08Z</time>
      </trkpt>
      <trkpt lat="47.77056" lon="-2.6114">
        <ele>118</ele>
        <time>2007-10-07T08:05:11Z</time>
      </trkpt>
      <trkpt lat="47.77056" lon="-2.61121">
        <ele>118</ele>
        <time>2007-10-07T08:05:16Z</time>
      </trkpt>
      <trkpt lat="47.77069" lon="-2.61114">
        <ele>119</ele>
        <time>2007-10-07T08:05:22Z</time>
      </trkpt>
      <trkpt lat="47.77078" lon="-2.61115">
        <ele>119</ele>
        <time>2007-10-07T08:05:25Z</time>
      </trkpt>
      <trkpt lat="47.77081" lon="-2.61117">
        <ele>119</ele>
        <time>2007-10-07T08:05:26Z</time>
      </trkpt>
      <trkpt lat="47.77088" lon="-2.61119">
        <ele>120</ele>
        <time>2007-10-07T08:05:31Z</time>
      </trkpt>
      <trkpt lat="47.7709" lon="-2.61106">
        <ele>120</ele>
        <time>2007-10-07T08:05:35Z</time>
      </trkpt>
      <trkpt lat="47.77086" lon="-2.61097">
        <ele>120</ele>
        <time>2007-10-07T08:05:39Z</time>
      </trkpt>
      <trkpt lat="47.77081" lon="-2.61098">
        <ele>120</ele>
        <time>2007-10-07T08:05:42Z</time>
      </trkpt>
      <trkpt lat="47.77077" lon="-2.61095">
        <ele>120</ele>
        <time>2007-10-07T08:05:45Z</time>
      </trkpt>
      <trkpt lat="47.7707" lon="-2.61082">
        <ele>120</ele>
        <time>2007-10-07T08:05:50Z</time>
      </trkpt>
      <trkpt lat="47.77067" lon="-2.61082">
        <ele>120</ele>
        <time>2007-10-07T08:05:51Z</time>
      </trkpt>
      <trkpt lat="47.7706" lon="-2.61072">
        <ele>120</ele>
        <time>2007-10-07T08:05:56Z</time>
      </trkpt>
      <trkpt lat="47.77052" lon="-2.61069">
        <ele>119</ele>
        <time>2007-10-07T08:06:00Z</time>
      </trkpt>
      <trkpt lat="47.77043" lon="-2.61065">
        <ele>119</ele>
        <time>2007-10-07T08:06:03Z</time>
      </trkpt>
      <trkpt lat="47.7704" lon="-2.61065">
        <ele>118</ele>
        <time>2007-10-07T08:06:04Z</time>
      </trkpt>
      <trkpt lat="47.77027" lon="-2.61075">
        <ele>118</ele>
        <time>2007-10-07T08:06:10Z</time>
      </trkpt>
      <trkpt lat="47.77025" lon="-2.61075">
        <ele>118</ele>
        <time>2007-10-07T08:06:11Z</time>
      </trkpt>
      <trkpt lat="47.77016" lon="-2.61068">
        <ele>117</ele>
        <time>2007-10-07T08:06:15Z</time>
      </trkpt>
      <trkpt lat="47.77011" lon="-2.6107">
        <ele>117</ele>
        <time>2007-10-07T08:06:17Z</time>
      </trkpt>
      <trkpt lat="47.77001" lon="-2.61079">
        <ele>115</ele>
        <time>2007-10-07T08:06:21Z</time>
      </trkpt>
      <trkpt lat="47.76991" lon="-2.61084">
        <ele>116</ele>
        <time>2007-10-07T08:06:26Z</time>
      </trkpt>
      <trkpt lat="47.76983" lon="-2.61087">
        <ele>115</ele>
        <time>2007-10-07T08:06:29Z</time>
      </trkpt>
      <trkpt lat="47.76973" lon="-2.61103">
        <ele>115</ele>
        <time>2007-10-07T08:06:35Z</time>
      </trkpt>
      <trkpt lat="47.76968" lon="-2.61116">
        <ele>115</ele>
        <time>2007-10-07T08:06:38Z</time>
      </trkpt>
      <trkpt lat="47.76963" lon="-2.61133">
        <ele>115</ele>
        <time>2007-10-07T08:06:43Z</time>
      </trkpt>
      <trkpt lat="47.76961" lon="-2.61137">
        <ele>114</ele>
        <time>2007-10-07T08:06:44Z</time>
      </trkpt>
      <trkpt lat="47.76949" lon="-2.61146">
        <ele>115</ele>
        <time>2007-10-07T08:06:50Z</time>
      </trkpt>
      <trkpt lat="47.76945" lon="-2.6115">
        <ele>114</ele>
        <time>2007-10-07T08:06:52Z</time>
      </trkpt>
      <trkpt lat="47.76929" lon="-2.6115">
        <ele>114</ele>
        <time>2007-10-07T08:06:57Z</time>
      </trkpt>
      <trkpt lat="47.76914" lon="-2.61146">
        <ele>114</ele>
        <time>2007-10-07T08:07:01Z</time>
      </trkpt>
      <trkpt lat="47.76905" lon="-2.61144">
        <ele>114</ele>
        <time>2007-10-07T08:07:03Z</time>
      </trkpt>
      <trkpt lat="47.76883" lon="-2.61142">
        <ele>114</ele>
        <time>2007-10-07T08:07:08Z</time>
      </trkpt>
      <trkpt lat="47.76869" lon="-2.61145">
        <ele>113</ele>
        <time>2007-10-07T08:07:11Z</time>
      </trkpt>
      <trkpt lat="47.76846" lon="-2.61149">
        <ele>113</ele>
        <time>2007-10-07T08:07:16Z</time>
      </trkpt>
      <trkpt lat="47.76822" lon="-2.6115">
        <ele>113</ele>
        <time>2007-10-07T08:07:21Z</time>
      </trkpt>
      <trkpt lat="47.76799" lon="-2.61148">
        <ele>113</ele>
        <time>2007-10-07T08:07:26Z</time>
      </trkpt>
      <trkpt lat="47.76794" lon="-2.61147">
        <ele>112</ele>
        <time>2007-10-07T08:07:27Z</time>
      </trkpt>
      <trkpt lat="47.76769" lon="-2.6114">
        <ele>112</ele>
        <time>2007-10-07T08:07:32Z</time>
      </trkpt>
      <trkpt lat="47.76765" lon="-2.61138">
        <ele>112</ele>
        <time>2007-10-07T08:07:33Z</time>
      </trkpt>
      <trkpt lat="47.76749" lon="-2.61134">
        <ele>112</ele>
        <time>2007-10-07T08:07:36Z</time>
      </trkpt>
      <trkpt lat="47.76717" lon="-2.61129">
        <ele>112</ele>
        <time>2007-10-07T08:07:43Z</time>
      </trkpt>
      <trkpt lat="47.76708" lon="-2.6113">
        <ele>112</ele>
        <time>2007-10-07T08:07:45Z</time>
      </trkpt>
      <trkpt lat="47.76692" lon="-2.61159">
        <ele>112</ele>
        <time>2007-10-07T08:07:51Z</time>
      </trkpt>
      <trkpt lat="47.7669" lon="-2.61179">
        <ele>112</ele>
        <time>2007-10-07T08:07:55Z</time>
      </trkpt>
      <trkpt lat="47.76691" lon="-2.61214">
        <ele>112</ele>
        <time>2007-10-07T08:08:01Z</time>
      </trkpt>
      <trkpt lat="47.76693" lon="-2.61228">
        <ele>112</ele>
        <time>2007-10-07T08:08:03Z</time>
      </trkpt>
      <trkpt lat="47.76695" lon="-2.61255">
        <ele>111</ele>
        <time>2007-10-07T08:08:07Z</time>
      </trkpt>
      <trkpt lat="47.76696" lon="-2.61296">
        <ele>109</ele>
        <time>2007-10-07T08:08:12Z</time>
      </trkpt>
      <trkpt lat="47.76696" lon="-2.61304">
        <ele>109</ele>
        <time>2007-10-07T08:08:13Z</time>
      </trkpt>
      <trkpt lat="47.76698" lon="-2.61332">
        <ele>107</ele>
        <time>2007-10-07T08:08:16Z</time>
      </trkpt>
      <trkpt lat="47.76698" lon="-2.61342">
        <ele>107</ele>
        <time>2007-10-07T08:08:17Z</time>
      </trkpt>
      <trkpt lat="47.76702" lon="-2.61374">
        <ele>106</ele>
        <time>2007-10-07T08:08:20Z</time>
      </trkpt>
      <trkpt lat="47.76704" lon="-2.61422">
        <ele>102</ele>
        <time>2007-10-07T08:08:24Z</time>
      </trkpt>
      <trkpt lat="47.76692" lon="-2.61467">
        <ele>102</ele>
        <time>2007-10-07T08:08:28Z</time>
      </trkpt>
      <trkpt lat="47.7666" lon="-2.61513">
        <ele>101</ele>
        <time>2007-10-07T08:08:34Z</time>
      </trkpt>
      <trkpt lat="47.76628" lon="-2.61536">
        <ele>102</ele>
        <time>2007-10-07T08:08:40Z</time>
      </trkpt>
      <trkpt lat="47.76623" lon="-2.61539">
        <ele>102</ele>
        <time>2007-10-07T08:08:41Z</time>
      </trkpt>
      <trkpt lat="47.76611" lon="-2.6156">
        <ele>101</ele>
        <time>2007-10-07T08:08:45Z</time>
      </trkpt>
      <trkpt lat="47.76607" lon="-2.61583">
        <ele>99</ele>
        <time>2007-10-07T08:08:48Z</time>
      </trkpt>
      <trkpt lat="47.76605" lon="-2.61599">
        <ele>99</ele>
        <time>2007-10-07T08:08:50Z</time>
      </trkpt>
      <trkpt lat="47.76607" lon="-2.61641">
        <ele>98</ele>
        <time>2007-10-07T08:08:55Z</time>
      </trkpt>
      <trkpt lat="47.76618" lon="-2.61664">
        <ele>96</ele>
        <time>2007-10-07T08:08:58Z</time>
      </trkpt>
      <trkpt lat="47.76624" lon="-2.61667">
        <ele>96</ele>
        <time>2007-10-07T08:08:59Z</time>
      </trkpt>
      <trkpt lat="47.7663" lon="-2.61668">
        <ele>96</ele>
        <time>2007-10-07T08:09:00Z</time>
      </trkpt>
      <trkpt lat="47.76679" lon="-2.61672">
        <ele>93</ele>
        <time>2007-10-07T08:09:07Z</time>
      </trkpt>
      <trkpt lat="47.76711" lon="-2.61674">
        <ele>94</ele>
        <time>2007-10-07T08:09:12Z</time>
      </trkpt>
      <trkpt lat="47.76735" lon="-2.61676">
        <ele>96</ele>
        <time>2007-10-07T08:09:17Z</time>
      </trkpt>
      <trkpt lat="47.76759" lon="-2.61678">
        <ele>98</ele>
        <time>2007-10-07T08:09:23Z</time>
      </trkpt>
      <trkpt lat="47.76771" lon="-2.61679">
        <ele>99</ele>
        <time>2007-10-07T08:09:26Z</time>
      </trkpt>
      <trkpt lat="47.76779" lon="-2.6168">
        <ele>100</ele>
        <time>2007-10-07T08:09:28Z</time>
      </trkpt>
      <trkpt lat="47.76794" lon="-2.61681">
        <ele>101</ele>
        <time>2007-10-07T08:09:32Z</time>
      </trkpt>
      <trkpt lat="47.76805" lon="-2.61684">
        <ele>102</ele>
        <time>2007-10-07T08:09:35Z</time>
      </trkpt>
      <trkpt lat="47.76818" lon="-2.61691">
        <ele>102</ele>
        <time>2007-10-07T08:09:39Z</time>
      </trkpt>
      <trkpt lat="47.76825" lon="-2.61704">
        <ele>102</ele>
        <time>2007-10-07T08:09:43Z</time>
      </trkpt>
      <trkpt lat="47.76839" lon="-2.61744">
        <ele>102</ele>
        <time>2007-10-07T08:09:51Z</time>
      </trkpt>
      <trkpt lat="47.76836" lon="-2.61759">
        <ele>101</ele>
        <time>2007-10-07T08:09:54Z</time>
      </trkpt>
      <trkpt lat="47.76836" lon="-2.61764">
        <ele>101</ele>
        <time>2007-10-07T08:09:55Z</time>
      </trkpt>
      <trkpt lat="47.76839" lon="-2.61784">
        <ele>101</ele>
        <time>2007-10-07T08:10:00Z</time>
      </trkpt>
      <trkpt lat="47.76846" lon="-2.61802">
        <ele>101</ele>
        <time>2007-10-07T08:10:04Z</time>
      </trkpt>
      <trkpt lat="47.76851" lon="-2.6182">
        <ele>100</ele>
        <time>2007-10-07T08:10:08Z</time>
      </trkpt>
      <trkpt lat="47.76851" lon="-2.61835">
        <ele>100</ele>
        <time>2007-10-07T08:10:12Z</time>
      </trkpt>
      <trkpt lat="47.76853" lon="-2.6184">
        <ele>100</ele>
        <time>2007-10-07T08:10:13Z</time>
      </trkpt>
      <trkpt lat="47.76858" lon="-2.61863">
        <ele>100</ele>
        <time>2007-10-07T08:10:19Z</time>
      </trkpt>
      <trkpt lat="47.76859" lon="-2.61869">
        <ele>100</ele>
        <time>2007-10-07T08:10:21Z</time>
      </trkpt>
      <trkpt lat="47.76857" lon="-2.61891">
        <ele>100</ele>
        <time>2007-10-07T08:10:26Z</time>
      </trkpt>
      <trkpt lat="47.76857" lon="-2.61902">
        <ele>100</ele>
        <time>2007-10-07T08:10:29Z</time>
      </trkpt>
      <trkpt lat="47.76861" lon="-2.61908">
        <ele>100</ele>
        <time>2007-10-07T08:10:32Z</time>
      </trkpt>
      <trkpt lat="47.76864" lon="-2.61909">
        <ele>101</ele>
        <time>2007-10-07T08:10:34Z</time>
      </trkpt>
      <trkpt lat="47.76872" lon="-2.61928">
        <ele>101</ele>
        <time>2007-10-07T08:10:40Z</time>
      </trkpt>
      <trkpt lat="47.76878" lon="-2.61946">
        <ele>102</ele>
        <time>2007-10-07T08:10:45Z</time>
      </trkpt>
      <trkpt lat="47.76881" lon="-2.61972">
        <ele>103</ele>
        <time>2007-10-07T08:10:51Z</time>
      </trkpt>
      <trkpt lat="47.76883" lon="-2.61988">
        <ele>103</ele>
        <time>2007-10-07T08:10:56Z</time>
      </trkpt>
      <trkpt lat="47.76887" lon="-2.62004">
        <ele>104</ele>
        <time>2007-10-07T08:11:00Z</time>
      </trkpt>
      <trkpt lat="47.76889" lon="-2.62026">
        <ele>104</ele>
        <time>2007-10-07T08:11:05Z</time>
      </trkpt>
      <trkpt lat="47.76887" lon="-2.62045">
        <ele>103</ele>
        <time>2007-10-07T08:11:10Z</time>
      </trkpt>
      <trkpt lat="47.76897" lon="-2.62065">
        <ele>104</ele>
        <time>2007-10-07T08:11:16Z</time>
      </trkpt>
      <trkpt lat="47.76899" lon="-2.62067">
        <ele>104</ele>
        <time>2007-10-07T08:11:17Z</time>
      </trkpt>
      <trkpt lat="47.76908" lon="-2.62087">
        <ele>104</ele>
        <time>2007-10-07T08:11:22Z</time>
      </trkpt>
      <trkpt lat="47.76914" lon="-2.62108">
        <ele>104</ele>
        <time>2007-10-07T08:11:27Z</time>
      </trkpt>
      <trkpt lat="47.76918" lon="-2.62127">
        <ele>104</ele>
        <time>2007-10-07T08:11:31Z</time>
      </trkpt>
      <trkpt lat="47.76926" lon="-2.62158">
        <ele>104</ele>
        <time>2007-10-07T08:11:36Z</time>
      </trkpt>
      <trkpt lat="47.76929" lon="-2.62184">
        <ele>103</ele>
        <time>2007-10-07T08:11:40Z</time>
      </trkpt>
      <trkpt lat="47.7693" lon="-2.62191">
        <ele>103</ele>
        <time>2007-10-07T08:11:41Z</time>
      </trkpt>
      <trkpt lat="47.76936" lon="-2.62213">
        <ele>103</ele>
        <time>2007-10-07T08:11:44Z</time>
      </trkpt>
      <trkpt lat="47.76942" lon="-2.62231">
        <ele>103</ele>
        <time>2007-10-07T08:11:47Z</time>
      </trkpt>
      <trkpt lat="47.76947" lon="-2.62251">
        <ele>103</ele>
        <time>2007-10-07T08:11:50Z</time>
      </trkpt>
      <trkpt lat="47.76961" lon="-2.62278">
        <ele>101</ele>
        <time>2007-10-07T08:11:55Z</time>
      </trkpt>
      <trkpt lat="47.76974" lon="-2.62302">
        <ele>101</ele>
        <time>2007-10-07T08:11:59Z</time>
      </trkpt>
      <trkpt lat="47.76983" lon="-2.6233">
        <ele>101</ele>
        <time>2007-10-07T08:12:04Z</time>
      </trkpt>
      <trkpt lat="47.76988" lon="-2.62353">
        <ele>101</ele>
        <time>2007-10-07T08:12:09Z</time>
      </trkpt>
      <trkpt lat="47.76995" lon="-2.62368">
        <ele>102</ele>
        <time>2007-10-07T08:12:13Z</time>
      </trkpt>
      <trkpt lat="47.76997" lon="-2.62379">
        <ele>103</ele>
        <time>2007-10-07T08:12:16Z</time>
      </trkpt>
      <trkpt lat="47.77" lon="-2.62399">
        <ele>103</ele>
        <time>2007-10-07T08:12:21Z</time>
      </trkpt>
      <trkpt lat="47.7701" lon="-2.624">
        <ele>104</ele>
        <time>2007-10-07T08:12:25Z</time>
      </trkpt>
      <trkpt lat="47.77021" lon="-2.62392">
        <ele>103</ele>
        <time>2007-10-07T08:12:29Z</time>
      </trkpt>
      <trkpt lat="47.77026" lon="-2.62387">
        <ele>104</ele>
        <time>2007-10-07T08:12:31Z</time>
      </trkpt>
      <trkpt lat="47.77041" lon="-2.62384">
        <ele>104</ele>
        <time>2007-10-07T08:12:36Z</time>
      </trkpt>
      <trkpt lat="47.77057" lon="-2.62379">
        <ele>104</ele>
        <time>2007-10-07T08:12:41Z</time>
      </trkpt>
      <trkpt lat="47.77074" lon="-2.62374">
        <ele>105</ele>
        <time>2007-10-07T08:12:46Z</time>
      </trkpt>
      <trkpt lat="47.7709" lon="-2.62369">
        <ele>106</ele>
        <time>2007-10-07T08:12:51Z</time>
      </trkpt>
      <trkpt lat="47.77099" lon="-2.62372">
        <ele>106</ele>
        <time>2007-10-07T08:12:56Z</time>
      </trkpt>
      <trkpt lat="47.77101" lon="-2.62368">
        <ele>106</ele>
        <time>2007-10-07T08:12:58Z</time>
      </trkpt>
      <trkpt lat="47.7711" lon="-2.62353">
        <ele>107</ele>
        <time>2007-10-07T08:13:04Z</time>
      </trkpt>
      <trkpt lat="47.77123" lon="-2.6235">
        <ele>107</ele>
        <time>2007-10-07T08:13:09Z</time>
      </trkpt>
      <trkpt lat="47.77138" lon="-2.62337">
        <ele>108</ele>
        <time>2007-10-07T08:13:15Z</time>
      </trkpt>
      <trkpt lat="47.77153" lon="-2.62335">
        <ele>108</ele>
        <time>2007-10-07T08:13:19Z</time>
      </trkpt>
      <trkpt lat="47.77158" lon="-2.62334">
        <ele>108</ele>
        <time>2007-10-07T08:13:20Z</time>
      </trkpt>
      <trkpt lat="47.77168" lon="-2.62329">
        <ele>108</ele>
        <time>2007-10-07T08:13:23Z</time>
      </trkpt>
      <trkpt lat="47.7718" lon="-2.62335">
        <ele>109</ele>
        <time>2007-10-07T08:13:28Z</time>
      </trkpt>
      <trkpt lat="47.77189" lon="-2.62337">
        <ele>108</ele>
        <time>2007-10-07T08:13:32Z</time>
      </trkpt>
      <trkpt lat="47.77204" lon="-2.62327">
        <ele>109</ele>
        <time>2007-10-07T08:13:38Z</time>
      </trkpt>
      <trkpt lat="47.77218" lon="-2.62309">
        <ele>109</ele>
        <time>2007-10-07T08:13:43Z</time>
      </trkpt>
      <trkpt lat="47.7723" lon="-2.62298">
        <ele>109</ele>
        <time>2007-10-07T08:13:47Z</time>
      </trkpt>
      <trkpt lat="47.77244" lon="-2.62295">
        <ele>110</ele>
        <time>2007-10-07T08:13:51Z</time>
      </trkpt>
      <trkpt lat="47.77246" lon="-2.62293">
        <ele>109</ele>
        <time>2007-10-07T08:13:52Z</time>
      </trkpt>
      <trkpt lat="47.77252" lon="-2.62274">
        <ele>110</ele>
        <time>2007-10-07T08:13:57Z</time>
      </trkpt>
      <trkpt lat="47.7726" lon="-2.6225">
        <ele>110</ele>
        <time>2007-10-07T08:14:02Z</time>
      </trkpt>
      <trkpt lat="47.77271" lon="-2.62241">
        <ele>111</ele>
        <time>2007-10-07T08:14:06Z</time>
      </trkpt>
      <trkpt lat="47.7729" lon="-2.6224">
        <ele>110</ele>
        <time>2007-10-07T08:14:11Z</time>
      </trkpt>
      <trkpt lat="47.77294" lon="-2.6224">
        <ele>110</ele>
        <time>2007-10-07T08:14:12Z</time>
      </trkpt>
      <trkpt lat="47.7732" lon="-2.62234">
        <ele>110</ele>
        <time>2007-10-07T08:14:18Z</time>
      </trkpt>
      <trkpt lat="47.77346" lon="-2.62221">
        <ele>109</ele>
        <time>2007-10-07T08:14:25Z</time>
      </trkpt>
      <trkpt lat="47.77366" lon="-2.62206">
        <ele>109</ele>
        <time>2007-10-07T08:14:31Z</time>
      </trkpt>
      <trkpt lat="47.77384" lon="-2.62204">
        <ele>109</ele>
        <time>2007-10-07T08:14:36Z</time>
      </trkpt>
      <trkpt lat="47.77409" lon="-2.62201">
        <ele>109</ele>
        <time>2007-10-07T08:14:42Z</time>
      </trkpt>
      <trkpt lat="47.77425" lon="-2.622">
        <ele>109</ele>
        <time>2007-10-07T08:14:46Z</time>
      </trkpt>
      <trkpt lat="47.77431" lon="-2.6221">
        <ele>110</ele>
        <time>2007-10-07T08:14:50Z</time>
      </trkpt>
      <trkpt lat="47.7743" lon="-2.62215">
        <ele>110</ele>
        <time>2007-10-07T08:14:51Z</time>
      </trkpt>
      <trkpt lat="47.77427" lon="-2.62254">
        <ele>109</ele>
        <time>2007-10-07T08:14:58Z</time>
      </trkpt>
      <trkpt lat="47.77427" lon="-2.6226">
        <ele>109</ele>
        <time>2007-10-07T08:14:59Z</time>
      </trkpt>
      <trkpt lat="47.77431" lon="-2.62294">
        <ele>108</ele>
        <time>2007-10-07T08:15:05Z</time>
      </trkpt>
      <trkpt lat="47.77438" lon="-2.62339">
        <ele>108</ele>
        <time>2007-10-07T08:15:13Z</time>
      </trkpt>
      <trkpt lat="47.77439" lon="-2.6235">
        <ele>108</ele>
        <time>2007-10-07T08:15:15Z</time>
      </trkpt>
      <trkpt lat="47.77451" lon="-2.62381">
        <ele>108</ele>
        <time>2007-10-07T08:15:21Z</time>
      </trkpt>
      <trkpt lat="47.77466" lon="-2.62386">
        <ele>108</ele>
        <time>2007-10-07T08:15:25Z</time>
      </trkpt>
      <trkpt lat="47.77488" lon="-2.62385">
        <ele>109</ele>
        <time>2007-10-07T08:15:32Z</time>
      </trkpt>
      <trkpt lat="47.7751" lon="-2.62389">
        <ele>109</ele>
        <time>2007-10-07T08:15:38Z</time>
      </trkpt>
      <trkpt lat="47.77526" lon="-2.62399">
        <ele>108</ele>
        <time>2007-10-07T08:15:43Z</time>
      </trkpt>
      <trkpt lat="47.77534" lon="-2.6242">
        <ele>107</ele>
        <time>2007-10-07T08:15:47Z</time>
      </trkpt>
      <trkpt lat="47.77538" lon="-2.62435">
        <ele>106</ele>
        <time>2007-10-07T08:15:50Z</time>
      </trkpt>
      <trkpt lat="47.77526" lon="-2.62451">
        <ele>105</ele>
        <time>2007-10-07T08:15:55Z</time>
      </trkpt>
      <trkpt lat="47.77505" lon="-2.62469">
        <ele>104</ele>
        <time>2007-10-07T08:16:01Z</time>
      </trkpt>
      <trkpt lat="47.77482" lon="-2.62488">
        <ele>103</ele>
        <time>2007-10-07T08:16:07Z</time>
      </trkpt>
      <trkpt lat="47.77448" lon="-2.62521">
        <ele>101</ele>
        <time>2007-10-07T08:16:14Z</time>
      </trkpt>
      <trkpt lat="47.77438" lon="-2.62541">
        <ele>100</ele>
        <time>2007-10-07T08:16:17Z</time>
      </trkpt>
      <trkpt lat="47.7744" lon="-2.62558">
        <ele>98</ele>
        <time>2007-10-07T08:16:19Z</time>
      </trkpt>
      <trkpt lat="47.77444" lon="-2.62575">
        <ele>98</ele>
        <time>2007-10-07T08:16:21Z</time>
      </trkpt>
      <trkpt lat="47.77447" lon="-2.62604">
        <ele>96</ele>
        <time>2007-10-07T08:16:25Z</time>
      </trkpt>
      <trkpt lat="47.77438" lon="-2.62612">
        <ele>96</ele>
        <time>2007-10-07T08:16:28Z</time>
      </trkpt>
      <trkpt lat="47.77428" lon="-2.62615">
        <ele>95</ele>
        <time>2007-10-07T08:16:31Z</time>
      </trkpt>
      <trkpt lat="47.77404" lon="-2.62621">
        <ele>97</ele>
        <time>2007-10-07T08:16:38Z</time>
      </trkpt>
      <trkpt lat="47.77388" lon="-2.62625">
        <ele>98</ele>
        <time>2007-10-07T08:16:44Z</time>
      </trkpt>
      <trkpt lat="47.77377" lon="-2.62634">
        <ele>97</ele>
        <time>2007-10-07T08:16:48Z</time>
      </trkpt>
      <trkpt lat="47.77358" lon="-2.62646">
        <ele>97</ele>
        <time>2007-10-07T08:16:54Z</time>
      </trkpt>
      <trkpt lat="47.77335" lon="-2.62655">
        <ele>96</ele>
        <time>2007-10-07T08:17:00Z</time>
      </trkpt>
      <trkpt lat="47.7731" lon="-2.62669">
        <ele>97</ele>
        <time>2007-10-07T08:17:07Z</time>
      </trkpt>
      <trkpt lat="47.77292" lon="-2.62689">
        <ele>96</ele>
        <time>2007-10-07T08:17:12Z</time>
      </trkpt>
      <trkpt lat="47.77284" lon="-2.62698">
        <ele>95</ele>
        <time>2007-10-07T08:17:14Z</time>
      </trkpt>
      <trkpt lat="47.77258" lon="-2.62719">
        <ele>93</ele>
        <time>2007-10-07T08:17:20Z</time>
      </trkpt>
      <trkpt lat="47.77253" lon="-2.62722">
        <ele>93</ele>
        <time>2007-10-07T08:17:21Z</time>
      </trkpt>
      <trkpt lat="47.77237" lon="-2.62727">
        <ele>92</ele>
        <time>2007-10-07T08:17:24Z</time>
      </trkpt>
      <trkpt lat="47.77218" lon="-2.62746">
        <ele>91</ele>
        <time>2007-10-07T08:17:29Z</time>
      </trkpt>
      <trkpt lat="47.77195" lon="-2.62772">
        <ele>89</ele>
        <time>2007-10-07T08:17:34Z</time>
      </trkpt>
      <trkpt lat="47.77191" lon="-2.62778">
        <ele>89</ele>
        <time>2007-10-07T08:17:35Z</time>
      </trkpt>
      <trkpt lat="47.77182" lon="-2.62799">
        <ele>87</ele>
        <time>2007-10-07T08:17:38Z</time>
      </trkpt>
      <trkpt lat="47.77175" lon="-2.62826">
        <ele>86</ele>
        <time>2007-10-07T08:17:41Z</time>
      </trkpt>
      <trkpt lat="47.77164" lon="-2.62856">
        <ele>83</ele>
        <time>2007-10-07T08:17:45Z</time>
      </trkpt>
      <trkpt lat="47.77156" lon="-2.62869">
        <ele>83</ele>
        <time>2007-10-07T08:17:47Z</time>
      </trkpt>
      <trkpt lat="47.7715" lon="-2.62896">
        <ele>82</ele>
        <time>2007-10-07T08:17:52Z</time>
      </trkpt>
      <trkpt lat="47.77162" lon="-2.629">
        <ele>82</ele>
        <time>2007-10-07T08:17:55Z</time>
      </trkpt>
      <trkpt lat="47.77189" lon="-2.62893">
        <ele>82</ele>
        <time>2007-10-07T08:18:00Z</time>
      </trkpt>
      <trkpt lat="47.77212" lon="-2.62889">
        <ele>81</ele>
        <time>2007-10-07T08:18:06Z</time>
      </trkpt>
      <trkpt lat="47.77219" lon="-2.62887">
        <ele>82</ele>
        <time>2007-10-07T08:18:08Z</time>
      </trkpt>
      <trkpt lat="47.77226" lon="-2.62895">
        <ele>82</ele>
        <time>2007-10-07T08:18:12Z</time>
      </trkpt>
      <trkpt lat="47.7723" lon="-2.62906">
        <ele>80</ele>
        <time>2007-10-07T08:18:15Z</time>
      </trkpt>
      <trkpt lat="47.7723" lon="-2.6291">
        <ele>79</ele>
        <time>2007-10-07T08:18:16Z</time>
      </trkpt>
      <trkpt lat="47.77231" lon="-2.62927">
        <ele>80</ele>
        <time>2007-10-07T08:18:20Z</time>
      </trkpt>
      <trkpt lat="47.77231" lon="-2.6294">
        <ele>80</ele>
        <time>2007-10-07T08:18:25Z</time>
      </trkpt>
      <trkpt lat="47.77231" lon="-2.62941">
        <ele>79</ele>
        <time>2007-10-07T08:18:26Z</time>
      </trkpt>
      <trkpt lat="47.77235" lon="-2.62951">
        <ele>79</ele>
        <time>2007-10-07T08:18:32Z</time>
      </trkpt>
      <trkpt lat="47.77238" lon="-2.62954">
        <ele>79</ele>
        <time>2007-10-07T08:18:44Z</time>
      </trkpt>
      <trkpt lat="47.77238" lon="-2.62956">
        <ele>79</ele>
        <time>2007-10-07T08:18:46Z</time>
      </trkpt>
      <trkpt lat="47.77238" lon="-2.62957">
        <ele>79</ele>
        <time>2007-10-07T08:18:49Z</time>
      </trkpt>
      <trkpt lat="47.77238" lon="-2.62958">
        <ele>79</ele>
        <time>2007-10-07T08:18:50Z</time>
      </trkpt>
      <trkpt lat="47.77238" lon="-2.62959">
        <ele>80</ele>
        <time>2007-10-07T08:18:55Z</time>
      </trkpt>
      <trkpt lat="47.77239" lon="-2.6296">
        <ele>79</ele>
        <time>2007-10-07T08:18:57Z</time>
      </trkpt>
      <trkpt lat="47.77239" lon="-2.62961">
        <ele>79</ele>
        <time>2007-10-07T08:19:00Z</time>
      </trkpt>
      <trkpt lat="47.77239" lon="-2.62962">
        <ele>79</ele>
        <time>2007-10-07T08:19:01Z</time>
      </trkpt>
      <trkpt lat="47.77239" lon="-2.62963">
        <ele>78</ele>
        <time>2007-10-07T08:19:02Z</time>
      </trkpt>
      <trkpt lat="47.77239" lon="-2.62964">
        <ele>78</ele>
        <time>2007-10-07T08:19:05Z</time>
      </trkpt>
      <trkpt lat="47.77239" lon="-2.62965">
        <ele>79</ele>
        <time>2007-10-07T08:19:06Z</time>
      </trkpt>
      <trkpt lat="47.7724" lon="-2.62966">
        <ele>79</ele>
        <time>2007-10-07T08:19:09Z</time>
      </trkpt>
      <trkpt lat="47.77241" lon="-2.62966">
        <ele>80</ele>
        <time>2007-10-07T08:19:10Z</time>
      </trkpt>
      <trkpt lat="47.77242" lon="-2.62968">
        <ele>79</ele>
        <time>2007-10-07T08:19:11Z</time>
      </trkpt>
      <trkpt lat="47.77243" lon="-2.62969">
        <ele>80</ele>
        <time>2007-10-07T08:19:16Z</time>
      </trkpt>
      <trkpt lat="47.77245" lon="-2.6297">
        <ele>80</ele>
        <time>2007-10-07T08:19:18Z</time>
      </trkpt>
      <trkpt lat="47.77249" lon="-2.6297">
        <ele>80</ele>
        <time>2007-10-07T08:19:23Z</time>
      </trkpt>
      <trkpt lat="47.77258" lon="-2.62961">
        <ele>79</ele>
        <time>2007-10-07T08:19:27Z</time>
      </trkpt>
      <trkpt lat="47.7727" lon="-2.62961">
        <ele>80</ele>
        <time>2007-10-07T08:19:32Z</time>
      </trkpt>
      <trkpt lat="47.77272" lon="-2.6296">
        <ele>80</ele>
        <time>2007-10-07T08:19:33Z</time>
      </trkpt>
      <trkpt lat="47.7728" lon="-2.62959">
        <ele>80</ele>
        <time>2007-10-07T08:19:36Z</time>
      </trkpt>
      <trkpt lat="47.77294" lon="-2.6295">
        <ele>79</ele>
        <time>2007-10-07T08:19:41Z</time>
      </trkpt>
      <trkpt lat="47.773" lon="-2.6295">
        <ele>80</ele>
        <time>2007-10-07T08:19:43Z</time>
      </trkpt>
      <trkpt lat="47.77315" lon="-2.62943">
        <ele>80</ele>
        <time>2007-10-07T08:19:47Z</time>
      </trkpt>
      <trkpt lat="47.77327" lon="-2.6294">
        <ele>80</ele>
        <time>2007-10-07T08:19:51Z</time>
      </trkpt>
      <trkpt lat="47.77344" lon="-2.62933">
        <ele>81</ele>
        <time>2007-10-07T08:19:56Z</time>
      </trkpt>
      <trkpt lat="47.77362" lon="-2.62923">
        <ele>81</ele>
        <time>2007-10-07T08:20:02Z</time>
      </trkpt>
      <trkpt lat="47.77368" lon="-2.62924">
        <ele>81</ele>
        <time>2007-10-07T08:20:05Z</time>
      </trkpt>
      <trkpt lat="47.77372" lon="-2.62938">
        <ele>81</ele>
        <time>2007-10-07T08:20:10Z</time>
      </trkpt>
      <trkpt lat="47.77378" lon="-2.62953">
        <ele>81</ele>
        <time>2007-10-07T08:20:15Z</time>
      </trkpt>
      <trkpt lat="47.77381" lon="-2.62964">
        <ele>82</ele>
        <time>2007-10-07T08:20:19Z</time>
      </trkpt>
      <trkpt lat="47.77382" lon="-2.62984">
        <ele>84</ele>
        <time>2007-10-07T08:20:25Z</time>
      </trkpt>
      <trkpt lat="47.77385" lon="-2.62989">
        <ele>85</ele>
        <time>2007-10-07T08:20:27Z</time>
      </trkpt>
      <trkpt lat="47.77383" lon="-2.63002">
        <ele>87</ele>
        <time>2007-10-07T08:20:32Z</time>
      </trkpt>
      <trkpt lat="47.77384" lon="-2.63005">
        <ele>87</ele>
        <time>2007-10-07T08:20:33Z</time>
      </trkpt>
      <trkpt lat="47.77386" lon="-2.63014">
        <ele>88</ele>
        <time>2007-10-07T08:20:36Z</time>
      </trkpt>
      <trkpt lat="47.77386" lon="-2.63023">
        <ele>88</ele>
        <time>2007-10-07T08:20:40Z</time>
      </trkpt>
      <trkpt lat="47.77388" lon="-2.63037">
        <ele>89</ele>
        <time>2007-10-07T08:20:45Z</time>
      </trkpt>
      <trkpt lat="47.77394" lon="-2.63059">
        <ele>89</ele>
        <time>2007-10-07T08:20:52Z</time>
      </trkpt>
      <trkpt lat="47.77395" lon="-2.63065">
        <ele>90</ele>
        <time>2007-10-07T08:20:56Z</time>
      </trkpt>
      <trkpt lat="47.774" lon="-2.63066">
        <ele>91</ele>
        <time>2007-10-07T08:21:01Z</time>
      </trkpt>
      <trkpt lat="47.774" lon="-2.63073">
        <ele>92</ele>
        <time>2007-10-07T08:21:06Z</time>
      </trkpt>
      <trkpt lat="47.77399" lon="-2.63077">
        <ele>91</ele>
        <time>2007-10-07T08:21:08Z</time>
      </trkpt>
      <trkpt lat="47.77403" lon="-2.63086">
        <ele>92</ele>
        <time>2007-10-07T08:21:13Z</time>
      </trkpt>
      <trkpt lat="47.77407" lon="-2.63097">
        <ele>93</ele>
        <time>2007-10-07T08:21:17Z</time>
      </trkpt>
      <trkpt lat="47.77407" lon="-2.63103">
        <ele>94</ele>
        <time>2007-10-07T08:21:19Z</time>
      </trkpt>
      <trkpt lat="47.77411" lon="-2.63115">
        <ele>93</ele>
        <time>2007-10-07T08:21:23Z</time>
      </trkpt>
      <trkpt lat="47.77419" lon="-2.63138">
        <ele>95</ele>
        <time>2007-10-07T08:21:31Z</time>
      </trkpt>
      <trkpt lat="47.77423" lon="-2.63154">
        <ele>95</ele>
        <time>2007-10-07T08:21:37Z</time>
      </trkpt>
      <trkpt lat="47.7743" lon="-2.63168">
        <ele>95</ele>
        <time>2007-10-07T08:21:43Z</time>
      </trkpt>
      <trkpt lat="47.77432" lon="-2.63179">
        <ele>97</ele>
        <time>2007-10-07T08:21:49Z</time>
      </trkpt>
      <trkpt lat="47.77433" lon="-2.63181">
        <ele>96</ele>
        <time>2007-10-07T08:21:51Z</time>
      </trkpt>
      <trkpt lat="47.7744" lon="-2.63188">
        <ele>98</ele>
        <time>2007-10-07T08:21:56Z</time>
      </trkpt>
      <trkpt lat="47.77449" lon="-2.63182">
        <ele>98</ele>
        <time>2007-10-07T08:22:00Z</time>
      </trkpt>
      <trkpt lat="47.77469" lon="-2.63167">
        <ele>98</ele>
        <time>2007-10-07T08:22:08Z</time>
      </trkpt>
      <trkpt lat="47.7748" lon="-2.63159">
        <ele>98</ele>
        <time>2007-10-07T08:22:13Z</time>
      </trkpt>
      <trkpt lat="47.77492" lon="-2.63149">
        <ele>99</ele>
        <time>2007-10-07T08:22:19Z</time>
      </trkpt>
      <trkpt lat="47.77503" lon="-2.6314">
        <ele>99</ele>
        <time>2007-10-07T08:22:24Z</time>
      </trkpt>
      <trkpt lat="47.77516" lon="-2.6313">
        <ele>98</ele>
        <time>2007-10-07T08:22:29Z</time>
      </trkpt>
      <trkpt lat="47.7753" lon="-2.63117">
        <ele>98</ele>
        <time>2007-10-07T08:22:34Z</time>
      </trkpt>
      <trkpt lat="47.77545" lon="-2.63105">
        <ele>98</ele>
        <time>2007-10-07T08:22:39Z</time>
      </trkpt>
      <trkpt lat="47.77563" lon="-2.63087">
        <ele>99</ele>
        <time>2007-10-07T08:22:44Z</time>
      </trkpt>
      <trkpt lat="47.77594" lon="-2.63062">
        <ele>99</ele>
        <time>2007-10-07T08:22:52Z</time>
      </trkpt>
      <trkpt lat="47.77613" lon="-2.63048">
        <ele>98</ele>
        <time>2007-10-07T08:22:57Z</time>
      </trkpt>
      <trkpt lat="47.77632" lon="-2.63034">
        <ele>99</ele>
        <time>2007-10-07T08:23:03Z</time>
      </trkpt>
      <trkpt lat="47.77652" lon="-2.6302">
        <ele>99</ele>
        <time>2007-10-07T08:23:08Z</time>
      </trkpt>
      <trkpt lat="47.7768" lon="-2.62997">
        <ele>97</ele>
        <time>2007-10-07T08:23:14Z</time>
      </trkpt>
      <trkpt lat="47.77703" lon="-2.62977">
        <ele>96</ele>
        <time>2007-10-07T08:23:19Z</time>
      </trkpt>
      <trkpt lat="47.77711" lon="-2.6297">
        <ele>95</ele>
        <time>2007-10-07T08:23:21Z</time>
      </trkpt>
      <trkpt lat="47.77732" lon="-2.62956">
        <ele>97</ele>
        <time>2007-10-07T08:23:27Z</time>
      </trkpt>
      <trkpt lat="47.77746" lon="-2.62946">
        <ele>99</ele>
        <time>2007-10-07T08:23:30Z</time>
      </trkpt>
      <trkpt lat="47.77767" lon="-2.62934">
        <ele>101</ele>
        <time>2007-10-07T08:23:36Z</time>
      </trkpt>
      <trkpt lat="47.77786" lon="-2.62936">
        <ele>102</ele>
        <time>2007-10-07T08:23:41Z</time>
      </trkpt>
      <trkpt lat="47.7781" lon="-2.62947">
        <ele>103</ele>
        <time>2007-10-07T08:23:48Z</time>
      </trkpt>
      <trkpt lat="47.77832" lon="-2.6296">
        <ele>103</ele>
        <time>2007-10-07T08:23:55Z</time>
      </trkpt>
      <trkpt lat="47.77849" lon="-2.62976">
        <ele>104</ele>
        <time>2007-10-07T08:24:01Z</time>
      </trkpt>
      <trkpt lat="47.77879" lon="-2.63006">
        <ele>104</ele>
        <time>2007-10-07T08:24:11Z</time>
      </trkpt>
      <trkpt lat="47.77899" lon="-2.6302">
        <ele>105</ele>
        <time>2007-10-07T08:24:17Z</time>
      </trkpt>
      <trkpt lat="47.77916" lon="-2.63026">
        <ele>105</ele>
        <time>2007-10-07T08:24:21Z</time>
      </trkpt>
      <trkpt lat="47.77952" lon="-2.63047">
        <ele>105</ele>
        <time>2007-10-07T08:24:30Z</time>
      </trkpt>
      <trkpt lat="47.77974" lon="-2.63063">
        <ele>105</ele>
        <time>2007-10-07T08:24:36Z</time>
      </trkpt>
      <trkpt lat="47.77978" lon="-2.63066">
        <ele>105</ele>
        <time>2007-10-07T08:24:37Z</time>
      </trkpt>
      <trkpt lat="47.78001" lon="-2.63089">
        <ele>105</ele>
        <time>2007-10-07T08:24:44Z</time>
      </trkpt>
      <trkpt lat="47.78008" lon="-2.63097">
        <ele>105</ele>
        <time>2007-10-07T08:24:46Z</time>
      </trkpt>
      <trkpt lat="47.78025" lon="-2.63111">
        <ele>104</ele>
        <time>2007-10-07T08:24:51Z</time>
      </trkpt>
      <trkpt lat="47.78031" lon="-2.63131">
        <ele>105</ele>
        <time>2007-10-07T08:24:56Z</time>
      </trkpt>
      <trkpt lat="47.78041" lon="-2.63162">
        <ele>105</ele>
        <time>2007-10-07T08:25:02Z</time>
      </trkpt>
      <trkpt lat="47.78049" lon="-2.63184">
        <ele>105</ele>
        <time>2007-10-07T08:25:06Z</time>
      </trkpt>
      <trkpt lat="47.78049" lon="-2.63213">
        <ele>105</ele>
        <time>2007-10-07T08:25:11Z</time>
      </trkpt>
      <trkpt lat="47.78039" lon="-2.63235">
        <ele>105</ele>
        <time>2007-10-07T08:25:15Z</time>
      </trkpt>
      <trkpt lat="47.78026" lon="-2.63264">
        <ele>105</ele>
        <time>2007-10-07T08:25:20Z</time>
      </trkpt>
      <trkpt lat="47.7802" lon="-2.63276">
        <ele>105</ele>
        <time>2007-10-07T08:25:22Z</time>
      </trkpt>
      <trkpt lat="47.78011" lon="-2.63299">
        <ele>105</ele>
        <time>2007-10-07T08:25:26Z</time>
      </trkpt>
      <trkpt lat="47.77995" lon="-2.63335">
        <ele>105</ele>
        <time>2007-10-07T08:25:32Z</time>
      </trkpt>
      <trkpt lat="47.77993" lon="-2.63341">
        <ele>105</ele>
        <time>2007-10-07T08:25:33Z</time>
      </trkpt>
      <trkpt lat="47.77988" lon="-2.63353">
        <ele>105</ele>
        <time>2007-10-07T08:25:35Z</time>
      </trkpt>
      <trkpt lat="47.7797" lon="-2.63381">
        <ele>106</ele>
        <time>2007-10-07T08:25:41Z</time>
      </trkpt>
      <trkpt lat="47.77961" lon="-2.63402">
        <ele>106</ele>
        <time>2007-10-07T08:25:46Z</time>
      </trkpt>
      <trkpt lat="47.77952" lon="-2.63416">
        <ele>107</ele>
        <time>2007-10-07T08:25:49Z</time>
      </trkpt>
      <trkpt lat="47.77943" lon="-2.63439">
        <ele>107</ele>
        <time>2007-10-07T08:25:54Z</time>
      </trkpt>
      <trkpt lat="47.77935" lon="-2.63459">
        <ele>108</ele>
        <time>2007-10-07T08:26:00Z</time>
      </trkpt>
      <trkpt lat="47.77925" lon="-2.63477">
        <ele>109</ele>
        <time>2007-10-07T08:26:06Z</time>
      </trkpt>
      <trkpt lat="47.7791" lon="-2.63501">
        <ele>111</ele>
        <time>2007-10-07T08:26:14Z</time>
      </trkpt>
      <trkpt lat="47.77907" lon="-2.63507">
        <ele>112</ele>
        <time>2007-10-07T08:26:16Z</time>
      </trkpt>
      <trkpt lat="47.7791" lon="-2.63526">
        <ele>112</ele>
        <time>2007-10-07T08:26:21Z</time>
      </trkpt>
      <trkpt lat="47.77917" lon="-2.63554">
        <ele>112</ele>
        <time>2007-10-07T08:26:28Z</time>
      </trkpt>
      <trkpt lat="47.77921" lon="-2.6358">
        <ele>114</ele>
        <time>2007-10-07T08:26:35Z</time>
      </trkpt>
      <trkpt lat="47.77915" lon="-2.63595">
        <ele>115</ele>
        <time>2007-10-07T08:26:40Z</time>
      </trkpt>
      <trkpt lat="47.77918" lon="-2.63622">
        <ele>116</ele>
        <time>2007-10-07T08:26:47Z</time>
      </trkpt>
      <trkpt lat="47.77923" lon="-2.63653">
        <ele>118</ele>
        <time>2007-10-07T08:26:56Z</time>
      </trkpt>
      <trkpt lat="47.77927" lon="-2.63675">
        <ele>119</ele>
        <time>2007-10-07T08:27:03Z</time>
      </trkpt>
      <trkpt lat="47.77925" lon="-2.63695">
        <ele>121</ele>
        <time>2007-10-07T08:27:10Z</time>
      </trkpt>
      <trkpt lat="47.77919" lon="-2.63713">
        <ele>121</ele>
        <time>2007-10-07T08:27:16Z</time>
      </trkpt>
      <trkpt lat="47.77914" lon="-2.63734">
        <ele>122</ele>
        <time>2007-10-07T08:27:23Z</time>
      </trkpt>
      <trkpt lat="47.77914" lon="-2.63757">
        <ele>122</ele>
        <time>2007-10-07T08:27:30Z</time>
      </trkpt>
      <trkpt lat="47.77911" lon="-2.63786">
        <ele>124</ele>
        <time>2007-10-07T08:27:39Z</time>
      </trkpt>
      <trkpt lat="47.7791" lon="-2.63808">
        <ele>126</ele>
        <time>2007-10-07T08:27:46Z</time>
      </trkpt>
      <trkpt lat="47.77906" lon="-2.63839">
        <ele>127</ele>
        <time>2007-10-07T08:27:55Z</time>
      </trkpt>
      <trkpt lat="47.77902" lon="-2.63865">
        <ele>127</ele>
        <time>2007-10-07T08:28:02Z</time>
      </trkpt>
      <trkpt lat="47.77903" lon="-2.63876">
        <ele>127</ele>
        <time>2007-10-07T08:28:05Z</time>
      </trkpt>
      <trkpt lat="47.7791" lon="-2.63883">
        <ele>127</ele>
        <time>2007-10-07T08:28:09Z</time>
      </trkpt>
      <trkpt lat="47.77934" lon="-2.63884">
        <ele>128</ele>
        <time>2007-10-07T08:28:19Z</time>
      </trkpt>
      <trkpt lat="47.77952" lon="-2.63881">
        <ele>129</ele>
        <time>2007-10-07T08:28:26Z</time>
      </trkpt>
      <trkpt lat="47.77978" lon="-2.63878">
        <ele>129</ele>
        <time>2007-10-07T08:28:35Z</time>
      </trkpt>
      <trkpt lat="47.78004" lon="-2.63876">
        <ele>129</ele>
        <time>2007-10-07T08:28:44Z</time>
      </trkpt>
      <trkpt lat="47.78023" lon="-2.63873">
        <ele>129</ele>
        <time>2007-10-07T08:28:51Z</time>
      </trkpt>
      <trkpt lat="47.78027" lon="-2.63859">
        <ele>129</ele>
        <time>2007-10-07T08:28:55Z</time>
      </trkpt>
      <trkpt lat="47.78025" lon="-2.63825">
        <ele>129</ele>
        <time>2007-10-07T08:29:02Z</time>
      </trkpt>
      <trkpt lat="47.78026" lon="-2.63803">
        <ele>127</ele>
        <time>2007-10-07T08:29:06Z</time>
      </trkpt>
      <trkpt lat="47.78027" lon="-2.63794">
        <ele>127</ele>
        <time>2007-10-07T08:29:08Z</time>
      </trkpt>
      <trkpt lat="47.78038" lon="-2.63791">
        <ele>128</ele>
        <time>2007-10-07T08:29:12Z</time>
      </trkpt>
      <trkpt lat="47.78043" lon="-2.63789">
        <ele>128</ele>
        <time>2007-10-07T08:29:14Z</time>
      </trkpt>
      <trkpt lat="47.7805" lon="-2.63791">
        <ele>129</ele>
        <time>2007-10-07T08:29:18Z</time>
      </trkpt>
      <trkpt lat="47.78062" lon="-2.63802">
        <ele>131</ele>
        <time>2007-10-07T08:29:24Z</time>
      </trkpt>
      <trkpt lat="47.78072" lon="-2.63806">
        <ele>131</ele>
        <time>2007-10-07T08:29:28Z</time>
      </trkpt>
      <trkpt lat="47.7808" lon="-2.63831">
        <ele>132</ele>
        <time>2007-10-07T08:29:36Z</time>
      </trkpt>
      <trkpt lat="47.78085" lon="-2.63845">
        <ele>132</ele>
        <time>2007-10-07T08:29:40Z</time>
      </trkpt>
      <trkpt lat="47.78088" lon="-2.63864">
        <ele>133</ele>
        <time>2007-10-07T08:29:46Z</time>
      </trkpt>
      <trkpt lat="47.78088" lon="-2.63868">
        <ele>134</ele>
        <time>2007-10-07T08:29:47Z</time>
      </trkpt>
      <trkpt lat="47.78091" lon="-2.63894">
        <ele>134</ele>
        <time>2007-10-07T08:29:54Z</time>
      </trkpt>
      <trkpt lat="47.78097" lon="-2.63923">
        <ele>135</ele>
        <time>2007-10-07T08:30:01Z</time>
      </trkpt>
      <trkpt lat="47.78101" lon="-2.63944">
        <ele>135</ele>
        <time>2007-10-07T08:30:06Z</time>
      </trkpt>
      <trkpt lat="47.78107" lon="-2.63962">
        <ele>135</ele>
        <time>2007-10-07T08:30:11Z</time>
      </trkpt>
      <trkpt lat="47.7812" lon="-2.63976">
        <ele>135</ele>
        <time>2007-10-07T08:30:17Z</time>
      </trkpt>
      <trkpt lat="47.78134" lon="-2.63987">
        <ele>136</ele>
        <time>2007-10-07T08:30:23Z</time>
      </trkpt>
      <trkpt lat="47.78146" lon="-2.63996">
        <ele>136</ele>
        <time>2007-10-07T08:30:28Z</time>
      </trkpt>
      <trkpt lat="47.7816" lon="-2.64003">
        <ele>137</ele>
        <time>2007-10-07T08:30:34Z</time>
      </trkpt>
      <trkpt lat="47.78169" lon="-2.64013">
        <ele>136</ele>
        <time>2007-10-07T08:30:38Z</time>
      </trkpt>
      <trkpt lat="47.78183" lon="-2.64034">
        <ele>135</ele>
        <time>2007-10-07T08:30:44Z</time>
      </trkpt>
      <trkpt lat="47.78194" lon="-2.64051">
        <ele>134</ele>
        <time>2007-10-07T08:30:48Z</time>
      </trkpt>
      <trkpt lat="47.78197" lon="-2.64056">
        <ele>135</ele>
        <time>2007-10-07T08:30:49Z</time>
      </trkpt>
      <trkpt lat="47.78202" lon="-2.64067">
        <ele>134</ele>
        <time>2007-10-07T08:30:51Z</time>
      </trkpt>
      <trkpt lat="47.78208" lon="-2.64079">
        <ele>134</ele>
        <time>2007-10-07T08:30:53Z</time>
      </trkpt>
      <trkpt lat="47.78224" lon="-2.64094">
        <ele>133</ele>
        <time>2007-10-07T08:30:57Z</time>
      </trkpt>
      <trkpt lat="47.78228" lon="-2.64093">
        <ele>133</ele>
        <time>2007-10-07T08:30:58Z</time>
      </trkpt>
      <trkpt lat="47.78247" lon="-2.64089">
        <ele>133</ele>
        <time>2007-10-07T08:31:03Z</time>
      </trkpt>
      <trkpt lat="47.78262" lon="-2.64086">
        <ele>133</ele>
        <time>2007-10-07T08:31:06Z</time>
      </trkpt>
      <trkpt lat="47.78291" lon="-2.64084">
        <ele>132</ele>
        <time>2007-10-07T08:31:13Z</time>
      </trkpt>
      <trkpt lat="47.78307" lon="-2.64088">
        <ele>132</ele>
        <time>2007-10-07T08:31:17Z</time>
      </trkpt>
      <trkpt lat="47.78322" lon="-2.64093">
        <ele>132</ele>
        <time>2007-10-07T08:31:21Z</time>
      </trkpt>
      <trkpt lat="47.78328" lon="-2.64082">
        <ele>132</ele>
        <time>2007-10-07T08:31:25Z</time>
      </trkpt>
      <trkpt lat="47.78327" lon="-2.64073">
        <ele>132</ele>
        <time>2007-10-07T08:31:27Z</time>
      </trkpt>
      <trkpt lat="47.78321" lon="-2.64053">
        <ele>133</ele>
        <time>2007-10-07T08:31:33Z</time>
      </trkpt>
      <trkpt lat="47.78315" lon="-2.64032">
        <ele>134</ele>
        <time>2007-10-07T08:31:39Z</time>
      </trkpt>
      <trkpt lat="47.78313" lon="-2.64026">
        <ele>134</ele>
        <time>2007-10-07T08:31:41Z</time>
      </trkpt>
      <trkpt lat="47.78307" lon="-2.64002">
        <ele>135</ele>
        <time>2007-10-07T08:31:48Z</time>
      </trkpt>
      <trkpt lat="47.78305" lon="-2.63984">
        <ele>136</ele>
        <time>2007-10-07T08:31:53Z</time>
      </trkpt>
      <trkpt lat="47.78301" lon="-2.63963">
        <ele>136</ele>
        <time>2007-10-07T08:31:59Z</time>
      </trkpt>
      <trkpt lat="47.78299" lon="-2.63945">
        <ele>138</ele>
        <time>2007-10-07T08:32:04Z</time>
      </trkpt>
      <trkpt lat="47.78297" lon="-2.63924">
        <ele>139</ele>
        <time>2007-10-07T08:32:10Z</time>
      </trkpt>
      <trkpt lat="47.78295" lon="-2.639">
        <ele>139</ele>
        <time>2007-10-07T08:32:16Z</time>
      </trkpt>
      <trkpt lat="47.78294" lon="-2.63872">
        <ele>139</ele>
        <time>2007-10-07T08:32:22Z</time>
      </trkpt>
      <trkpt lat="47.78289" lon="-2.63844">
        <ele>139</ele>
        <time>2007-10-07T08:32:28Z</time>
      </trkpt>
      <trkpt lat="47.78287" lon="-2.63823">
        <ele>139</ele>
        <time>2007-10-07T08:32:32Z</time>
      </trkpt>
      <trkpt lat="47.78282" lon="-2.638">
        <ele>139</ele>
        <time>2007-10-07T08:32:37Z</time>
      </trkpt>
      <trkpt lat="47.78278" lon="-2.63764">
        <ele>138</ele>
        <time>2007-10-07T08:32:44Z</time>
      </trkpt>
      <trkpt lat="47.78272" lon="-2.63744">
        <ele>138</ele>
        <time>2007-10-07T08:32:48Z</time>
      </trkpt>
      <trkpt lat="47.78266" lon="-2.63715">
        <ele>137</ele>
        <time>2007-10-07T08:32:54Z</time>
      </trkpt>
      <trkpt lat="47.78267" lon="-2.63691">
        <ele>136</ele>
        <time>2007-10-07T08:32:58Z</time>
      </trkpt>
      <trkpt lat="47.78266" lon="-2.63684">
        <ele>136</ele>
        <time>2007-10-07T08:32:59Z</time>
      </trkpt>
      <trkpt lat="47.7826" lon="-2.63656">
        <ele>135</ele>
        <time>2007-10-07T08:33:03Z</time>
      </trkpt>
      <trkpt lat="47.78258" lon="-2.6364">
        <ele>135</ele>
        <time>2007-10-07T08:33:05Z</time>
      </trkpt>
      <trkpt lat="47.78254" lon="-2.63592">
        <ele>130</ele>
        <time>2007-10-07T08:33:11Z</time>
      </trkpt>
      <trkpt lat="47.78253" lon="-2.63584">
        <ele>130</ele>
        <time>2007-10-07T08:33:12Z</time>
      </trkpt>
      <trkpt lat="47.78251" lon="-2.63559">
        <ele>127</ele>
        <time>2007-10-07T08:33:16Z</time>
      </trkpt>
      <trkpt lat="47.78249" lon="-2.63541">
        <ele>125</ele>
        <time>2007-10-07T08:33:20Z</time>
      </trkpt>
      <trkpt lat="47.78248" lon="-2.63535">
        <ele>124</ele>
        <time>2007-10-07T08:33:22Z</time>
      </trkpt>
      <trkpt lat="47.78246" lon="-2.6352">
        <ele>122</ele>
        <time>2007-10-07T08:33:25Z</time>
      </trkpt>
      <trkpt lat="47.78241" lon="-2.63481">
        <ele>118</ele>
        <time>2007-10-07T08:33:29Z</time>
      </trkpt>
      <trkpt lat="47.78238" lon="-2.63458">
        <ele>116</ele>
        <time>2007-10-07T08:33:31Z</time>
      </trkpt>
      <trkpt lat="47.78233" lon="-2.63416">
        <ele>112</ele>
        <time>2007-10-07T08:33:36Z</time>
      </trkpt>
      <trkpt lat="47.78233" lon="-2.63403">
        <ele>111</ele>
        <time>2007-10-07T08:33:38Z</time>
      </trkpt>
      <trkpt lat="47.78235" lon="-2.63399">
        <ele>111</ele>
        <time>2007-10-07T08:33:39Z</time>
      </trkpt>
      <trkpt lat="47.78253" lon="-2.63393">
        <ele>110</ele>
        <time>2007-10-07T08:33:44Z</time>
      </trkpt>
      <trkpt lat="47.78257" lon="-2.63392">
        <ele>110</ele>
        <time>2007-10-07T08:33:45Z</time>
      </trkpt>
      <trkpt lat="47.78285" lon="-2.63389">
        <ele>109</ele>
        <time>2007-10-07T08:33:51Z</time>
      </trkpt>
      <trkpt lat="47.78306" lon="-2.63388">
        <ele>109</ele>
        <time>2007-10-07T08:33:57Z</time>
      </trkpt>
      <trkpt lat="47.78325" lon="-2.63385">
        <ele>109</ele>
        <time>2007-10-07T08:34:03Z</time>
      </trkpt>
      <trkpt lat="47.78339" lon="-2.63383">
        <ele>111</ele>
        <time>2007-10-07T08:34:09Z</time>
      </trkpt>
      <trkpt lat="47.7835" lon="-2.63382">
        <ele>111</ele>
        <time>2007-10-07T08:34:13Z</time>
      </trkpt>
      <trkpt lat="47.78364" lon="-2.63379">
        <ele>112</ele>
        <time>2007-10-07T08:34:18Z</time>
      </trkpt>
      <trkpt lat="47.7838" lon="-2.63378">
        <ele>112</ele>
        <time>2007-10-07T08:34:23Z</time>
      </trkpt>
      <trkpt lat="47.78398" lon="-2.63379">
        <ele>111</ele>
        <time>2007-10-07T08:34:29Z</time>
      </trkpt>
      <trkpt lat="47.78411" lon="-2.63377">
        <ele>112</ele>
        <time>2007-10-07T08:34:34Z</time>
      </trkpt>
      <trkpt lat="47.7843" lon="-2.63373">
        <ele>112</ele>
        <time>2007-10-07T08:34:40Z</time>
      </trkpt>
      <trkpt lat="47.78447" lon="-2.6337">
        <ele>112</ele>
        <time>2007-10-07T08:34:46Z</time>
      </trkpt>
      <trkpt lat="47.78466" lon="-2.63367">
        <ele>110</ele>
        <time>2007-10-07T08:34:52Z</time>
      </trkpt>
      <trkpt lat="47.78491" lon="-2.63361">
        <ele>109</ele>
        <time>2007-10-07T08:34:57Z</time>
      </trkpt>
      <trkpt lat="47.78514" lon="-2.63357">
        <ele>108</ele>
        <time>2007-10-07T08:35:02Z</time>
      </trkpt>
      <trkpt lat="47.78522" lon="-2.63373">
        <ele>109</ele>
        <time>2007-10-07T08:35:07Z</time>
      </trkpt>
      <trkpt lat="47.78529" lon="-2.63396">
        <ele>111</ele>
        <time>2007-10-07T08:35:14Z</time>
      </trkpt>
      <trkpt lat="47.78533" lon="-2.63423">
        <ele>112</ele>
        <time>2007-10-07T08:35:22Z</time>
      </trkpt>
      <trkpt lat="47.78537" lon="-2.6344">
        <ele>112</ele>
        <time>2007-10-07T08:35:27Z</time>
      </trkpt>
      <trkpt lat="47.78541" lon="-2.63458">
        <ele>114</ele>
        <time>2007-10-07T08:35:33Z</time>
      </trkpt>
      <trkpt lat="47.78544" lon="-2.63484">
        <ele>115</ele>
        <time>2007-10-07T08:35:41Z</time>
      </trkpt>
      <trkpt lat="47.78546" lon="-2.6351">
        <ele>116</ele>
        <time>2007-10-07T08:35:49Z</time>
      </trkpt>
      <trkpt lat="47.78548" lon="-2.63536">
        <ele>118</ele>
        <time>2007-10-07T08:35:57Z</time>
      </trkpt>
      <trkpt lat="47.78551" lon="-2.63558">
        <ele>119</ele>
        <time>2007-10-07T08:36:04Z</time>
      </trkpt>
      <trkpt lat="47.78554" lon="-2.63573">
        <ele>120</ele>
        <time>2007-10-07T08:36:10Z</time>
      </trkpt>
      <trkpt lat="47.78557" lon="-2.63589">
        <ele>121</ele>
        <time>2007-10-07T08:36:17Z</time>
      </trkpt>
      <trkpt lat="47.78557" lon="-2.63593">
        <ele>121</ele>
        <time>2007-10-07T08:36:19Z</time>
      </trkpt>
      <trkpt lat="47.7856" lon="-2.63612">
        <ele>123</ele>
        <time>2007-10-07T08:36:27Z</time>
      </trkpt>
      <trkpt lat="47.7856" lon="-2.63623">
        <ele>124</ele>
        <time>2007-10-07T08:36:32Z</time>
      </trkpt>
      <trkpt lat="47.78561" lon="-2.63636">
        <ele>126</ele>
        <time>2007-10-07T08:36:38Z</time>
      </trkpt>
      <trkpt lat="47.78562" lon="-2.6365">
        <ele>127</ele>
        <time>2007-10-07T08:36:45Z</time>
      </trkpt>
      <trkpt lat="47.78561" lon="-2.6366">
        <ele>128</ele>
        <time>2007-10-07T08:36:49Z</time>
      </trkpt>
      <trkpt lat="47.78561" lon="-2.6368">
        <ele>130</ele>
        <time>2007-10-07T08:36:57Z</time>
      </trkpt>
      <trkpt lat="47.78561" lon="-2.63698">
        <ele>131</ele>
        <time>2007-10-07T08:37:05Z</time>
      </trkpt>
      <trkpt lat="47.78562" lon="-2.63702">
        <ele>132</ele>
        <time>2007-10-07T08:37:07Z</time>
      </trkpt>
      <trkpt lat="47.78563" lon="-2.63716">
        <ele>133</ele>
        <time>2007-10-07T08:37:13Z</time>
      </trkpt>
      <trkpt lat="47.78564" lon="-2.63737">
        <ele>134</ele>
        <time>2007-10-07T08:37:22Z</time>
      </trkpt>
      <trkpt lat="47.78565" lon="-2.63752">
        <ele>135</ele>
        <time>2007-10-07T08:37:28Z</time>
      </trkpt>
      <trkpt lat="47.78568" lon="-2.6377">
        <ele>135</ele>
        <time>2007-10-07T08:37:35Z</time>
      </trkpt>
      <trkpt lat="47.78568" lon="-2.63772">
        <ele>135</ele>
        <time>2007-10-07T08:37:36Z</time>
      </trkpt>
      <trkpt lat="47.7857" lon="-2.63791">
        <ele>135</ele>
        <time>2007-10-07T08:37:42Z</time>
      </trkpt>
      <trkpt lat="47.78573" lon="-2.63808">
        <ele>135</ele>
        <time>2007-10-07T08:37:47Z</time>
      </trkpt>
      <trkpt lat="47.78575" lon="-2.63839">
        <ele>135</ele>
        <time>2007-10-07T08:37:54Z</time>
      </trkpt>
      <trkpt lat="47.78577" lon="-2.63858">
        <ele>135</ele>
        <time>2007-10-07T08:37:58Z</time>
      </trkpt>
      <trkpt lat="47.78577" lon="-2.63883">
        <ele>135</ele>
        <time>2007-10-07T08:38:04Z</time>
      </trkpt>
      <trkpt lat="47.7858" lon="-2.63912">
        <ele>136</ele>
        <time>2007-10-07T08:38:11Z</time>
      </trkpt>
      <trkpt lat="47.78585" lon="-2.63942">
        <ele>136</ele>
        <time>2007-10-07T08:38:18Z</time>
      </trkpt>
      <trkpt lat="47.78588" lon="-2.6397">
        <ele>136</ele>
        <time>2007-10-07T08:38:24Z</time>
      </trkpt>
      <trkpt lat="47.78591" lon="-2.63996">
        <ele>135</ele>
        <time>2007-10-07T08:38:29Z</time>
      </trkpt>
      <trkpt lat="47.78593" lon="-2.64022">
        <ele>135</ele>
        <time>2007-10-07T08:38:34Z</time>
      </trkpt>
      <trkpt lat="47.78593" lon="-2.64053">
        <ele>135</ele>
        <time>2007-10-07T08:38:40Z</time>
      </trkpt>
      <trkpt lat="47.78593" lon="-2.64057">
        <ele>135</ele>
        <time>2007-10-07T08:38:41Z</time>
      </trkpt>
      <trkpt lat="47.78597" lon="-2.64063">
        <ele>135</ele>
        <time>2007-10-07T08:38:45Z</time>
      </trkpt>
      <trkpt lat="47.78613" lon="-2.64064">
        <ele>134</ele>
        <time>2007-10-07T08:38:50Z</time>
      </trkpt>
      <trkpt lat="47.78624" lon="-2.64066">
        <ele>134</ele>
        <time>2007-10-07T08:38:54Z</time>
      </trkpt>
      <trkpt lat="47.78626" lon="-2.64067">
        <ele>134</ele>
        <time>2007-10-07T08:38:55Z</time>
      </trkpt>
      <trkpt lat="47.78644" lon="-2.64069">
        <ele>134</ele>
        <time>2007-10-07T08:39:02Z</time>
      </trkpt>
      <trkpt lat="47.7866" lon="-2.64069">
        <ele>134</ele>
        <time>2007-10-07T08:39:07Z</time>
      </trkpt>
      <trkpt lat="47.78668" lon="-2.64068">
        <ele>134</ele>
        <time>2007-10-07T08:39:09Z</time>
      </trkpt>
      <trkpt lat="47.78682" lon="-2.64053">
        <ele>134</ele>
        <time>2007-10-07T08:39:15Z</time>
      </trkpt>
      <trkpt lat="47.78693" lon="-2.64044">
        <ele>134</ele>
        <time>2007-10-07T08:39:18Z</time>
      </trkpt>
      <trkpt lat="47.78708" lon="-2.64044">
        <ele>133</ele>
        <time>2007-10-07T08:39:22Z</time>
      </trkpt>
      <trkpt lat="47.7873" lon="-2.6404">
        <ele>133</ele>
        <time>2007-10-07T08:39:27Z</time>
      </trkpt>
      <trkpt lat="47.78749" lon="-2.64032">
        <ele>132</ele>
        <time>2007-10-07T08:39:31Z</time>
      </trkpt>
      <trkpt lat="47.78761" lon="-2.64029">
        <ele>130</ele>
        <time>2007-10-07T08:39:34Z</time>
      </trkpt>
      <trkpt lat="47.78781" lon="-2.64021">
        <ele>129</ele>
        <time>2007-10-07T08:39:39Z</time>
      </trkpt>
      <trkpt lat="47.78802" lon="-2.6401">
        <ele>128</ele>
        <time>2007-10-07T08:39:44Z</time>
      </trkpt>
      <trkpt lat="47.78814" lon="-2.64008">
        <ele>127</ele>
        <time>2007-10-07T08:39:46Z</time>
      </trkpt>
      <trkpt lat="47.78834" lon="-2.64009">
        <ele>127</ele>
        <time>2007-10-07T08:39:49Z</time>
      </trkpt>
      <trkpt lat="47.7887" lon="-2.64004">
        <ele>126</ele>
        <time>2007-10-07T08:39:56Z</time>
      </trkpt>
      <trkpt lat="47.78894" lon="-2.64006">
        <ele>125</ele>
        <time>2007-10-07T08:40:01Z</time>
      </trkpt>
      <trkpt lat="47.78903" lon="-2.64005">
        <ele>125</ele>
        <time>2007-10-07T08:40:04Z</time>
      </trkpt>
      <trkpt lat="47.78911" lon="-2.63999">
        <ele>125</ele>
        <time>2007-10-07T08:40:10Z</time>
      </trkpt>
      <trkpt lat="47.7892" lon="-2.63994">
        <ele>125</ele>
        <time>2007-10-07T08:40:14Z</time>
      </trkpt>
      <trkpt lat="47.78932" lon="-2.63988">
        <ele>128</ele>
        <time>2007-10-07T08:40:19Z</time>
      </trkpt>
      <trkpt lat="47.78944" lon="-2.63978">
        <ele>129</ele>
        <time>2007-10-07T08:40:24Z</time>
      </trkpt>
      <trkpt lat="47.78957" lon="-2.63954">
        <ele>129</ele>
        <time>2007-10-07T08:40:30Z</time>
      </trkpt>
      <trkpt lat="47.78967" lon="-2.63933">
        <ele>129</ele>
        <time>2007-10-07T08:40:35Z</time>
      </trkpt>
      <trkpt lat="47.78978" lon="-2.63909">
        <ele>129</ele>
        <time>2007-10-07T08:40:40Z</time>
      </trkpt>
      <trkpt lat="47.78979" lon="-2.63905">
        <ele>129</ele>
        <time>2007-10-07T08:40:41Z</time>
      </trkpt>
      <trkpt lat="47.78995" lon="-2.63888">
        <ele>130</ele>
        <time>2007-10-07T08:40:47Z</time>
      </trkpt>
      <trkpt lat="47.79011" lon="-2.63871">
        <ele>130</ele>
        <time>2007-10-07T08:40:53Z</time>
      </trkpt>
      <trkpt lat="47.79027" lon="-2.63857">
        <ele>130</ele>
        <time>2007-10-07T08:40:59Z</time>
      </trkpt>
      <trkpt lat="47.79039" lon="-2.63854">
        <ele>130</ele>
        <time>2007-10-07T08:41:03Z</time>
      </trkpt>
      <trkpt lat="47.79042" lon="-2.63854">
        <ele>130</ele>
        <time>2007-10-07T08:41:04Z</time>
      </trkpt>
      <trkpt lat="47.79051" lon="-2.63868">
        <ele>131</ele>
        <time>2007-10-07T08:41:09Z</time>
      </trkpt>
      <trkpt lat="47.79055" lon="-2.63879">
        <ele>130</ele>
        <time>2007-10-07T08:41:12Z</time>
      </trkpt>
      <trkpt lat="47.79063" lon="-2.63903">
        <ele>131</ele>
        <time>2007-10-07T08:41:18Z</time>
      </trkpt>
      <trkpt lat="47.79064" lon="-2.6391">
        <ele>131</ele>
        <time>2007-10-07T08:41:20Z</time>
      </trkpt>
      <trkpt lat="47.79075" lon="-2.63936">
        <ele>132</ele>
        <time>2007-10-07T08:41:27Z</time>
      </trkpt>
      <trkpt lat="47.79081" lon="-2.63955">
        <ele>132</ele>
        <time>2007-10-07T08:41:32Z</time>
      </trkpt>
      <trkpt lat="47.79089" lon="-2.6398">
        <ele>131</ele>
        <time>2007-10-07T08:41:38Z</time>
      </trkpt>
      <trkpt lat="47.79096" lon="-2.64001">
        <ele>133</ele>
        <time>2007-10-07T08:41:43Z</time>
      </trkpt>
      <trkpt lat="47.79101" lon="-2.64022">
        <ele>133</ele>
        <time>2007-10-07T08:41:48Z</time>
      </trkpt>
      <trkpt lat="47.7911" lon="-2.64053">
        <ele>134</ele>
        <time>2007-10-07T08:41:55Z</time>
      </trkpt>
      <trkpt lat="47.79116" lon="-2.64079">
        <ele>134</ele>
        <time>2007-10-07T08:42:01Z</time>
      </trkpt>
      <trkpt lat="47.79118" lon="-2.641">
        <ele>134</ele>
        <time>2007-10-07T08:42:06Z</time>
      </trkpt>
      <trkpt lat="47.79124" lon="-2.6412">
        <ele>135</ele>
        <time>2007-10-07T08:42:11Z</time>
      </trkpt>
      <trkpt lat="47.79129" lon="-2.64145">
        <ele>136</ele>
        <time>2007-10-07T08:42:17Z</time>
      </trkpt>
      <trkpt lat="47.79135" lon="-2.64165">
        <ele>136</ele>
        <time>2007-10-07T08:42:22Z</time>
      </trkpt>
      <trkpt lat="47.7914" lon="-2.64185">
        <ele>137</ele>
        <time>2007-10-07T08:42:27Z</time>
      </trkpt>
      <trkpt lat="47.79147" lon="-2.64204">
        <ele>138</ele>
        <time>2007-10-07T08:42:32Z</time>
      </trkpt>
      <trkpt lat="47.79153" lon="-2.6423">
        <ele>138</ele>
        <time>2007-10-07T08:42:38Z</time>
      </trkpt>
      <trkpt lat="47.79158" lon="-2.64256">
        <ele>139</ele>
        <time>2007-10-07T08:42:44Z</time>
      </trkpt>
      <trkpt lat="47.79163" lon="-2.64281">
        <ele>140</ele>
        <time>2007-10-07T08:42:50Z</time>
      </trkpt>
      <trkpt lat="47.79169" lon="-2.6431">
        <ele>140</ele>
        <time>2007-10-07T08:42:57Z</time>
      </trkpt>
      <trkpt lat="47.79177" lon="-2.64348">
        <ele>142</ele>
        <time>2007-10-07T08:43:06Z</time>
      </trkpt>
      <trkpt lat="47.79181" lon="-2.64369">
        <ele>142</ele>
        <time>2007-10-07T08:43:11Z</time>
      </trkpt>
      <trkpt lat="47.79184" lon="-2.64376">
        <ele>143</ele>
        <time>2007-10-07T08:43:13Z</time>
      </trkpt>
      <trkpt lat="47.79186" lon="-2.64394">
        <ele>144</ele>
        <time>2007-10-07T08:43:18Z</time>
      </trkpt>
      <trkpt lat="47.79194" lon="-2.64394">
        <ele>145</ele>
        <time>2007-10-07T08:43:23Z</time>
      </trkpt>
      <trkpt lat="47.79199" lon="-2.64388">
        <ele>145</ele>
        <time>2007-10-07T08:43:26Z</time>
      </trkpt>
      <trkpt lat="47.792" lon="-2.64371">
        <ele>144</ele>
        <time>2007-10-07T08:43:32Z</time>
      </trkpt>
      <trkpt lat="47.79203" lon="-2.64347">
        <ele>144</ele>
        <time>2007-10-07T08:43:37Z</time>
      </trkpt>
      <trkpt lat="47.79209" lon="-2.64322">
        <ele>143</ele>
        <time>2007-10-07T08:43:41Z</time>
      </trkpt>
      <trkpt lat="47.79211" lon="-2.64303">
        <ele>142</ele>
        <time>2007-10-07T08:43:44Z</time>
      </trkpt>
      <trkpt lat="47.79214" lon="-2.64271">
        <ele>142</ele>
        <time>2007-10-07T08:43:49Z</time>
      </trkpt>
      <trkpt lat="47.79217" lon="-2.64239">
        <ele>140</ele>
        <time>2007-10-07T08:43:54Z</time>
      </trkpt>
      <trkpt lat="47.79228" lon="-2.64204">
        <ele>139</ele>
        <time>2007-10-07T08:43:59Z</time>
      </trkpt>
      <trkpt lat="47.79229" lon="-2.64183">
        <ele>139</ele>
        <time>2007-10-07T08:44:02Z</time>
      </trkpt>
      <trkpt lat="47.79233" lon="-2.64168">
        <ele>139</ele>
        <time>2007-10-07T08:44:04Z</time>
      </trkpt>
      <trkpt lat="47.79233" lon="-2.64152">
        <ele>138</ele>
        <time>2007-10-07T08:44:06Z</time>
      </trkpt>
      <trkpt lat="47.79237" lon="-2.64134">
        <ele>137</ele>
        <time>2007-10-07T08:44:08Z</time>
      </trkpt>
      <trkpt lat="47.7925" lon="-2.6411">
        <ele>135</ele>
        <time>2007-10-07T08:44:12Z</time>
      </trkpt>
      <trkpt lat="47.79253" lon="-2.64097">
        <ele>134</ele>
        <time>2007-10-07T08:44:15Z</time>
      </trkpt>
      <trkpt lat="47.79254" lon="-2.64069">
        <ele>133</ele>
        <time>2007-10-07T08:44:19Z</time>
      </trkpt>
      <trkpt lat="47.79262" lon="-2.6405">
        <ele>131</ele>
        <time>2007-10-07T08:44:22Z</time>
      </trkpt>
      <trkpt lat="47.79268" lon="-2.64033">
        <ele>129</ele>
        <time>2007-10-07T08:44:25Z</time>
      </trkpt>
      <trkpt lat="47.79274" lon="-2.64003">
        <ele>127</ele>
        <time>2007-10-07T08:44:28Z</time>
      </trkpt>
      <trkpt lat="47.79278" lon="-2.6398">
        <ele>124</ele>
        <time>2007-10-07T08:44:30Z</time>
      </trkpt>
      <trkpt lat="47.79293" lon="-2.63933">
        <ele>124</ele>
        <time>2007-10-07T08:44:34Z</time>
      </trkpt>
      <trkpt lat="47.79306" lon="-2.63877">
        <ele>122</ele>
        <time>2007-10-07T08:44:39Z</time>
      </trkpt>
      <trkpt lat="47.79321" lon="-2.63845">
        <ele>120</ele>
        <time>2007-10-07T08:44:43Z</time>
      </trkpt>
      <trkpt lat="47.79324" lon="-2.63837">
        <ele>121</ele>
        <time>2007-10-07T08:44:44Z</time>
      </trkpt>
      <trkpt lat="47.79328" lon="-2.63819">
        <ele>121</ele>
        <time>2007-10-07T08:44:46Z</time>
      </trkpt>
      <trkpt lat="47.79322" lon="-2.63791">
        <ele>121</ele>
        <time>2007-10-07T08:44:50Z</time>
      </trkpt>
      <trkpt lat="47.79322" lon="-2.63782">
        <ele>122</ele>
        <time>2007-10-07T08:44:53Z</time>
      </trkpt>
      <trkpt lat="47.79333" lon="-2.63771">
        <ele>122</ele>
        <time>2007-10-07T08:44:58Z</time>
      </trkpt>
      <trkpt lat="47.79337" lon="-2.63738">
        <ele>122</ele>
        <time>2007-10-07T08:45:04Z</time>
      </trkpt>
      <trkpt lat="47.79336" lon="-2.63711">
        <ele>122</ele>
        <time>2007-10-07T08:45:09Z</time>
      </trkpt>
      <trkpt lat="47.79339" lon="-2.63698">
        <ele>121</ele>
        <time>2007-10-07T08:45:11Z</time>
      </trkpt>
      <trkpt lat="47.79345" lon="-2.63674">
        <ele>120</ele>
        <time>2007-10-07T08:45:14Z</time>
      </trkpt>
      <trkpt lat="47.79348" lon="-2.63659">
        <ele>120</ele>
        <time>2007-10-07T08:45:16Z</time>
      </trkpt>
      <trkpt lat="47.79356" lon="-2.63643">
        <ele>119</ele>
        <time>2007-10-07T08:45:18Z</time>
      </trkpt>
      <trkpt lat="47.79362" lon="-2.63622">
        <ele>119</ele>
        <time>2007-10-07T08:45:21Z</time>
      </trkpt>
      <trkpt lat="47.79367" lon="-2.63595">
        <ele>119</ele>
        <time>2007-10-07T08:45:25Z</time>
      </trkpt>
      <trkpt lat="47.79376" lon="-2.6356">
        <ele>120</ele>
        <time>2007-10-07T08:45:30Z</time>
      </trkpt>
      <trkpt lat="47.79384" lon="-2.63512">
        <ele>121</ele>
        <time>2007-10-07T08:45:37Z</time>
      </trkpt>
      <trkpt lat="47.79387" lon="-2.63493">
        <ele>121</ele>
        <time>2007-10-07T08:45:40Z</time>
      </trkpt>
      <trkpt lat="47.7939" lon="-2.63464">
        <ele>121</ele>
        <time>2007-10-07T08:45:44Z</time>
      </trkpt>
      <trkpt lat="47.79396" lon="-2.63432">
        <ele>120</ele>
        <time>2007-10-07T08:45:49Z</time>
      </trkpt>
      <trkpt lat="47.794" lon="-2.63413">
        <ele>120</ele>
        <time>2007-10-07T08:45:53Z</time>
      </trkpt>
      <trkpt lat="47.79405" lon="-2.63405">
        <ele>120</ele>
        <time>2007-10-07T08:45:57Z</time>
      </trkpt>
      <trkpt lat="47.7941" lon="-2.63394">
        <ele>120</ele>
        <time>2007-10-07T08:46:00Z</time>
      </trkpt>
      <trkpt lat="47.79417" lon="-2.6339">
        <ele>119</ele>
        <time>2007-10-07T08:46:03Z</time>
      </trkpt>
      <trkpt lat="47.79432" lon="-2.63375">
        <ele>119</ele>
        <time>2007-10-07T08:46:09Z</time>
      </trkpt>
      <trkpt lat="47.79445" lon="-2.63362">
        <ele>120</ele>
        <time>2007-10-07T08:46:14Z</time>
      </trkpt>
      <trkpt lat="47.79451" lon="-2.63344">
        <ele>119</ele>
        <time>2007-10-07T08:46:18Z</time>
      </trkpt>
      <trkpt lat="47.79457" lon="-2.63315">
        <ele>120</ele>
        <time>2007-10-07T08:46:25Z</time>
      </trkpt>
      <trkpt lat="47.79466" lon="-2.63293">
        <ele>121</ele>
        <time>2007-10-07T08:46:30Z</time>
      </trkpt>
      <trkpt lat="47.79473" lon="-2.63275">
        <ele>122</ele>
        <time>2007-10-07T08:46:34Z</time>
      </trkpt>
      <trkpt lat="47.79484" lon="-2.63253">
        <ele>123</ele>
        <time>2007-10-07T08:46:39Z</time>
      </trkpt>
      <trkpt lat="47.79495" lon="-2.63237">
        <ele>123</ele>
        <time>2007-10-07T08:46:43Z</time>
      </trkpt>
      <trkpt lat="47.79508" lon="-2.6322">
        <ele>124</ele>
        <time>2007-10-07T08:46:48Z</time>
      </trkpt>
      <trkpt lat="47.79518" lon="-2.632">
        <ele>125</ele>
        <time>2007-10-07T08:46:53Z</time>
      </trkpt>
      <trkpt lat="47.79533" lon="-2.63175">
        <ele>126</ele>
        <time>2007-10-07T08:46:59Z</time>
      </trkpt>
      <trkpt lat="47.79544" lon="-2.63156">
        <ele>126</ele>
        <time>2007-10-07T08:47:04Z</time>
      </trkpt>
      <trkpt lat="47.79553" lon="-2.63138">
        <ele>126</ele>
        <time>2007-10-07T08:47:09Z</time>
      </trkpt>
      <trkpt lat="47.79549" lon="-2.63121">
        <ele>126</ele>
        <time>2007-10-07T08:47:13Z</time>
      </trkpt>
      <trkpt lat="47.79541" lon="-2.63092">
        <ele>127</ele>
        <time>2007-10-07T08:47:19Z</time>
      </trkpt>
      <trkpt lat="47.79537" lon="-2.6307">
        <ele>127</ele>
        <time>2007-10-07T08:47:23Z</time>
      </trkpt>
      <trkpt lat="47.79532" lon="-2.6304">
        <ele>127</ele>
        <time>2007-10-07T08:47:29Z</time>
      </trkpt>
      <trkpt lat="47.79531" lon="-2.63028">
        <ele>127</ele>
        <time>2007-10-07T08:47:31Z</time>
      </trkpt>
      <trkpt lat="47.79529" lon="-2.62989">
        <ele>126</ele>
        <time>2007-10-07T08:47:37Z</time>
      </trkpt>
      <trkpt lat="47.79528" lon="-2.62974">
        <ele>125</ele>
        <time>2007-10-07T08:47:39Z</time>
      </trkpt>
      <trkpt lat="47.79525" lon="-2.62958">
        <ele>125</ele>
        <time>2007-10-07T08:47:41Z</time>
      </trkpt>
      <trkpt lat="47.7951" lon="-2.62927">
        <ele>123</ele>
        <time>2007-10-07T08:47:45Z</time>
      </trkpt>
      <trkpt lat="47.79503" lon="-2.62923">
        <ele>123</ele>
        <time>2007-10-07T08:47:46Z</time>
      </trkpt>
      <trkpt lat="47.79464" lon="-2.62913">
        <ele>120</ele>
        <time>2007-10-07T08:47:52Z</time>
      </trkpt>
      <trkpt lat="47.7945" lon="-2.62914">
        <ele>119</ele>
        <time>2007-10-07T08:47:54Z</time>
      </trkpt>
      <trkpt lat="47.79416" lon="-2.62923">
        <ele>117</ele>
        <time>2007-10-07T08:48:00Z</time>
      </trkpt>
      <trkpt lat="47.79406" lon="-2.62925">
        <ele>116</ele>
        <time>2007-10-07T08:48:04Z</time>
      </trkpt>
      <trkpt lat="47.79405" lon="-2.62925">
        <ele>116</ele>
        <time>2007-10-07T08:48:05Z</time>
      </trkpt>
      <trkpt lat="47.79405" lon="-2.62905">
        <ele>116</ele>
        <time>2007-10-07T08:48:10Z</time>
      </trkpt>
      <trkpt lat="47.79405" lon="-2.62879">
        <ele>116</ele>
        <time>2007-10-07T08:48:15Z</time>
      </trkpt>
      <trkpt lat="47.79408" lon="-2.62865">
        <ele>115</ele>
        <time>2007-10-07T08:48:19Z</time>
      </trkpt>
      <trkpt lat="47.79411" lon="-2.62855">
        <ele>115</ele>
        <time>2007-10-07T08:48:21Z</time>
      </trkpt>
      <trkpt lat="47.79421" lon="-2.6284">
        <ele>115</ele>
        <time>2007-10-07T08:48:26Z</time>
      </trkpt>
      <trkpt lat="47.79424" lon="-2.62812">
        <ele>114</ele>
        <time>2007-10-07T08:48:31Z</time>
      </trkpt>
      <trkpt lat="47.7942" lon="-2.62792">
        <ele>113</ele>
        <time>2007-10-07T08:48:34Z</time>
      </trkpt>
      <trkpt lat="47.79418" lon="-2.62778">
        <ele>112</ele>
        <time>2007-10-07T08:48:36Z</time>
      </trkpt>
      <trkpt lat="47.79417" lon="-2.62772">
        <ele>111</ele>
        <time>2007-10-07T08:48:37Z</time>
      </trkpt>
      <trkpt lat="47.79417" lon="-2.62763">
        <ele>111</ele>
        <time>2007-10-07T08:48:40Z</time>
      </trkpt>
      <trkpt lat="47.79434" lon="-2.62763">
        <ele>112</ele>
        <time>2007-10-07T08:48:47Z</time>
      </trkpt>
      <trkpt lat="47.79448" lon="-2.62763">
        <ele>112</ele>
        <time>2007-10-07T08:48:51Z</time>
      </trkpt>
      <trkpt lat="47.79467" lon="-2.62768">
        <ele>112</ele>
        <time>2007-10-07T08:48:57Z</time>
      </trkpt>
      <trkpt lat="47.79478" lon="-2.6277">
        <ele>112</ele>
        <time>2007-10-07T08:49:00Z</time>
      </trkpt>
      <trkpt lat="47.79488" lon="-2.62772">
        <ele>110</ele>
        <time>2007-10-07T08:49:03Z</time>
      </trkpt>
      <trkpt lat="47.79498" lon="-2.62768">
        <ele>111</ele>
        <time>2007-10-07T08:49:06Z</time>
      </trkpt>
      <trkpt lat="47.79506" lon="-2.62746">
        <ele>109</ele>
        <time>2007-10-07T08:49:10Z</time>
      </trkpt>
      <trkpt lat="47.79512" lon="-2.62728">
        <ele>109</ele>
        <time>2007-10-07T08:49:12Z</time>
      </trkpt>
      <trkpt lat="47.79519" lon="-2.6269">
        <ele>108</ele>
        <time>2007-10-07T08:49:16Z</time>
      </trkpt>
      <trkpt lat="47.79527" lon="-2.62673">
        <ele>107</ele>
        <time>2007-10-07T08:49:18Z</time>
      </trkpt>
      <trkpt lat="47.7954" lon="-2.62653">
        <ele>108</ele>
        <time>2007-10-07T08:49:23Z</time>
      </trkpt>
      <trkpt lat="47.79542" lon="-2.62633">
        <ele>109</ele>
        <time>2007-10-07T08:49:29Z</time>
      </trkpt>
      <trkpt lat="47.7954" lon="-2.6261">
        <ele>109</ele>
        <time>2007-10-07T08:49:34Z</time>
      </trkpt>
      <trkpt lat="47.79538" lon="-2.62588">
        <ele>110</ele>
        <time>2007-10-07T08:49:39Z</time>
      </trkpt>
      <trkpt lat="47.79534" lon="-2.62562">
        <ele>111</ele>
        <time>2007-10-07T08:49:45Z</time>
      </trkpt>
      <trkpt lat="47.79534" lon="-2.62556">
        <ele>110</ele>
        <time>2007-10-07T08:49:48Z</time>
      </trkpt>
      <trkpt lat="47.79533" lon="-2.62557">
        <ele>111</ele>
        <time>2007-10-07T08:49:56Z</time>
      </trkpt>
      <trkpt lat="47.79534" lon="-2.62556">
        <ele>111</ele>
        <time>2007-10-07T08:49:57Z</time>
      </trkpt>
      <trkpt lat="47.79537" lon="-2.62552">
        <ele>113</ele>
        <time>2007-10-07T09:13:05Z</time>
      </trkpt>
      <trkpt lat="47.79536" lon="-2.62551">
        <ele>114</ele>
        <time>2007-10-07T09:13:08Z</time>
      </trkpt>
      <trkpt lat="47.79535" lon="-2.6255">
        <ele>114</ele>
        <time>2007-10-07T09:13:12Z</time>
      </trkpt>
      <trkpt lat="47.79535" lon="-2.62545">
        <ele>114</ele>
        <time>2007-10-07T09:13:18Z</time>
      </trkpt>
      <trkpt lat="47.79536" lon="-2.62545">
        <ele>115</ele>
        <time>2007-10-07T09:14:22Z</time>
      </trkpt>
      <trkpt lat="47.79536" lon="-2.62545">
        <ele>114</ele>
        <time>2007-10-07T09:14:23Z</time>
      </trkpt>
      <trkpt lat="47.79541" lon="-2.62545">
        <ele>115</ele>
        <time>2007-10-07T09:14:27Z</time>
      </trkpt>
      <trkpt lat="47.79543" lon="-2.62545">
        <ele>115</ele>
        <time>2007-10-07T09:14:29Z</time>
      </trkpt>
      <trkpt lat="47.79549" lon="-2.62546">
        <ele>115</ele>
        <time>2007-10-07T09:14:35Z</time>
      </trkpt>
      <trkpt lat="47.7955" lon="-2.62546">
        <ele>116</ele>
        <time>2007-10-07T09:14:36Z</time>
      </trkpt>
      <trkpt lat="47.79555" lon="-2.62541">
        <ele>116</ele>
        <time>2007-10-07T09:14:41Z</time>
      </trkpt>
      <trkpt lat="47.7956" lon="-2.62532">
        <ele>116</ele>
        <time>2007-10-07T09:14:48Z</time>
      </trkpt>
      <trkpt lat="47.79562" lon="-2.62523">
        <ele>116</ele>
        <time>2007-10-07T09:14:52Z</time>
      </trkpt>
      <trkpt lat="47.79562" lon="-2.6251">
        <ele>116</ele>
        <time>2007-10-07T09:14:57Z</time>
      </trkpt>
      <trkpt lat="47.79563" lon="-2.62498">
        <ele>116</ele>
        <time>2007-10-07T09:15:01Z</time>
      </trkpt>
      <trkpt lat="47.79564" lon="-2.62493">
        <ele>117</ele>
        <time>2007-10-07T09:15:03Z</time>
      </trkpt>
      <trkpt lat="47.79564" lon="-2.62473">
        <ele>117</ele>
        <time>2007-10-07T09:15:09Z</time>
      </trkpt>
      <trkpt lat="47.79564" lon="-2.62454">
        <ele>118</ele>
        <time>2007-10-07T09:15:14Z</time>
      </trkpt>
      <trkpt lat="47.79564" lon="-2.62444">
        <ele>118</ele>
        <time>2007-10-07T09:15:18Z</time>
      </trkpt>
      <trkpt lat="47.79569" lon="-2.62427">
        <ele>119</ele>
        <time>2007-10-07T09:15:24Z</time>
      </trkpt>
      <trkpt lat="47.79574" lon="-2.62411">
        <ele>119</ele>
        <time>2007-10-07T09:15:29Z</time>
      </trkpt>
      <trkpt lat="47.79577" lon="-2.62393">
        <ele>120</ele>
        <time>2007-10-07T09:15:34Z</time>
      </trkpt>
      <trkpt lat="47.79576" lon="-2.6237">
        <ele>120</ele>
        <time>2007-10-07T09:15:40Z</time>
      </trkpt>
      <trkpt lat="47.79575" lon="-2.62352">
        <ele>120</ele>
        <time>2007-10-07T09:15:44Z</time>
      </trkpt>
      <trkpt lat="47.79578" lon="-2.62323">
        <ele>121</ele>
        <time>2007-10-07T09:15:50Z</time>
      </trkpt>
      <trkpt lat="47.79582" lon="-2.62302">
        <ele>121</ele>
        <time>2007-10-07T09:15:54Z</time>
      </trkpt>
      <trkpt lat="47.79589" lon="-2.6228">
        <ele>121</ele>
        <time>2007-10-07T09:15:59Z</time>
      </trkpt>
      <trkpt lat="47.79596" lon="-2.62261">
        <ele>120</ele>
        <time>2007-10-07T09:16:04Z</time>
      </trkpt>
      <trkpt lat="47.79597" lon="-2.62257">
        <ele>120</ele>
        <time>2007-10-07T09:16:05Z</time>
      </trkpt>
      <trkpt lat="47.79608" lon="-2.62235">
        <ele>119</ele>
        <time>2007-10-07T09:16:11Z</time>
      </trkpt>
      <trkpt lat="47.7962" lon="-2.622">
        <ele>118</ele>
        <time>2007-10-07T09:16:16Z</time>
      </trkpt>
      <trkpt lat="47.79632" lon="-2.62174">
        <ele>118</ele>
        <time>2007-10-07T09:16:20Z</time>
      </trkpt>
      <trkpt lat="47.79638" lon="-2.62164">
        <ele>117</ele>
        <time>2007-10-07T09:16:23Z</time>
      </trkpt>
      <trkpt lat="47.79644" lon="-2.62163">
        <ele>118</ele>
        <time>2007-10-07T09:16:28Z</time>
      </trkpt>
      <trkpt lat="47.79646" lon="-2.62175">
        <ele>118</ele>
        <time>2007-10-07T09:16:33Z</time>
      </trkpt>
      <trkpt lat="47.79648" lon="-2.6219">
        <ele>119</ele>
        <time>2007-10-07T09:16:37Z</time>
      </trkpt>
      <trkpt lat="47.79653" lon="-2.62202">
        <ele>119</ele>
        <time>2007-10-07T09:16:41Z</time>
      </trkpt>
      <trkpt lat="47.79658" lon="-2.62215">
        <ele>120</ele>
        <time>2007-10-07T09:16:46Z</time>
      </trkpt>
      <trkpt lat="47.79663" lon="-2.62231">
        <ele>120</ele>
        <time>2007-10-07T09:16:51Z</time>
      </trkpt>
      <trkpt lat="47.79668" lon="-2.62251">
        <ele>120</ele>
        <time>2007-10-07T09:16:56Z</time>
      </trkpt>
      <trkpt lat="47.79672" lon="-2.62269">
        <ele>121</ele>
        <time>2007-10-07T09:17:00Z</time>
      </trkpt>
      <trkpt lat="47.79676" lon="-2.62294">
        <ele>121</ele>
        <time>2007-10-07T09:17:05Z</time>
      </trkpt>
      <trkpt lat="47.79684" lon="-2.6232">
        <ele>122</ele>
        <time>2007-10-07T09:17:10Z</time>
      </trkpt>
      <trkpt lat="47.79689" lon="-2.62351">
        <ele>121</ele>
        <time>2007-10-07T09:17:16Z</time>
      </trkpt>
      <trkpt lat="47.79694" lon="-2.62372">
        <ele>121</ele>
        <time>2007-10-07T09:17:20Z</time>
      </trkpt>
      <trkpt lat="47.79699" lon="-2.62388">
        <ele>122</ele>
        <time>2007-10-07T09:17:24Z</time>
      </trkpt>
      <trkpt lat="47.79708" lon="-2.62411">
        <ele>121</ele>
        <time>2007-10-07T09:17:29Z</time>
      </trkpt>
      <trkpt lat="47.79714" lon="-2.62434">
        <ele>120</ele>
        <time>2007-10-07T09:17:33Z</time>
      </trkpt>
      <trkpt lat="47.79722" lon="-2.62461">
        <ele>119</ele>
        <time>2007-10-07T09:17:38Z</time>
      </trkpt>
      <trkpt lat="47.79721" lon="-2.6248">
        <ele>118</ele>
        <time>2007-10-07T09:17:42Z</time>
      </trkpt>
      <trkpt lat="47.79715" lon="-2.6249">
        <ele>118</ele>
        <time>2007-10-07T09:17:46Z</time>
      </trkpt>
      <trkpt lat="47.79711" lon="-2.62518">
        <ele>116</ele>
        <time>2007-10-07T09:17:52Z</time>
      </trkpt>
      <trkpt lat="47.79711" lon="-2.62535">
        <ele>115</ele>
        <time>2007-10-07T09:17:56Z</time>
      </trkpt>
      <trkpt lat="47.79712" lon="-2.6254">
        <ele>114</ele>
        <time>2007-10-07T09:17:58Z</time>
      </trkpt>
      <trkpt lat="47.79716" lon="-2.62548">
        <ele>113</ele>
        <time>2007-10-07T09:18:01Z</time>
      </trkpt>
      <trkpt lat="47.79724" lon="-2.62557">
        <ele>113</ele>
        <time>2007-10-07T09:18:05Z</time>
      </trkpt>
      <trkpt lat="47.79726" lon="-2.62559">
        <ele>113</ele>
        <time>2007-10-07T09:18:06Z</time>
      </trkpt>
      <trkpt lat="47.79733" lon="-2.62564">
        <ele>112</ele>
        <time>2007-10-07T09:18:09Z</time>
      </trkpt>
      <trkpt lat="47.79747" lon="-2.62577">
        <ele>111</ele>
        <time>2007-10-07T09:18:14Z</time>
      </trkpt>
      <trkpt lat="47.79754" lon="-2.62583">
        <ele>110</ele>
        <time>2007-10-07T09:18:16Z</time>
      </trkpt>
      <trkpt lat="47.79771" lon="-2.62588">
        <ele>110</ele>
        <time>2007-10-07T09:18:20Z</time>
      </trkpt>
      <trkpt lat="47.79784" lon="-2.62583">
        <ele>111</ele>
        <time>2007-10-07T09:18:24Z</time>
      </trkpt>
      <trkpt lat="47.79805" lon="-2.62579">
        <ele>110</ele>
        <time>2007-10-07T09:18:30Z</time>
      </trkpt>
      <trkpt lat="47.79821" lon="-2.62578">
        <ele>109</ele>
        <time>2007-10-07T09:18:35Z</time>
      </trkpt>
      <trkpt lat="47.79824" lon="-2.62578">
        <ele>109</ele>
        <time>2007-10-07T09:18:36Z</time>
      </trkpt>
      <trkpt lat="47.79843" lon="-2.62577">
        <ele>110</ele>
        <time>2007-10-07T09:18:41Z</time>
      </trkpt>
      <trkpt lat="47.79861" lon="-2.62574">
        <ele>109</ele>
        <time>2007-10-07T09:18:46Z</time>
      </trkpt>
      <trkpt lat="47.79874" lon="-2.62566">
        <ele>110</ele>
        <time>2007-10-07T09:18:52Z</time>
      </trkpt>
      <trkpt lat="47.79883" lon="-2.62561">
        <ele>110</ele>
        <time>2007-10-07T09:18:56Z</time>
      </trkpt>
      <trkpt lat="47.79892" lon="-2.62554">
        <ele>109</ele>
        <time>2007-10-07T09:19:01Z</time>
      </trkpt>
      <trkpt lat="47.79897" lon="-2.62543">
        <ele>110</ele>
        <time>2007-10-07T09:19:05Z</time>
      </trkpt>
      <trkpt lat="47.79902" lon="-2.62536">
        <ele>110</ele>
        <time>2007-10-07T09:19:08Z</time>
      </trkpt>
      <trkpt lat="47.79906" lon="-2.62529">
        <ele>109</ele>
        <time>2007-10-07T09:19:11Z</time>
      </trkpt>
      <trkpt lat="47.79909" lon="-2.62516">
        <ele>110</ele>
        <time>2007-10-07T09:19:16Z</time>
      </trkpt>
      <trkpt lat="47.79908" lon="-2.62511">
        <ele>110</ele>
        <time>2007-10-07T09:19:17Z</time>
      </trkpt>
      <trkpt lat="47.79909" lon="-2.62496">
        <ele>109</ele>
        <time>2007-10-07T09:19:20Z</time>
      </trkpt>
      <trkpt lat="47.79919" lon="-2.62487">
        <ele>110</ele>
        <time>2007-10-07T09:19:25Z</time>
      </trkpt>
      <trkpt lat="47.79926" lon="-2.62481">
        <ele>110</ele>
        <time>2007-10-07T09:19:29Z</time>
      </trkpt>
      <trkpt lat="47.79931" lon="-2.62475">
        <ele>110</ele>
        <time>2007-10-07T09:19:32Z</time>
      </trkpt>
      <trkpt lat="47.7994" lon="-2.62463">
        <ele>110</ele>
        <time>2007-10-07T09:19:37Z</time>
      </trkpt>
      <trkpt lat="47.79958" lon="-2.62458">
        <ele>110</ele>
        <time>2007-10-07T09:19:43Z</time>
      </trkpt>
      <trkpt lat="47.79968" lon="-2.62454">
        <ele>108</ele>
        <time>2007-10-07T09:19:46Z</time>
      </trkpt>
      <trkpt lat="47.79976" lon="-2.62451">
        <ele>107</ele>
        <time>2007-10-07T09:19:48Z</time>
      </trkpt>
      <trkpt lat="47.79998" lon="-2.62441">
        <ele>107</ele>
        <time>2007-10-07T09:19:53Z</time>
      </trkpt>
      <trkpt lat="47.80002" lon="-2.62437">
        <ele>107</ele>
        <time>2007-10-07T09:19:55Z</time>
      </trkpt>
      <trkpt lat="47.80009" lon="-2.62423">
        <ele>105</ele>
        <time>2007-10-07T09:20:00Z</time>
      </trkpt>
      <trkpt lat="47.80012" lon="-2.62416">
        <ele>105</ele>
        <time>2007-10-07T09:20:05Z</time>
      </trkpt>
      <trkpt lat="47.80014" lon="-2.62416">
        <ele>105</ele>
        <time>2007-10-07T09:20:06Z</time>
      </trkpt>
      <trkpt lat="47.80024" lon="-2.62414">
        <ele>105</ele>
        <time>2007-10-07T09:20:10Z</time>
      </trkpt>
      <trkpt lat="47.80031" lon="-2.62403">
        <ele>104</ele>
        <time>2007-10-07T09:20:14Z</time>
      </trkpt>
      <trkpt lat="47.80037" lon="-2.62392">
        <ele>103</ele>
        <time>2007-10-07T09:20:18Z</time>
      </trkpt>
      <trkpt lat="47.80039" lon="-2.62391">
        <ele>103</ele>
        <time>2007-10-07T09:20:19Z</time>
      </trkpt>
      <trkpt lat="47.80048" lon="-2.62378">
        <ele>102</ele>
        <time>2007-10-07T09:20:24Z</time>
      </trkpt>
      <trkpt lat="47.80052" lon="-2.62374">
        <ele>100</ele>
        <time>2007-10-07T09:20:26Z</time>
      </trkpt>
      <trkpt lat="47.80073" lon="-2.62366">
        <ele>99</ele>
        <time>2007-10-07T09:20:31Z</time>
      </trkpt>
      <trkpt lat="47.8008" lon="-2.62359">
        <ele>99</ele>
        <time>2007-10-07T09:20:33Z</time>
      </trkpt>
      <trkpt lat="47.80084" lon="-2.62357">
        <ele>98</ele>
        <time>2007-10-07T09:20:34Z</time>
      </trkpt>
      <trkpt lat="47.80099" lon="-2.6233">
        <ele>96</ele>
        <time>2007-10-07T09:20:39Z</time>
      </trkpt>
      <trkpt lat="47.80111" lon="-2.62322">
        <ele>96</ele>
        <time>2007-10-07T09:20:43Z</time>
      </trkpt>
      <trkpt lat="47.80114" lon="-2.6231">
        <ele>95</ele>
        <time>2007-10-07T09:20:47Z</time>
      </trkpt>
      <trkpt lat="47.80114" lon="-2.62304">
        <ele>94</ele>
        <time>2007-10-07T09:20:49Z</time>
      </trkpt>
      <trkpt lat="47.8012" lon="-2.62289">
        <ele>92</ele>
        <time>2007-10-07T09:20:53Z</time>
      </trkpt>
      <trkpt lat="47.80123" lon="-2.62285">
        <ele>92</ele>
        <time>2007-10-07T09:20:55Z</time>
      </trkpt>
      <trkpt lat="47.80125" lon="-2.62266">
        <ele>92</ele>
        <time>2007-10-07T09:21:00Z</time>
      </trkpt>
      <trkpt lat="47.8013" lon="-2.62243">
        <ele>93</ele>
        <time>2007-10-07T09:21:06Z</time>
      </trkpt>
      <trkpt lat="47.80136" lon="-2.62234">
        <ele>93</ele>
        <time>2007-10-07T09:21:09Z</time>
      </trkpt>
      <trkpt lat="47.80142" lon="-2.62228">
        <ele>93</ele>
        <time>2007-10-07T09:21:11Z</time>
      </trkpt>
      <trkpt lat="47.80145" lon="-2.62207">
        <ele>94</ele>
        <time>2007-10-07T09:21:18Z</time>
      </trkpt>
      <trkpt lat="47.80146" lon="-2.62194">
        <ele>94</ele>
        <time>2007-10-07T09:21:22Z</time>
      </trkpt>
      <trkpt lat="47.80151" lon="-2.62172">
        <ele>94</ele>
        <time>2007-10-07T09:21:27Z</time>
      </trkpt>
      <trkpt lat="47.80154" lon="-2.62151">
        <ele>94</ele>
        <time>2007-10-07T09:21:32Z</time>
      </trkpt>
      <trkpt lat="47.80161" lon="-2.62126">
        <ele>94</ele>
        <time>2007-10-07T09:21:38Z</time>
      </trkpt>
      <trkpt lat="47.80164" lon="-2.62111">
        <ele>94</ele>
        <time>2007-10-07T09:21:43Z</time>
      </trkpt>
      <trkpt lat="47.80169" lon="-2.62093">
        <ele>94</ele>
        <time>2007-10-07T09:21:49Z</time>
      </trkpt>
      <trkpt lat="47.80169" lon="-2.62087">
        <ele>95</ele>
        <time>2007-10-07T09:21:51Z</time>
      </trkpt>
      <trkpt lat="47.80169" lon="-2.62082">
        <ele>94</ele>
        <time>2007-10-07T09:21:53Z</time>
      </trkpt>
      <trkpt lat="47.80169" lon="-2.6207">
        <ele>95</ele>
        <time>2007-10-07T09:21:57Z</time>
      </trkpt>
      <trkpt lat="47.80167" lon="-2.62058">
        <ele>95</ele>
        <time>2007-10-07T09:22:03Z</time>
      </trkpt>
      <trkpt lat="47.80167" lon="-2.62051">
        <ele>96</ele>
        <time>2007-10-07T09:22:06Z</time>
      </trkpt>
      <trkpt lat="47.8016" lon="-2.62035">
        <ele>96</ele>
        <time>2007-10-07T09:22:12Z</time>
      </trkpt>
      <trkpt lat="47.80156" lon="-2.62027">
        <ele>97</ele>
        <time>2007-10-07T09:22:17Z</time>
      </trkpt>
      <trkpt lat="47.8015" lon="-2.62015">
        <ele>98</ele>
        <time>2007-10-07T09:22:23Z</time>
      </trkpt>
      <trkpt lat="47.80143" lon="-2.62005">
        <ele>99</ele>
        <time>2007-10-07T09:22:29Z</time>
      </trkpt>
      <trkpt lat="47.80135" lon="-2.61993">
        <ele>101</ele>
        <time>2007-10-07T09:22:35Z</time>
      </trkpt>
      <trkpt lat="47.80134" lon="-2.6199">
        <ele>101</ele>
        <time>2007-10-07T09:22:37Z</time>
      </trkpt>
      <trkpt lat="47.80129" lon="-2.61975">
        <ele>102</ele>
        <time>2007-10-07T09:22:43Z</time>
      </trkpt>
      <trkpt lat="47.80124" lon="-2.61959">
        <ele>101</ele>
        <time>2007-10-07T09:22:49Z</time>
      </trkpt>
      <trkpt lat="47.80118" lon="-2.61945">
        <ele>102</ele>
        <time>2007-10-07T09:22:56Z</time>
      </trkpt>
      <trkpt lat="47.80111" lon="-2.61932">
        <ele>102</ele>
        <time>2007-10-07T09:23:00Z</time>
      </trkpt>
      <trkpt lat="47.80101" lon="-2.61922">
        <ele>102</ele>
        <time>2007-10-07T09:23:05Z</time>
      </trkpt>
      <trkpt lat="47.80093" lon="-2.61909">
        <ele>103</ele>
        <time>2007-10-07T09:23:11Z</time>
      </trkpt>
      <trkpt lat="47.80086" lon="-2.61892">
        <ele>103</ele>
        <time>2007-10-07T09:23:16Z</time>
      </trkpt>
      <trkpt lat="47.80085" lon="-2.61886">
        <ele>103</ele>
        <time>2007-10-07T09:23:18Z</time>
      </trkpt>
      <trkpt lat="47.80081" lon="-2.61876">
        <ele>103</ele>
        <time>2007-10-07T09:23:21Z</time>
      </trkpt>
      <trkpt lat="47.80071" lon="-2.61871">
        <ele>105</ele>
        <time>2007-10-07T09:23:27Z</time>
      </trkpt>
      <trkpt lat="47.80065" lon="-2.61866">
        <ele>105</ele>
        <time>2007-10-07T09:23:31Z</time>
      </trkpt>
      <trkpt lat="47.80064" lon="-2.61864">
        <ele>106</ele>
        <time>2007-10-07T09:23:34Z</time>
      </trkpt>
      <trkpt lat="47.80062" lon="-2.61864">
        <ele>106</ele>
        <time>2007-10-07T09:23:35Z</time>
      </trkpt>
      <trkpt lat="47.80059" lon="-2.61866">
        <ele>106</ele>
        <time>2007-10-07T09:23:38Z</time>
      </trkpt>
      <trkpt lat="47.80057" lon="-2.61866">
        <ele>107</ele>
        <time>2007-10-07T09:23:41Z</time>
      </trkpt>
      <trkpt lat="47.80056" lon="-2.61865">
        <ele>107</ele>
        <time>2007-10-07T09:23:42Z</time>
      </trkpt>
      <trkpt lat="47.80052" lon="-2.61864">
        <ele>107</ele>
        <time>2007-10-07T09:23:43Z</time>
      </trkpt>
      <trkpt lat="47.80039" lon="-2.61862">
        <ele>108</ele>
        <time>2007-10-07T09:23:49Z</time>
      </trkpt>
      <trkpt lat="47.80029" lon="-2.6186">
        <ele>110</ele>
        <time>2007-10-07T09:23:54Z</time>
      </trkpt>
      <trkpt lat="47.8002" lon="-2.61859">
        <ele>110</ele>
        <time>2007-10-07T09:23:59Z</time>
      </trkpt>
      <trkpt lat="47.80013" lon="-2.61855">
        <ele>111</ele>
        <time>2007-10-07T09:24:03Z</time>
      </trkpt>
      <trkpt lat="47.80009" lon="-2.6185">
        <ele>111</ele>
        <time>2007-10-07T09:24:06Z</time>
      </trkpt>
      <trkpt lat="47.80001" lon="-2.61837">
        <ele>111</ele>
        <time>2007-10-07T09:24:11Z</time>
      </trkpt>
      <trkpt lat="47.79997" lon="-2.61817">
        <ele>110</ele>
        <time>2007-10-07T09:24:16Z</time>
      </trkpt>
      <trkpt lat="47.79993" lon="-2.61806">
        <ele>110</ele>
        <time>2007-10-07T09:24:20Z</time>
      </trkpt>
      <trkpt lat="47.79995" lon="-2.61796">
        <ele>110</ele>
        <time>2007-10-07T09:24:24Z</time>
      </trkpt>
      <trkpt lat="47.79994" lon="-2.61789">
        <ele>110</ele>
        <time>2007-10-07T09:24:26Z</time>
      </trkpt>
      <trkpt lat="47.79991" lon="-2.61769">
        <ele>110</ele>
        <time>2007-10-07T09:24:31Z</time>
      </trkpt>
      <trkpt lat="47.79989" lon="-2.61756">
        <ele>110</ele>
        <time>2007-10-07T09:24:35Z</time>
      </trkpt>
      <trkpt lat="47.79989" lon="-2.61752">
        <ele>110</ele>
        <time>2007-10-07T09:24:36Z</time>
      </trkpt>
      <trkpt lat="47.79989" lon="-2.61743">
        <ele>109</ele>
        <time>2007-10-07T09:24:38Z</time>
      </trkpt>
      <trkpt lat="47.79983" lon="-2.61728">
        <ele>110</ele>
        <time>2007-10-07T09:24:43Z</time>
      </trkpt>
      <trkpt lat="47.79976" lon="-2.61727">
        <ele>110</ele>
        <time>2007-10-07T09:24:47Z</time>
      </trkpt>
      <trkpt lat="47.79969" lon="-2.61724">
        <ele>110</ele>
        <time>2007-10-07T09:24:51Z</time>
      </trkpt>
      <trkpt lat="47.7997" lon="-2.61716">
        <ele>110</ele>
        <time>2007-10-07T09:24:55Z</time>
      </trkpt>
      <trkpt lat="47.79972" lon="-2.61706">
        <ele>110</ele>
        <time>2007-10-07T09:24:58Z</time>
      </trkpt>
      <trkpt lat="47.7997" lon="-2.61703">
        <ele>110</ele>
        <time>2007-10-07T09:24:59Z</time>
      </trkpt>
      <trkpt lat="47.79966" lon="-2.61691">
        <ele>110</ele>
        <time>2007-10-07T09:25:03Z</time>
      </trkpt>
      <trkpt lat="47.79955" lon="-2.61678">
        <ele>111</ele>
        <time>2007-10-07T09:25:08Z</time>
      </trkpt>
      <trkpt lat="47.7995" lon="-2.61676">
        <ele>110</ele>
        <time>2007-10-07T09:25:10Z</time>
      </trkpt>
      <trkpt lat="47.79948" lon="-2.61665">
        <ele>111</ele>
        <time>2007-10-07T09:25:14Z</time>
      </trkpt>
      <trkpt lat="47.7995" lon="-2.6166">
        <ele>110</ele>
        <time>2007-10-07T09:25:16Z</time>
      </trkpt>
      <trkpt lat="47.79958" lon="-2.61645">
        <ele>111</ele>
        <time>2007-10-07T09:25:21Z</time>
      </trkpt>
      <trkpt lat="47.79972" lon="-2.61626">
        <ele>110</ele>
        <time>2007-10-07T09:25:27Z</time>
      </trkpt>
      <trkpt lat="47.79984" lon="-2.61608">
        <ele>110</ele>
        <time>2007-10-07T09:25:33Z</time>
      </trkpt>
      <trkpt lat="47.7999" lon="-2.61599">
        <ele>110</ele>
        <time>2007-10-07T09:25:36Z</time>
      </trkpt>
      <trkpt lat="47.79994" lon="-2.61593">
        <ele>110</ele>
        <time>2007-10-07T09:25:39Z</time>
      </trkpt>
      <trkpt lat="47.80002" lon="-2.6158">
        <ele>110</ele>
        <time>2007-10-07T09:25:43Z</time>
      </trkpt>
      <trkpt lat="47.80014" lon="-2.6156">
        <ele>109</ele>
        <time>2007-10-07T09:25:48Z</time>
      </trkpt>
      <trkpt lat="47.80028" lon="-2.61539">
        <ele>109</ele>
        <time>2007-10-07T09:25:53Z</time>
      </trkpt>
      <trkpt lat="47.80039" lon="-2.61522">
        <ele>109</ele>
        <time>2007-10-07T09:25:57Z</time>
      </trkpt>
      <trkpt lat="47.80054" lon="-2.61498">
        <ele>109</ele>
        <time>2007-10-07T09:26:01Z</time>
      </trkpt>
      <trkpt lat="47.80062" lon="-2.61487">
        <ele>109</ele>
        <time>2007-10-07T09:26:04Z</time>
      </trkpt>
      <trkpt lat="47.80074" lon="-2.6147">
        <ele>109</ele>
        <time>2007-10-07T09:26:08Z</time>
      </trkpt>
      <trkpt lat="47.80091" lon="-2.61444">
        <ele>109</ele>
        <time>2007-10-07T09:26:15Z</time>
      </trkpt>
      <trkpt lat="47.80104" lon="-2.61426">
        <ele>109</ele>
        <time>2007-10-07T09:26:19Z</time>
      </trkpt>
      <trkpt lat="47.80116" lon="-2.61408">
        <ele>109</ele>
        <time>2007-10-07T09:26:23Z</time>
      </trkpt>
      <trkpt lat="47.80131" lon="-2.61384">
        <ele>110</ele>
        <time>2007-10-07T09:26:28Z</time>
      </trkpt>
      <trkpt lat="47.80142" lon="-2.61368">
        <ele>110</ele>
        <time>2007-10-07T09:26:32Z</time>
      </trkpt>
      <trkpt lat="47.80152" lon="-2.61351">
        <ele>111</ele>
        <time>2007-10-07T09:26:37Z</time>
      </trkpt>
      <trkpt lat="47.80166" lon="-2.61332">
        <ele>111</ele>
        <time>2007-10-07T09:26:42Z</time>
      </trkpt>
      <trkpt lat="47.80182" lon="-2.6131">
        <ele>112</ele>
        <time>2007-10-07T09:26:48Z</time>
      </trkpt>
      <trkpt lat="47.80193" lon="-2.61294">
        <ele>113</ele>
        <time>2007-10-07T09:26:53Z</time>
      </trkpt>
      <trkpt lat="47.80202" lon="-2.61278">
        <ele>113</ele>
        <time>2007-10-07T09:26:59Z</time>
      </trkpt>
      <trkpt lat="47.8021" lon="-2.61261">
        <ele>114</ele>
        <time>2007-10-07T09:27:05Z</time>
      </trkpt>
      <trkpt lat="47.80214" lon="-2.61249">
        <ele>114</ele>
        <time>2007-10-07T09:27:09Z</time>
      </trkpt>
      <trkpt lat="47.80221" lon="-2.61236">
        <ele>115</ele>
        <time>2007-10-07T09:27:13Z</time>
      </trkpt>
      <trkpt lat="47.80226" lon="-2.6123">
        <ele>115</ele>
        <time>2007-10-07T09:27:16Z</time>
      </trkpt>
      <trkpt lat="47.80228" lon="-2.6121">
        <ele>117</ele>
        <time>2007-10-07T09:27:23Z</time>
      </trkpt>
      <trkpt lat="47.80227" lon="-2.61197">
        <ele>118</ele>
        <time>2007-10-07T09:27:27Z</time>
      </trkpt>
      <trkpt lat="47.80229" lon="-2.6118">
        <ele>119</ele>
        <time>2007-10-07T09:27:33Z</time>
      </trkpt>
      <trkpt lat="47.8023" lon="-2.61172">
        <ele>119</ele>
        <time>2007-10-07T09:27:36Z</time>
      </trkpt>
      <trkpt lat="47.80224" lon="-2.61152">
        <ele>120</ele>
        <time>2007-10-07T09:27:42Z</time>
      </trkpt>
      <trkpt lat="47.8022" lon="-2.61138">
        <ele>120</ele>
        <time>2007-10-07T09:27:46Z</time>
      </trkpt>
      <trkpt lat="47.80218" lon="-2.61118">
        <ele>120</ele>
        <time>2007-10-07T09:27:52Z</time>
      </trkpt>
      <trkpt lat="47.80215" lon="-2.611">
        <ele>120</ele>
        <time>2007-10-07T09:27:58Z</time>
      </trkpt>
      <trkpt lat="47.8021" lon="-2.61072">
        <ele>121</ele>
        <time>2007-10-07T09:28:06Z</time>
      </trkpt>
      <trkpt lat="47.8021" lon="-2.61053">
        <ele>121</ele>
        <time>2007-10-07T09:28:10Z</time>
      </trkpt>
      <trkpt lat="47.80212" lon="-2.61048">
        <ele>121</ele>
        <time>2007-10-07T09:28:12Z</time>
      </trkpt>
      <trkpt lat="47.80222" lon="-2.61036">
        <ele>121</ele>
        <time>2007-10-07T09:28:18Z</time>
      </trkpt>
      <trkpt lat="47.80219" lon="-2.61023">
        <ele>121</ele>
        <time>2007-10-07T09:28:23Z</time>
      </trkpt>
      <trkpt lat="47.80209" lon="-2.61007">
        <ele>121</ele>
        <time>2007-10-07T09:28:29Z</time>
      </trkpt>
      <trkpt lat="47.80202" lon="-2.60993">
        <ele>121</ele>
        <time>2007-10-07T09:28:33Z</time>
      </trkpt>
      <trkpt lat="47.802" lon="-2.60982">
        <ele>120</ele>
        <time>2007-10-07T09:28:37Z</time>
      </trkpt>
      <trkpt lat="47.80197" lon="-2.60968">
        <ele>120</ele>
        <time>2007-10-07T09:28:40Z</time>
      </trkpt>
      <trkpt lat="47.80191" lon="-2.60948">
        <ele>118</ele>
        <time>2007-10-07T09:28:45Z</time>
      </trkpt>
      <trkpt lat="47.80185" lon="-2.60938">
        <ele>117</ele>
        <time>2007-10-07T09:28:47Z</time>
      </trkpt>
      <trkpt lat="47.80167" lon="-2.60914">
        <ele>115</ele>
        <time>2007-10-07T09:28:53Z</time>
      </trkpt>
      <trkpt lat="47.80165" lon="-2.60912">
        <ele>115</ele>
        <time>2007-10-07T09:28:54Z</time>
      </trkpt>
      <trkpt lat="47.80164" lon="-2.609">
        <ele>115</ele>
        <time>2007-10-07T09:28:58Z</time>
      </trkpt>
      <trkpt lat="47.80163" lon="-2.60897">
        <ele>115</ele>
        <time>2007-10-07T09:28:59Z</time>
      </trkpt>
      <trkpt lat="47.8016" lon="-2.60892">
        <ele>114</ele>
        <time>2007-10-07T09:29:02Z</time>
      </trkpt>
      <trkpt lat="47.80161" lon="-2.60875">
        <ele>114</ele>
        <time>2007-10-07T09:29:06Z</time>
      </trkpt>
      <trkpt lat="47.80164" lon="-2.60859">
        <ele>113</ele>
        <time>2007-10-07T09:29:10Z</time>
      </trkpt>
      <trkpt lat="47.80171" lon="-2.60852">
        <ele>115</ele>
        <time>2007-10-07T09:29:15Z</time>
      </trkpt>
      <trkpt lat="47.80177" lon="-2.6085">
        <ele>115</ele>
        <time>2007-10-07T09:29:20Z</time>
      </trkpt>
      <trkpt lat="47.80178" lon="-2.60849">
        <ele>115</ele>
        <time>2007-10-07T09:29:22Z</time>
      </trkpt>
      <trkpt lat="47.80179" lon="-2.60849">
        <ele>115</ele>
        <time>2007-10-07T09:29:25Z</time>
      </trkpt>
      <trkpt lat="47.8018" lon="-2.60848">
        <ele>115</ele>
        <time>2007-10-07T09:29:26Z</time>
      </trkpt>
      <trkpt lat="47.80185" lon="-2.60848">
        <ele>115</ele>
        <time>2007-10-07T09:29:31Z</time>
      </trkpt>
      <trkpt lat="47.80183" lon="-2.6085">
        <ele>115</ele>
        <time>2007-10-07T09:29:33Z</time>
      </trkpt>
      <trkpt lat="47.8018" lon="-2.60856">
        <ele>115</ele>
        <time>2007-10-07T09:29:39Z</time>
      </trkpt>
      <trkpt lat="47.80179" lon="-2.60858">
        <ele>116</ele>
        <time>2007-10-07T09:29:41Z</time>
      </trkpt>
      <trkpt lat="47.80177" lon="-2.60861">
        <ele>115</ele>
        <time>2007-10-07T09:29:50Z</time>
      </trkpt>
      <trkpt lat="47.80174" lon="-2.60863">
        <ele>115</ele>
        <time>2007-10-07T09:29:54Z</time>
      </trkpt>
      <trkpt lat="47.80175" lon="-2.60866">
        <ele>115</ele>
        <time>2007-10-07T09:29:58Z</time>
      </trkpt>
      <trkpt lat="47.80177" lon="-2.60872">
        <ele>117</ele>
        <time>2007-10-07T09:30:04Z</time>
      </trkpt>
      <trkpt lat="47.80183" lon="-2.60869">
        <ele>117</ele>
        <time>2007-10-07T09:30:10Z</time>
      </trkpt>
      <trkpt lat="47.80186" lon="-2.60865">
        <ele>117</ele>
        <time>2007-10-07T09:30:14Z</time>
      </trkpt>
      <trkpt lat="47.80189" lon="-2.60866">
        <ele>117</ele>
        <time>2007-10-07T09:30:17Z</time>
      </trkpt>
      <trkpt lat="47.80193" lon="-2.60868">
        <ele>117</ele>
        <time>2007-10-07T09:30:20Z</time>
      </trkpt>
      <trkpt lat="47.80201" lon="-2.60876">
        <ele>118</ele>
        <time>2007-10-07T09:30:25Z</time>
      </trkpt>
      <trkpt lat="47.80205" lon="-2.60881">
        <ele>119</ele>
        <time>2007-10-07T09:30:29Z</time>
      </trkpt>
      <trkpt lat="47.80209" lon="-2.60886">
        <ele>119</ele>
        <time>2007-10-07T09:30:32Z</time>
      </trkpt>
      <trkpt lat="47.80214" lon="-2.60886">
        <ele>119</ele>
        <time>2007-10-07T09:30:35Z</time>
      </trkpt>
      <trkpt lat="47.80223" lon="-2.60892">
        <ele>120</ele>
        <time>2007-10-07T09:30:41Z</time>
      </trkpt>
      <trkpt lat="47.80227" lon="-2.60898">
        <ele>120</ele>
        <time>2007-10-07T09:30:46Z</time>
      </trkpt>
      <trkpt lat="47.80228" lon="-2.609">
        <ele>120</ele>
        <time>2007-10-07T09:30:49Z</time>
      </trkpt>
      <trkpt lat="47.80228" lon="-2.60901">
        <ele>121</ele>
        <time>2007-10-07T09:30:50Z</time>
      </trkpt>
      <trkpt lat="47.80228" lon="-2.60905">
        <ele>121</ele>
        <time>2007-10-07T09:30:51Z</time>
      </trkpt>
      <trkpt lat="47.80228" lon="-2.60921">
        <ele>122</ele>
        <time>2007-10-07T09:30:57Z</time>
      </trkpt>
      <trkpt lat="47.80231" lon="-2.60928">
        <ele>122</ele>
        <time>2007-10-07T09:31:01Z</time>
      </trkpt>
      <trkpt lat="47.80235" lon="-2.60934">
        <ele>123</ele>
        <time>2007-10-07T09:31:05Z</time>
      </trkpt>
      <trkpt lat="47.80242" lon="-2.60935">
        <ele>123</ele>
        <time>2007-10-07T09:31:10Z</time>
      </trkpt>
      <trkpt lat="47.80247" lon="-2.60935">
        <ele>122</ele>
        <time>2007-10-07T09:31:13Z</time>
      </trkpt>
      <trkpt lat="47.80256" lon="-2.60935">
        <ele>123</ele>
        <time>2007-10-07T09:31:18Z</time>
      </trkpt>
      <trkpt lat="47.80257" lon="-2.60935">
        <ele>123</ele>
        <time>2007-10-07T09:31:19Z</time>
      </trkpt>
      <trkpt lat="47.8026" lon="-2.60936">
        <ele>123</ele>
        <time>2007-10-07T09:31:22Z</time>
      </trkpt>
      <trkpt lat="47.80263" lon="-2.60935">
        <ele>123</ele>
        <time>2007-10-07T09:31:24Z</time>
      </trkpt>
      <trkpt lat="47.80272" lon="-2.60931">
        <ele>123</ele>
        <time>2007-10-07T09:31:29Z</time>
      </trkpt>
      <trkpt lat="47.80274" lon="-2.60931">
        <ele>123</ele>
        <time>2007-10-07T09:31:30Z</time>
      </trkpt>
      <trkpt lat="47.80276" lon="-2.60943">
        <ele>123</ele>
        <time>2007-10-07T09:31:36Z</time>
      </trkpt>
      <trkpt lat="47.80276" lon="-2.60948">
        <ele>123</ele>
        <time>2007-10-07T09:31:39Z</time>
      </trkpt>
      <trkpt lat="47.80283" lon="-2.60953">
        <ele>123</ele>
        <time>2007-10-07T09:31:45Z</time>
      </trkpt>
      <trkpt lat="47.80288" lon="-2.60954">
        <ele>122</ele>
        <time>2007-10-07T09:31:48Z</time>
      </trkpt>
      <trkpt lat="47.80292" lon="-2.60953">
        <ele>122</ele>
        <time>2007-10-07T09:31:50Z</time>
      </trkpt>
      <trkpt lat="47.80301" lon="-2.60942">
        <ele>121</ele>
        <time>2007-10-07T09:31:55Z</time>
      </trkpt>
      <trkpt lat="47.80308" lon="-2.6094">
        <ele>120</ele>
        <time>2007-10-07T09:31:58Z</time>
      </trkpt>
      <trkpt lat="47.8031" lon="-2.60938">
        <ele>120</ele>
        <time>2007-10-07T09:31:59Z</time>
      </trkpt>
      <trkpt lat="47.80318" lon="-2.6093">
        <ele>119</ele>
        <time>2007-10-07T09:32:03Z</time>
      </trkpt>
      <trkpt lat="47.80329" lon="-2.60928">
        <ele>118</ele>
        <time>2007-10-07T09:32:07Z</time>
      </trkpt>
      <trkpt lat="47.80341" lon="-2.60934">
        <ele>116</ele>
        <time>2007-10-07T09:32:11Z</time>
      </trkpt>
      <trkpt lat="47.80346" lon="-2.60931">
        <ele>117</ele>
        <time>2007-10-07T09:32:14Z</time>
      </trkpt>
      <trkpt lat="47.80347" lon="-2.60928">
        <ele>117</ele>
        <time>2007-10-07T09:32:17Z</time>
      </trkpt>
      <trkpt lat="47.80353" lon="-2.60919">
        <ele>116</ele>
        <time>2007-10-07T09:32:22Z</time>
      </trkpt>
      <trkpt lat="47.80357" lon="-2.60922">
        <ele>116</ele>
        <time>2007-10-07T09:32:25Z</time>
      </trkpt>
      <trkpt lat="47.80359" lon="-2.60934">
        <ele>116</ele>
        <time>2007-10-07T09:32:30Z</time>
      </trkpt>
      <trkpt lat="47.80359" lon="-2.60939">
        <ele>116</ele>
        <time>2007-10-07T09:32:32Z</time>
      </trkpt>
      <trkpt lat="47.8036" lon="-2.60952">
        <ele>116</ele>
        <time>2007-10-07T09:32:36Z</time>
      </trkpt>
      <trkpt lat="47.80368" lon="-2.6096">
        <ele>115</ele>
        <time>2007-10-07T09:32:41Z</time>
      </trkpt>
      <trkpt lat="47.80374" lon="-2.60954">
        <ele>114</ele>
        <time>2007-10-07T09:32:44Z</time>
      </trkpt>
      <trkpt lat="47.80382" lon="-2.60941">
        <ele>113</ele>
        <time>2007-10-07T09:32:49Z</time>
      </trkpt>
      <trkpt lat="47.80383" lon="-2.6094">
        <ele>113</ele>
        <time>2007-10-07T09:32:50Z</time>
      </trkpt>
      <trkpt lat="47.80389" lon="-2.60936">
        <ele>112</ele>
        <time>2007-10-07T09:32:53Z</time>
      </trkpt>
      <trkpt lat="47.804" lon="-2.60933">
        <ele>111</ele>
        <time>2007-10-07T09:32:58Z</time>
      </trkpt>
      <trkpt lat="47.80409" lon="-2.60934">
        <ele>110</ele>
        <time>2007-10-07T09:33:02Z</time>
      </trkpt>
      <trkpt lat="47.80414" lon="-2.60936">
        <ele>109</ele>
        <time>2007-10-07T09:33:04Z</time>
      </trkpt>
      <trkpt lat="47.80416" lon="-2.60938">
        <ele>109</ele>
        <time>2007-10-07T09:33:05Z</time>
      </trkpt>
      <trkpt lat="47.80425" lon="-2.60937">
        <ele>109</ele>
        <time>2007-10-07T09:33:09Z</time>
      </trkpt>
      <trkpt lat="47.80432" lon="-2.60929">
        <ele>110</ele>
        <time>2007-10-07T09:33:15Z</time>
      </trkpt>
      <trkpt lat="47.80434" lon="-2.60913">
        <ele>111</ele>
        <time>2007-10-07T09:33:20Z</time>
      </trkpt>
      <trkpt lat="47.80437" lon="-2.60895">
        <ele>111</ele>
        <time>2007-10-07T09:33:25Z</time>
      </trkpt>
      <trkpt lat="47.80438" lon="-2.60887">
        <ele>110</ele>
        <time>2007-10-07T09:33:27Z</time>
      </trkpt>
      <trkpt lat="47.80442" lon="-2.60869">
        <ele>110</ele>
        <time>2007-10-07T09:33:32Z</time>
      </trkpt>
      <trkpt lat="47.80442" lon="-2.60866">
        <ele>110</ele>
        <time>2007-10-07T09:33:33Z</time>
      </trkpt>
      <trkpt lat="47.80442" lon="-2.60853">
        <ele>110</ele>
        <time>2007-10-07T09:33:36Z</time>
      </trkpt>
      <trkpt lat="47.80437" lon="-2.60832">
        <ele>109</ele>
        <time>2007-10-07T09:33:42Z</time>
      </trkpt>
      <trkpt lat="47.80437" lon="-2.60821">
        <ele>108</ele>
        <time>2007-10-07T09:33:46Z</time>
      </trkpt>
      <trkpt lat="47.80428" lon="-2.60813">
        <ele>107</ele>
        <time>2007-10-07T09:33:52Z</time>
      </trkpt>
      <trkpt lat="47.80418" lon="-2.60807">
        <ele>107</ele>
        <time>2007-10-07T09:33:57Z</time>
      </trkpt>
      <trkpt lat="47.8041" lon="-2.60813">
        <ele>108</ele>
        <time>2007-10-07T09:34:02Z</time>
      </trkpt>
      <trkpt lat="47.80402" lon="-2.60814">
        <ele>109</ele>
        <time>2007-10-07T09:34:07Z</time>
      </trkpt>
      <trkpt lat="47.80401" lon="-2.60815">
        <ele>109</ele>
        <time>2007-10-07T09:34:08Z</time>
      </trkpt>
      <trkpt lat="47.80388" lon="-2.60824">
        <ele>112</ele>
        <time>2007-10-07T09:34:14Z</time>
      </trkpt>
      <trkpt lat="47.80385" lon="-2.60827">
        <ele>112</ele>
        <time>2007-10-07T09:34:16Z</time>
      </trkpt>
      <trkpt lat="47.80379" lon="-2.60833">
        <ele>113</ele>
        <time>2007-10-07T09:34:20Z</time>
      </trkpt>
      <trkpt lat="47.80377" lon="-2.60834">
        <ele>113</ele>
        <time>2007-10-07T09:34:24Z</time>
      </trkpt>
      <trkpt lat="47.80376" lon="-2.60835">
        <ele>113</ele>
        <time>2007-10-07T09:34:25Z</time>
      </trkpt>
      <trkpt lat="47.80369" lon="-2.60837">
        <ele>114</ele>
        <time>2007-10-07T09:34:31Z</time>
      </trkpt>
      <trkpt lat="47.80367" lon="-2.60838">
        <ele>115</ele>
        <time>2007-10-07T09:34:33Z</time>
      </trkpt>
      <trkpt lat="47.80361" lon="-2.60844">
        <ele>115</ele>
        <time>2007-10-07T09:34:47Z</time>
      </trkpt>
      <trkpt lat="47.80359" lon="-2.60843">
        <ele>115</ele>
        <time>2007-10-07T09:34:49Z</time>
      </trkpt>
      <trkpt lat="47.80357" lon="-2.60841">
        <ele>115</ele>
        <time>2007-10-07T09:34:52Z</time>
      </trkpt>
      <trkpt lat="47.80354" lon="-2.60838">
        <ele>115</ele>
        <time>2007-10-07T09:34:55Z</time>
      </trkpt>
      <trkpt lat="47.80353" lon="-2.60837">
        <ele>115</ele>
        <time>2007-10-07T09:34:59Z</time>
      </trkpt>
      <trkpt lat="47.80346" lon="-2.60836">
        <ele>116</ele>
        <time>2007-10-07T09:35:03Z</time>
      </trkpt>
      <trkpt lat="47.80339" lon="-2.60836">
        <ele>116</ele>
        <time>2007-10-07T09:35:08Z</time>
      </trkpt>
      <trkpt lat="47.80331" lon="-2.60827">
        <ele>116</ele>
        <time>2007-10-07T09:35:14Z</time>
      </trkpt>
      <trkpt lat="47.80328" lon="-2.60827">
        <ele>116</ele>
        <time>2007-10-07T09:35:16Z</time>
      </trkpt>
      <trkpt lat="47.80319" lon="-2.60822">
        <ele>117</ele>
        <time>2007-10-07T09:35:21Z</time>
      </trkpt>
      <trkpt lat="47.80312" lon="-2.60803">
        <ele>115</ele>
        <time>2007-10-07T09:35:26Z</time>
      </trkpt>
      <trkpt lat="47.80304" lon="-2.60788">
        <ele>115</ele>
        <time>2007-10-07T09:35:31Z</time>
      </trkpt>
      <trkpt lat="47.80289" lon="-2.60763">
        <ele>113</ele>
        <time>2007-10-07T09:35:37Z</time>
      </trkpt>
      <trkpt lat="47.80285" lon="-2.6076">
        <ele>113</ele>
        <time>2007-10-07T09:35:38Z</time>
      </trkpt>
      <trkpt lat="47.80264" lon="-2.60734">
        <ele>112</ele>
        <time>2007-10-07T09:35:42Z</time>
      </trkpt>
      <trkpt lat="47.80244" lon="-2.6069">
        <ele>109</ele>
        <time>2007-10-07T09:35:47Z</time>
      </trkpt>
      <trkpt lat="47.80238" lon="-2.60674">
        <ele>107</ele>
        <time>2007-10-07T09:35:49Z</time>
      </trkpt>
      <trkpt lat="47.80238" lon="-2.60663">
        <ele>107</ele>
        <time>2007-10-07T09:35:51Z</time>
      </trkpt>
      <trkpt lat="47.80248" lon="-2.60658">
        <ele>107</ele>
        <time>2007-10-07T09:35:53Z</time>
      </trkpt>
      <trkpt lat="47.80267" lon="-2.6064">
        <ele>107</ele>
        <time>2007-10-07T09:35:58Z</time>
      </trkpt>
      <trkpt lat="47.80271" lon="-2.60638">
        <ele>107</ele>
        <time>2007-10-07T09:35:59Z</time>
      </trkpt>
      <trkpt lat="47.80294" lon="-2.60637">
        <ele>107</ele>
        <time>2007-10-07T09:36:05Z</time>
      </trkpt>
      <trkpt lat="47.80313" lon="-2.60635">
        <ele>106</ele>
        <time>2007-10-07T09:36:10Z</time>
      </trkpt>
      <trkpt lat="47.80318" lon="-2.60635">
        <ele>106</ele>
        <time>2007-10-07T09:36:11Z</time>
      </trkpt>
      <trkpt lat="47.80339" lon="-2.60638">
        <ele>104</ele>
        <time>2007-10-07T09:36:15Z</time>
      </trkpt>
      <trkpt lat="47.80372" lon="-2.60643">
        <ele>101</ele>
        <time>2007-10-07T09:36:21Z</time>
      </trkpt>
      <trkpt lat="47.80385" lon="-2.60646">
        <ele>99</ele>
        <time>2007-10-07T09:36:23Z</time>
      </trkpt>
      <trkpt lat="47.80409" lon="-2.60652">
        <ele>98</ele>
        <time>2007-10-07T09:36:26Z</time>
      </trkpt>
      <trkpt lat="47.80424" lon="-2.60655">
        <ele>96</ele>
        <time>2007-10-07T09:36:28Z</time>
      </trkpt>
      <trkpt lat="47.80464" lon="-2.60657">
        <ele>95</ele>
        <time>2007-10-07T09:36:33Z</time>
      </trkpt>
      <trkpt lat="47.80493" lon="-2.60655">
        <ele>94</ele>
        <time>2007-10-07T09:36:37Z</time>
      </trkpt>
      <trkpt lat="47.80508" lon="-2.60653">
        <ele>93</ele>
        <time>2007-10-07T09:36:39Z</time>
      </trkpt>
      <trkpt lat="47.80539" lon="-2.60656">
        <ele>91</ele>
        <time>2007-10-07T09:36:43Z</time>
      </trkpt>
      <trkpt lat="47.80565" lon="-2.60657">
        <ele>89</ele>
        <time>2007-10-07T09:36:46Z</time>
      </trkpt>
      <trkpt lat="47.80573" lon="-2.60657">
        <ele>89</ele>
        <time>2007-10-07T09:36:47Z</time>
      </trkpt>
      <trkpt lat="47.80595" lon="-2.6065">
        <ele>85</ele>
        <time>2007-10-07T09:36:50Z</time>
      </trkpt>
      <trkpt lat="47.80617" lon="-2.60636">
        <ele>83</ele>
        <time>2007-10-07T09:36:53Z</time>
      </trkpt>
      <trkpt lat="47.80625" lon="-2.60634">
        <ele>83</ele>
        <time>2007-10-07T09:36:54Z</time>
      </trkpt>
      <trkpt lat="47.8064" lon="-2.60631">
        <ele>81</ele>
        <time>2007-10-07T09:36:56Z</time>
      </trkpt>
      <trkpt lat="47.80674" lon="-2.60641">
        <ele>78</ele>
        <time>2007-10-07T09:37:01Z</time>
      </trkpt>
      <trkpt lat="47.80687" lon="-2.60651">
        <ele>78</ele>
        <time>2007-10-07T09:37:03Z</time>
      </trkpt>
      <trkpt lat="47.807" lon="-2.60663">
        <ele>77</ele>
        <time>2007-10-07T09:37:05Z</time>
      </trkpt>
      <trkpt lat="47.80705" lon="-2.60669">
        <ele>77</ele>
        <time>2007-10-07T09:37:06Z</time>
      </trkpt>
      <trkpt lat="47.80729" lon="-2.60672">
        <ele>75</ele>
        <time>2007-10-07T09:37:11Z</time>
      </trkpt>
      <trkpt lat="47.8074" lon="-2.60662">
        <ele>75</ele>
        <time>2007-10-07T09:37:14Z</time>
      </trkpt>
      <trkpt lat="47.80765" lon="-2.60635">
        <ele>74</ele>
        <time>2007-10-07T09:37:20Z</time>
      </trkpt>
      <trkpt lat="47.80771" lon="-2.60627">
        <ele>74</ele>
        <time>2007-10-07T09:37:22Z</time>
      </trkpt>
      <trkpt lat="47.8078" lon="-2.60597">
        <ele>73</ele>
        <time>2007-10-07T09:37:27Z</time>
      </trkpt>
      <trkpt lat="47.80789" lon="-2.60599">
        <ele>73</ele>
        <time>2007-10-07T09:37:31Z</time>
      </trkpt>
      <trkpt lat="47.80798" lon="-2.60602">
        <ele>73</ele>
        <time>2007-10-07T09:37:34Z</time>
      </trkpt>
      <trkpt lat="47.80808" lon="-2.606">
        <ele>73</ele>
        <time>2007-10-07T09:37:38Z</time>
      </trkpt>
      <trkpt lat="47.80814" lon="-2.60591">
        <ele>72</ele>
        <time>2007-10-07T09:37:42Z</time>
      </trkpt>
      <trkpt lat="47.8082" lon="-2.60584">
        <ele>73</ele>
        <time>2007-10-07T09:37:45Z</time>
      </trkpt>
      <trkpt lat="47.80826" lon="-2.60571">
        <ele>73</ele>
        <time>2007-10-07T09:37:49Z</time>
      </trkpt>
      <trkpt lat="47.80829" lon="-2.60551">
        <ele>73</ele>
        <time>2007-10-07T09:37:54Z</time>
      </trkpt>
      <trkpt lat="47.80837" lon="-2.60545">
        <ele>73</ele>
        <time>2007-10-07T09:37:58Z</time>
      </trkpt>
      <trkpt lat="47.80839" lon="-2.60539">
        <ele>73</ele>
        <time>2007-10-07T09:38:01Z</time>
      </trkpt>
      <trkpt lat="47.80841" lon="-2.60537">
        <ele>73</ele>
        <time>2007-10-07T09:38:04Z</time>
      </trkpt>
      <trkpt lat="47.80848" lon="-2.60524">
        <ele>73</ele>
        <time>2007-10-07T09:38:06Z</time>
      </trkpt>
      <trkpt lat="47.80855" lon="-2.60504">
        <ele>72</ele>
        <time>2007-10-07T09:38:10Z</time>
      </trkpt>
      <trkpt lat="47.80866" lon="-2.60484">
        <ele>72</ele>
        <time>2007-10-07T09:38:14Z</time>
      </trkpt>
      <trkpt lat="47.80859" lon="-2.60468">
        <ele>71</ele>
        <time>2007-10-07T09:38:17Z</time>
      </trkpt>
      <trkpt lat="47.80851" lon="-2.60464">
        <ele>70</ele>
        <time>2007-10-07T09:38:19Z</time>
      </trkpt>
      <trkpt lat="47.80822" lon="-2.60459">
        <ele>68</ele>
        <time>2007-10-07T09:38:26Z</time>
      </trkpt>
      <trkpt lat="47.80814" lon="-2.60455">
        <ele>68</ele>
        <time>2007-10-07T09:38:28Z</time>
      </trkpt>
      <trkpt lat="47.80795" lon="-2.6044">
        <ele>67</ele>
        <time>2007-10-07T09:38:32Z</time>
      </trkpt>
      <trkpt lat="47.80784" lon="-2.60415">
        <ele>66</ele>
        <time>2007-10-07T09:38:36Z</time>
      </trkpt>
      <trkpt lat="47.8078" lon="-2.60393">
        <ele>65</ele>
        <time>2007-10-07T09:38:39Z</time>
      </trkpt>
      <trkpt lat="47.80779" lon="-2.60352">
        <ele>63</ele>
        <time>2007-10-07T09:38:44Z</time>
      </trkpt>
      <trkpt lat="47.80779" lon="-2.60315">
        <ele>61</ele>
        <time>2007-10-07T09:38:48Z</time>
      </trkpt>
      <trkpt lat="47.80779" lon="-2.60301">
        <ele>59</ele>
        <time>2007-10-07T09:38:50Z</time>
      </trkpt>
      <trkpt lat="47.80789" lon="-2.60288">
        <ele>57</ele>
        <time>2007-10-07T09:38:53Z</time>
      </trkpt>
      <trkpt lat="47.80807" lon="-2.60284">
        <ele>55</ele>
        <time>2007-10-07T09:38:56Z</time>
      </trkpt>
      <trkpt lat="47.80832" lon="-2.6028">
        <ele>51</ele>
        <time>2007-10-07T09:39:01Z</time>
      </trkpt>
      <trkpt lat="47.80834" lon="-2.60276">
        <ele>50</ele>
        <time>2007-10-07T09:39:02Z</time>
      </trkpt>
      <trkpt lat="47.80827" lon="-2.60261">
        <ele>49</ele>
        <time>2007-10-07T09:39:06Z</time>
      </trkpt>
      <trkpt lat="47.80813" lon="-2.60261">
        <ele>49</ele>
        <time>2007-10-07T09:39:09Z</time>
      </trkpt>
      <trkpt lat="47.80792" lon="-2.60256">
        <ele>50</ele>
        <time>2007-10-07T09:39:14Z</time>
      </trkpt>
      <trkpt lat="47.8078" lon="-2.60247">
        <ele>50</ele>
        <time>2007-10-07T09:39:17Z</time>
      </trkpt>
      <trkpt lat="47.80755" lon="-2.60225">
        <ele>49</ele>
        <time>2007-10-07T09:39:23Z</time>
      </trkpt>
      <trkpt lat="47.80747" lon="-2.60218">
        <ele>49</ele>
        <time>2007-10-07T09:39:25Z</time>
      </trkpt>
      <trkpt lat="47.80732" lon="-2.60207">
        <ele>49</ele>
        <time>2007-10-07T09:39:29Z</time>
      </trkpt>
      <trkpt lat="47.80722" lon="-2.6019">
        <ele>49</ele>
        <time>2007-10-07T09:39:34Z</time>
      </trkpt>
      <trkpt lat="47.80721" lon="-2.60178">
        <ele>48</ele>
        <time>2007-10-07T09:39:38Z</time>
      </trkpt>
      <trkpt lat="47.80721" lon="-2.60175">
        <ele>48</ele>
        <time>2007-10-07T09:39:40Z</time>
      </trkpt>
      <trkpt lat="47.80719" lon="-2.60171">
        <ele>48</ele>
        <time>2007-10-07T09:39:45Z</time>
      </trkpt>
      <trkpt lat="47.80717" lon="-2.60169">
        <ele>48</ele>
        <time>2007-10-07T09:39:47Z</time>
      </trkpt>
      <trkpt lat="47.80717" lon="-2.60169">
        <ele>49</ele>
        <time>2007-10-07T09:39:50Z</time>
      </trkpt>
      <trkpt lat="47.80716" lon="-2.60166">
        <ele>49</ele>
        <time>2007-10-07T09:39:51Z</time>
      </trkpt>
      <trkpt lat="47.80715" lon="-2.60163">
        <ele>48</ele>
        <time>2007-10-07T09:39:55Z</time>
      </trkpt>
      <trkpt lat="47.80715" lon="-2.60162">
        <ele>49</ele>
        <time>2007-10-07T09:39:58Z</time>
      </trkpt>
      <trkpt lat="47.80715" lon="-2.60161">
        <ele>48</ele>
        <time>2007-10-07T09:39:59Z</time>
      </trkpt>
      <trkpt lat="47.80714" lon="-2.6016">
        <ele>48</ele>
        <time>2007-10-07T09:40:02Z</time>
      </trkpt>
      <trkpt lat="47.80714" lon="-2.60159">
        <ele>48</ele>
        <time>2007-10-07T09:40:03Z</time>
      </trkpt>
      <trkpt lat="47.80714" lon="-2.60158">
        <ele>48</ele>
        <time>2007-10-07T09:40:04Z</time>
      </trkpt>
      <trkpt lat="47.80713" lon="-2.60156">
        <ele>49</ele>
        <time>2007-10-07T09:40:07Z</time>
      </trkpt>
      <trkpt lat="47.80712" lon="-2.60154">
        <ele>49</ele>
        <time>2007-10-07T09:40:08Z</time>
      </trkpt>
      <trkpt lat="47.80702" lon="-2.60131">
        <ele>49</ele>
        <time>2007-10-07T09:40:13Z</time>
      </trkpt>
      <trkpt lat="47.80692" lon="-2.6011">
        <ele>49</ele>
        <time>2007-10-07T09:40:18Z</time>
      </trkpt>
      <trkpt lat="47.8068" lon="-2.60091">
        <ele>50</ele>
        <time>2007-10-07T09:40:24Z</time>
      </trkpt>
      <trkpt lat="47.80667" lon="-2.60069">
        <ele>51</ele>
        <time>2007-10-07T09:40:30Z</time>
      </trkpt>
      <trkpt lat="47.80659" lon="-2.60055">
        <ele>51</ele>
        <time>2007-10-07T09:40:35Z</time>
      </trkpt>
      <trkpt lat="47.80648" lon="-2.60038">
        <ele>52</ele>
        <time>2007-10-07T09:40:43Z</time>
      </trkpt>
      <trkpt lat="47.80641" lon="-2.60029">
        <ele>52</ele>
        <time>2007-10-07T09:40:48Z</time>
      </trkpt>
      <trkpt lat="47.8063" lon="-2.60016">
        <ele>54</ele>
        <time>2007-10-07T09:40:54Z</time>
      </trkpt>
      <trkpt lat="47.8062" lon="-2.60005">
        <ele>55</ele>
        <time>2007-10-07T09:41:00Z</time>
      </trkpt>
      <trkpt lat="47.80614" lon="-2.59997">
        <ele>56</ele>
        <time>2007-10-07T09:41:04Z</time>
      </trkpt>
      <trkpt lat="47.80607" lon="-2.59989">
        <ele>56</ele>
        <time>2007-10-07T09:41:09Z</time>
      </trkpt>
      <trkpt lat="47.80603" lon="-2.59981">
        <ele>56</ele>
        <time>2007-10-07T09:41:14Z</time>
      </trkpt>
      <trkpt lat="47.80602" lon="-2.59974">
        <ele>57</ele>
        <time>2007-10-07T09:41:20Z</time>
      </trkpt>
      <trkpt lat="47.80599" lon="-2.59969">
        <ele>58</ele>
        <time>2007-10-07T09:41:24Z</time>
      </trkpt>
      <trkpt lat="47.80597" lon="-2.59968">
        <ele>59</ele>
        <time>2007-10-07T09:41:26Z</time>
      </trkpt>
      <trkpt lat="47.80587" lon="-2.59965">
        <ele>62</ele>
        <time>2007-10-07T09:41:33Z</time>
      </trkpt>
      <trkpt lat="47.80578" lon="-2.59963">
        <ele>63</ele>
        <time>2007-10-07T09:41:40Z</time>
      </trkpt>
      <trkpt lat="47.80568" lon="-2.59961">
        <ele>64</ele>
        <time>2007-10-07T09:41:47Z</time>
      </trkpt>
      <trkpt lat="47.80565" lon="-2.59961">
        <ele>64</ele>
        <time>2007-10-07T09:41:49Z</time>
      </trkpt>
      <trkpt lat="47.80553" lon="-2.5996">
        <ele>65</ele>
        <time>2007-10-07T09:41:56Z</time>
      </trkpt>
      <trkpt lat="47.8054" lon="-2.59959">
        <ele>66</ele>
        <time>2007-10-07T09:42:02Z</time>
      </trkpt>
      <trkpt lat="47.80534" lon="-2.59959">
        <ele>66</ele>
        <time>2007-10-07T09:42:06Z</time>
      </trkpt>
      <trkpt lat="47.80522" lon="-2.5996">
        <ele>66</ele>
        <time>2007-10-07T09:42:11Z</time>
      </trkpt>
      <trkpt lat="47.80507" lon="-2.59959">
        <ele>65</ele>
        <time>2007-10-07T09:42:17Z</time>
      </trkpt>
      <trkpt lat="47.80494" lon="-2.59956">
        <ele>65</ele>
        <time>2007-10-07T09:42:20Z</time>
      </trkpt>
      <trkpt lat="47.80463" lon="-2.59946">
        <ele>60</ele>
        <time>2007-10-07T09:42:25Z</time>
      </trkpt>
      <trkpt lat="47.80441" lon="-2.59929">
        <ele>56</ele>
        <time>2007-10-07T09:42:28Z</time>
      </trkpt>
      <trkpt lat="47.80428" lon="-2.5992">
        <ele>55</ele>
        <time>2007-10-07T09:42:30Z</time>
      </trkpt>
      <trkpt lat="47.80422" lon="-2.59916">
        <ele>54</ele>
        <time>2007-10-07T09:42:31Z</time>
      </trkpt>
      <trkpt lat="47.80394" lon="-2.59898">
        <ele>50</ele>
        <time>2007-10-07T09:42:36Z</time>
      </trkpt>
      <trkpt lat="47.8039" lon="-2.59894">
        <ele>49</ele>
        <time>2007-10-07T09:42:37Z</time>
      </trkpt>
      <trkpt lat="47.80384" lon="-2.59883">
        <ele>49</ele>
        <time>2007-10-07T09:42:41Z</time>
      </trkpt>
      <trkpt lat="47.80382" lon="-2.59881">
        <ele>49</ele>
        <time>2007-10-07T09:42:43Z</time>
      </trkpt>
      <trkpt lat="47.80383" lon="-2.59879">
        <ele>49</ele>
        <time>2007-10-07T09:42:48Z</time>
      </trkpt>
      <trkpt lat="47.80382" lon="-2.59875">
        <ele>49</ele>
        <time>2007-10-07T09:42:54Z</time>
      </trkpt>
      <trkpt lat="47.80383" lon="-2.59873">
        <ele>49</ele>
        <time>2007-10-07T09:42:57Z</time>
      </trkpt>
      <trkpt lat="47.80385" lon="-2.59862">
        <ele>48</ele>
        <time>2007-10-07T09:43:18Z</time>
      </trkpt>
      <trkpt lat="47.80386" lon="-2.59863">
        <ele>48</ele>
        <time>2007-10-07T09:43:19Z</time>
      </trkpt>
      <trkpt lat="47.80386" lon="-2.59862">
        <ele>49</ele>
        <time>2007-10-07T09:43:24Z</time>
      </trkpt>
      <trkpt lat="47.80384" lon="-2.59857">
        <ele>49</ele>
        <time>2007-10-07T09:43:26Z</time>
      </trkpt>
      <trkpt lat="47.80385" lon="-2.59849">
        <ele>49</ele>
        <time>2007-10-07T09:43:30Z</time>
      </trkpt>
      <trkpt lat="47.80384" lon="-2.59841">
        <ele>50</ele>
        <time>2007-10-07T09:43:33Z</time>
      </trkpt>
      <trkpt lat="47.80381" lon="-2.59823">
        <ele>51</ele>
        <time>2007-10-07T09:43:39Z</time>
      </trkpt>
      <trkpt lat="47.8038" lon="-2.59822">
        <ele>51</ele>
        <time>2007-10-07T09:43:40Z</time>
      </trkpt>
      <trkpt lat="47.80376" lon="-2.59804">
        <ele>53</ele>
        <time>2007-10-07T09:43:46Z</time>
      </trkpt>
      <trkpt lat="47.80373" lon="-2.59787">
        <ele>53</ele>
        <time>2007-10-07T09:43:52Z</time>
      </trkpt>
      <trkpt lat="47.80371" lon="-2.5977">
        <ele>54</ele>
        <time>2007-10-07T09:43:58Z</time>
      </trkpt>
      <trkpt lat="47.8037" lon="-2.59756">
        <ele>55</ele>
        <time>2007-10-07T09:44:04Z</time>
      </trkpt>
      <trkpt lat="47.80368" lon="-2.59742">
        <ele>56</ele>
        <time>2007-10-07T09:44:10Z</time>
      </trkpt>
      <trkpt lat="47.80368" lon="-2.59735">
        <ele>56</ele>
        <time>2007-10-07T09:44:13Z</time>
      </trkpt>
      <trkpt lat="47.80368" lon="-2.59732">
        <ele>56</ele>
        <time>2007-10-07T09:44:17Z</time>
      </trkpt>
      <trkpt lat="47.80368" lon="-2.59728">
        <ele>56</ele>
        <time>2007-10-07T09:44:18Z</time>
      </trkpt>
      <trkpt lat="47.80368" lon="-2.59713">
        <ele>58</ele>
        <time>2007-10-07T09:44:25Z</time>
      </trkpt>
      <trkpt lat="47.8037" lon="-2.59695">
        <ele>60</ele>
        <time>2007-10-07T09:44:32Z</time>
      </trkpt>
      <trkpt lat="47.80372" lon="-2.59684">
        <ele>61</ele>
        <time>2007-10-07T09:44:37Z</time>
      </trkpt>
      <trkpt lat="47.80375" lon="-2.59669">
        <ele>61</ele>
        <time>2007-10-07T09:44:44Z</time>
      </trkpt>
      <trkpt lat="47.8038" lon="-2.59656">
        <ele>63</ele>
        <time>2007-10-07T09:44:50Z</time>
      </trkpt>
      <trkpt lat="47.80381" lon="-2.59643">
        <ele>65</ele>
        <time>2007-10-07T09:44:56Z</time>
      </trkpt>
      <trkpt lat="47.80381" lon="-2.59639">
        <ele>65</ele>
        <time>2007-10-07T09:44:59Z</time>
      </trkpt>
      <trkpt lat="47.80374" lon="-2.59632">
        <ele>65</ele>
        <time>2007-10-07T09:45:18Z</time>
      </trkpt>
      <trkpt lat="47.80373" lon="-2.59631">
        <ele>65</ele>
        <time>2007-10-07T09:45:20Z</time>
      </trkpt>
      <trkpt lat="47.80372" lon="-2.59633">
        <ele>66</ele>
        <time>2007-10-07T09:45:23Z</time>
      </trkpt>
      <trkpt lat="47.80372" lon="-2.59634">
        <ele>65</ele>
        <time>2007-10-07T09:45:24Z</time>
      </trkpt>
      <trkpt lat="47.80367" lon="-2.59651">
        <ele>65</ele>
        <time>2007-10-07T09:45:29Z</time>
      </trkpt>
      <trkpt lat="47.8036" lon="-2.59667">
        <ele>65</ele>
        <time>2007-10-07T09:45:33Z</time>
      </trkpt>
      <trkpt lat="47.80353" lon="-2.59685">
        <ele>64</ele>
        <time>2007-10-07T09:45:36Z</time>
      </trkpt>
      <trkpt lat="47.80347" lon="-2.59722">
        <ele>61</ele>
        <time>2007-10-07T09:45:41Z</time>
      </trkpt>
      <trkpt lat="47.80345" lon="-2.59758">
        <ele>60</ele>
        <time>2007-10-07T09:45:45Z</time>
      </trkpt>
      <trkpt lat="47.80347" lon="-2.59779">
        <ele>59</ele>
        <time>2007-10-07T09:45:47Z</time>
      </trkpt>
      <trkpt lat="47.80349" lon="-2.59828">
        <ele>59</ele>
        <time>2007-10-07T09:45:52Z</time>
      </trkpt>
      <trkpt lat="47.80348" lon="-2.59864">
        <ele>59</ele>
        <time>2007-10-07T09:45:56Z</time>
      </trkpt>
      <trkpt lat="47.80334" lon="-2.59899">
        <ele>59</ele>
        <time>2007-10-07T09:46:01Z</time>
      </trkpt>
      <trkpt lat="47.8033" lon="-2.59903">
        <ele>58</ele>
        <time>2007-10-07T09:46:02Z</time>
      </trkpt>
      <trkpt lat="47.80306" lon="-2.59919">
        <ele>59</ele>
        <time>2007-10-07T09:46:08Z</time>
      </trkpt>
      <trkpt lat="47.80301" lon="-2.59921">
        <ele>60</ele>
        <time>2007-10-07T09:46:09Z</time>
      </trkpt>
      <trkpt lat="47.80282" lon="-2.59933">
        <ele>59</ele>
        <time>2007-10-07T09:46:14Z</time>
      </trkpt>
      <trkpt lat="47.80268" lon="-2.59939">
        <ele>60</ele>
        <time>2007-10-07T09:46:18Z</time>
      </trkpt>
      <trkpt lat="47.80265" lon="-2.5994">
        <ele>59</ele>
        <time>2007-10-07T09:46:19Z</time>
      </trkpt>
      <trkpt lat="47.80258" lon="-2.59937">
        <ele>60</ele>
        <time>2007-10-07T09:46:24Z</time>
      </trkpt>
      <trkpt lat="47.80258" lon="-2.59937">
        <ele>61</ele>
        <time>2007-10-07T09:46:27Z</time>
      </trkpt>
      <trkpt lat="47.80257" lon="-2.59928">
        <ele>63</ele>
        <time>2007-10-07T09:46:34Z</time>
      </trkpt>
      <trkpt lat="47.80254" lon="-2.59924">
        <ele>62</ele>
        <time>2007-10-07T09:46:39Z</time>
      </trkpt>
      <trkpt lat="47.80248" lon="-2.59916">
        <ele>64</ele>
        <time>2007-10-07T09:46:45Z</time>
      </trkpt>
      <trkpt lat="47.80247" lon="-2.59915">
        <ele>65</ele>
        <time>2007-10-07T09:46:46Z</time>
      </trkpt>
      <trkpt lat="47.80243" lon="-2.59911">
        <ele>65</ele>
        <time>2007-10-07T09:46:57Z</time>
      </trkpt>
      <trkpt lat="47.80235" lon="-2.59906">
        <ele>65</ele>
        <time>2007-10-07T09:47:00Z</time>
      </trkpt>
      <trkpt lat="47.80223" lon="-2.59918">
        <ele>63</ele>
        <time>2007-10-07T09:47:05Z</time>
      </trkpt>
      <trkpt lat="47.80206" lon="-2.59924">
        <ele>62</ele>
        <time>2007-10-07T09:47:10Z</time>
      </trkpt>
      <trkpt lat="47.80201" lon="-2.59924">
        <ele>62</ele>
        <time>2007-10-07T09:47:12Z</time>
      </trkpt>
      <trkpt lat="47.80195" lon="-2.59934">
        <ele>60</ele>
        <time>2007-10-07T09:47:15Z</time>
      </trkpt>
      <trkpt lat="47.80189" lon="-2.5994">
        <ele>59</ele>
        <time>2007-10-07T09:47:17Z</time>
      </trkpt>
      <trkpt lat="47.8018" lon="-2.59948">
        <ele>56</ele>
        <time>2007-10-07T09:47:20Z</time>
      </trkpt>
      <trkpt lat="47.80176" lon="-2.59951">
        <ele>56</ele>
        <time>2007-10-07T09:47:24Z</time>
      </trkpt>
      <trkpt lat="47.80173" lon="-2.59951">
        <ele>56</ele>
        <time>2007-10-07T09:47:29Z</time>
      </trkpt>
      <trkpt lat="47.80163" lon="-2.59962">
        <ele>56</ele>
        <time>2007-10-07T09:47:36Z</time>
      </trkpt>
      <trkpt lat="47.80164" lon="-2.59968">
        <ele>56</ele>
        <time>2007-10-07T09:47:40Z</time>
      </trkpt>
      <trkpt lat="47.80165" lon="-2.5997">
        <ele>57</ele>
        <time>2007-10-07T09:47:43Z</time>
      </trkpt>
      <trkpt lat="47.80166" lon="-2.59971">
        <ele>57</ele>
        <time>2007-10-07T09:47:44Z</time>
      </trkpt>
      <trkpt lat="47.80169" lon="-2.59978">
        <ele>59</ele>
        <time>2007-10-07T09:47:51Z</time>
      </trkpt>
      <trkpt lat="47.80169" lon="-2.5998">
        <ele>59</ele>
        <time>2007-10-07T09:47:54Z</time>
      </trkpt>
      <trkpt lat="47.80169" lon="-2.59981">
        <ele>59</ele>
        <time>2007-10-07T09:47:55Z</time>
      </trkpt>
      <trkpt lat="47.80168" lon="-2.59984">
        <ele>59</ele>
        <time>2007-10-07T09:47:57Z</time>
      </trkpt>
      <trkpt lat="47.80167" lon="-2.59985">
        <ele>60</ele>
        <time>2007-10-07T09:48:00Z</time>
      </trkpt>
      <trkpt lat="47.80167" lon="-2.59986">
        <ele>61</ele>
        <time>2007-10-07T09:48:01Z</time>
      </trkpt>
      <trkpt lat="47.80167" lon="-2.59987">
        <ele>61</ele>
        <time>2007-10-07T09:48:03Z</time>
      </trkpt>
      <trkpt lat="47.80169" lon="-2.59993">
        <ele>62</ele>
        <time>2007-10-07T09:48:10Z</time>
      </trkpt>
      <trkpt lat="47.80169" lon="-2.59994">
        <ele>62</ele>
        <time>2007-10-07T09:48:11Z</time>
      </trkpt>
      <trkpt lat="47.80169" lon="-2.59996">
        <ele>63</ele>
        <time>2007-10-07T09:48:12Z</time>
      </trkpt>
      <trkpt lat="47.80169" lon="-2.59997">
        <ele>62</ele>
        <time>2007-10-07T09:48:15Z</time>
      </trkpt>
      <trkpt lat="47.80169" lon="-2.59999">
        <ele>63</ele>
        <time>2007-10-07T09:48:16Z</time>
      </trkpt>
      <trkpt lat="47.80169" lon="-2.60001">
        <ele>63</ele>
        <time>2007-10-07T09:48:19Z</time>
      </trkpt>
      <trkpt lat="47.80169" lon="-2.60002">
        <ele>63</ele>
        <time>2007-10-07T09:48:20Z</time>
      </trkpt>
      <trkpt lat="47.80166" lon="-2.60015">
        <ele>64</ele>
        <time>2007-10-07T09:48:23Z</time>
      </trkpt>
      <trkpt lat="47.80165" lon="-2.60018">
        <ele>64</ele>
        <time>2007-10-07T09:48:25Z</time>
      </trkpt>
      <trkpt lat="47.80157" lon="-2.60021">
        <ele>64</ele>
        <time>2007-10-07T09:49:10Z</time>
      </trkpt>
      <trkpt lat="47.80157" lon="-2.60026">
        <ele>64</ele>
        <time>2007-10-07T09:49:14Z</time>
      </trkpt>
      <trkpt lat="47.80156" lon="-2.60026">
        <ele>65</ele>
        <time>2007-10-07T09:49:17Z</time>
      </trkpt>
      <trkpt lat="47.80156" lon="-2.60028">
        <ele>64</ele>
        <time>2007-10-07T09:49:18Z</time>
      </trkpt>
      <trkpt lat="47.80149" lon="-2.60037">
        <ele>65</ele>
        <time>2007-10-07T09:49:22Z</time>
      </trkpt>
      <trkpt lat="47.80146" lon="-2.60045">
        <ele>66</ele>
        <time>2007-10-07T09:49:27Z</time>
      </trkpt>
      <trkpt lat="47.80142" lon="-2.60053">
        <ele>66</ele>
        <time>2007-10-07T09:49:32Z</time>
      </trkpt>
      <trkpt lat="47.80136" lon="-2.60059">
        <ele>67</ele>
        <time>2007-10-07T09:49:37Z</time>
      </trkpt>
      <trkpt lat="47.80133" lon="-2.60068">
        <ele>67</ele>
        <time>2007-10-07T09:49:41Z</time>
      </trkpt>
      <trkpt lat="47.80124" lon="-2.60076">
        <ele>69</ele>
        <time>2007-10-07T09:49:47Z</time>
      </trkpt>
      <trkpt lat="47.80118" lon="-2.60085">
        <ele>69</ele>
        <time>2007-10-07T09:49:52Z</time>
      </trkpt>
      <trkpt lat="47.8011" lon="-2.60096">
        <ele>71</ele>
        <time>2007-10-07T09:49:58Z</time>
      </trkpt>
      <trkpt lat="47.80104" lon="-2.60103">
        <ele>71</ele>
        <time>2007-10-07T09:50:02Z</time>
      </trkpt>
      <trkpt lat="47.80098" lon="-2.60116">
        <ele>72</ele>
        <time>2007-10-07T09:50:09Z</time>
      </trkpt>
      <trkpt lat="47.80096" lon="-2.60118">
        <ele>72</ele>
        <time>2007-10-07T09:50:12Z</time>
      </trkpt>
      <trkpt lat="47.80096" lon="-2.60119">
        <ele>72</ele>
        <time>2007-10-07T09:50:15Z</time>
      </trkpt>
      <trkpt lat="47.80096" lon="-2.6012">
        <ele>72</ele>
        <time>2007-10-07T09:50:16Z</time>
      </trkpt>
      <trkpt lat="47.80095" lon="-2.6012">
        <ele>72</ele>
        <time>2007-10-07T09:50:17Z</time>
      </trkpt>
      <trkpt lat="47.80094" lon="-2.60121">
        <ele>72</ele>
        <time>2007-10-07T09:50:20Z</time>
      </trkpt>
      <trkpt lat="47.80093" lon="-2.60121">
        <ele>72</ele>
        <time>2007-10-07T09:50:21Z</time>
      </trkpt>
      <trkpt lat="47.80093" lon="-2.60124">
        <ele>72</ele>
        <time>2007-10-07T09:50:24Z</time>
      </trkpt>
      <trkpt lat="47.80093" lon="-2.60126">
        <ele>72</ele>
        <time>2007-10-07T09:50:25Z</time>
      </trkpt>
      <trkpt lat="47.80084" lon="-2.60123">
        <ele>73</ele>
        <time>2007-10-07T09:50:33Z</time>
      </trkpt>
      <trkpt lat="47.80079" lon="-2.60122">
        <ele>75</ele>
        <time>2007-10-07T09:50:40Z</time>
      </trkpt>
      <trkpt lat="47.80078" lon="-2.6012">
        <ele>76</ele>
        <time>2007-10-07T09:50:43Z</time>
      </trkpt>
      <trkpt lat="47.80078" lon="-2.6012">
        <ele>76</ele>
        <time>2007-10-07T09:50:44Z</time>
      </trkpt>
      <trkpt lat="47.80077" lon="-2.60119">
        <ele>76</ele>
        <time>2007-10-07T09:50:47Z</time>
      </trkpt>
      <trkpt lat="47.80075" lon="-2.60119">
        <ele>76</ele>
        <time>2007-10-07T09:50:48Z</time>
      </trkpt>
      <trkpt lat="47.80075" lon="-2.60119">
        <ele>77</ele>
        <time>2007-10-07T09:50:49Z</time>
      </trkpt>
      <trkpt lat="47.80074" lon="-2.60117">
        <ele>77</ele>
        <time>2007-10-07T09:50:53Z</time>
      </trkpt>
      <trkpt lat="47.80074" lon="-2.60117">
        <ele>78</ele>
        <time>2007-10-07T09:50:54Z</time>
      </trkpt>
      <trkpt lat="47.80072" lon="-2.60116">
        <ele>79</ele>
        <time>2007-10-07T09:50:59Z</time>
      </trkpt>
      <trkpt lat="47.80071" lon="-2.60115">
        <ele>79</ele>
        <time>2007-10-07T09:51:00Z</time>
      </trkpt>
      <trkpt lat="47.80069" lon="-2.60114">
        <ele>79</ele>
        <time>2007-10-07T09:51:01Z</time>
      </trkpt>
      <trkpt lat="47.80067" lon="-2.60114">
        <ele>80</ele>
        <time>2007-10-07T09:51:04Z</time>
      </trkpt>
      <trkpt lat="47.80065" lon="-2.60115">
        <ele>80</ele>
        <time>2007-10-07T09:51:05Z</time>
      </trkpt>
      <trkpt lat="47.80064" lon="-2.60115">
        <ele>80</ele>
        <time>2007-10-07T09:51:08Z</time>
      </trkpt>
      <trkpt lat="47.80063" lon="-2.60115">
        <ele>80</ele>
        <time>2007-10-07T09:51:09Z</time>
      </trkpt>
      <trkpt lat="47.80059" lon="-2.60116">
        <ele>81</ele>
        <time>2007-10-07T09:51:11Z</time>
      </trkpt>
      <trkpt lat="47.80057" lon="-2.60117">
        <ele>80</ele>
        <time>2007-10-07T09:51:14Z</time>
      </trkpt>
      <trkpt lat="47.80054" lon="-2.60119">
        <ele>81</ele>
        <time>2007-10-07T09:51:15Z</time>
      </trkpt>
      <trkpt lat="47.8005" lon="-2.60122">
        <ele>81</ele>
        <time>2007-10-07T09:51:19Z</time>
      </trkpt>
      <trkpt lat="47.80048" lon="-2.60124">
        <ele>82</ele>
        <time>2007-10-07T09:51:23Z</time>
      </trkpt>
      <trkpt lat="47.80047" lon="-2.60132">
        <ele>82</ele>
        <time>2007-10-07T09:51:27Z</time>
      </trkpt>
      <trkpt lat="47.80046" lon="-2.60136">
        <ele>81</ele>
        <time>2007-10-07T09:51:29Z</time>
      </trkpt>
      <trkpt lat="47.80046" lon="-2.6014">
        <ele>81</ele>
        <time>2007-10-07T09:51:31Z</time>
      </trkpt>
      <trkpt lat="47.80047" lon="-2.6015">
        <ele>83</ele>
        <time>2007-10-07T09:51:36Z</time>
      </trkpt>
      <trkpt lat="47.80047" lon="-2.60151">
        <ele>83</ele>
        <time>2007-10-07T09:51:39Z</time>
      </trkpt>
      <trkpt lat="47.80045" lon="-2.60158">
        <ele>84</ele>
        <time>2007-10-07T09:51:45Z</time>
      </trkpt>
      <trkpt lat="47.80045" lon="-2.60157">
        <ele>85</ele>
        <time>2007-10-07T09:51:48Z</time>
      </trkpt>
      <trkpt lat="47.8004" lon="-2.60154">
        <ele>85</ele>
        <time>2007-10-07T09:51:54Z</time>
      </trkpt>
      <trkpt lat="47.80039" lon="-2.60153">
        <ele>86</ele>
        <time>2007-10-07T09:51:57Z</time>
      </trkpt>
      <trkpt lat="47.80039" lon="-2.60152">
        <ele>87</ele>
        <time>2007-10-07T09:52:00Z</time>
      </trkpt>
      <trkpt lat="47.80038" lon="-2.60151">
        <ele>87</ele>
        <time>2007-10-07T09:52:01Z</time>
      </trkpt>
      <trkpt lat="47.80036" lon="-2.60143">
        <ele>87</ele>
        <time>2007-10-07T09:52:07Z</time>
      </trkpt>
      <trkpt lat="47.80034" lon="-2.60138">
        <ele>88</ele>
        <time>2007-10-07T09:52:11Z</time>
      </trkpt>
      <trkpt lat="47.80034" lon="-2.60137">
        <ele>88</ele>
        <time>2007-10-07T09:52:14Z</time>
      </trkpt>
      <trkpt lat="47.80033" lon="-2.60133">
        <ele>89</ele>
        <time>2007-10-07T09:52:16Z</time>
      </trkpt>
      <trkpt lat="47.80033" lon="-2.60124">
        <ele>89</ele>
        <time>2007-10-07T09:52:24Z</time>
      </trkpt>
      <trkpt lat="47.80032" lon="-2.6012">
        <ele>89</ele>
        <time>2007-10-07T09:52:27Z</time>
      </trkpt>
      <trkpt lat="47.8003" lon="-2.60114">
        <ele>89</ele>
        <time>2007-10-07T09:52:34Z</time>
      </trkpt>
      <trkpt lat="47.80029" lon="-2.60112">
        <ele>89</ele>
        <time>2007-10-07T09:52:35Z</time>
      </trkpt>
      <trkpt lat="47.80026" lon="-2.60109">
        <ele>90</ele>
        <time>2007-10-07T09:52:38Z</time>
      </trkpt>
      <trkpt lat="47.80016" lon="-2.6011">
        <ele>90</ele>
        <time>2007-10-07T09:52:44Z</time>
      </trkpt>
      <trkpt lat="47.80013" lon="-2.60109">
        <ele>91</ele>
        <time>2007-10-07T09:52:49Z</time>
      </trkpt>
      <trkpt lat="47.80008" lon="-2.60104">
        <ele>91</ele>
        <time>2007-10-07T09:52:53Z</time>
      </trkpt>
      <trkpt lat="47.80003" lon="-2.60102">
        <ele>92</ele>
        <time>2007-10-07T09:52:58Z</time>
      </trkpt>
      <trkpt lat="47.80002" lon="-2.60101">
        <ele>92</ele>
        <time>2007-10-07T09:53:01Z</time>
      </trkpt>
      <trkpt lat="47.8" lon="-2.60101">
        <ele>92</ele>
        <time>2007-10-07T09:53:02Z</time>
      </trkpt>
      <trkpt lat="47.79995" lon="-2.601">
        <ele>92</ele>
        <time>2007-10-07T09:53:03Z</time>
      </trkpt>
      <trkpt lat="47.79984" lon="-2.60095">
        <ele>94</ele>
        <time>2007-10-07T09:53:10Z</time>
      </trkpt>
      <trkpt lat="47.79976" lon="-2.60092">
        <ele>94</ele>
        <time>2007-10-07T09:53:15Z</time>
      </trkpt>
      <trkpt lat="47.79972" lon="-2.6009">
        <ele>95</ele>
        <time>2007-10-07T09:53:17Z</time>
      </trkpt>
      <trkpt lat="47.79958" lon="-2.60082">
        <ele>95</ele>
        <time>2007-10-07T09:53:23Z</time>
      </trkpt>
      <trkpt lat="47.79944" lon="-2.6008">
        <ele>95</ele>
        <time>2007-10-07T09:53:28Z</time>
      </trkpt>
      <trkpt lat="47.79929" lon="-2.60076">
        <ele>96</ele>
        <time>2007-10-07T09:53:33Z</time>
      </trkpt>
      <trkpt lat="47.7991" lon="-2.60072">
        <ele>95</ele>
        <time>2007-10-07T09:53:39Z</time>
      </trkpt>
      <trkpt lat="47.79892" lon="-2.60066">
        <ele>94</ele>
        <time>2007-10-07T09:53:45Z</time>
      </trkpt>
      <trkpt lat="47.7987" lon="-2.60059">
        <ele>94</ele>
        <time>2007-10-07T09:53:52Z</time>
      </trkpt>
      <trkpt lat="47.7986" lon="-2.60064">
        <ele>95</ele>
        <time>2007-10-07T09:53:57Z</time>
      </trkpt>
      <trkpt lat="47.79857" lon="-2.60063">
        <ele>95</ele>
        <time>2007-10-07T09:53:58Z</time>
      </trkpt>
      <trkpt lat="47.79838" lon="-2.60066">
        <ele>95</ele>
        <time>2007-10-07T09:54:04Z</time>
      </trkpt>
      <trkpt lat="47.79827" lon="-2.60059">
        <ele>93</ele>
        <time>2007-10-07T09:54:08Z</time>
      </trkpt>
      <trkpt lat="47.79823" lon="-2.60051">
        <ele>92</ele>
        <time>2007-10-07T09:54:10Z</time>
      </trkpt>
      <trkpt lat="47.79806" lon="-2.60041">
        <ele>91</ele>
        <time>2007-10-07T09:54:15Z</time>
      </trkpt>
      <trkpt lat="47.79793" lon="-2.60038">
        <ele>90</ele>
        <time>2007-10-07T09:54:19Z</time>
      </trkpt>
      <trkpt lat="47.79779" lon="-2.60025">
        <ele>91</ele>
        <time>2007-10-07T09:54:23Z</time>
      </trkpt>
      <trkpt lat="47.79768" lon="-2.6002">
        <ele>91</ele>
        <time>2007-10-07T09:54:26Z</time>
      </trkpt>
      <trkpt lat="47.79756" lon="-2.60022">
        <ele>92</ele>
        <time>2007-10-07T09:54:31Z</time>
      </trkpt>
      <trkpt lat="47.79743" lon="-2.60013">
        <ele>91</ele>
        <time>2007-10-07T09:54:36Z</time>
      </trkpt>
      <trkpt lat="47.79741" lon="-2.60014">
        <ele>91</ele>
        <time>2007-10-07T09:54:37Z</time>
      </trkpt>
      <trkpt lat="47.79729" lon="-2.60014">
        <ele>91</ele>
        <time>2007-10-07T09:54:43Z</time>
      </trkpt>
      <trkpt lat="47.79729" lon="-2.60013">
        <ele>91</ele>
        <time>2007-10-07T09:54:44Z</time>
      </trkpt>
      <trkpt lat="47.79723" lon="-2.59992">
        <ele>90</ele>
        <time>2007-10-07T09:54:49Z</time>
      </trkpt>
      <trkpt lat="47.79712" lon="-2.59967">
        <ele>90</ele>
        <time>2007-10-07T09:54:55Z</time>
      </trkpt>
      <trkpt lat="47.79706" lon="-2.59948">
        <ele>88</ele>
        <time>2007-10-07T09:54:59Z</time>
      </trkpt>
      <trkpt lat="47.79697" lon="-2.59929">
        <ele>88</ele>
        <time>2007-10-07T09:55:03Z</time>
      </trkpt>
      <trkpt lat="47.79694" lon="-2.59917">
        <ele>87</ele>
        <time>2007-10-07T09:55:06Z</time>
      </trkpt>
      <trkpt lat="47.79696" lon="-2.59895">
        <ele>85</ele>
        <time>2007-10-07T09:55:10Z</time>
      </trkpt>
      <trkpt lat="47.79705" lon="-2.59859">
        <ele>83</ele>
        <time>2007-10-07T09:55:14Z</time>
      </trkpt>
      <trkpt lat="47.79708" lon="-2.5984">
        <ele>83</ele>
        <time>2007-10-07T09:55:16Z</time>
      </trkpt>
      <trkpt lat="47.79714" lon="-2.59836">
        <ele>82</ele>
        <time>2007-10-07T09:55:19Z</time>
      </trkpt>
      <trkpt lat="47.79719" lon="-2.59835">
        <ele>80</ele>
        <time>2007-10-07T09:55:22Z</time>
      </trkpt>
      <trkpt lat="47.79733" lon="-2.59833">
        <ele>80</ele>
        <time>2007-10-07T09:55:27Z</time>
      </trkpt>
      <trkpt lat="47.79736" lon="-2.59833">
        <ele>79</ele>
        <time>2007-10-07T09:55:28Z</time>
      </trkpt>
      <trkpt lat="47.79749" lon="-2.59833">
        <ele>78</ele>
        <time>2007-10-07T09:55:32Z</time>
      </trkpt>
      <trkpt lat="47.7976" lon="-2.59841">
        <ele>76</ele>
        <time>2007-10-07T09:55:36Z</time>
      </trkpt>
      <trkpt lat="47.79766" lon="-2.59853">
        <ele>75</ele>
        <time>2007-10-07T09:55:40Z</time>
      </trkpt>
      <trkpt lat="47.7978" lon="-2.59852">
        <ele>71</ele>
        <time>2007-10-07T09:55:45Z</time>
      </trkpt>
      <trkpt lat="47.79784" lon="-2.5985">
        <ele>70</ele>
        <time>2007-10-07T09:55:46Z</time>
      </trkpt>
      <trkpt lat="47.79793" lon="-2.59837">
        <ele>70</ele>
        <time>2007-10-07T09:55:50Z</time>
      </trkpt>
      <trkpt lat="47.79793" lon="-2.59829">
        <ele>70</ele>
        <time>2007-10-07T09:55:53Z</time>
      </trkpt>
      <trkpt lat="47.79796" lon="-2.59821">
        <ele>70</ele>
        <time>2007-10-07T09:55:58Z</time>
      </trkpt>
      <trkpt lat="47.79796" lon="-2.5982">
        <ele>71</ele>
        <time>2007-10-07T09:56:05Z</time>
      </trkpt>
      <trkpt lat="47.798" lon="-2.59812">
        <ele>73</ele>
        <time>2007-10-07T09:56:11Z</time>
      </trkpt>
      <trkpt lat="47.798" lon="-2.59811">
        <ele>73</ele>
        <time>2007-10-07T09:56:12Z</time>
      </trkpt>
      <trkpt lat="47.79801" lon="-2.59811">
        <ele>72</ele>
        <time>2007-10-07T09:56:15Z</time>
      </trkpt>
      <trkpt lat="47.79801" lon="-2.59811">
        <ele>73</ele>
        <time>2007-10-07T09:56:16Z</time>
      </trkpt>
      <trkpt lat="47.79802" lon="-2.59811">
        <ele>74</ele>
        <time>2007-10-07T09:56:19Z</time>
      </trkpt>
      <trkpt lat="47.79802" lon="-2.59811">
        <ele>74</ele>
        <time>2007-10-07T09:56:20Z</time>
      </trkpt>
      <trkpt lat="47.79803" lon="-2.59813">
        <ele>73</ele>
        <time>2007-10-07T09:56:21Z</time>
      </trkpt>
      <trkpt lat="47.79808" lon="-2.59819">
        <ele>72</ele>
        <time>2007-10-07T09:56:26Z</time>
      </trkpt>
      <trkpt lat="47.79809" lon="-2.59821">
        <ele>73</ele>
        <time>2007-10-07T09:56:28Z</time>
      </trkpt>
      <trkpt lat="47.7981" lon="-2.59821">
        <ele>73</ele>
        <time>2007-10-07T09:56:31Z</time>
      </trkpt>
      <trkpt lat="47.79812" lon="-2.59822">
        <ele>73</ele>
        <time>2007-10-07T09:56:34Z</time>
      </trkpt>
      <trkpt lat="47.79814" lon="-2.59822">
        <ele>73</ele>
        <time>2007-10-07T09:56:36Z</time>
      </trkpt>
      <trkpt lat="47.79816" lon="-2.59823">
        <ele>74</ele>
        <time>2007-10-07T09:56:43Z</time>
      </trkpt>
      <trkpt lat="47.79819" lon="-2.59825">
        <ele>74</ele>
        <time>2007-10-07T09:56:44Z</time>
      </trkpt>
      <trkpt lat="47.79828" lon="-2.59834">
        <ele>74</ele>
        <time>2007-10-07T09:56:51Z</time>
      </trkpt>
      <trkpt lat="47.79833" lon="-2.59841">
        <ele>73</ele>
        <time>2007-10-07T09:56:53Z</time>
      </trkpt>
      <trkpt lat="47.79842" lon="-2.59841">
        <ele>71</ele>
        <time>2007-10-07T09:56:56Z</time>
      </trkpt>
      <trkpt lat="47.79853" lon="-2.59843">
        <ele>69</ele>
        <time>2007-10-07T09:57:00Z</time>
      </trkpt>
      <trkpt lat="47.79866" lon="-2.59845">
        <ele>67</ele>
        <time>2007-10-07T09:57:05Z</time>
      </trkpt>
      <trkpt lat="47.79875" lon="-2.59845">
        <ele>68</ele>
        <time>2007-10-07T09:57:10Z</time>
      </trkpt>
      <trkpt lat="47.79889" lon="-2.59842">
        <ele>69</ele>
        <time>2007-10-07T09:57:16Z</time>
      </trkpt>
      <trkpt lat="47.79902" lon="-2.59836">
        <ele>69</ele>
        <time>2007-10-07T09:57:22Z</time>
      </trkpt>
      <trkpt lat="47.79915" lon="-2.5983">
        <ele>71</ele>
        <time>2007-10-07T09:57:28Z</time>
      </trkpt>
      <trkpt lat="47.7992" lon="-2.59828">
        <ele>71</ele>
        <time>2007-10-07T09:57:30Z</time>
      </trkpt>
      <trkpt lat="47.79928" lon="-2.59817">
        <ele>73</ele>
        <time>2007-10-07T09:57:36Z</time>
      </trkpt>
      <trkpt lat="47.79939" lon="-2.59818">
        <ele>74</ele>
        <time>2007-10-07T09:57:43Z</time>
      </trkpt>
      <trkpt lat="47.79949" lon="-2.59822">
        <ele>75</ele>
        <time>2007-10-07T09:57:50Z</time>
      </trkpt>
      <trkpt lat="47.79955" lon="-2.5982">
        <ele>75</ele>
        <time>2007-10-07T09:57:55Z</time>
      </trkpt>
      <trkpt lat="47.79963" lon="-2.59817">
        <ele>76</ele>
        <time>2007-10-07T09:58:01Z</time>
      </trkpt>
      <trkpt lat="47.79971" lon="-2.59812">
        <ele>78</ele>
        <time>2007-10-07T09:58:07Z</time>
      </trkpt>
      <trkpt lat="47.7998" lon="-2.59808">
        <ele>78</ele>
        <time>2007-10-07T09:58:13Z</time>
      </trkpt>
      <trkpt lat="47.79988" lon="-2.59809">
        <ele>78</ele>
        <time>2007-10-07T09:58:19Z</time>
      </trkpt>
      <trkpt lat="47.79997" lon="-2.59814">
        <ele>79</ele>
        <time>2007-10-07T09:58:25Z</time>
      </trkpt>
      <trkpt lat="47.80005" lon="-2.59822">
        <ele>79</ele>
        <time>2007-10-07T09:58:30Z</time>
      </trkpt>
      <trkpt lat="47.80015" lon="-2.59827">
        <ele>80</ele>
        <time>2007-10-07T09:58:36Z</time>
      </trkpt>
      <trkpt lat="47.8003" lon="-2.5983">
        <ele>81</ele>
        <time>2007-10-07T09:58:42Z</time>
      </trkpt>
      <trkpt lat="47.80032" lon="-2.5983">
        <ele>81</ele>
        <time>2007-10-07T09:58:43Z</time>
      </trkpt>
      <trkpt lat="47.80036" lon="-2.5983">
        <ele>81</ele>
        <time>2007-10-07T09:58:45Z</time>
      </trkpt>
      <trkpt lat="47.80046" lon="-2.5983">
        <ele>81</ele>
        <time>2007-10-07T09:58:50Z</time>
      </trkpt>
      <trkpt lat="47.80051" lon="-2.59829">
        <ele>81</ele>
        <time>2007-10-07T09:58:52Z</time>
      </trkpt>
      <trkpt lat="47.80063" lon="-2.59827">
        <ele>81</ele>
        <time>2007-10-07T09:58:59Z</time>
      </trkpt>
      <trkpt lat="47.80074" lon="-2.59821">
        <ele>82</ele>
        <time>2007-10-07T09:59:05Z</time>
      </trkpt>
      <trkpt lat="47.80087" lon="-2.59814">
        <ele>81</ele>
        <time>2007-10-07T09:59:10Z</time>
      </trkpt>
      <trkpt lat="47.80101" lon="-2.59806">
        <ele>83</ele>
        <time>2007-10-07T09:59:17Z</time>
      </trkpt>
      <trkpt lat="47.80109" lon="-2.59799">
        <ele>84</ele>
        <time>2007-10-07T09:59:22Z</time>
      </trkpt>
      <trkpt lat="47.80115" lon="-2.59784">
        <ele>85</ele>
        <time>2007-10-07T09:59:30Z</time>
      </trkpt>
      <trkpt lat="47.80118" lon="-2.59775">
        <ele>85</ele>
        <time>2007-10-07T09:59:35Z</time>
      </trkpt>
      <trkpt lat="47.80127" lon="-2.59775">
        <ele>87</ele>
        <time>2007-10-07T09:59:40Z</time>
      </trkpt>
      <trkpt lat="47.80134" lon="-2.59774">
        <ele>87</ele>
        <time>2007-10-07T09:59:44Z</time>
      </trkpt>
      <trkpt lat="47.80141" lon="-2.59773">
        <ele>87</ele>
        <time>2007-10-07T09:59:49Z</time>
      </trkpt>
      <trkpt lat="47.80153" lon="-2.59772">
        <ele>87</ele>
        <time>2007-10-07T09:59:55Z</time>
      </trkpt>
      <trkpt lat="47.80165" lon="-2.59773">
        <ele>87</ele>
        <time>2007-10-07T10:00:01Z</time>
      </trkpt>
      <trkpt lat="47.80167" lon="-2.59772">
        <ele>88</ele>
        <time>2007-10-07T10:00:02Z</time>
      </trkpt>
      <trkpt lat="47.80172" lon="-2.59772">
        <ele>87</ele>
        <time>2007-10-07T10:00:05Z</time>
      </trkpt>
      <trkpt lat="47.80177" lon="-2.59784">
        <ele>86</ele>
        <time>2007-10-07T10:00:09Z</time>
      </trkpt>
      <trkpt lat="47.80179" lon="-2.59788">
        <ele>85</ele>
        <time>2007-10-07T10:00:10Z</time>
      </trkpt>
      <trkpt lat="47.80183" lon="-2.59805">
        <ele>84</ele>
        <time>2007-10-07T10:00:14Z</time>
      </trkpt>
      <trkpt lat="47.80188" lon="-2.59825">
        <ele>83</ele>
        <time>2007-10-07T10:00:17Z</time>
      </trkpt>
      <trkpt lat="47.80192" lon="-2.5984">
        <ele>81</ele>
        <time>2007-10-07T10:00:20Z</time>
      </trkpt>
      <trkpt lat="47.80194" lon="-2.59854">
        <ele>78</ele>
        <time>2007-10-07T10:00:23Z</time>
      </trkpt>
      <trkpt lat="47.80193" lon="-2.59857">
        <ele>78</ele>
        <time>2007-10-07T10:00:24Z</time>
      </trkpt>
      <trkpt lat="47.80196" lon="-2.59864">
        <ele>77</ele>
        <time>2007-10-07T10:00:27Z</time>
      </trkpt>
      <trkpt lat="47.80203" lon="-2.59863">
        <ele>78</ele>
        <time>2007-10-07T10:00:31Z</time>
      </trkpt>
      <trkpt lat="47.80209" lon="-2.59861">
        <ele>78</ele>
        <time>2007-10-07T10:00:35Z</time>
      </trkpt>
      <trkpt lat="47.80212" lon="-2.59854">
        <ele>79</ele>
        <time>2007-10-07T10:00:40Z</time>
      </trkpt>
      <trkpt lat="47.80217" lon="-2.59847">
        <ele>80</ele>
        <time>2007-10-07T10:00:45Z</time>
      </trkpt>
      <trkpt lat="47.80219" lon="-2.59837">
        <ele>81</ele>
        <time>2007-10-07T10:00:52Z</time>
      </trkpt>
      <trkpt lat="47.80219" lon="-2.59837">
        <ele>82</ele>
        <time>2007-10-07T10:00:54Z</time>
      </trkpt>
      <trkpt lat="47.8022" lon="-2.59835">
        <ele>82</ele>
        <time>2007-10-07T10:01:02Z</time>
      </trkpt>
      <trkpt lat="47.80222" lon="-2.59832">
        <ele>82</ele>
        <time>2007-10-07T10:01:05Z</time>
      </trkpt>
      <trkpt lat="47.80225" lon="-2.59832">
        <ele>81</ele>
        <time>2007-10-07T10:01:07Z</time>
      </trkpt>
      <trkpt lat="47.80241" lon="-2.59835">
        <ele>80</ele>
        <time>2007-10-07T10:01:12Z</time>
      </trkpt>
      <trkpt lat="47.80259" lon="-2.59831">
        <ele>81</ele>
        <time>2007-10-07T10:01:18Z</time>
      </trkpt>
      <trkpt lat="47.80271" lon="-2.59819">
        <ele>82</ele>
        <time>2007-10-07T10:01:24Z</time>
      </trkpt>
      <trkpt lat="47.80278" lon="-2.59806">
        <ele>81</ele>
        <time>2007-10-07T10:01:29Z</time>
      </trkpt>
      <trkpt lat="47.80286" lon="-2.59791">
        <ele>82</ele>
        <time>2007-10-07T10:01:35Z</time>
      </trkpt>
      <trkpt lat="47.80287" lon="-2.59789">
        <ele>82</ele>
        <time>2007-10-07T10:01:36Z</time>
      </trkpt>
      <trkpt lat="47.80291" lon="-2.59777">
        <ele>82</ele>
        <time>2007-10-07T10:01:41Z</time>
      </trkpt>
      <trkpt lat="47.80291" lon="-2.59766">
        <ele>83</ele>
        <time>2007-10-07T10:01:46Z</time>
      </trkpt>
      <trkpt lat="47.80282" lon="-2.59758">
        <ele>83</ele>
        <time>2007-10-07T10:01:52Z</time>
      </trkpt>
      <trkpt lat="47.80274" lon="-2.59748">
        <ele>83</ele>
        <time>2007-10-07T10:01:58Z</time>
      </trkpt>
      <trkpt lat="47.80273" lon="-2.59739">
        <ele>83</ele>
        <time>2007-10-07T10:02:02Z</time>
      </trkpt>
      <trkpt lat="47.80269" lon="-2.59726">
        <ele>84</ele>
        <time>2007-10-07T10:02:09Z</time>
      </trkpt>
      <trkpt lat="47.80263" lon="-2.59712">
        <ele>86</ele>
        <time>2007-10-07T10:02:16Z</time>
      </trkpt>
      <trkpt lat="47.80256" lon="-2.59699">
        <ele>87</ele>
        <time>2007-10-07T10:02:22Z</time>
      </trkpt>
      <trkpt lat="47.80248" lon="-2.59683">
        <ele>88</ele>
        <time>2007-10-07T10:02:29Z</time>
      </trkpt>
      <trkpt lat="47.80242" lon="-2.59674">
        <ele>88</ele>
        <time>2007-10-07T10:02:32Z</time>
      </trkpt>
      <trkpt lat="47.80238" lon="-2.59661">
        <ele>90</ele>
        <time>2007-10-07T10:02:38Z</time>
      </trkpt>
      <trkpt lat="47.80237" lon="-2.59651">
        <ele>89</ele>
        <time>2007-10-07T10:02:43Z</time>
      </trkpt>
      <trkpt lat="47.80238" lon="-2.59647">
        <ele>89</ele>
        <time>2007-10-07T10:02:45Z</time>
      </trkpt>
      <trkpt lat="47.80241" lon="-2.5963">
        <ele>88</ele>
        <time>2007-10-07T10:02:52Z</time>
      </trkpt>
      <trkpt lat="47.80244" lon="-2.59623">
        <ele>88</ele>
        <time>2007-10-07T10:02:54Z</time>
      </trkpt>
      <trkpt lat="47.80255" lon="-2.59586">
        <ele>87</ele>
        <time>2007-10-07T10:03:01Z</time>
      </trkpt>
      <trkpt lat="47.80261" lon="-2.5957">
        <ele>86</ele>
        <time>2007-10-07T10:03:04Z</time>
      </trkpt>
      <trkpt lat="47.80257" lon="-2.59556">
        <ele>86</ele>
        <time>2007-10-07T10:03:08Z</time>
      </trkpt>
      <trkpt lat="47.8025" lon="-2.59553">
        <ele>87</ele>
        <time>2007-10-07T10:03:12Z</time>
      </trkpt>
      <trkpt lat="47.80241" lon="-2.59547">
        <ele>89</ele>
        <time>2007-10-07T10:03:19Z</time>
      </trkpt>
      <trkpt lat="47.80232" lon="-2.59542">
        <ele>91</ele>
        <time>2007-10-07T10:03:26Z</time>
      </trkpt>
      <trkpt lat="47.80223" lon="-2.5954">
        <ele>93</ele>
        <time>2007-10-07T10:03:33Z</time>
      </trkpt>
      <trkpt lat="47.80213" lon="-2.59537">
        <ele>93</ele>
        <time>2007-10-07T10:03:39Z</time>
      </trkpt>
      <trkpt lat="47.80201" lon="-2.59532">
        <ele>93</ele>
        <time>2007-10-07T10:03:45Z</time>
      </trkpt>
      <trkpt lat="47.80193" lon="-2.59523">
        <ele>93</ele>
        <time>2007-10-07T10:03:50Z</time>
      </trkpt>
      <trkpt lat="47.80193" lon="-2.59508">
        <ele>93</ele>
        <time>2007-10-07T10:03:54Z</time>
      </trkpt>
      <trkpt lat="47.80197" lon="-2.59471">
        <ele>92</ele>
        <time>2007-10-07T10:04:02Z</time>
      </trkpt>
      <trkpt lat="47.80199" lon="-2.59429">
        <ele>91</ele>
        <time>2007-10-07T10:04:09Z</time>
      </trkpt>
      <trkpt lat="47.80204" lon="-2.59402">
        <ele>90</ele>
        <time>2007-10-07T10:04:13Z</time>
      </trkpt>
      <trkpt lat="47.80206" lon="-2.59395">
        <ele>90</ele>
        <time>2007-10-07T10:04:14Z</time>
      </trkpt>
      <trkpt lat="47.80208" lon="-2.59389">
        <ele>90</ele>
        <time>2007-10-07T10:04:15Z</time>
      </trkpt>
      <trkpt lat="47.80215" lon="-2.5937">
        <ele>88</ele>
        <time>2007-10-07T10:04:19Z</time>
      </trkpt>
      <trkpt lat="47.80222" lon="-2.59358">
        <ele>86</ele>
        <time>2007-10-07T10:04:22Z</time>
      </trkpt>
      <trkpt lat="47.80226" lon="-2.59322">
        <ele>83</ele>
        <time>2007-10-07T10:04:27Z</time>
      </trkpt>
      <trkpt lat="47.80234" lon="-2.5929">
        <ele>80</ele>
        <time>2007-10-07T10:04:31Z</time>
      </trkpt>
      <trkpt lat="47.80245" lon="-2.59262">
        <ele>78</ele>
        <time>2007-10-07T10:04:34Z</time>
      </trkpt>
      <trkpt lat="47.80247" lon="-2.59245">
        <ele>77</ele>
        <time>2007-10-07T10:04:36Z</time>
      </trkpt>
      <trkpt lat="47.80249" lon="-2.59226">
        <ele>75</ele>
        <time>2007-10-07T10:04:39Z</time>
      </trkpt>
      <trkpt lat="47.80245" lon="-2.59194">
        <ele>72</ele>
        <time>2007-10-07T10:04:43Z</time>
      </trkpt>
      <trkpt lat="47.80245" lon="-2.59184">
        <ele>72</ele>
        <time>2007-10-07T10:04:44Z</time>
      </trkpt>
      <trkpt lat="47.80245" lon="-2.59166">
        <ele>71</ele>
        <time>2007-10-07T10:04:46Z</time>
      </trkpt>
      <trkpt lat="47.80239" lon="-2.59144">
        <ele>70</ele>
        <time>2007-10-07T10:04:50Z</time>
      </trkpt>
      <trkpt lat="47.8023" lon="-2.59137">
        <ele>70</ele>
        <time>2007-10-07T10:04:55Z</time>
      </trkpt>
      <trkpt lat="47.80229" lon="-2.59136">
        <ele>70</ele>
        <time>2007-10-07T10:04:57Z</time>
      </trkpt>
      <trkpt lat="47.80229" lon="-2.59135">
        <ele>70</ele>
        <time>2007-10-07T10:05:00Z</time>
      </trkpt>
      <trkpt lat="47.80228" lon="-2.59133">
        <ele>70</ele>
        <time>2007-10-07T10:05:01Z</time>
      </trkpt>
      <trkpt lat="47.80227" lon="-2.59133">
        <ele>70</ele>
        <time>2007-10-07T10:05:05Z</time>
      </trkpt>
      <trkpt lat="47.80227" lon="-2.59133">
        <ele>70</ele>
        <time>2007-10-07T10:05:06Z</time>
      </trkpt>
      <trkpt lat="47.80223" lon="-2.5913">
        <ele>70</ele>
        <time>2007-10-07T10:05:11Z</time>
      </trkpt>
      <trkpt lat="47.80222" lon="-2.59129">
        <ele>71</ele>
        <time>2007-10-07T10:05:14Z</time>
      </trkpt>
      <trkpt lat="47.80215" lon="-2.59125">
        <ele>71</ele>
        <time>2007-10-07T10:05:19Z</time>
      </trkpt>
      <trkpt lat="47.80214" lon="-2.59124">
        <ele>71</ele>
        <time>2007-10-07T10:05:20Z</time>
      </trkpt>
      <trkpt lat="47.80213" lon="-2.59124">
        <ele>71</ele>
        <time>2007-10-07T10:05:23Z</time>
      </trkpt>
      <trkpt lat="47.80209" lon="-2.59122">
        <ele>72</ele>
        <time>2007-10-07T10:05:25Z</time>
      </trkpt>
      <trkpt lat="47.80207" lon="-2.5912">
        <ele>72</ele>
        <time>2007-10-07T10:05:27Z</time>
      </trkpt>
      <trkpt lat="47.80205" lon="-2.59112">
        <ele>73</ele>
        <time>2007-10-07T10:05:34Z</time>
      </trkpt>
      <trkpt lat="47.80203" lon="-2.59105">
        <ele>74</ele>
        <time>2007-10-07T10:05:39Z</time>
      </trkpt>
      <trkpt lat="47.80197" lon="-2.59093">
        <ele>75</ele>
        <time>2007-10-07T10:05:47Z</time>
      </trkpt>
      <trkpt lat="47.80191" lon="-2.59077">
        <ele>76</ele>
        <time>2007-10-07T10:05:57Z</time>
      </trkpt>
      <trkpt lat="47.80188" lon="-2.59067">
        <ele>78</ele>
        <time>2007-10-07T10:06:04Z</time>
      </trkpt>
      <trkpt lat="47.80187" lon="-2.59058">
        <ele>78</ele>
        <time>2007-10-07T10:06:11Z</time>
      </trkpt>
      <trkpt lat="47.80186" lon="-2.59052">
        <ele>79</ele>
        <time>2007-10-07T10:06:16Z</time>
      </trkpt>
      <trkpt lat="47.80183" lon="-2.5904">
        <ele>80</ele>
        <time>2007-10-07T10:06:25Z</time>
      </trkpt>
      <trkpt lat="47.80183" lon="-2.5904">
        <ele>81</ele>
        <time>2007-10-07T10:06:26Z</time>
      </trkpt>
      <trkpt lat="47.80183" lon="-2.59039">
        <ele>80</ele>
        <time>2007-10-07T10:06:31Z</time>
      </trkpt>
      <trkpt lat="47.80183" lon="-2.59025">
        <ele>81</ele>
        <time>2007-10-07T10:06:37Z</time>
      </trkpt>
      <trkpt lat="47.80181" lon="-2.59009">
        <ele>82</ele>
        <time>2007-10-07T10:06:43Z</time>
      </trkpt>
      <trkpt lat="47.80176" lon="-2.58986">
        <ele>83</ele>
        <time>2007-10-07T10:06:51Z</time>
      </trkpt>
      <trkpt lat="47.80169" lon="-2.58967">
        <ele>84</ele>
        <time>2007-10-07T10:06:58Z</time>
      </trkpt>
      <trkpt lat="47.80166" lon="-2.58952">
        <ele>85</ele>
        <time>2007-10-07T10:07:05Z</time>
      </trkpt>
      <trkpt lat="47.80162" lon="-2.58935">
        <ele>86</ele>
        <time>2007-10-07T10:07:12Z</time>
      </trkpt>
      <trkpt lat="47.80153" lon="-2.5892">
        <ele>87</ele>
        <time>2007-10-07T10:07:20Z</time>
      </trkpt>
      <trkpt lat="47.80142" lon="-2.58905">
        <ele>87</ele>
        <time>2007-10-07T10:07:28Z</time>
      </trkpt>
      <trkpt lat="47.80138" lon="-2.5889">
        <ele>87</ele>
        <time>2007-10-07T10:07:34Z</time>
      </trkpt>
      <trkpt lat="47.80131" lon="-2.5886">
        <ele>87</ele>
        <time>2007-10-07T10:07:41Z</time>
      </trkpt>
      <trkpt lat="47.80127" lon="-2.58834">
        <ele>87</ele>
        <time>2007-10-07T10:07:46Z</time>
      </trkpt>
      <trkpt lat="47.80119" lon="-2.58793">
        <ele>84</ele>
        <time>2007-10-07T10:07:52Z</time>
      </trkpt>
      <trkpt lat="47.80112" lon="-2.5875">
        <ele>82</ele>
        <time>2007-10-07T10:07:57Z</time>
      </trkpt>
      <trkpt lat="47.8011" lon="-2.58724">
        <ele>81</ele>
        <time>2007-10-07T10:08:01Z</time>
      </trkpt>
      <trkpt lat="47.80114" lon="-2.5871">
        <ele>79</ele>
        <time>2007-10-07T10:08:04Z</time>
      </trkpt>
      <trkpt lat="47.8014" lon="-2.58719">
        <ele>78</ele>
        <time>2007-10-07T10:08:10Z</time>
      </trkpt>
      <trkpt lat="47.80144" lon="-2.58721">
        <ele>78</ele>
        <time>2007-10-07T10:08:11Z</time>
      </trkpt>
      <trkpt lat="47.80155" lon="-2.58714">
        <ele>76</ele>
        <time>2007-10-07T10:08:15Z</time>
      </trkpt>
      <trkpt lat="47.80156" lon="-2.58706">
        <ele>76</ele>
        <time>2007-10-07T10:08:17Z</time>
      </trkpt>
      <trkpt lat="47.80149" lon="-2.58661">
        <ele>72</ele>
        <time>2007-10-07T10:08:23Z</time>
      </trkpt>
      <trkpt lat="47.80146" lon="-2.58643">
        <ele>71</ele>
        <time>2007-10-07T10:08:25Z</time>
      </trkpt>
      <trkpt lat="47.80134" lon="-2.586">
        <ele>68</ele>
        <time>2007-10-07T10:08:29Z</time>
      </trkpt>
      <trkpt lat="47.80121" lon="-2.58562">
        <ele>67</ele>
        <time>2007-10-07T10:08:33Z</time>
      </trkpt>
      <trkpt lat="47.80108" lon="-2.58552">
        <ele>66</ele>
        <time>2007-10-07T10:08:36Z</time>
      </trkpt>
      <trkpt lat="47.80095" lon="-2.58553">
        <ele>66</ele>
        <time>2007-10-07T10:08:39Z</time>
      </trkpt>
      <trkpt lat="47.80086" lon="-2.58565">
        <ele>67</ele>
        <time>2007-10-07T10:08:44Z</time>
      </trkpt>
      <trkpt lat="47.80082" lon="-2.5858">
        <ele>67</ele>
        <time>2007-10-07T10:08:50Z</time>
      </trkpt>
      <trkpt lat="47.80074" lon="-2.58594">
        <ele>68</ele>
        <time>2007-10-07T10:08:56Z</time>
      </trkpt>
      <trkpt lat="47.80068" lon="-2.58603">
        <ele>69</ele>
        <time>2007-10-07T10:09:00Z</time>
      </trkpt>
      <trkpt lat="47.80058" lon="-2.58609">
        <ele>69</ele>
        <time>2007-10-07T10:09:07Z</time>
      </trkpt>
      <trkpt lat="47.80057" lon="-2.58608">
        <ele>69</ele>
        <time>2007-10-07T10:09:08Z</time>
      </trkpt>
      <trkpt lat="47.80057" lon="-2.58593">
        <ele>67</ele>
        <time>2007-10-07T10:09:11Z</time>
      </trkpt>
      <trkpt lat="47.80059" lon="-2.58575">
        <ele>66</ele>
        <time>2007-10-07T10:09:14Z</time>
      </trkpt>
      <trkpt lat="47.80051" lon="-2.58554">
        <ele>67</ele>
        <time>2007-10-07T10:09:19Z</time>
      </trkpt>
      <trkpt lat="47.80046" lon="-2.58541">
        <ele>69</ele>
        <time>2007-10-07T10:09:25Z</time>
      </trkpt>
      <trkpt lat="47.80041" lon="-2.58527">
        <ele>70</ele>
        <time>2007-10-07T10:09:31Z</time>
      </trkpt>
      <trkpt lat="47.80038" lon="-2.58511">
        <ele>72</ele>
        <time>2007-10-07T10:09:38Z</time>
      </trkpt>
      <trkpt lat="47.80038" lon="-2.58501">
        <ele>73</ele>
        <time>2007-10-07T10:09:43Z</time>
      </trkpt>
      <trkpt lat="47.80036" lon="-2.58483">
        <ele>74</ele>
        <time>2007-10-07T10:09:51Z</time>
      </trkpt>
      <trkpt lat="47.80033" lon="-2.58467">
        <ele>75</ele>
        <time>2007-10-07T10:09:58Z</time>
      </trkpt>
      <trkpt lat="47.80031" lon="-2.58465">
        <ele>75</ele>
        <time>2007-10-07T10:10:00Z</time>
      </trkpt>
      <trkpt lat="47.80021" lon="-2.58468">
        <ele>77</ele>
        <time>2007-10-07T10:10:06Z</time>
      </trkpt>
      <trkpt lat="47.80011" lon="-2.58471">
        <ele>78</ele>
        <time>2007-10-07T10:10:13Z</time>
      </trkpt>
      <trkpt lat="47.80001" lon="-2.58474">
        <ele>79</ele>
        <time>2007-10-07T10:10:20Z</time>
      </trkpt>
      <trkpt lat="47.79994" lon="-2.58473">
        <ele>80</ele>
        <time>2007-10-07T10:10:26Z</time>
      </trkpt>
      <trkpt lat="47.79984" lon="-2.58472">
        <ele>81</ele>
        <time>2007-10-07T10:10:33Z</time>
      </trkpt>
      <trkpt lat="47.79971" lon="-2.58465">
        <ele>81</ele>
        <time>2007-10-07T10:10:41Z</time>
      </trkpt>
      <trkpt lat="47.79963" lon="-2.58458">
        <ele>81</ele>
        <time>2007-10-07T10:10:46Z</time>
      </trkpt>
      <trkpt lat="47.79949" lon="-2.5845">
        <ele>81</ele>
        <time>2007-10-07T10:10:51Z</time>
      </trkpt>
      <trkpt lat="47.79935" lon="-2.58449">
        <ele>80</ele>
        <time>2007-10-07T10:10:56Z</time>
      </trkpt>
      <trkpt lat="47.79922" lon="-2.58449">
        <ele>81</ele>
        <time>2007-10-07T10:11:01Z</time>
      </trkpt>
      <trkpt lat="47.79903" lon="-2.58449">
        <ele>82</ele>
        <time>2007-10-07T10:11:09Z</time>
      </trkpt>
      <trkpt lat="47.79888" lon="-2.5845">
        <ele>83</ele>
        <time>2007-10-07T10:11:15Z</time>
      </trkpt>
      <trkpt lat="47.79877" lon="-2.58454">
        <ele>84</ele>
        <time>2007-10-07T10:11:20Z</time>
      </trkpt>
      <trkpt lat="47.79863" lon="-2.58459">
        <ele>85</ele>
        <time>2007-10-07T10:11:27Z</time>
      </trkpt>
      <trkpt lat="47.79845" lon="-2.58472">
        <ele>86</ele>
        <time>2007-10-07T10:11:35Z</time>
      </trkpt>
      <trkpt lat="47.79834" lon="-2.5848">
        <ele>86</ele>
        <time>2007-10-07T10:11:41Z</time>
      </trkpt>
      <trkpt lat="47.7983" lon="-2.58493">
        <ele>86</ele>
        <time>2007-10-07T10:11:46Z</time>
      </trkpt>
      <trkpt lat="47.79826" lon="-2.58504">
        <ele>87</ele>
        <time>2007-10-07T10:11:52Z</time>
      </trkpt>
      <trkpt lat="47.79828" lon="-2.58517">
        <ele>88</ele>
        <time>2007-10-07T10:11:56Z</time>
      </trkpt>
      <trkpt lat="47.7983" lon="-2.58541">
        <ele>88</ele>
        <time>2007-10-07T10:12:04Z</time>
      </trkpt>
      <trkpt lat="47.79833" lon="-2.58567">
        <ele>89</ele>
        <time>2007-10-07T10:12:12Z</time>
      </trkpt>
      <trkpt lat="47.79836" lon="-2.58592">
        <ele>89</ele>
        <time>2007-10-07T10:12:19Z</time>
      </trkpt>
      <trkpt lat="47.7984" lon="-2.5862">
        <ele>89</ele>
        <time>2007-10-07T10:12:26Z</time>
      </trkpt>
      <trkpt lat="47.79845" lon="-2.58652">
        <ele>89</ele>
        <time>2007-10-07T10:12:34Z</time>
      </trkpt>
      <trkpt lat="47.79847" lon="-2.58662">
        <ele>89</ele>
        <time>2007-10-07T10:12:36Z</time>
      </trkpt>
      <trkpt lat="47.79841" lon="-2.58669">
        <ele>89</ele>
        <time>2007-10-07T10:12:40Z</time>
      </trkpt>
      <trkpt lat="47.79836" lon="-2.58668">
        <ele>89</ele>
        <time>2007-10-07T10:12:43Z</time>
      </trkpt>
      <trkpt lat="47.79834" lon="-2.5867">
        <ele>90</ele>
        <time>2007-10-07T10:12:45Z</time>
      </trkpt>
      <trkpt lat="47.79822" lon="-2.58667">
        <ele>91</ele>
        <time>2007-10-07T10:12:52Z</time>
      </trkpt>
      <trkpt lat="47.79809" lon="-2.58663">
        <ele>91</ele>
        <time>2007-10-07T10:12:57Z</time>
      </trkpt>
      <trkpt lat="47.79792" lon="-2.58662">
        <ele>91</ele>
        <time>2007-10-07T10:13:03Z</time>
      </trkpt>
      <trkpt lat="47.79779" lon="-2.58674">
        <ele>92</ele>
        <time>2007-10-07T10:13:09Z</time>
      </trkpt>
      <trkpt lat="47.79767" lon="-2.58694">
        <ele>93</ele>
        <time>2007-10-07T10:13:16Z</time>
      </trkpt>
      <trkpt lat="47.79767" lon="-2.58706">
        <ele>94</ele>
        <time>2007-10-07T10:13:21Z</time>
      </trkpt>
      <trkpt lat="47.7976" lon="-2.58713">
        <ele>94</ele>
        <time>2007-10-07T10:13:26Z</time>
      </trkpt>
      <trkpt lat="47.79749" lon="-2.58709">
        <ele>94</ele>
        <time>2007-10-07T10:13:33Z</time>
      </trkpt>
      <trkpt lat="47.79744" lon="-2.58705">
        <ele>94</ele>
        <time>2007-10-07T10:13:35Z</time>
      </trkpt>
      <trkpt lat="47.79739" lon="-2.58675">
        <ele>93</ele>
        <time>2007-10-07T10:13:40Z</time>
      </trkpt>
      <trkpt lat="47.79731" lon="-2.58654">
        <ele>92</ele>
        <time>2007-10-07T10:13:44Z</time>
      </trkpt>
      <trkpt lat="47.79723" lon="-2.5865">
        <ele>92</ele>
        <time>2007-10-07T10:13:46Z</time>
      </trkpt>
      <trkpt lat="47.79709" lon="-2.58648">
        <ele>91</ele>
        <time>2007-10-07T10:13:49Z</time>
      </trkpt>
      <trkpt lat="47.79684" lon="-2.58636">
        <ele>92</ele>
        <time>2007-10-07T10:13:55Z</time>
      </trkpt>
      <trkpt lat="47.79674" lon="-2.5863">
        <ele>91</ele>
        <time>2007-10-07T10:13:58Z</time>
      </trkpt>
      <trkpt lat="47.79652" lon="-2.58619">
        <ele>91</ele>
        <time>2007-10-07T10:14:04Z</time>
      </trkpt>
      <trkpt lat="47.79628" lon="-2.58603">
        <ele>91</ele>
        <time>2007-10-07T10:14:11Z</time>
      </trkpt>
      <trkpt lat="47.79614" lon="-2.58597">
        <ele>92</ele>
        <time>2007-10-07T10:14:15Z</time>
      </trkpt>
      <trkpt lat="47.79589" lon="-2.58611">
        <ele>91</ele>
        <time>2007-10-07T10:14:22Z</time>
      </trkpt>
      <trkpt lat="47.79567" lon="-2.58626">
        <ele>92</ele>
        <time>2007-10-07T10:14:29Z</time>
      </trkpt>
      <trkpt lat="47.7955" lon="-2.58638">
        <ele>92</ele>
        <time>2007-10-07T10:14:35Z</time>
      </trkpt>
      <trkpt lat="47.79526" lon="-2.58652">
        <ele>92</ele>
        <time>2007-10-07T10:14:42Z</time>
      </trkpt>
      <trkpt lat="47.79509" lon="-2.58653">
        <ele>93</ele>
        <time>2007-10-07T10:14:47Z</time>
      </trkpt>
      <trkpt lat="47.79487" lon="-2.58655">
        <ele>93</ele>
        <time>2007-10-07T10:14:53Z</time>
      </trkpt>
      <trkpt lat="47.79471" lon="-2.58652">
        <ele>94</ele>
        <time>2007-10-07T10:14:59Z</time>
      </trkpt>
      <trkpt lat="47.79458" lon="-2.58649">
        <ele>94</ele>
        <time>2007-10-07T10:15:04Z</time>
      </trkpt>
      <trkpt lat="47.79456" lon="-2.58638">
        <ele>94</ele>
        <time>2007-10-07T10:15:09Z</time>
      </trkpt>
      <trkpt lat="47.7946" lon="-2.58636">
        <ele>94</ele>
        <time>2007-10-07T10:15:11Z</time>
      </trkpt>
      <trkpt lat="47.79476" lon="-2.5863">
        <ele>94</ele>
        <time>2007-10-07T10:15:16Z</time>
      </trkpt>
      <trkpt lat="47.7948" lon="-2.58612">
        <ele>94</ele>
        <time>2007-10-07T10:15:20Z</time>
      </trkpt>
      <trkpt lat="47.79481" lon="-2.58579">
        <ele>94</ele>
        <time>2007-10-07T10:15:28Z</time>
      </trkpt>
      <trkpt lat="47.79483" lon="-2.5855">
        <ele>95</ele>
        <time>2007-10-07T10:15:35Z</time>
      </trkpt>
      <trkpt lat="47.79486" lon="-2.58516">
        <ele>94</ele>
        <time>2007-10-07T10:15:43Z</time>
      </trkpt>
      <trkpt lat="47.79488" lon="-2.58475">
        <ele>94</ele>
        <time>2007-10-07T10:15:52Z</time>
      </trkpt>
      <trkpt lat="47.79492" lon="-2.58437">
        <ele>94</ele>
        <time>2007-10-07T10:16:00Z</time>
      </trkpt>
      <trkpt lat="47.79503" lon="-2.58431">
        <ele>93</ele>
        <time>2007-10-07T10:16:04Z</time>
      </trkpt>
      <trkpt lat="47.79506" lon="-2.58432">
        <ele>93</ele>
        <time>2007-10-07T10:16:05Z</time>
      </trkpt>
      <trkpt lat="47.7952" lon="-2.58435">
        <ele>93</ele>
        <time>2007-10-07T10:16:09Z</time>
      </trkpt>
      <trkpt lat="47.79537" lon="-2.58426">
        <ele>92</ele>
        <time>2007-10-07T10:16:14Z</time>
      </trkpt>
      <trkpt lat="47.79541" lon="-2.58427">
        <ele>92</ele>
        <time>2007-10-07T10:16:15Z</time>
      </trkpt>
      <trkpt lat="47.79572" lon="-2.58433">
        <ele>90</ele>
        <time>2007-10-07T10:16:23Z</time>
      </trkpt>
      <trkpt lat="47.79579" lon="-2.58433">
        <ele>90</ele>
        <time>2007-10-07T10:16:25Z</time>
      </trkpt>
      <trkpt lat="47.7958" lon="-2.58419">
        <ele>90</ele>
        <time>2007-10-07T10:16:29Z</time>
      </trkpt>
      <trkpt lat="47.79577" lon="-2.58418">
        <ele>90</ele>
        <time>2007-10-07T10:16:30Z</time>
      </trkpt>
      <trkpt lat="47.7956" lon="-2.58417">
        <ele>91</ele>
        <time>2007-10-07T10:16:36Z</time>
      </trkpt>
      <trkpt lat="47.79537" lon="-2.58415">
        <ele>92</ele>
        <time>2007-10-07T10:16:44Z</time>
      </trkpt>
      <trkpt lat="47.79518" lon="-2.58415">
        <ele>92</ele>
        <time>2007-10-07T10:16:50Z</time>
      </trkpt>
      <trkpt lat="47.79495" lon="-2.58414">
        <ele>92</ele>
        <time>2007-10-07T10:16:59Z</time>
      </trkpt>
      <trkpt lat="47.79482" lon="-2.58413">
        <ele>93</ele>
        <time>2007-10-07T10:17:05Z</time>
      </trkpt>
      <trkpt lat="47.79476" lon="-2.58414">
        <ele>94</ele>
        <time>2007-10-07T10:17:10Z</time>
      </trkpt>
      <trkpt lat="47.79475" lon="-2.58413">
        <ele>93</ele>
        <time>2007-10-07T10:17:11Z</time>
      </trkpt>
      <trkpt lat="47.79471" lon="-2.58408">
        <ele>94</ele>
        <time>2007-10-07T10:17:18Z</time>
      </trkpt>
      <trkpt lat="47.79471" lon="-2.58406">
        <ele>93</ele>
        <time>2007-10-07T10:17:28Z</time>
      </trkpt>
      <trkpt lat="47.79472" lon="-2.58406">
        <ele>94</ele>
        <time>2007-10-07T10:17:29Z</time>
      </trkpt>
    </trkseg>
  </trk>
</gpx>